<?xml version="1.0" encoding="UTF-8" standalone="no" ?>
<gpx xmlns="http://www.topografix.com/GPX/1/1" xmlns:xsi="http://www.w3.org/2001/XMLSchema-instance" xsi:schemaLocation="http://www.topografix.com/GPX/1/1 http://www.topografix.com/GPX/1/1/gpx.xsd" version="1.1" creator="VisuGPX - https://www.visugpx.com">
  <metadata>
    <name>COL DE BALME (ARAVIS</name>
    <desc><![CDATA[Secteur Balme les Aravis montée par les pistes]]></desc>
  </metadata>
  <trk>
    <name><![CDATA[1- COL DE BALME (ARAVIS)2017-11-18-01]]></name>
    <trkseg>
      <trkpt lat="45.91085" lon="6.46591">
        <ele>1301.1</ele>
        <time>2017-11-18T07:46:14Z</time>
      </trkpt>
      <trkpt lat="45.91085" lon="6.46591">
        <ele>1301.1</ele>
        <time>2017-11-18T07:46:15Z</time>
      </trkpt>
      <trkpt lat="45.91085" lon="6.46591">
        <ele>1301.1</ele>
        <time>2017-11-18T07:46:20Z</time>
      </trkpt>
      <trkpt lat="45.91086" lon="6.46591">
        <ele>1301.3</ele>
        <time>2017-11-18T07:46:25Z</time>
      </trkpt>
      <trkpt lat="45.91085" lon="6.46592">
        <ele>1301</ele>
        <time>2017-11-18T07:46:30Z</time>
      </trkpt>
      <trkpt lat="45.91086" lon="6.46591">
        <ele>1300.7</ele>
        <time>2017-11-18T07:46:35Z</time>
      </trkpt>
      <trkpt lat="45.91086" lon="6.46591">
        <ele>1300.7</ele>
        <time>2017-11-18T07:46:40Z</time>
      </trkpt>
      <trkpt lat="45.91086" lon="6.46591">
        <ele>1300.7</ele>
        <time>2017-11-18T07:46:45Z</time>
      </trkpt>
      <trkpt lat="45.91086" lon="6.46591">
        <ele>1300.9</ele>
        <time>2017-11-18T07:46:50Z</time>
      </trkpt>
      <trkpt lat="45.91086" lon="6.46591">
        <ele>1300.9</ele>
        <time>2017-11-18T07:46:55Z</time>
      </trkpt>
      <trkpt lat="45.91086" lon="6.46591">
        <ele>1300.9</ele>
        <time>2017-11-18T07:47:00Z</time>
      </trkpt>
      <trkpt lat="45.91086" lon="6.46591">
        <ele>1300.6</ele>
        <time>2017-11-18T07:47:05Z</time>
      </trkpt>
      <trkpt lat="45.91086" lon="6.46591">
        <ele>1301</ele>
        <time>2017-11-18T07:47:10Z</time>
      </trkpt>
      <trkpt lat="45.91086" lon="6.46591">
        <ele>1301</ele>
        <time>2017-11-18T07:47:15Z</time>
      </trkpt>
      <trkpt lat="45.91086" lon="6.46591">
        <ele>1300.8</ele>
        <time>2017-11-18T07:47:20Z</time>
      </trkpt>
      <trkpt lat="45.91086" lon="6.46591">
        <ele>1300.8</ele>
        <time>2017-11-18T07:47:25Z</time>
      </trkpt>
      <trkpt lat="45.91086" lon="6.46591">
        <ele>1300.8</ele>
        <time>2017-11-18T07:47:30Z</time>
      </trkpt>
      <trkpt lat="45.91086" lon="6.46591">
        <ele>1301.1</ele>
        <time>2017-11-18T07:47:35Z</time>
      </trkpt>
      <trkpt lat="45.91086" lon="6.46591">
        <ele>1301.1</ele>
        <time>2017-11-18T07:47:40Z</time>
      </trkpt>
      <trkpt lat="45.91086" lon="6.4659">
        <ele>1300.8</ele>
        <time>2017-11-18T07:47:45Z</time>
      </trkpt>
      <trkpt lat="45.91086" lon="6.4659">
        <ele>1300.9</ele>
        <time>2017-11-18T07:47:50Z</time>
      </trkpt>
      <trkpt lat="45.91086" lon="6.4659">
        <ele>1300.7</ele>
        <time>2017-11-18T07:47:55Z</time>
      </trkpt>
      <trkpt lat="45.91086" lon="6.4659">
        <ele>1300.8</ele>
        <time>2017-11-18T07:48:00Z</time>
      </trkpt>
      <trkpt lat="45.91086" lon="6.4659">
        <ele>1301.1</ele>
        <time>2017-11-18T07:48:05Z</time>
      </trkpt>
      <trkpt lat="45.91086" lon="6.46591">
        <ele>1301.6</ele>
        <time>2017-11-18T07:48:10Z</time>
      </trkpt>
      <trkpt lat="45.91086" lon="6.46591">
        <ele>1301.7</ele>
        <time>2017-11-18T07:48:15Z</time>
      </trkpt>
      <trkpt lat="45.91086" lon="6.46591">
        <ele>1301.6</ele>
        <time>2017-11-18T07:48:20Z</time>
      </trkpt>
      <trkpt lat="45.91084" lon="6.46596">
        <ele>1302.1</ele>
        <time>2017-11-18T07:48:25Z</time>
      </trkpt>
      <trkpt lat="45.91082" lon="6.46606">
        <ele>1302</ele>
        <time>2017-11-18T07:48:30Z</time>
      </trkpt>
      <trkpt lat="45.91081" lon="6.46616">
        <ele>1302.5</ele>
        <time>2017-11-18T07:48:35Z</time>
      </trkpt>
      <trkpt lat="45.9108" lon="6.46626">
        <ele>1302.7</ele>
        <time>2017-11-18T07:48:40Z</time>
      </trkpt>
      <trkpt lat="45.91079" lon="6.46635">
        <ele>1302.8</ele>
        <time>2017-11-18T07:48:45Z</time>
      </trkpt>
      <trkpt lat="45.91077" lon="6.46644">
        <ele>1303</ele>
        <time>2017-11-18T07:48:50Z</time>
      </trkpt>
      <trkpt lat="45.91075" lon="6.46654">
        <ele>1303</ele>
        <time>2017-11-18T07:48:55Z</time>
      </trkpt>
      <trkpt lat="45.91073" lon="6.46663">
        <ele>1303.1</ele>
        <time>2017-11-18T07:49:00Z</time>
      </trkpt>
      <trkpt lat="45.9107" lon="6.46672">
        <ele>1303.3</ele>
        <time>2017-11-18T07:49:05Z</time>
      </trkpt>
      <trkpt lat="45.91067" lon="6.46682">
        <ele>1303.5</ele>
        <time>2017-11-18T07:49:10Z</time>
      </trkpt>
      <trkpt lat="45.91064" lon="6.46691">
        <ele>1303.8</ele>
        <time>2017-11-18T07:49:15Z</time>
      </trkpt>
      <trkpt lat="45.91061" lon="6.46701">
        <ele>1303.7</ele>
        <time>2017-11-18T07:49:20Z</time>
      </trkpt>
      <trkpt lat="45.9106" lon="6.46712">
        <ele>1303.7</ele>
        <time>2017-11-18T07:49:25Z</time>
      </trkpt>
      <trkpt lat="45.91059" lon="6.46721">
        <ele>1303.4</ele>
        <time>2017-11-18T07:49:30Z</time>
      </trkpt>
      <trkpt lat="45.91056" lon="6.4673">
        <ele>1303.4</ele>
        <time>2017-11-18T07:49:35Z</time>
      </trkpt>
      <trkpt lat="45.91053" lon="6.46738">
        <ele>1303</ele>
        <time>2017-11-18T07:49:40Z</time>
      </trkpt>
      <trkpt lat="45.91053" lon="6.46739">
        <ele>1303.2</ele>
        <time>2017-11-18T07:49:45Z</time>
      </trkpt>
      <trkpt lat="45.91053" lon="6.4674">
        <ele>1303.1</ele>
        <time>2017-11-18T07:49:50Z</time>
      </trkpt>
      <trkpt lat="45.91054" lon="6.4674">
        <ele>1303.2</ele>
        <time>2017-11-18T07:49:55Z</time>
      </trkpt>
      <trkpt lat="45.91054" lon="6.46741">
        <ele>1303</ele>
        <time>2017-11-18T07:50:00Z</time>
      </trkpt>
      <trkpt lat="45.91053" lon="6.46745">
        <ele>1303.6</ele>
        <time>2017-11-18T07:50:05Z</time>
      </trkpt>
      <trkpt lat="45.91052" lon="6.46752">
        <ele>1303.9</ele>
        <time>2017-11-18T07:50:10Z</time>
      </trkpt>
      <trkpt lat="45.91051" lon="6.4676">
        <ele>1304.4</ele>
        <time>2017-11-18T07:50:15Z</time>
      </trkpt>
      <trkpt lat="45.91049" lon="6.46766">
        <ele>1304.9</ele>
        <time>2017-11-18T07:50:20Z</time>
      </trkpt>
      <trkpt lat="45.91047" lon="6.46772">
        <ele>1305.5</ele>
        <time>2017-11-18T07:50:25Z</time>
      </trkpt>
      <trkpt lat="45.91046" lon="6.4678">
        <ele>1305.9</ele>
        <time>2017-11-18T07:50:30Z</time>
      </trkpt>
      <trkpt lat="45.91044" lon="6.46787">
        <ele>1306.4</ele>
        <time>2017-11-18T07:50:35Z</time>
      </trkpt>
      <trkpt lat="45.91041" lon="6.46794">
        <ele>1306.8</ele>
        <time>2017-11-18T07:50:40Z</time>
      </trkpt>
      <trkpt lat="45.91038" lon="6.46803">
        <ele>1306.9</ele>
        <time>2017-11-18T07:50:45Z</time>
      </trkpt>
      <trkpt lat="45.91036" lon="6.46811">
        <ele>1307.3</ele>
        <time>2017-11-18T07:50:50Z</time>
      </trkpt>
      <trkpt lat="45.91033" lon="6.46819">
        <ele>1307.4</ele>
        <time>2017-11-18T07:50:55Z</time>
      </trkpt>
      <trkpt lat="45.91031" lon="6.46827">
        <ele>1307.5</ele>
        <time>2017-11-18T07:51:00Z</time>
      </trkpt>
      <trkpt lat="45.91029" lon="6.46835">
        <ele>1307.7</ele>
        <time>2017-11-18T07:51:05Z</time>
      </trkpt>
      <trkpt lat="45.91027" lon="6.46844">
        <ele>1308</ele>
        <time>2017-11-18T07:51:10Z</time>
      </trkpt>
      <trkpt lat="45.91025" lon="6.46853">
        <ele>1308.1</ele>
        <time>2017-11-18T07:51:15Z</time>
      </trkpt>
      <trkpt lat="45.91023" lon="6.4686">
        <ele>1308.5</ele>
        <time>2017-11-18T07:51:20Z</time>
      </trkpt>
      <trkpt lat="45.91021" lon="6.46868">
        <ele>1308.9</ele>
        <time>2017-11-18T07:51:25Z</time>
      </trkpt>
      <trkpt lat="45.91019" lon="6.46874">
        <ele>1309.7</ele>
        <time>2017-11-18T07:51:30Z</time>
      </trkpt>
      <trkpt lat="45.91017" lon="6.46881">
        <ele>1310.7</ele>
        <time>2017-11-18T07:51:35Z</time>
      </trkpt>
      <trkpt lat="45.91016" lon="6.46887">
        <ele>1311.6</ele>
        <time>2017-11-18T07:51:40Z</time>
      </trkpt>
      <trkpt lat="45.91014" lon="6.46892">
        <ele>1312.8</ele>
        <time>2017-11-18T07:51:45Z</time>
      </trkpt>
      <trkpt lat="45.91012" lon="6.46897">
        <ele>1314.1</ele>
        <time>2017-11-18T07:51:50Z</time>
      </trkpt>
      <trkpt lat="45.91009" lon="6.46903">
        <ele>1315.6</ele>
        <time>2017-11-18T07:51:55Z</time>
      </trkpt>
      <trkpt lat="45.91007" lon="6.46908">
        <ele>1316.5</ele>
        <time>2017-11-18T07:52:00Z</time>
      </trkpt>
      <trkpt lat="45.91005" lon="6.46913">
        <ele>1317.6</ele>
        <time>2017-11-18T07:52:05Z</time>
      </trkpt>
      <trkpt lat="45.91003" lon="6.46919">
        <ele>1318.7</ele>
        <time>2017-11-18T07:52:10Z</time>
      </trkpt>
      <trkpt lat="45.91001" lon="6.46924">
        <ele>1319.6</ele>
        <time>2017-11-18T07:52:15Z</time>
      </trkpt>
      <trkpt lat="45.90999" lon="6.4693">
        <ele>1320.8</ele>
        <time>2017-11-18T07:52:20Z</time>
      </trkpt>
      <trkpt lat="45.90997" lon="6.46935">
        <ele>1321.9</ele>
        <time>2017-11-18T07:52:25Z</time>
      </trkpt>
      <trkpt lat="45.90994" lon="6.46939">
        <ele>1322.9</ele>
        <time>2017-11-18T07:52:30Z</time>
      </trkpt>
      <trkpt lat="45.90992" lon="6.46945">
        <ele>1324.2</ele>
        <time>2017-11-18T07:52:35Z</time>
      </trkpt>
      <trkpt lat="45.9099" lon="6.4695">
        <ele>1325.1</ele>
        <time>2017-11-18T07:52:40Z</time>
      </trkpt>
      <trkpt lat="45.90988" lon="6.46955">
        <ele>1326</ele>
        <time>2017-11-18T07:52:45Z</time>
      </trkpt>
      <trkpt lat="45.90985" lon="6.46961">
        <ele>1327</ele>
        <time>2017-11-18T07:52:50Z</time>
      </trkpt>
      <trkpt lat="45.90983" lon="6.46966">
        <ele>1328.1</ele>
        <time>2017-11-18T07:52:55Z</time>
      </trkpt>
      <trkpt lat="45.9098" lon="6.4697">
        <ele>1329.3</ele>
        <time>2017-11-18T07:53:00Z</time>
      </trkpt>
      <trkpt lat="45.90976" lon="6.46975">
        <ele>1330.6</ele>
        <time>2017-11-18T07:53:05Z</time>
      </trkpt>
      <trkpt lat="45.90973" lon="6.4698">
        <ele>1332</ele>
        <time>2017-11-18T07:53:10Z</time>
      </trkpt>
      <trkpt lat="45.90971" lon="6.46985">
        <ele>1333.1</ele>
        <time>2017-11-18T07:53:15Z</time>
      </trkpt>
      <trkpt lat="45.90968" lon="6.46991">
        <ele>1333.4</ele>
        <time>2017-11-18T07:53:20Z</time>
      </trkpt>
      <trkpt lat="45.90964" lon="6.46999">
        <ele>1333.2</ele>
        <time>2017-11-18T07:53:25Z</time>
      </trkpt>
      <trkpt lat="45.9096" lon="6.47006">
        <ele>1333.2</ele>
        <time>2017-11-18T07:53:30Z</time>
      </trkpt>
      <trkpt lat="45.90957" lon="6.47012">
        <ele>1333.1</ele>
        <time>2017-11-18T07:53:35Z</time>
      </trkpt>
      <trkpt lat="45.90953" lon="6.47017">
        <ele>1333.5</ele>
        <time>2017-11-18T07:53:40Z</time>
      </trkpt>
      <trkpt lat="45.9095" lon="6.47022">
        <ele>1333.8</ele>
        <time>2017-11-18T07:53:45Z</time>
      </trkpt>
      <trkpt lat="45.90946" lon="6.47026">
        <ele>1334</ele>
        <time>2017-11-18T07:53:50Z</time>
      </trkpt>
      <trkpt lat="45.90942" lon="6.47032">
        <ele>1334.6</ele>
        <time>2017-11-18T07:53:55Z</time>
      </trkpt>
      <trkpt lat="45.90939" lon="6.47036">
        <ele>1335.2</ele>
        <time>2017-11-18T07:54:00Z</time>
      </trkpt>
      <trkpt lat="45.90936" lon="6.47041">
        <ele>1335.7</ele>
        <time>2017-11-18T07:54:05Z</time>
      </trkpt>
      <trkpt lat="45.90932" lon="6.47046">
        <ele>1336.2</ele>
        <time>2017-11-18T07:54:10Z</time>
      </trkpt>
      <trkpt lat="45.90929" lon="6.47052">
        <ele>1336.7</ele>
        <time>2017-11-18T07:54:15Z</time>
      </trkpt>
      <trkpt lat="45.90924" lon="6.47057">
        <ele>1336.8</ele>
        <time>2017-11-18T07:54:20Z</time>
      </trkpt>
      <trkpt lat="45.9092" lon="6.47062">
        <ele>1337.3</ele>
        <time>2017-11-18T07:54:25Z</time>
      </trkpt>
      <trkpt lat="45.90916" lon="6.47068">
        <ele>1337.7</ele>
        <time>2017-11-18T07:54:30Z</time>
      </trkpt>
      <trkpt lat="45.90913" lon="6.47074">
        <ele>1338.5</ele>
        <time>2017-11-18T07:54:35Z</time>
      </trkpt>
      <trkpt lat="45.90909" lon="6.4708">
        <ele>1338.9</ele>
        <time>2017-11-18T07:54:40Z</time>
      </trkpt>
      <trkpt lat="45.90905" lon="6.47086">
        <ele>1339.3</ele>
        <time>2017-11-18T07:54:45Z</time>
      </trkpt>
      <trkpt lat="45.90902" lon="6.47091">
        <ele>1339.8</ele>
        <time>2017-11-18T07:54:50Z</time>
      </trkpt>
      <trkpt lat="45.90898" lon="6.47096">
        <ele>1340.7</ele>
        <time>2017-11-18T07:54:55Z</time>
      </trkpt>
      <trkpt lat="45.90894" lon="6.47101">
        <ele>1341.5</ele>
        <time>2017-11-18T07:55:00Z</time>
      </trkpt>
      <trkpt lat="45.90889" lon="6.47105">
        <ele>1342.2</ele>
        <time>2017-11-18T07:55:05Z</time>
      </trkpt>
      <trkpt lat="45.90885" lon="6.4711">
        <ele>1342.7</ele>
        <time>2017-11-18T07:55:10Z</time>
      </trkpt>
      <trkpt lat="45.90881" lon="6.47115">
        <ele>1343.7</ele>
        <time>2017-11-18T07:55:15Z</time>
      </trkpt>
      <trkpt lat="45.90878" lon="6.4712">
        <ele>1344.2</ele>
        <time>2017-11-18T07:55:20Z</time>
      </trkpt>
      <trkpt lat="45.90875" lon="6.47125">
        <ele>1345.3</ele>
        <time>2017-11-18T07:55:25Z</time>
      </trkpt>
      <trkpt lat="45.90871" lon="6.47129">
        <ele>1345.9</ele>
        <time>2017-11-18T07:55:30Z</time>
      </trkpt>
      <trkpt lat="45.90868" lon="6.47134">
        <ele>1346.6</ele>
        <time>2017-11-18T07:55:35Z</time>
      </trkpt>
      <trkpt lat="45.90864" lon="6.47139">
        <ele>1347.3</ele>
        <time>2017-11-18T07:55:40Z</time>
      </trkpt>
      <trkpt lat="45.90861" lon="6.47144">
        <ele>1348.3</ele>
        <time>2017-11-18T07:55:45Z</time>
      </trkpt>
      <trkpt lat="45.90857" lon="6.47148">
        <ele>1349</ele>
        <time>2017-11-18T07:55:50Z</time>
      </trkpt>
      <trkpt lat="45.90853" lon="6.47153">
        <ele>1349.5</ele>
        <time>2017-11-18T07:55:55Z</time>
      </trkpt>
      <trkpt lat="45.90849" lon="6.47158">
        <ele>1350.3</ele>
        <time>2017-11-18T07:56:00Z</time>
      </trkpt>
      <trkpt lat="45.90845" lon="6.47163">
        <ele>1351</ele>
        <time>2017-11-18T07:56:05Z</time>
      </trkpt>
      <trkpt lat="45.90841" lon="6.47167">
        <ele>1351.8</ele>
        <time>2017-11-18T07:56:10Z</time>
      </trkpt>
      <trkpt lat="45.90837" lon="6.47172">
        <ele>1352.6</ele>
        <time>2017-11-18T07:56:15Z</time>
      </trkpt>
      <trkpt lat="45.90833" lon="6.47176">
        <ele>1353.2</ele>
        <time>2017-11-18T07:56:20Z</time>
      </trkpt>
      <trkpt lat="45.90829" lon="6.4718">
        <ele>1353.9</ele>
        <time>2017-11-18T07:56:25Z</time>
      </trkpt>
      <trkpt lat="45.90826" lon="6.47185">
        <ele>1354.6</ele>
        <time>2017-11-18T07:56:30Z</time>
      </trkpt>
      <trkpt lat="45.90822" lon="6.47189">
        <ele>1355.7</ele>
        <time>2017-11-18T07:56:35Z</time>
      </trkpt>
      <trkpt lat="45.90818" lon="6.47193">
        <ele>1356.4</ele>
        <time>2017-11-18T07:56:40Z</time>
      </trkpt>
      <trkpt lat="45.90815" lon="6.47197">
        <ele>1357.3</ele>
        <time>2017-11-18T07:56:45Z</time>
      </trkpt>
      <trkpt lat="45.90813" lon="6.47199">
        <ele>1357.7</ele>
        <time>2017-11-18T07:56:50Z</time>
      </trkpt>
      <trkpt lat="45.90812" lon="6.472">
        <ele>1358.7</ele>
        <time>2017-11-18T07:56:55Z</time>
      </trkpt>
      <trkpt lat="45.90809" lon="6.47203">
        <ele>1359.8</ele>
        <time>2017-11-18T07:57:00Z</time>
      </trkpt>
      <trkpt lat="45.90806" lon="6.47207">
        <ele>1360.9</ele>
        <time>2017-11-18T07:57:05Z</time>
      </trkpt>
      <trkpt lat="45.90802" lon="6.47209">
        <ele>1362</ele>
        <time>2017-11-18T07:57:10Z</time>
      </trkpt>
      <trkpt lat="45.908" lon="6.47213">
        <ele>1363.2</ele>
        <time>2017-11-18T07:57:15Z</time>
      </trkpt>
      <trkpt lat="45.90797" lon="6.47217">
        <ele>1364.7</ele>
        <time>2017-11-18T07:57:20Z</time>
      </trkpt>
      <trkpt lat="45.90795" lon="6.47221">
        <ele>1365.9</ele>
        <time>2017-11-18T07:57:25Z</time>
      </trkpt>
      <trkpt lat="45.90792" lon="6.47224">
        <ele>1366.8</ele>
        <time>2017-11-18T07:57:30Z</time>
      </trkpt>
      <trkpt lat="45.90789" lon="6.47227">
        <ele>1368.4</ele>
        <time>2017-11-18T07:57:35Z</time>
      </trkpt>
      <trkpt lat="45.90786" lon="6.4723">
        <ele>1369.6</ele>
        <time>2017-11-18T07:57:40Z</time>
      </trkpt>
      <trkpt lat="45.90783" lon="6.47233">
        <ele>1370.7</ele>
        <time>2017-11-18T07:57:45Z</time>
      </trkpt>
      <trkpt lat="45.9078" lon="6.47237">
        <ele>1372</ele>
        <time>2017-11-18T07:57:50Z</time>
      </trkpt>
      <trkpt lat="45.90777" lon="6.4724">
        <ele>1373.4</ele>
        <time>2017-11-18T07:57:55Z</time>
      </trkpt>
      <trkpt lat="45.90774" lon="6.47242">
        <ele>1374.7</ele>
        <time>2017-11-18T07:58:00Z</time>
      </trkpt>
      <trkpt lat="45.90772" lon="6.47244">
        <ele>1375.9</ele>
        <time>2017-11-18T07:58:05Z</time>
      </trkpt>
      <trkpt lat="45.90769" lon="6.47246">
        <ele>1377.4</ele>
        <time>2017-11-18T07:58:10Z</time>
      </trkpt>
      <trkpt lat="45.90766" lon="6.47247">
        <ele>1378.6</ele>
        <time>2017-11-18T07:58:15Z</time>
      </trkpt>
      <trkpt lat="45.90764" lon="6.47251">
        <ele>1379.7</ele>
        <time>2017-11-18T07:58:20Z</time>
      </trkpt>
      <trkpt lat="45.90763" lon="6.47256">
        <ele>1380.8</ele>
        <time>2017-11-18T07:58:25Z</time>
      </trkpt>
      <trkpt lat="45.90762" lon="6.47259">
        <ele>1382</ele>
        <time>2017-11-18T07:58:30Z</time>
      </trkpt>
      <trkpt lat="45.90758" lon="6.47259">
        <ele>1383.4</ele>
        <time>2017-11-18T07:58:35Z</time>
      </trkpt>
      <trkpt lat="45.90755" lon="6.47257">
        <ele>1384.5</ele>
        <time>2017-11-18T07:58:40Z</time>
      </trkpt>
      <trkpt lat="45.90752" lon="6.47255">
        <ele>1385.6</ele>
        <time>2017-11-18T07:58:45Z</time>
      </trkpt>
      <trkpt lat="45.90748" lon="6.47254">
        <ele>1386.4</ele>
        <time>2017-11-18T07:58:50Z</time>
      </trkpt>
      <trkpt lat="45.90745" lon="6.47253">
        <ele>1387.4</ele>
        <time>2017-11-18T07:58:55Z</time>
      </trkpt>
      <trkpt lat="45.90742" lon="6.47251">
        <ele>1388.6</ele>
        <time>2017-11-18T07:59:00Z</time>
      </trkpt>
      <trkpt lat="45.90739" lon="6.47248">
        <ele>1389.9</ele>
        <time>2017-11-18T07:59:05Z</time>
      </trkpt>
      <trkpt lat="45.90736" lon="6.47245">
        <ele>1390.8</ele>
        <time>2017-11-18T07:59:10Z</time>
      </trkpt>
      <trkpt lat="45.90733" lon="6.47241">
        <ele>1392</ele>
        <time>2017-11-18T07:59:15Z</time>
      </trkpt>
      <trkpt lat="45.90731" lon="6.47238">
        <ele>1393.1</ele>
        <time>2017-11-18T07:59:20Z</time>
      </trkpt>
      <trkpt lat="45.90728" lon="6.47235">
        <ele>1394.1</ele>
        <time>2017-11-18T07:59:25Z</time>
      </trkpt>
      <trkpt lat="45.90727" lon="6.47231">
        <ele>1395.2</ele>
        <time>2017-11-18T07:59:30Z</time>
      </trkpt>
      <trkpt lat="45.90725" lon="6.47227">
        <ele>1396.1</ele>
        <time>2017-11-18T07:59:35Z</time>
      </trkpt>
      <trkpt lat="45.90724" lon="6.47222">
        <ele>1397</ele>
        <time>2017-11-18T07:59:40Z</time>
      </trkpt>
      <trkpt lat="45.90723" lon="6.47216">
        <ele>1397.4</ele>
        <time>2017-11-18T07:59:45Z</time>
      </trkpt>
      <trkpt lat="45.90723" lon="6.4721">
        <ele>1398</ele>
        <time>2017-11-18T07:59:50Z</time>
      </trkpt>
      <trkpt lat="45.90723" lon="6.47204">
        <ele>1398.5</ele>
        <time>2017-11-18T07:59:55Z</time>
      </trkpt>
      <trkpt lat="45.90723" lon="6.47198">
        <ele>1399.2</ele>
        <time>2017-11-18T08:00:00Z</time>
      </trkpt>
      <trkpt lat="45.90723" lon="6.47192">
        <ele>1399.9</ele>
        <time>2017-11-18T08:00:05Z</time>
      </trkpt>
      <trkpt lat="45.90723" lon="6.47187">
        <ele>1400.9</ele>
        <time>2017-11-18T08:00:10Z</time>
      </trkpt>
      <trkpt lat="45.90722" lon="6.47182">
        <ele>1401.7</ele>
        <time>2017-11-18T08:00:15Z</time>
      </trkpt>
      <trkpt lat="45.90721" lon="6.47177">
        <ele>1402.4</ele>
        <time>2017-11-18T08:00:20Z</time>
      </trkpt>
      <trkpt lat="45.90719" lon="6.47171">
        <ele>1403</ele>
        <time>2017-11-18T08:00:25Z</time>
      </trkpt>
      <trkpt lat="45.90717" lon="6.47165">
        <ele>1404.2</ele>
        <time>2017-11-18T08:00:30Z</time>
      </trkpt>
      <trkpt lat="45.90715" lon="6.4716">
        <ele>1404.9</ele>
        <time>2017-11-18T08:00:35Z</time>
      </trkpt>
      <trkpt lat="45.90713" lon="6.47154">
        <ele>1405.5</ele>
        <time>2017-11-18T08:00:40Z</time>
      </trkpt>
      <trkpt lat="45.9071" lon="6.4715">
        <ele>1406.2</ele>
        <time>2017-11-18T08:00:45Z</time>
      </trkpt>
      <trkpt lat="45.90708" lon="6.47146">
        <ele>1407.2</ele>
        <time>2017-11-18T08:00:50Z</time>
      </trkpt>
      <trkpt lat="45.90705" lon="6.47141">
        <ele>1408</ele>
        <time>2017-11-18T08:00:55Z</time>
      </trkpt>
      <trkpt lat="45.90703" lon="6.47136">
        <ele>1408.9</ele>
        <time>2017-11-18T08:01:00Z</time>
      </trkpt>
      <trkpt lat="45.90699" lon="6.47131">
        <ele>1409.5</ele>
        <time>2017-11-18T08:01:05Z</time>
      </trkpt>
      <trkpt lat="45.90695" lon="6.47126">
        <ele>1410.4</ele>
        <time>2017-11-18T08:01:10Z</time>
      </trkpt>
      <trkpt lat="45.90692" lon="6.47123">
        <ele>1411</ele>
        <time>2017-11-18T08:01:15Z</time>
      </trkpt>
      <trkpt lat="45.90688" lon="6.4712">
        <ele>1411.7</ele>
        <time>2017-11-18T08:01:20Z</time>
      </trkpt>
      <trkpt lat="45.90684" lon="6.47118">
        <ele>1412.3</ele>
        <time>2017-11-18T08:01:25Z</time>
      </trkpt>
      <trkpt lat="45.90681" lon="6.47117">
        <ele>1413</ele>
        <time>2017-11-18T08:01:30Z</time>
      </trkpt>
      <trkpt lat="45.90677" lon="6.47117">
        <ele>1413.7</ele>
        <time>2017-11-18T08:01:35Z</time>
      </trkpt>
      <trkpt lat="45.90674" lon="6.47115">
        <ele>1414.3</ele>
        <time>2017-11-18T08:01:40Z</time>
      </trkpt>
      <trkpt lat="45.9067" lon="6.47111">
        <ele>1414.8</ele>
        <time>2017-11-18T08:01:45Z</time>
      </trkpt>
      <trkpt lat="45.90666" lon="6.47108">
        <ele>1415.2</ele>
        <time>2017-11-18T08:01:50Z</time>
      </trkpt>
      <trkpt lat="45.90662" lon="6.47105">
        <ele>1415.6</ele>
        <time>2017-11-18T08:01:55Z</time>
      </trkpt>
      <trkpt lat="45.90657" lon="6.47102">
        <ele>1416.3</ele>
        <time>2017-11-18T08:02:00Z</time>
      </trkpt>
      <trkpt lat="45.90653" lon="6.47102">
        <ele>1416.8</ele>
        <time>2017-11-18T08:02:05Z</time>
      </trkpt>
      <trkpt lat="45.90648" lon="6.47101">
        <ele>1417.3</ele>
        <time>2017-11-18T08:02:10Z</time>
      </trkpt>
      <trkpt lat="45.90644" lon="6.47101">
        <ele>1417.6</ele>
        <time>2017-11-18T08:02:15Z</time>
      </trkpt>
      <trkpt lat="45.90639" lon="6.47102">
        <ele>1418.1</ele>
        <time>2017-11-18T08:02:20Z</time>
      </trkpt>
      <trkpt lat="45.90635" lon="6.47101">
        <ele>1418.6</ele>
        <time>2017-11-18T08:02:25Z</time>
      </trkpt>
      <trkpt lat="45.90631" lon="6.47101">
        <ele>1419.2</ele>
        <time>2017-11-18T08:02:30Z</time>
      </trkpt>
      <trkpt lat="45.90626" lon="6.47101">
        <ele>1419.7</ele>
        <time>2017-11-18T08:02:35Z</time>
      </trkpt>
      <trkpt lat="45.90623" lon="6.47102">
        <ele>1420.6</ele>
        <time>2017-11-18T08:02:40Z</time>
      </trkpt>
      <trkpt lat="45.90619" lon="6.47104">
        <ele>1421.4</ele>
        <time>2017-11-18T08:02:45Z</time>
      </trkpt>
      <trkpt lat="45.90616" lon="6.47105">
        <ele>1421.8</ele>
        <time>2017-11-18T08:02:50Z</time>
      </trkpt>
      <trkpt lat="45.90612" lon="6.47106">
        <ele>1422.6</ele>
        <time>2017-11-18T08:02:55Z</time>
      </trkpt>
      <trkpt lat="45.90608" lon="6.47107">
        <ele>1423.3</ele>
        <time>2017-11-18T08:03:00Z</time>
      </trkpt>
      <trkpt lat="45.90604" lon="6.47109">
        <ele>1424</ele>
        <time>2017-11-18T08:03:05Z</time>
      </trkpt>
      <trkpt lat="45.906" lon="6.47111">
        <ele>1424.4</ele>
        <time>2017-11-18T08:03:10Z</time>
      </trkpt>
      <trkpt lat="45.90596" lon="6.47113">
        <ele>1425.2</ele>
        <time>2017-11-18T08:03:15Z</time>
      </trkpt>
      <trkpt lat="45.90592" lon="6.47115">
        <ele>1426.2</ele>
        <time>2017-11-18T08:03:20Z</time>
      </trkpt>
      <trkpt lat="45.90588" lon="6.47117">
        <ele>1426.8</ele>
        <time>2017-11-18T08:03:25Z</time>
      </trkpt>
      <trkpt lat="45.90584" lon="6.47119">
        <ele>1427.4</ele>
        <time>2017-11-18T08:03:30Z</time>
      </trkpt>
      <trkpt lat="45.9058" lon="6.47122">
        <ele>1428.2</ele>
        <time>2017-11-18T08:03:35Z</time>
      </trkpt>
      <trkpt lat="45.90577" lon="6.47124">
        <ele>1428.8</ele>
        <time>2017-11-18T08:03:40Z</time>
      </trkpt>
      <trkpt lat="45.90573" lon="6.47126">
        <ele>1429.6</ele>
        <time>2017-11-18T08:03:45Z</time>
      </trkpt>
      <trkpt lat="45.90569" lon="6.47128">
        <ele>1430.4</ele>
        <time>2017-11-18T08:03:50Z</time>
      </trkpt>
      <trkpt lat="45.90565" lon="6.4713">
        <ele>1431.2</ele>
        <time>2017-11-18T08:03:55Z</time>
      </trkpt>
      <trkpt lat="45.90562" lon="6.47132">
        <ele>1432.1</ele>
        <time>2017-11-18T08:04:00Z</time>
      </trkpt>
      <trkpt lat="45.90558" lon="6.47133">
        <ele>1432.9</ele>
        <time>2017-11-18T08:04:05Z</time>
      </trkpt>
      <trkpt lat="45.90555" lon="6.47134">
        <ele>1434</ele>
        <time>2017-11-18T08:04:10Z</time>
      </trkpt>
      <trkpt lat="45.90551" lon="6.47136">
        <ele>1434.9</ele>
        <time>2017-11-18T08:04:15Z</time>
      </trkpt>
      <trkpt lat="45.90548" lon="6.47137">
        <ele>1435.9</ele>
        <time>2017-11-18T08:04:20Z</time>
      </trkpt>
      <trkpt lat="45.90544" lon="6.4714">
        <ele>1437.2</ele>
        <time>2017-11-18T08:04:25Z</time>
      </trkpt>
      <trkpt lat="45.9054" lon="6.47141">
        <ele>1438.3</ele>
        <time>2017-11-18T08:04:30Z</time>
      </trkpt>
      <trkpt lat="45.90537" lon="6.47141">
        <ele>1439.1</ele>
        <time>2017-11-18T08:04:35Z</time>
      </trkpt>
      <trkpt lat="45.90533" lon="6.47141">
        <ele>1440.1</ele>
        <time>2017-11-18T08:04:40Z</time>
      </trkpt>
      <trkpt lat="45.90529" lon="6.47142">
        <ele>1441</ele>
        <time>2017-11-18T08:04:45Z</time>
      </trkpt>
      <trkpt lat="45.90526" lon="6.47144">
        <ele>1441.9</ele>
        <time>2017-11-18T08:04:50Z</time>
      </trkpt>
      <trkpt lat="45.90523" lon="6.47145">
        <ele>1442.8</ele>
        <time>2017-11-18T08:04:55Z</time>
      </trkpt>
      <trkpt lat="45.9052" lon="6.47147">
        <ele>1443.6</ele>
        <time>2017-11-18T08:05:00Z</time>
      </trkpt>
      <trkpt lat="45.90517" lon="6.47148">
        <ele>1444.4</ele>
        <time>2017-11-18T08:05:05Z</time>
      </trkpt>
      <trkpt lat="45.90513" lon="6.4715">
        <ele>1445.1</ele>
        <time>2017-11-18T08:05:10Z</time>
      </trkpt>
      <trkpt lat="45.9051" lon="6.47151">
        <ele>1446.2</ele>
        <time>2017-11-18T08:05:15Z</time>
      </trkpt>
      <trkpt lat="45.90506" lon="6.47153">
        <ele>1446.9</ele>
        <time>2017-11-18T08:05:20Z</time>
      </trkpt>
      <trkpt lat="45.90503" lon="6.47155">
        <ele>1447.7</ele>
        <time>2017-11-18T08:05:25Z</time>
      </trkpt>
      <trkpt lat="45.90499" lon="6.47157">
        <ele>1448.5</ele>
        <time>2017-11-18T08:05:30Z</time>
      </trkpt>
      <trkpt lat="45.90495" lon="6.47159">
        <ele>1449.3</ele>
        <time>2017-11-18T08:05:35Z</time>
      </trkpt>
      <trkpt lat="45.90492" lon="6.47161">
        <ele>1450.1</ele>
        <time>2017-11-18T08:05:40Z</time>
      </trkpt>
      <trkpt lat="45.90488" lon="6.47162">
        <ele>1451.1</ele>
        <time>2017-11-18T08:05:45Z</time>
      </trkpt>
      <trkpt lat="45.90484" lon="6.47163">
        <ele>1452.2</ele>
        <time>2017-11-18T08:05:50Z</time>
      </trkpt>
      <trkpt lat="45.9048" lon="6.47165">
        <ele>1453.2</ele>
        <time>2017-11-18T08:05:55Z</time>
      </trkpt>
      <trkpt lat="45.90477" lon="6.47168">
        <ele>1454</ele>
        <time>2017-11-18T08:06:00Z</time>
      </trkpt>
      <trkpt lat="45.90473" lon="6.47169">
        <ele>1455.1</ele>
        <time>2017-11-18T08:06:05Z</time>
      </trkpt>
      <trkpt lat="45.9047" lon="6.4717">
        <ele>1455.8</ele>
        <time>2017-11-18T08:06:10Z</time>
      </trkpt>
      <trkpt lat="45.90466" lon="6.47171">
        <ele>1456.6</ele>
        <time>2017-11-18T08:06:15Z</time>
      </trkpt>
      <trkpt lat="45.90463" lon="6.47172">
        <ele>1457.6</ele>
        <time>2017-11-18T08:06:20Z</time>
      </trkpt>
      <trkpt lat="45.90459" lon="6.47174">
        <ele>1458.6</ele>
        <time>2017-11-18T08:06:25Z</time>
      </trkpt>
      <trkpt lat="45.90456" lon="6.47176">
        <ele>1459.6</ele>
        <time>2017-11-18T08:06:30Z</time>
      </trkpt>
      <trkpt lat="45.90452" lon="6.47177">
        <ele>1460.6</ele>
        <time>2017-11-18T08:06:35Z</time>
      </trkpt>
      <trkpt lat="45.90449" lon="6.47178">
        <ele>1461.6</ele>
        <time>2017-11-18T08:06:40Z</time>
      </trkpt>
      <trkpt lat="45.90446" lon="6.4718">
        <ele>1462.9</ele>
        <time>2017-11-18T08:06:45Z</time>
      </trkpt>
      <trkpt lat="45.90443" lon="6.47181">
        <ele>1464.1</ele>
        <time>2017-11-18T08:06:50Z</time>
      </trkpt>
      <trkpt lat="45.9044" lon="6.47183">
        <ele>1465.2</ele>
        <time>2017-11-18T08:06:55Z</time>
      </trkpt>
      <trkpt lat="45.90437" lon="6.47184">
        <ele>1466.3</ele>
        <time>2017-11-18T08:07:00Z</time>
      </trkpt>
      <trkpt lat="45.90434" lon="6.47185">
        <ele>1467.4</ele>
        <time>2017-11-18T08:07:05Z</time>
      </trkpt>
      <trkpt lat="45.90431" lon="6.47186">
        <ele>1468.5</ele>
        <time>2017-11-18T08:07:10Z</time>
      </trkpt>
      <trkpt lat="45.90428" lon="6.47188">
        <ele>1469.6</ele>
        <time>2017-11-18T08:07:15Z</time>
      </trkpt>
      <trkpt lat="45.90425" lon="6.47191">
        <ele>1470.7</ele>
        <time>2017-11-18T08:07:20Z</time>
      </trkpt>
      <trkpt lat="45.90422" lon="6.47195">
        <ele>1471.9</ele>
        <time>2017-11-18T08:07:25Z</time>
      </trkpt>
      <trkpt lat="45.9042" lon="6.47199">
        <ele>1472.7</ele>
        <time>2017-11-18T08:07:30Z</time>
      </trkpt>
      <trkpt lat="45.90417" lon="6.47203">
        <ele>1474.3</ele>
        <time>2017-11-18T08:07:35Z</time>
      </trkpt>
      <trkpt lat="45.90414" lon="6.47207">
        <ele>1475.4</ele>
        <time>2017-11-18T08:07:40Z</time>
      </trkpt>
      <trkpt lat="45.90412" lon="6.47211">
        <ele>1476.6</ele>
        <time>2017-11-18T08:07:45Z</time>
      </trkpt>
      <trkpt lat="45.9041" lon="6.47214">
        <ele>1478.1</ele>
        <time>2017-11-18T08:07:50Z</time>
      </trkpt>
      <trkpt lat="45.90408" lon="6.47218">
        <ele>1479.3</ele>
        <time>2017-11-18T08:07:55Z</time>
      </trkpt>
      <trkpt lat="45.90407" lon="6.47222">
        <ele>1480.5</ele>
        <time>2017-11-18T08:08:00Z</time>
      </trkpt>
      <trkpt lat="45.90406" lon="6.47227">
        <ele>1481.8</ele>
        <time>2017-11-18T08:08:05Z</time>
      </trkpt>
      <trkpt lat="45.90406" lon="6.47232">
        <ele>1482.8</ele>
        <time>2017-11-18T08:08:10Z</time>
      </trkpt>
      <trkpt lat="45.90407" lon="6.47236">
        <ele>1483.8</ele>
        <time>2017-11-18T08:08:15Z</time>
      </trkpt>
      <trkpt lat="45.90408" lon="6.47241">
        <ele>1484.9</ele>
        <time>2017-11-18T08:08:20Z</time>
      </trkpt>
      <trkpt lat="45.90409" lon="6.47246">
        <ele>1485.7</ele>
        <time>2017-11-18T08:08:25Z</time>
      </trkpt>
      <trkpt lat="45.9041" lon="6.47251">
        <ele>1486.7</ele>
        <time>2017-11-18T08:08:30Z</time>
      </trkpt>
      <trkpt lat="45.90412" lon="6.47255">
        <ele>1487.6</ele>
        <time>2017-11-18T08:08:35Z</time>
      </trkpt>
      <trkpt lat="45.90414" lon="6.47259">
        <ele>1488.6</ele>
        <time>2017-11-18T08:08:40Z</time>
      </trkpt>
      <trkpt lat="45.90415" lon="6.47262">
        <ele>1489.4</ele>
        <time>2017-11-18T08:08:45Z</time>
      </trkpt>
      <trkpt lat="45.90418" lon="6.47265">
        <ele>1490.5</ele>
        <time>2017-11-18T08:08:50Z</time>
      </trkpt>
      <trkpt lat="45.9042" lon="6.47268">
        <ele>1491.7</ele>
        <time>2017-11-18T08:08:55Z</time>
      </trkpt>
      <trkpt lat="45.90422" lon="6.47272">
        <ele>1492.7</ele>
        <time>2017-11-18T08:09:00Z</time>
      </trkpt>
      <trkpt lat="45.90424" lon="6.47275">
        <ele>1494.1</ele>
        <time>2017-11-18T08:09:05Z</time>
      </trkpt>
      <trkpt lat="45.90426" lon="6.47278">
        <ele>1495.2</ele>
        <time>2017-11-18T08:09:10Z</time>
      </trkpt>
      <trkpt lat="45.90428" lon="6.47282">
        <ele>1496.1</ele>
        <time>2017-11-18T08:09:15Z</time>
      </trkpt>
      <trkpt lat="45.9043" lon="6.47286">
        <ele>1496.9</ele>
        <time>2017-11-18T08:09:20Z</time>
      </trkpt>
      <trkpt lat="45.90433" lon="6.4729">
        <ele>1497.5</ele>
        <time>2017-11-18T08:09:25Z</time>
      </trkpt>
      <trkpt lat="45.90436" lon="6.47294">
        <ele>1498.2</ele>
        <time>2017-11-18T08:09:30Z</time>
      </trkpt>
      <trkpt lat="45.90439" lon="6.47297">
        <ele>1499.3</ele>
        <time>2017-11-18T08:09:35Z</time>
      </trkpt>
      <trkpt lat="45.90441" lon="6.47301">
        <ele>1500.1</ele>
        <time>2017-11-18T08:09:40Z</time>
      </trkpt>
      <trkpt lat="45.90445" lon="6.47303">
        <ele>1500.9</ele>
        <time>2017-11-18T08:09:45Z</time>
      </trkpt>
      <trkpt lat="45.90448" lon="6.47307">
        <ele>1501.7</ele>
        <time>2017-11-18T08:09:50Z</time>
      </trkpt>
      <trkpt lat="45.90451" lon="6.47311">
        <ele>1502.5</ele>
        <time>2017-11-18T08:09:55Z</time>
      </trkpt>
      <trkpt lat="45.90453" lon="6.47315">
        <ele>1503.3</ele>
        <time>2017-11-18T08:10:00Z</time>
      </trkpt>
      <trkpt lat="45.90456" lon="6.47319">
        <ele>1504.3</ele>
        <time>2017-11-18T08:10:05Z</time>
      </trkpt>
      <trkpt lat="45.90458" lon="6.47324">
        <ele>1505.2</ele>
        <time>2017-11-18T08:10:10Z</time>
      </trkpt>
      <trkpt lat="45.9046" lon="6.47328">
        <ele>1506.2</ele>
        <time>2017-11-18T08:10:15Z</time>
      </trkpt>
      <trkpt lat="45.90463" lon="6.47332">
        <ele>1507.1</ele>
        <time>2017-11-18T08:10:20Z</time>
      </trkpt>
      <trkpt lat="45.90465" lon="6.47337">
        <ele>1507.9</ele>
        <time>2017-11-18T08:10:25Z</time>
      </trkpt>
      <trkpt lat="45.90466" lon="6.47342">
        <ele>1508.8</ele>
        <time>2017-11-18T08:10:30Z</time>
      </trkpt>
      <trkpt lat="45.90469" lon="6.47347">
        <ele>1509.5</ele>
        <time>2017-11-18T08:10:35Z</time>
      </trkpt>
      <trkpt lat="45.90471" lon="6.47353">
        <ele>1510.8</ele>
        <time>2017-11-18T08:10:40Z</time>
      </trkpt>
      <trkpt lat="45.90472" lon="6.47358">
        <ele>1511.4</ele>
        <time>2017-11-18T08:10:45Z</time>
      </trkpt>
      <trkpt lat="45.90473" lon="6.47363">
        <ele>1512.3</ele>
        <time>2017-11-18T08:10:50Z</time>
      </trkpt>
      <trkpt lat="45.90473" lon="6.47367">
        <ele>1513.2</ele>
        <time>2017-11-18T08:10:55Z</time>
      </trkpt>
      <trkpt lat="45.90472" lon="6.47372">
        <ele>1514</ele>
        <time>2017-11-18T08:11:00Z</time>
      </trkpt>
      <trkpt lat="45.90471" lon="6.47376">
        <ele>1514.4</ele>
        <time>2017-11-18T08:11:05Z</time>
      </trkpt>
      <trkpt lat="45.9047" lon="6.47381">
        <ele>1515.3</ele>
        <time>2017-11-18T08:11:10Z</time>
      </trkpt>
      <trkpt lat="45.90468" lon="6.47386">
        <ele>1516</ele>
        <time>2017-11-18T08:11:15Z</time>
      </trkpt>
      <trkpt lat="45.90466" lon="6.47391">
        <ele>1517.1</ele>
        <time>2017-11-18T08:11:20Z</time>
      </trkpt>
      <trkpt lat="45.90465" lon="6.47395">
        <ele>1518</ele>
        <time>2017-11-18T08:11:25Z</time>
      </trkpt>
      <trkpt lat="45.90464" lon="6.47398">
        <ele>1518.9</ele>
        <time>2017-11-18T08:11:30Z</time>
      </trkpt>
      <trkpt lat="45.90461" lon="6.47402">
        <ele>1519.8</ele>
        <time>2017-11-18T08:11:35Z</time>
      </trkpt>
      <trkpt lat="45.90458" lon="6.47406">
        <ele>1520.9</ele>
        <time>2017-11-18T08:11:40Z</time>
      </trkpt>
      <trkpt lat="45.90454" lon="6.47408">
        <ele>1521.9</ele>
        <time>2017-11-18T08:11:45Z</time>
      </trkpt>
      <trkpt lat="45.90451" lon="6.47411">
        <ele>1522.4</ele>
        <time>2017-11-18T08:11:50Z</time>
      </trkpt>
      <trkpt lat="45.90447" lon="6.47413">
        <ele>1523.2</ele>
        <time>2017-11-18T08:11:55Z</time>
      </trkpt>
      <trkpt lat="45.90443" lon="6.47414">
        <ele>1524</ele>
        <time>2017-11-18T08:12:00Z</time>
      </trkpt>
      <trkpt lat="45.9044" lon="6.47416">
        <ele>1525</ele>
        <time>2017-11-18T08:12:05Z</time>
      </trkpt>
      <trkpt lat="45.90437" lon="6.47418">
        <ele>1526.1</ele>
        <time>2017-11-18T08:12:10Z</time>
      </trkpt>
      <trkpt lat="45.90433" lon="6.4742">
        <ele>1527</ele>
        <time>2017-11-18T08:12:15Z</time>
      </trkpt>
      <trkpt lat="45.90431" lon="6.47423">
        <ele>1528.3</ele>
        <time>2017-11-18T08:12:20Z</time>
      </trkpt>
      <trkpt lat="45.90429" lon="6.47427">
        <ele>1529.7</ele>
        <time>2017-11-18T08:12:25Z</time>
      </trkpt>
      <trkpt lat="45.90428" lon="6.4743">
        <ele>1530.5</ele>
        <time>2017-11-18T08:12:30Z</time>
      </trkpt>
      <trkpt lat="45.90426" lon="6.47434">
        <ele>1531.6</ele>
        <time>2017-11-18T08:12:35Z</time>
      </trkpt>
      <trkpt lat="45.90425" lon="6.47438">
        <ele>1532.6</ele>
        <time>2017-11-18T08:12:40Z</time>
      </trkpt>
      <trkpt lat="45.90421" lon="6.47439">
        <ele>1533.7</ele>
        <time>2017-11-18T08:12:45Z</time>
      </trkpt>
      <trkpt lat="45.90418" lon="6.47438">
        <ele>1534.7</ele>
        <time>2017-11-18T08:12:50Z</time>
      </trkpt>
      <trkpt lat="45.90416" lon="6.47436">
        <ele>1535.6</ele>
        <time>2017-11-18T08:12:55Z</time>
      </trkpt>
      <trkpt lat="45.90413" lon="6.47435">
        <ele>1536.8</ele>
        <time>2017-11-18T08:13:00Z</time>
      </trkpt>
      <trkpt lat="45.9041" lon="6.47433">
        <ele>1537.9</ele>
        <time>2017-11-18T08:13:05Z</time>
      </trkpt>
      <trkpt lat="45.90408" lon="6.47432">
        <ele>1539.1</ele>
        <time>2017-11-18T08:13:10Z</time>
      </trkpt>
      <trkpt lat="45.90405" lon="6.4743">
        <ele>1540.1</ele>
        <time>2017-11-18T08:13:15Z</time>
      </trkpt>
      <trkpt lat="45.90403" lon="6.47428">
        <ele>1540.8</ele>
        <time>2017-11-18T08:13:20Z</time>
      </trkpt>
      <trkpt lat="45.904" lon="6.47425">
        <ele>1541.7</ele>
        <time>2017-11-18T08:13:25Z</time>
      </trkpt>
      <trkpt lat="45.90398" lon="6.47423">
        <ele>1542.4</ele>
        <time>2017-11-18T08:13:30Z</time>
      </trkpt>
      <trkpt lat="45.90395" lon="6.47423">
        <ele>1543.4</ele>
        <time>2017-11-18T08:13:35Z</time>
      </trkpt>
      <trkpt lat="45.90392" lon="6.47424">
        <ele>1544.4</ele>
        <time>2017-11-18T08:13:40Z</time>
      </trkpt>
      <trkpt lat="45.90389" lon="6.47425">
        <ele>1545.2</ele>
        <time>2017-11-18T08:13:45Z</time>
      </trkpt>
      <trkpt lat="45.90387" lon="6.47427">
        <ele>1546.2</ele>
        <time>2017-11-18T08:13:50Z</time>
      </trkpt>
      <trkpt lat="45.90384" lon="6.47428">
        <ele>1547.4</ele>
        <time>2017-11-18T08:13:55Z</time>
      </trkpt>
      <trkpt lat="45.90381" lon="6.47428">
        <ele>1548.5</ele>
        <time>2017-11-18T08:14:00Z</time>
      </trkpt>
      <trkpt lat="45.90379" lon="6.47425">
        <ele>1549.5</ele>
        <time>2017-11-18T08:14:05Z</time>
      </trkpt>
      <trkpt lat="45.90376" lon="6.47423">
        <ele>1550.2</ele>
        <time>2017-11-18T08:14:10Z</time>
      </trkpt>
      <trkpt lat="45.90373" lon="6.47423">
        <ele>1551.3</ele>
        <time>2017-11-18T08:14:15Z</time>
      </trkpt>
      <trkpt lat="45.90371" lon="6.47424">
        <ele>1552.1</ele>
        <time>2017-11-18T08:14:20Z</time>
      </trkpt>
      <trkpt lat="45.90368" lon="6.47425">
        <ele>1553.1</ele>
        <time>2017-11-18T08:14:25Z</time>
      </trkpt>
      <trkpt lat="45.90366" lon="6.47425">
        <ele>1554.2</ele>
        <time>2017-11-18T08:14:30Z</time>
      </trkpt>
      <trkpt lat="45.90363" lon="6.47425">
        <ele>1555</ele>
        <time>2017-11-18T08:14:35Z</time>
      </trkpt>
      <trkpt lat="45.9036" lon="6.47426">
        <ele>1556</ele>
        <time>2017-11-18T08:14:40Z</time>
      </trkpt>
      <trkpt lat="45.90358" lon="6.47428">
        <ele>1557.2</ele>
        <time>2017-11-18T08:14:45Z</time>
      </trkpt>
      <trkpt lat="45.90355" lon="6.47428">
        <ele>1558.3</ele>
        <time>2017-11-18T08:14:50Z</time>
      </trkpt>
      <trkpt lat="45.90352" lon="6.47425">
        <ele>1559.1</ele>
        <time>2017-11-18T08:14:55Z</time>
      </trkpt>
      <trkpt lat="45.9035" lon="6.47424">
        <ele>1560.1</ele>
        <time>2017-11-18T08:15:00Z</time>
      </trkpt>
      <trkpt lat="45.90348" lon="6.47426">
        <ele>1561.1</ele>
        <time>2017-11-18T08:15:05Z</time>
      </trkpt>
      <trkpt lat="45.90345" lon="6.47428">
        <ele>1562.1</ele>
        <time>2017-11-18T08:15:10Z</time>
      </trkpt>
      <trkpt lat="45.90343" lon="6.47426">
        <ele>1563.4</ele>
        <time>2017-11-18T08:15:15Z</time>
      </trkpt>
      <trkpt lat="45.9034" lon="6.47424">
        <ele>1564.3</ele>
        <time>2017-11-18T08:15:20Z</time>
      </trkpt>
      <trkpt lat="45.90338" lon="6.47426">
        <ele>1565.6</ele>
        <time>2017-11-18T08:15:25Z</time>
      </trkpt>
      <trkpt lat="45.90336" lon="6.47428">
        <ele>1566.5</ele>
        <time>2017-11-18T08:15:30Z</time>
      </trkpt>
      <trkpt lat="45.90333" lon="6.47428">
        <ele>1567.8</ele>
        <time>2017-11-18T08:15:35Z</time>
      </trkpt>
      <trkpt lat="45.9033" lon="6.47429">
        <ele>1568.8</ele>
        <time>2017-11-18T08:15:40Z</time>
      </trkpt>
      <trkpt lat="45.90327" lon="6.47429">
        <ele>1569.6</ele>
        <time>2017-11-18T08:15:45Z</time>
      </trkpt>
      <trkpt lat="45.90326" lon="6.47428">
        <ele>1570.2</ele>
        <time>2017-11-18T08:15:50Z</time>
      </trkpt>
      <trkpt lat="45.90326" lon="6.47427">
        <ele>1570.4</ele>
        <time>2017-11-18T08:15:55Z</time>
      </trkpt>
      <trkpt lat="45.90326" lon="6.47426">
        <ele>1570.6</ele>
        <time>2017-11-18T08:16:00Z</time>
      </trkpt>
      <trkpt lat="45.90326" lon="6.47427">
        <ele>1571</ele>
        <time>2017-11-18T08:16:05Z</time>
      </trkpt>
      <trkpt lat="45.90324" lon="6.47429">
        <ele>1571.5</ele>
        <time>2017-11-18T08:16:10Z</time>
      </trkpt>
      <trkpt lat="45.90321" lon="6.47429">
        <ele>1572.2</ele>
        <time>2017-11-18T08:16:15Z</time>
      </trkpt>
      <trkpt lat="45.90318" lon="6.4743">
        <ele>1573.2</ele>
        <time>2017-11-18T08:16:20Z</time>
      </trkpt>
      <trkpt lat="45.90315" lon="6.47432">
        <ele>1574.5</ele>
        <time>2017-11-18T08:16:25Z</time>
      </trkpt>
      <trkpt lat="45.90312" lon="6.47433">
        <ele>1575.5</ele>
        <time>2017-11-18T08:16:30Z</time>
      </trkpt>
      <trkpt lat="45.9031" lon="6.47434">
        <ele>1576.1</ele>
        <time>2017-11-18T08:16:35Z</time>
      </trkpt>
      <trkpt lat="45.90307" lon="6.47434">
        <ele>1577</ele>
        <time>2017-11-18T08:16:40Z</time>
      </trkpt>
      <trkpt lat="45.90305" lon="6.47434">
        <ele>1577.8</ele>
        <time>2017-11-18T08:16:45Z</time>
      </trkpt>
      <trkpt lat="45.90302" lon="6.47433">
        <ele>1578.7</ele>
        <time>2017-11-18T08:16:50Z</time>
      </trkpt>
      <trkpt lat="45.90299" lon="6.47433">
        <ele>1579.5</ele>
        <time>2017-11-18T08:16:55Z</time>
      </trkpt>
      <trkpt lat="45.90295" lon="6.47431">
        <ele>1580.5</ele>
        <time>2017-11-18T08:17:00Z</time>
      </trkpt>
      <trkpt lat="45.90292" lon="6.47429">
        <ele>1581.5</ele>
        <time>2017-11-18T08:17:05Z</time>
      </trkpt>
      <trkpt lat="45.90288" lon="6.47428">
        <ele>1582.3</ele>
        <time>2017-11-18T08:17:10Z</time>
      </trkpt>
      <trkpt lat="45.90285" lon="6.47426">
        <ele>1582.9</ele>
        <time>2017-11-18T08:17:15Z</time>
      </trkpt>
      <trkpt lat="45.90282" lon="6.47424">
        <ele>1584</ele>
        <time>2017-11-18T08:17:20Z</time>
      </trkpt>
      <trkpt lat="45.90278" lon="6.47423">
        <ele>1584.9</ele>
        <time>2017-11-18T08:17:25Z</time>
      </trkpt>
      <trkpt lat="45.90275" lon="6.47422">
        <ele>1585.8</ele>
        <time>2017-11-18T08:17:30Z</time>
      </trkpt>
      <trkpt lat="45.90271" lon="6.47421">
        <ele>1586.7</ele>
        <time>2017-11-18T08:17:35Z</time>
      </trkpt>
      <trkpt lat="45.90268" lon="6.4742">
        <ele>1587.6</ele>
        <time>2017-11-18T08:17:40Z</time>
      </trkpt>
      <trkpt lat="45.90264" lon="6.47419">
        <ele>1588.5</ele>
        <time>2017-11-18T08:17:45Z</time>
      </trkpt>
      <trkpt lat="45.9026" lon="6.47418">
        <ele>1589.4</ele>
        <time>2017-11-18T08:17:50Z</time>
      </trkpt>
      <trkpt lat="45.90257" lon="6.47418">
        <ele>1590</ele>
        <time>2017-11-18T08:17:55Z</time>
      </trkpt>
      <trkpt lat="45.90253" lon="6.47417">
        <ele>1590.9</ele>
        <time>2017-11-18T08:18:00Z</time>
      </trkpt>
      <trkpt lat="45.9025" lon="6.47416">
        <ele>1592.1</ele>
        <time>2017-11-18T08:18:05Z</time>
      </trkpt>
      <trkpt lat="45.90246" lon="6.47415">
        <ele>1592.7</ele>
        <time>2017-11-18T08:18:10Z</time>
      </trkpt>
      <trkpt lat="45.90242" lon="6.47414">
        <ele>1593.4</ele>
        <time>2017-11-18T08:18:15Z</time>
      </trkpt>
      <trkpt lat="45.90238" lon="6.47413">
        <ele>1594.3</ele>
        <time>2017-11-18T08:18:20Z</time>
      </trkpt>
      <trkpt lat="45.90235" lon="6.47413">
        <ele>1595.1</ele>
        <time>2017-11-18T08:18:25Z</time>
      </trkpt>
      <trkpt lat="45.90231" lon="6.47412">
        <ele>1595.6</ele>
        <time>2017-11-18T08:18:30Z</time>
      </trkpt>
      <trkpt lat="45.90228" lon="6.47412">
        <ele>1596.5</ele>
        <time>2017-11-18T08:18:35Z</time>
      </trkpt>
      <trkpt lat="45.90224" lon="6.47411">
        <ele>1597.3</ele>
        <time>2017-11-18T08:18:40Z</time>
      </trkpt>
      <trkpt lat="45.90221" lon="6.4741">
        <ele>1598.1</ele>
        <time>2017-11-18T08:18:45Z</time>
      </trkpt>
      <trkpt lat="45.90217" lon="6.47409">
        <ele>1598.8</ele>
        <time>2017-11-18T08:18:50Z</time>
      </trkpt>
      <trkpt lat="45.90214" lon="6.47407">
        <ele>1599.7</ele>
        <time>2017-11-18T08:18:55Z</time>
      </trkpt>
      <trkpt lat="45.9021" lon="6.47406">
        <ele>1600.5</ele>
        <time>2017-11-18T08:19:00Z</time>
      </trkpt>
      <trkpt lat="45.90207" lon="6.47405">
        <ele>1601.4</ele>
        <time>2017-11-18T08:19:05Z</time>
      </trkpt>
      <trkpt lat="45.90204" lon="6.47405">
        <ele>1602.3</ele>
        <time>2017-11-18T08:19:10Z</time>
      </trkpt>
      <trkpt lat="45.90201" lon="6.47404">
        <ele>1603.2</ele>
        <time>2017-11-18T08:19:15Z</time>
      </trkpt>
      <trkpt lat="45.90197" lon="6.47405">
        <ele>1604</ele>
        <time>2017-11-18T08:19:20Z</time>
      </trkpt>
      <trkpt lat="45.90194" lon="6.47406">
        <ele>1604.7</ele>
        <time>2017-11-18T08:19:25Z</time>
      </trkpt>
      <trkpt lat="45.9019" lon="6.47406">
        <ele>1605.6</ele>
        <time>2017-11-18T08:19:30Z</time>
      </trkpt>
      <trkpt lat="45.90187" lon="6.47407">
        <ele>1606.4</ele>
        <time>2017-11-18T08:19:35Z</time>
      </trkpt>
      <trkpt lat="45.90184" lon="6.47408">
        <ele>1607.1</ele>
        <time>2017-11-18T08:19:40Z</time>
      </trkpt>
      <trkpt lat="45.9018" lon="6.47408">
        <ele>1607.5</ele>
        <time>2017-11-18T08:19:45Z</time>
      </trkpt>
      <trkpt lat="45.90177" lon="6.4741">
        <ele>1608.1</ele>
        <time>2017-11-18T08:19:50Z</time>
      </trkpt>
      <trkpt lat="45.90173" lon="6.4741">
        <ele>1609.1</ele>
        <time>2017-11-18T08:19:55Z</time>
      </trkpt>
      <trkpt lat="45.90169" lon="6.47409">
        <ele>1610</ele>
        <time>2017-11-18T08:20:00Z</time>
      </trkpt>
      <trkpt lat="45.90166" lon="6.47409">
        <ele>1610.8</ele>
        <time>2017-11-18T08:20:05Z</time>
      </trkpt>
      <trkpt lat="45.90163" lon="6.47408">
        <ele>1611.8</ele>
        <time>2017-11-18T08:20:10Z</time>
      </trkpt>
      <trkpt lat="45.90164" lon="6.47412">
        <ele>1612.6</ele>
        <time>2017-11-18T08:20:15Z</time>
      </trkpt>
      <trkpt lat="45.90165" lon="6.47418">
        <ele>1613.3</ele>
        <time>2017-11-18T08:20:20Z</time>
      </trkpt>
      <trkpt lat="45.90167" lon="6.47422">
        <ele>1614.1</ele>
        <time>2017-11-18T08:20:25Z</time>
      </trkpt>
      <trkpt lat="45.90169" lon="6.47427">
        <ele>1615</ele>
        <time>2017-11-18T08:20:30Z</time>
      </trkpt>
      <trkpt lat="45.90171" lon="6.47431">
        <ele>1615.9</ele>
        <time>2017-11-18T08:20:35Z</time>
      </trkpt>
      <trkpt lat="45.90172" lon="6.47435">
        <ele>1616.5</ele>
        <time>2017-11-18T08:20:40Z</time>
      </trkpt>
      <trkpt lat="45.90174" lon="6.47439">
        <ele>1617.6</ele>
        <time>2017-11-18T08:20:45Z</time>
      </trkpt>
      <trkpt lat="45.90175" lon="6.47442">
        <ele>1618.5</ele>
        <time>2017-11-18T08:20:50Z</time>
      </trkpt>
      <trkpt lat="45.90176" lon="6.47446">
        <ele>1619.4</ele>
        <time>2017-11-18T08:20:55Z</time>
      </trkpt>
      <trkpt lat="45.90176" lon="6.47449">
        <ele>1620.1</ele>
        <time>2017-11-18T08:21:00Z</time>
      </trkpt>
      <trkpt lat="45.90178" lon="6.47453">
        <ele>1621.1</ele>
        <time>2017-11-18T08:21:05Z</time>
      </trkpt>
      <trkpt lat="45.90179" lon="6.47457">
        <ele>1621.8</ele>
        <time>2017-11-18T08:21:10Z</time>
      </trkpt>
      <trkpt lat="45.90179" lon="6.47461">
        <ele>1622.5</ele>
        <time>2017-11-18T08:21:15Z</time>
      </trkpt>
      <trkpt lat="45.9018" lon="6.47466">
        <ele>1623</ele>
        <time>2017-11-18T08:21:20Z</time>
      </trkpt>
      <trkpt lat="45.90181" lon="6.47471">
        <ele>1623.6</ele>
        <time>2017-11-18T08:21:25Z</time>
      </trkpt>
      <trkpt lat="45.90183" lon="6.47476">
        <ele>1624</ele>
        <time>2017-11-18T08:21:30Z</time>
      </trkpt>
      <trkpt lat="45.90184" lon="6.4748">
        <ele>1624.6</ele>
        <time>2017-11-18T08:21:35Z</time>
      </trkpt>
      <trkpt lat="45.90184" lon="6.47485">
        <ele>1625.6</ele>
        <time>2017-11-18T08:21:40Z</time>
      </trkpt>
      <trkpt lat="45.90184" lon="6.4749">
        <ele>1626.6</ele>
        <time>2017-11-18T08:21:45Z</time>
      </trkpt>
      <trkpt lat="45.90181" lon="6.47493">
        <ele>1627.9</ele>
        <time>2017-11-18T08:21:50Z</time>
      </trkpt>
      <trkpt lat="45.90178" lon="6.47493">
        <ele>1629.2</ele>
        <time>2017-11-18T08:21:55Z</time>
      </trkpt>
      <trkpt lat="45.90176" lon="6.47493">
        <ele>1630.5</ele>
        <time>2017-11-18T08:22:00Z</time>
      </trkpt>
      <trkpt lat="45.90173" lon="6.47494">
        <ele>1631.4</ele>
        <time>2017-11-18T08:22:05Z</time>
      </trkpt>
      <trkpt lat="45.90171" lon="6.47496">
        <ele>1632.3</ele>
        <time>2017-11-18T08:22:10Z</time>
      </trkpt>
      <trkpt lat="45.90168" lon="6.47498">
        <ele>1633</ele>
        <time>2017-11-18T08:22:15Z</time>
      </trkpt>
      <trkpt lat="45.90168" lon="6.47502">
        <ele>1634.2</ele>
        <time>2017-11-18T08:22:20Z</time>
      </trkpt>
      <trkpt lat="45.90169" lon="6.47505">
        <ele>1635.3</ele>
        <time>2017-11-18T08:22:25Z</time>
      </trkpt>
      <trkpt lat="45.90168" lon="6.47509">
        <ele>1636.2</ele>
        <time>2017-11-18T08:22:30Z</time>
      </trkpt>
      <trkpt lat="45.90166" lon="6.47511">
        <ele>1637.3</ele>
        <time>2017-11-18T08:22:35Z</time>
      </trkpt>
      <trkpt lat="45.90165" lon="6.47515">
        <ele>1638.3</ele>
        <time>2017-11-18T08:22:40Z</time>
      </trkpt>
      <trkpt lat="45.90165" lon="6.47518">
        <ele>1639.4</ele>
        <time>2017-11-18T08:22:45Z</time>
      </trkpt>
      <trkpt lat="45.90166" lon="6.47522">
        <ele>1640.3</ele>
        <time>2017-11-18T08:22:50Z</time>
      </trkpt>
      <trkpt lat="45.90166" lon="6.47525">
        <ele>1641.4</ele>
        <time>2017-11-18T08:22:55Z</time>
      </trkpt>
      <trkpt lat="45.90165" lon="6.47529">
        <ele>1642.3</ele>
        <time>2017-11-18T08:23:00Z</time>
      </trkpt>
      <trkpt lat="45.90166" lon="6.47533">
        <ele>1643.3</ele>
        <time>2017-11-18T08:23:05Z</time>
      </trkpt>
      <trkpt lat="45.90166" lon="6.47537">
        <ele>1644.5</ele>
        <time>2017-11-18T08:23:10Z</time>
      </trkpt>
      <trkpt lat="45.90166" lon="6.47541">
        <ele>1645.4</ele>
        <time>2017-11-18T08:23:15Z</time>
      </trkpt>
      <trkpt lat="45.90167" lon="6.47545">
        <ele>1646.3</ele>
        <time>2017-11-18T08:23:20Z</time>
      </trkpt>
      <trkpt lat="45.90168" lon="6.47549">
        <ele>1647.4</ele>
        <time>2017-11-18T08:23:25Z</time>
      </trkpt>
      <trkpt lat="45.90168" lon="6.47553">
        <ele>1648.2</ele>
        <time>2017-11-18T08:23:30Z</time>
      </trkpt>
      <trkpt lat="45.90169" lon="6.47557">
        <ele>1649.1</ele>
        <time>2017-11-18T08:23:35Z</time>
      </trkpt>
      <trkpt lat="45.90169" lon="6.47561">
        <ele>1650.2</ele>
        <time>2017-11-18T08:23:40Z</time>
      </trkpt>
      <trkpt lat="45.9017" lon="6.47564">
        <ele>1651</ele>
        <time>2017-11-18T08:23:45Z</time>
      </trkpt>
      <trkpt lat="45.90171" lon="6.47568">
        <ele>1652</ele>
        <time>2017-11-18T08:23:50Z</time>
      </trkpt>
      <trkpt lat="45.90171" lon="6.47572">
        <ele>1652.9</ele>
        <time>2017-11-18T08:23:55Z</time>
      </trkpt>
      <trkpt lat="45.90171" lon="6.47576">
        <ele>1653.6</ele>
        <time>2017-11-18T08:24:00Z</time>
      </trkpt>
      <trkpt lat="45.90172" lon="6.47579">
        <ele>1654.4</ele>
        <time>2017-11-18T08:24:05Z</time>
      </trkpt>
      <trkpt lat="45.90172" lon="6.47583">
        <ele>1655.5</ele>
        <time>2017-11-18T08:24:10Z</time>
      </trkpt>
      <trkpt lat="45.90173" lon="6.47588">
        <ele>1656.5</ele>
        <time>2017-11-18T08:24:15Z</time>
      </trkpt>
      <trkpt lat="45.90173" lon="6.47592">
        <ele>1657.5</ele>
        <time>2017-11-18T08:24:20Z</time>
      </trkpt>
      <trkpt lat="45.90174" lon="6.47596">
        <ele>1658.6</ele>
        <time>2017-11-18T08:24:25Z</time>
      </trkpt>
      <trkpt lat="45.90174" lon="6.476">
        <ele>1659.4</ele>
        <time>2017-11-18T08:24:30Z</time>
      </trkpt>
      <trkpt lat="45.90175" lon="6.47605">
        <ele>1660.4</ele>
        <time>2017-11-18T08:24:35Z</time>
      </trkpt>
      <trkpt lat="45.90176" lon="6.47609">
        <ele>1661.6</ele>
        <time>2017-11-18T08:24:40Z</time>
      </trkpt>
      <trkpt lat="45.90176" lon="6.47612">
        <ele>1662.6</ele>
        <time>2017-11-18T08:24:45Z</time>
      </trkpt>
      <trkpt lat="45.90177" lon="6.47616">
        <ele>1663.5</ele>
        <time>2017-11-18T08:24:50Z</time>
      </trkpt>
      <trkpt lat="45.90177" lon="6.47619">
        <ele>1664.7</ele>
        <time>2017-11-18T08:24:55Z</time>
      </trkpt>
      <trkpt lat="45.90175" lon="6.47622">
        <ele>1665.8</ele>
        <time>2017-11-18T08:25:00Z</time>
      </trkpt>
      <trkpt lat="45.90172" lon="6.47624">
        <ele>1666.8</ele>
        <time>2017-11-18T08:25:05Z</time>
      </trkpt>
      <trkpt lat="45.9017" lon="6.47625">
        <ele>1667.7</ele>
        <time>2017-11-18T08:25:10Z</time>
      </trkpt>
      <trkpt lat="45.90168" lon="6.47626">
        <ele>1668.6</ele>
        <time>2017-11-18T08:25:15Z</time>
      </trkpt>
      <trkpt lat="45.90165" lon="6.47626">
        <ele>1669.2</ele>
        <time>2017-11-18T08:25:20Z</time>
      </trkpt>
      <trkpt lat="45.90162" lon="6.47627">
        <ele>1669.9</ele>
        <time>2017-11-18T08:25:25Z</time>
      </trkpt>
      <trkpt lat="45.90159" lon="6.47627">
        <ele>1670.8</ele>
        <time>2017-11-18T08:25:30Z</time>
      </trkpt>
      <trkpt lat="45.90156" lon="6.47628">
        <ele>1671.6</ele>
        <time>2017-11-18T08:25:35Z</time>
      </trkpt>
      <trkpt lat="45.90153" lon="6.47629">
        <ele>1672.5</ele>
        <time>2017-11-18T08:25:40Z</time>
      </trkpt>
      <trkpt lat="45.90151" lon="6.4763">
        <ele>1673.5</ele>
        <time>2017-11-18T08:25:45Z</time>
      </trkpt>
      <trkpt lat="45.90148" lon="6.4763">
        <ele>1674.4</ele>
        <time>2017-11-18T08:25:50Z</time>
      </trkpt>
      <trkpt lat="45.90146" lon="6.47631">
        <ele>1675.3</ele>
        <time>2017-11-18T08:25:55Z</time>
      </trkpt>
      <trkpt lat="45.90146" lon="6.47634">
        <ele>1676.1</ele>
        <time>2017-11-18T08:26:00Z</time>
      </trkpt>
      <trkpt lat="45.90147" lon="6.47638">
        <ele>1676.9</ele>
        <time>2017-11-18T08:26:05Z</time>
      </trkpt>
      <trkpt lat="45.90147" lon="6.47641">
        <ele>1677.8</ele>
        <time>2017-11-18T08:26:10Z</time>
      </trkpt>
      <trkpt lat="45.90148" lon="6.47645">
        <ele>1678.7</ele>
        <time>2017-11-18T08:26:15Z</time>
      </trkpt>
      <trkpt lat="45.90149" lon="6.47649">
        <ele>1679.4</ele>
        <time>2017-11-18T08:26:20Z</time>
      </trkpt>
      <trkpt lat="45.90149" lon="6.47652">
        <ele>1680.3</ele>
        <time>2017-11-18T08:26:25Z</time>
      </trkpt>
      <trkpt lat="45.9015" lon="6.47656">
        <ele>1681.2</ele>
        <time>2017-11-18T08:26:30Z</time>
      </trkpt>
      <trkpt lat="45.9015" lon="6.4766">
        <ele>1681.8</ele>
        <time>2017-11-18T08:26:35Z</time>
      </trkpt>
      <trkpt lat="45.90147" lon="6.47659">
        <ele>1682.7</ele>
        <time>2017-11-18T08:26:40Z</time>
      </trkpt>
      <trkpt lat="45.90145" lon="6.47659">
        <ele>1683.3</ele>
        <time>2017-11-18T08:26:45Z</time>
      </trkpt>
      <trkpt lat="45.90142" lon="6.47659">
        <ele>1684.3</ele>
        <time>2017-11-18T08:26:50Z</time>
      </trkpt>
      <trkpt lat="45.9014" lon="6.47658">
        <ele>1685.5</ele>
        <time>2017-11-18T08:26:55Z</time>
      </trkpt>
      <trkpt lat="45.90137" lon="6.47658">
        <ele>1686.4</ele>
        <time>2017-11-18T08:27:00Z</time>
      </trkpt>
      <trkpt lat="45.90134" lon="6.47657">
        <ele>1687.3</ele>
        <time>2017-11-18T08:27:05Z</time>
      </trkpt>
      <trkpt lat="45.90131" lon="6.47656">
        <ele>1688.1</ele>
        <time>2017-11-18T08:27:10Z</time>
      </trkpt>
      <trkpt lat="45.90128" lon="6.47656">
        <ele>1688.9</ele>
        <time>2017-11-18T08:27:15Z</time>
      </trkpt>
      <trkpt lat="45.90126" lon="6.47655">
        <ele>1689.7</ele>
        <time>2017-11-18T08:27:20Z</time>
      </trkpt>
      <trkpt lat="45.90123" lon="6.47654">
        <ele>1690.6</ele>
        <time>2017-11-18T08:27:25Z</time>
      </trkpt>
      <trkpt lat="45.9012" lon="6.47653">
        <ele>1691.5</ele>
        <time>2017-11-18T08:27:30Z</time>
      </trkpt>
      <trkpt lat="45.90119" lon="6.47653">
        <ele>1692.2</ele>
        <time>2017-11-18T08:27:35Z</time>
      </trkpt>
      <trkpt lat="45.9012" lon="6.47656">
        <ele>1693</ele>
        <time>2017-11-18T08:27:40Z</time>
      </trkpt>
      <trkpt lat="45.9012" lon="6.4766">
        <ele>1694</ele>
        <time>2017-11-18T08:27:45Z</time>
      </trkpt>
      <trkpt lat="45.9012" lon="6.47664">
        <ele>1695.1</ele>
        <time>2017-11-18T08:27:50Z</time>
      </trkpt>
      <trkpt lat="45.9012" lon="6.47667">
        <ele>1695.8</ele>
        <time>2017-11-18T08:27:55Z</time>
      </trkpt>
      <trkpt lat="45.9012" lon="6.47671">
        <ele>1696.4</ele>
        <time>2017-11-18T08:28:00Z</time>
      </trkpt>
      <trkpt lat="45.9012" lon="6.47674">
        <ele>1697.3</ele>
        <time>2017-11-18T08:28:05Z</time>
      </trkpt>
      <trkpt lat="45.90121" lon="6.47678">
        <ele>1698.2</ele>
        <time>2017-11-18T08:28:10Z</time>
      </trkpt>
      <trkpt lat="45.90121" lon="6.47681">
        <ele>1699</ele>
        <time>2017-11-18T08:28:15Z</time>
      </trkpt>
      <trkpt lat="45.90121" lon="6.47685">
        <ele>1699.8</ele>
        <time>2017-11-18T08:28:20Z</time>
      </trkpt>
      <trkpt lat="45.90121" lon="6.47689">
        <ele>1700.6</ele>
        <time>2017-11-18T08:28:25Z</time>
      </trkpt>
      <trkpt lat="45.90121" lon="6.47693">
        <ele>1701.6</ele>
        <time>2017-11-18T08:28:30Z</time>
      </trkpt>
      <trkpt lat="45.9012" lon="6.47697">
        <ele>1702.5</ele>
        <time>2017-11-18T08:28:35Z</time>
      </trkpt>
      <trkpt lat="45.90118" lon="6.477">
        <ele>1703.5</ele>
        <time>2017-11-18T08:28:40Z</time>
      </trkpt>
      <trkpt lat="45.90115" lon="6.47701">
        <ele>1704.5</ele>
        <time>2017-11-18T08:28:45Z</time>
      </trkpt>
      <trkpt lat="45.90112" lon="6.47702">
        <ele>1705.4</ele>
        <time>2017-11-18T08:28:50Z</time>
      </trkpt>
      <trkpt lat="45.90109" lon="6.47702">
        <ele>1706.5</ele>
        <time>2017-11-18T08:28:55Z</time>
      </trkpt>
      <trkpt lat="45.90107" lon="6.47702">
        <ele>1707.6</ele>
        <time>2017-11-18T08:29:00Z</time>
      </trkpt>
      <trkpt lat="45.90104" lon="6.47701">
        <ele>1708.5</ele>
        <time>2017-11-18T08:29:05Z</time>
      </trkpt>
      <trkpt lat="45.90101" lon="6.477">
        <ele>1709.6</ele>
        <time>2017-11-18T08:29:10Z</time>
      </trkpt>
      <trkpt lat="45.90098" lon="6.47699">
        <ele>1710.5</ele>
        <time>2017-11-18T08:29:15Z</time>
      </trkpt>
      <trkpt lat="45.90095" lon="6.47698">
        <ele>1711.5</ele>
        <time>2017-11-18T08:29:20Z</time>
      </trkpt>
      <trkpt lat="45.90093" lon="6.47697">
        <ele>1712.4</ele>
        <time>2017-11-18T08:29:25Z</time>
      </trkpt>
      <trkpt lat="45.9009" lon="6.47696">
        <ele>1713.5</ele>
        <time>2017-11-18T08:29:30Z</time>
      </trkpt>
      <trkpt lat="45.90088" lon="6.47694">
        <ele>1714.2</ele>
        <time>2017-11-18T08:29:35Z</time>
      </trkpt>
      <trkpt lat="45.90085" lon="6.47693">
        <ele>1715.4</ele>
        <time>2017-11-18T08:29:40Z</time>
      </trkpt>
      <trkpt lat="45.90083" lon="6.47692">
        <ele>1716.5</ele>
        <time>2017-11-18T08:29:45Z</time>
      </trkpt>
      <trkpt lat="45.90081" lon="6.47691">
        <ele>1717.2</ele>
        <time>2017-11-18T08:29:50Z</time>
      </trkpt>
      <trkpt lat="45.90078" lon="6.47689">
        <ele>1718.1</ele>
        <time>2017-11-18T08:29:55Z</time>
      </trkpt>
      <trkpt lat="45.90076" lon="6.47688">
        <ele>1719</ele>
        <time>2017-11-18T08:30:00Z</time>
      </trkpt>
      <trkpt lat="45.90073" lon="6.47687">
        <ele>1719.7</ele>
        <time>2017-11-18T08:30:05Z</time>
      </trkpt>
      <trkpt lat="45.90071" lon="6.47686">
        <ele>1720.6</ele>
        <time>2017-11-18T08:30:10Z</time>
      </trkpt>
      <trkpt lat="45.90068" lon="6.47685">
        <ele>1721.5</ele>
        <time>2017-11-18T08:30:15Z</time>
      </trkpt>
      <trkpt lat="45.90065" lon="6.47684">
        <ele>1722.7</ele>
        <time>2017-11-18T08:30:20Z</time>
      </trkpt>
      <trkpt lat="45.90063" lon="6.47682">
        <ele>1724.1</ele>
        <time>2017-11-18T08:30:25Z</time>
      </trkpt>
      <trkpt lat="45.9006" lon="6.47681">
        <ele>1725.2</ele>
        <time>2017-11-18T08:30:30Z</time>
      </trkpt>
      <trkpt lat="45.90057" lon="6.47679">
        <ele>1726.3</ele>
        <time>2017-11-18T08:30:35Z</time>
      </trkpt>
      <trkpt lat="45.90055" lon="6.47678">
        <ele>1727.2</ele>
        <time>2017-11-18T08:30:40Z</time>
      </trkpt>
      <trkpt lat="45.90052" lon="6.47676">
        <ele>1728.2</ele>
        <time>2017-11-18T08:30:45Z</time>
      </trkpt>
      <trkpt lat="45.9005" lon="6.47674">
        <ele>1729</ele>
        <time>2017-11-18T08:30:50Z</time>
      </trkpt>
      <trkpt lat="45.90048" lon="6.47672">
        <ele>1730.2</ele>
        <time>2017-11-18T08:30:55Z</time>
      </trkpt>
      <trkpt lat="45.90045" lon="6.47671">
        <ele>1731.1</ele>
        <time>2017-11-18T08:31:00Z</time>
      </trkpt>
      <trkpt lat="45.90042" lon="6.4767">
        <ele>1732</ele>
        <time>2017-11-18T08:31:05Z</time>
      </trkpt>
      <trkpt lat="45.9004" lon="6.47669">
        <ele>1732.9</ele>
        <time>2017-11-18T08:31:10Z</time>
      </trkpt>
      <trkpt lat="45.90038" lon="6.47669">
        <ele>1734</ele>
        <time>2017-11-18T08:31:15Z</time>
      </trkpt>
      <trkpt lat="45.90035" lon="6.47669">
        <ele>1735</ele>
        <time>2017-11-18T08:31:20Z</time>
      </trkpt>
      <trkpt lat="45.90032" lon="6.47668">
        <ele>1736.1</ele>
        <time>2017-11-18T08:31:25Z</time>
      </trkpt>
      <trkpt lat="45.9003" lon="6.47667">
        <ele>1737.3</ele>
        <time>2017-11-18T08:31:30Z</time>
      </trkpt>
      <trkpt lat="45.90027" lon="6.47666">
        <ele>1738.2</ele>
        <time>2017-11-18T08:31:35Z</time>
      </trkpt>
      <trkpt lat="45.90025" lon="6.47667">
        <ele>1738.8</ele>
        <time>2017-11-18T08:31:40Z</time>
      </trkpt>
      <trkpt lat="45.90024" lon="6.47671">
        <ele>1739.5</ele>
        <time>2017-11-18T08:31:45Z</time>
      </trkpt>
      <trkpt lat="45.90024" lon="6.47675">
        <ele>1740.6</ele>
        <time>2017-11-18T08:31:50Z</time>
      </trkpt>
      <trkpt lat="45.90024" lon="6.47679">
        <ele>1741.6</ele>
        <time>2017-11-18T08:31:55Z</time>
      </trkpt>
      <trkpt lat="45.90025" lon="6.47683">
        <ele>1742.5</ele>
        <time>2017-11-18T08:32:00Z</time>
      </trkpt>
      <trkpt lat="45.90025" lon="6.47686">
        <ele>1743.3</ele>
        <time>2017-11-18T08:32:05Z</time>
      </trkpt>
      <trkpt lat="45.90025" lon="6.47691">
        <ele>1744.2</ele>
        <time>2017-11-18T08:32:10Z</time>
      </trkpt>
      <trkpt lat="45.90025" lon="6.47695">
        <ele>1745.1</ele>
        <time>2017-11-18T08:32:15Z</time>
      </trkpt>
      <trkpt lat="45.90026" lon="6.47698">
        <ele>1746</ele>
        <time>2017-11-18T08:32:20Z</time>
      </trkpt>
      <trkpt lat="45.90026" lon="6.47703">
        <ele>1747.1</ele>
        <time>2017-11-18T08:32:25Z</time>
      </trkpt>
      <trkpt lat="45.90027" lon="6.47707">
        <ele>1748.1</ele>
        <time>2017-11-18T08:32:30Z</time>
      </trkpt>
      <trkpt lat="45.90027" lon="6.47711">
        <ele>1748.8</ele>
        <time>2017-11-18T08:32:35Z</time>
      </trkpt>
      <trkpt lat="45.90027" lon="6.47715">
        <ele>1749.6</ele>
        <time>2017-11-18T08:32:40Z</time>
      </trkpt>
      <trkpt lat="45.90027" lon="6.4772">
        <ele>1750.7</ele>
        <time>2017-11-18T08:32:45Z</time>
      </trkpt>
      <trkpt lat="45.90027" lon="6.47725">
        <ele>1751.7</ele>
        <time>2017-11-18T08:32:50Z</time>
      </trkpt>
      <trkpt lat="45.90027" lon="6.4773">
        <ele>1752.8</ele>
        <time>2017-11-18T08:32:55Z</time>
      </trkpt>
      <trkpt lat="45.90027" lon="6.47733">
        <ele>1753.6</ele>
        <time>2017-11-18T08:33:00Z</time>
      </trkpt>
      <trkpt lat="45.90028" lon="6.47735">
        <ele>1754.4</ele>
        <time>2017-11-18T08:33:05Z</time>
      </trkpt>
      <trkpt lat="45.90028" lon="6.47736">
        <ele>1754.9</ele>
        <time>2017-11-18T08:33:10Z</time>
      </trkpt>
      <trkpt lat="45.90026" lon="6.47736">
        <ele>1755.2</ele>
        <time>2017-11-18T08:33:15Z</time>
      </trkpt>
      <trkpt lat="45.90023" lon="6.47736">
        <ele>1756.1</ele>
        <time>2017-11-18T08:33:20Z</time>
      </trkpt>
      <trkpt lat="45.9002" lon="6.47735">
        <ele>1757</ele>
        <time>2017-11-18T08:33:25Z</time>
      </trkpt>
      <trkpt lat="45.90017" lon="6.47735">
        <ele>1757.9</ele>
        <time>2017-11-18T08:33:30Z</time>
      </trkpt>
      <trkpt lat="45.90014" lon="6.47734">
        <ele>1759</ele>
        <time>2017-11-18T08:33:35Z</time>
      </trkpt>
      <trkpt lat="45.90012" lon="6.47733">
        <ele>1759.9</ele>
        <time>2017-11-18T08:33:40Z</time>
      </trkpt>
      <trkpt lat="45.90009" lon="6.47733">
        <ele>1760.8</ele>
        <time>2017-11-18T08:33:45Z</time>
      </trkpt>
      <trkpt lat="45.90006" lon="6.47732">
        <ele>1761.6</ele>
        <time>2017-11-18T08:33:50Z</time>
      </trkpt>
      <trkpt lat="45.90003" lon="6.4773">
        <ele>1762.6</ele>
        <time>2017-11-18T08:33:55Z</time>
      </trkpt>
      <trkpt lat="45.90001" lon="6.47729">
        <ele>1763.6</ele>
        <time>2017-11-18T08:34:00Z</time>
      </trkpt>
      <trkpt lat="45.89998" lon="6.47728">
        <ele>1764.8</ele>
        <time>2017-11-18T08:34:05Z</time>
      </trkpt>
      <trkpt lat="45.89995" lon="6.47727">
        <ele>1765.9</ele>
        <time>2017-11-18T08:34:10Z</time>
      </trkpt>
      <trkpt lat="45.89992" lon="6.47726">
        <ele>1766.6</ele>
        <time>2017-11-18T08:34:15Z</time>
      </trkpt>
      <trkpt lat="45.8999" lon="6.47725">
        <ele>1767.5</ele>
        <time>2017-11-18T08:34:20Z</time>
      </trkpt>
      <trkpt lat="45.89989" lon="6.47724">
        <ele>1768.2</ele>
        <time>2017-11-18T08:34:25Z</time>
      </trkpt>
      <trkpt lat="45.89989" lon="6.47725">
        <ele>1768.7</ele>
        <time>2017-11-18T08:34:30Z</time>
      </trkpt>
      <trkpt lat="45.89989" lon="6.47729">
        <ele>1769.6</ele>
        <time>2017-11-18T08:34:35Z</time>
      </trkpt>
      <trkpt lat="45.89989" lon="6.47733">
        <ele>1770.3</ele>
        <time>2017-11-18T08:34:40Z</time>
      </trkpt>
      <trkpt lat="45.8999" lon="6.47737">
        <ele>1770.8</ele>
        <time>2017-11-18T08:34:45Z</time>
      </trkpt>
      <trkpt lat="45.89989" lon="6.47742">
        <ele>1771.7</ele>
        <time>2017-11-18T08:34:50Z</time>
      </trkpt>
      <trkpt lat="45.89988" lon="6.47746">
        <ele>1772.8</ele>
        <time>2017-11-18T08:34:55Z</time>
      </trkpt>
      <trkpt lat="45.89988" lon="6.4775">
        <ele>1773.5</ele>
        <time>2017-11-18T08:35:00Z</time>
      </trkpt>
      <trkpt lat="45.89988" lon="6.47754">
        <ele>1774.2</ele>
        <time>2017-11-18T08:35:05Z</time>
      </trkpt>
      <trkpt lat="45.89988" lon="6.47757">
        <ele>1775.1</ele>
        <time>2017-11-18T08:35:10Z</time>
      </trkpt>
      <trkpt lat="45.89987" lon="6.47757">
        <ele>1775.4</ele>
        <time>2017-11-18T08:35:15Z</time>
      </trkpt>
      <trkpt lat="45.89985" lon="6.47756">
        <ele>1776.1</ele>
        <time>2017-11-18T08:35:20Z</time>
      </trkpt>
      <trkpt lat="45.89982" lon="6.47754">
        <ele>1777</ele>
        <time>2017-11-18T08:35:25Z</time>
      </trkpt>
      <trkpt lat="45.89979" lon="6.47752">
        <ele>1777.9</ele>
        <time>2017-11-18T08:35:30Z</time>
      </trkpt>
      <trkpt lat="45.89976" lon="6.47751">
        <ele>1778.9</ele>
        <time>2017-11-18T08:35:35Z</time>
      </trkpt>
      <trkpt lat="45.89974" lon="6.47749">
        <ele>1779.8</ele>
        <time>2017-11-18T08:35:40Z</time>
      </trkpt>
      <trkpt lat="45.89972" lon="6.47748">
        <ele>1780.6</ele>
        <time>2017-11-18T08:35:45Z</time>
      </trkpt>
      <trkpt lat="45.8997" lon="6.47746">
        <ele>1781.4</ele>
        <time>2017-11-18T08:35:50Z</time>
      </trkpt>
      <trkpt lat="45.89968" lon="6.47744">
        <ele>1782.4</ele>
        <time>2017-11-18T08:35:55Z</time>
      </trkpt>
      <trkpt lat="45.89965" lon="6.47742">
        <ele>1783.4</ele>
        <time>2017-11-18T08:36:00Z</time>
      </trkpt>
      <trkpt lat="45.89964" lon="6.4774">
        <ele>1783.8</ele>
        <time>2017-11-18T08:36:05Z</time>
      </trkpt>
      <trkpt lat="45.89965" lon="6.47743">
        <ele>1784.5</ele>
        <time>2017-11-18T08:36:10Z</time>
      </trkpt>
      <trkpt lat="45.89964" lon="6.47747">
        <ele>1785.1</ele>
        <time>2017-11-18T08:36:15Z</time>
      </trkpt>
      <trkpt lat="45.89963" lon="6.47751">
        <ele>1785.7</ele>
        <time>2017-11-18T08:36:20Z</time>
      </trkpt>
      <trkpt lat="45.89962" lon="6.47755">
        <ele>1786.5</ele>
        <time>2017-11-18T08:36:25Z</time>
      </trkpt>
      <trkpt lat="45.89961" lon="6.47759">
        <ele>1787.5</ele>
        <time>2017-11-18T08:36:30Z</time>
      </trkpt>
      <trkpt lat="45.89959" lon="6.47761">
        <ele>1788</ele>
        <time>2017-11-18T08:36:35Z</time>
      </trkpt>
      <trkpt lat="45.89957" lon="6.47762">
        <ele>1789.3</ele>
        <time>2017-11-18T08:36:40Z</time>
      </trkpt>
      <trkpt lat="45.89955" lon="6.47763">
        <ele>1790.6</ele>
        <time>2017-11-18T08:36:45Z</time>
      </trkpt>
      <trkpt lat="45.89952" lon="6.47762">
        <ele>1791.8</ele>
        <time>2017-11-18T08:36:50Z</time>
      </trkpt>
      <trkpt lat="45.8995" lon="6.47761">
        <ele>1793</ele>
        <time>2017-11-18T08:36:55Z</time>
      </trkpt>
      <trkpt lat="45.89948" lon="6.47758">
        <ele>1793.7</ele>
        <time>2017-11-18T08:37:00Z</time>
      </trkpt>
      <trkpt lat="45.89945" lon="6.47756">
        <ele>1794.3</ele>
        <time>2017-11-18T08:37:05Z</time>
      </trkpt>
      <trkpt lat="45.89943" lon="6.47753">
        <ele>1794.7</ele>
        <time>2017-11-18T08:37:10Z</time>
      </trkpt>
      <trkpt lat="45.89942" lon="6.4775">
        <ele>1794.9</ele>
        <time>2017-11-18T08:37:15Z</time>
      </trkpt>
      <trkpt lat="45.8994" lon="6.47746">
        <ele>1795.6</ele>
        <time>2017-11-18T08:37:20Z</time>
      </trkpt>
      <trkpt lat="45.89938" lon="6.47742">
        <ele>1796.3</ele>
        <time>2017-11-18T08:37:25Z</time>
      </trkpt>
      <trkpt lat="45.89938" lon="6.47737">
        <ele>1796.9</ele>
        <time>2017-11-18T08:37:30Z</time>
      </trkpt>
      <trkpt lat="45.89937" lon="6.47732">
        <ele>1797.8</ele>
        <time>2017-11-18T08:37:35Z</time>
      </trkpt>
      <trkpt lat="45.89935" lon="6.47727">
        <ele>1798.9</ele>
        <time>2017-11-18T08:37:40Z</time>
      </trkpt>
      <trkpt lat="45.89934" lon="6.47722">
        <ele>1799.9</ele>
        <time>2017-11-18T08:37:45Z</time>
      </trkpt>
      <trkpt lat="45.89933" lon="6.47717">
        <ele>1800.7</ele>
        <time>2017-11-18T08:37:50Z</time>
      </trkpt>
      <trkpt lat="45.89932" lon="6.47712">
        <ele>1801.4</ele>
        <time>2017-11-18T08:37:55Z</time>
      </trkpt>
      <trkpt lat="45.89931" lon="6.47706">
        <ele>1801.9</ele>
        <time>2017-11-18T08:38:00Z</time>
      </trkpt>
      <trkpt lat="45.89929" lon="6.47702">
        <ele>1802.7</ele>
        <time>2017-11-18T08:38:05Z</time>
      </trkpt>
      <trkpt lat="45.89928" lon="6.47697">
        <ele>1803.7</ele>
        <time>2017-11-18T08:38:10Z</time>
      </trkpt>
      <trkpt lat="45.89926" lon="6.47693">
        <ele>1804.6</ele>
        <time>2017-11-18T08:38:15Z</time>
      </trkpt>
      <trkpt lat="45.89925" lon="6.47689">
        <ele>1805.6</ele>
        <time>2017-11-18T08:38:20Z</time>
      </trkpt>
      <trkpt lat="45.89924" lon="6.47684">
        <ele>1806.2</ele>
        <time>2017-11-18T08:38:25Z</time>
      </trkpt>
      <trkpt lat="45.89923" lon="6.47679">
        <ele>1806.8</ele>
        <time>2017-11-18T08:38:30Z</time>
      </trkpt>
      <trkpt lat="45.89922" lon="6.47673">
        <ele>1807.5</ele>
        <time>2017-11-18T08:38:35Z</time>
      </trkpt>
      <trkpt lat="45.8992" lon="6.47669">
        <ele>1808.1</ele>
        <time>2017-11-18T08:38:40Z</time>
      </trkpt>
      <trkpt lat="45.89918" lon="6.47665">
        <ele>1808.5</ele>
        <time>2017-11-18T08:38:45Z</time>
      </trkpt>
      <trkpt lat="45.89916" lon="6.4766">
        <ele>1809.1</ele>
        <time>2017-11-18T08:38:50Z</time>
      </trkpt>
      <trkpt lat="45.89914" lon="6.47656">
        <ele>1809.5</ele>
        <time>2017-11-18T08:38:55Z</time>
      </trkpt>
      <trkpt lat="45.89911" lon="6.47652">
        <ele>1810</ele>
        <time>2017-11-18T08:39:00Z</time>
      </trkpt>
      <trkpt lat="45.89908" lon="6.47647">
        <ele>1810.1</ele>
        <time>2017-11-18T08:39:05Z</time>
      </trkpt>
      <trkpt lat="45.89905" lon="6.47644">
        <ele>1810.6</ele>
        <time>2017-11-18T08:39:10Z</time>
      </trkpt>
      <trkpt lat="45.89902" lon="6.47642">
        <ele>1811.3</ele>
        <time>2017-11-18T08:39:15Z</time>
      </trkpt>
      <trkpt lat="45.89899" lon="6.47641">
        <ele>1812.5</ele>
        <time>2017-11-18T08:39:20Z</time>
      </trkpt>
      <trkpt lat="45.89897" lon="6.47642">
        <ele>1813.6</ele>
        <time>2017-11-18T08:39:25Z</time>
      </trkpt>
      <trkpt lat="45.89894" lon="6.47642">
        <ele>1814.4</ele>
        <time>2017-11-18T08:39:30Z</time>
      </trkpt>
      <trkpt lat="45.89891" lon="6.47642">
        <ele>1815.2</ele>
        <time>2017-11-18T08:39:35Z</time>
      </trkpt>
      <trkpt lat="45.89889" lon="6.47641">
        <ele>1816</ele>
        <time>2017-11-18T08:39:40Z</time>
      </trkpt>
      <trkpt lat="45.89886" lon="6.47641">
        <ele>1816.9</ele>
        <time>2017-11-18T08:39:45Z</time>
      </trkpt>
      <trkpt lat="45.89884" lon="6.47643">
        <ele>1817.9</ele>
        <time>2017-11-18T08:39:50Z</time>
      </trkpt>
      <trkpt lat="45.89884" lon="6.47647">
        <ele>1818.7</ele>
        <time>2017-11-18T08:39:55Z</time>
      </trkpt>
      <trkpt lat="45.89884" lon="6.47652">
        <ele>1819.7</ele>
        <time>2017-11-18T08:40:00Z</time>
      </trkpt>
      <trkpt lat="45.89883" lon="6.47656">
        <ele>1820.4</ele>
        <time>2017-11-18T08:40:05Z</time>
      </trkpt>
      <trkpt lat="45.89883" lon="6.4766">
        <ele>1821.3</ele>
        <time>2017-11-18T08:40:10Z</time>
      </trkpt>
      <trkpt lat="45.89882" lon="6.47663">
        <ele>1821.9</ele>
        <time>2017-11-18T08:40:15Z</time>
      </trkpt>
      <trkpt lat="45.89881" lon="6.47667">
        <ele>1822.8</ele>
        <time>2017-11-18T08:40:20Z</time>
      </trkpt>
      <trkpt lat="45.89878" lon="6.47669">
        <ele>1823.6</ele>
        <time>2017-11-18T08:40:25Z</time>
      </trkpt>
      <trkpt lat="45.89874" lon="6.47671">
        <ele>1824.8</ele>
        <time>2017-11-18T08:40:30Z</time>
      </trkpt>
      <trkpt lat="45.89871" lon="6.47673">
        <ele>1825.6</ele>
        <time>2017-11-18T08:40:35Z</time>
      </trkpt>
      <trkpt lat="45.89867" lon="6.47673">
        <ele>1826.8</ele>
        <time>2017-11-18T08:40:40Z</time>
      </trkpt>
      <trkpt lat="45.89863" lon="6.47673">
        <ele>1827.9</ele>
        <time>2017-11-18T08:40:45Z</time>
      </trkpt>
      <trkpt lat="45.8986" lon="6.47673">
        <ele>1829.1</ele>
        <time>2017-11-18T08:40:50Z</time>
      </trkpt>
      <trkpt lat="45.89857" lon="6.47674">
        <ele>1830.3</ele>
        <time>2017-11-18T08:40:55Z</time>
      </trkpt>
      <trkpt lat="45.89854" lon="6.47675">
        <ele>1831</ele>
        <time>2017-11-18T08:41:00Z</time>
      </trkpt>
      <trkpt lat="45.89851" lon="6.47676">
        <ele>1832</ele>
        <time>2017-11-18T08:41:05Z</time>
      </trkpt>
      <trkpt lat="45.8985" lon="6.47679">
        <ele>1832.9</ele>
        <time>2017-11-18T08:41:10Z</time>
      </trkpt>
      <trkpt lat="45.8985" lon="6.47683">
        <ele>1833.5</ele>
        <time>2017-11-18T08:41:15Z</time>
      </trkpt>
      <trkpt lat="45.89852" lon="6.47686">
        <ele>1834.4</ele>
        <time>2017-11-18T08:41:20Z</time>
      </trkpt>
      <trkpt lat="45.89852" lon="6.4769">
        <ele>1835.2</ele>
        <time>2017-11-18T08:41:25Z</time>
      </trkpt>
      <trkpt lat="45.89853" lon="6.47693">
        <ele>1836.1</ele>
        <time>2017-11-18T08:41:30Z</time>
      </trkpt>
      <trkpt lat="45.89854" lon="6.47697">
        <ele>1836.8</ele>
        <time>2017-11-18T08:41:35Z</time>
      </trkpt>
      <trkpt lat="45.89852" lon="6.47698">
        <ele>1838</ele>
        <time>2017-11-18T08:41:40Z</time>
      </trkpt>
      <trkpt lat="45.89849" lon="6.47698">
        <ele>1838.8</ele>
        <time>2017-11-18T08:41:45Z</time>
      </trkpt>
      <trkpt lat="45.89846" lon="6.47699">
        <ele>1840</ele>
        <time>2017-11-18T08:41:50Z</time>
      </trkpt>
      <trkpt lat="45.89843" lon="6.477">
        <ele>1840.7</ele>
        <time>2017-11-18T08:41:55Z</time>
      </trkpt>
      <trkpt lat="45.89841" lon="6.47701">
        <ele>1841.2</ele>
        <time>2017-11-18T08:42:00Z</time>
      </trkpt>
      <trkpt lat="45.89838" lon="6.47702">
        <ele>1842.4</ele>
        <time>2017-11-18T08:42:05Z</time>
      </trkpt>
      <trkpt lat="45.89836" lon="6.47702">
        <ele>1843.6</ele>
        <time>2017-11-18T08:42:10Z</time>
      </trkpt>
      <trkpt lat="45.89834" lon="6.47705">
        <ele>1844.6</ele>
        <time>2017-11-18T08:42:15Z</time>
      </trkpt>
      <trkpt lat="45.89831" lon="6.47707">
        <ele>1845.7</ele>
        <time>2017-11-18T08:42:20Z</time>
      </trkpt>
      <trkpt lat="45.89828" lon="6.47709">
        <ele>1846.4</ele>
        <time>2017-11-18T08:42:25Z</time>
      </trkpt>
      <trkpt lat="45.89825" lon="6.47711">
        <ele>1846.9</ele>
        <time>2017-11-18T08:42:30Z</time>
      </trkpt>
      <trkpt lat="45.89825" lon="6.47714">
        <ele>1848</ele>
        <time>2017-11-18T08:42:35Z</time>
      </trkpt>
      <trkpt lat="45.89827" lon="6.47718">
        <ele>1849</ele>
        <time>2017-11-18T08:42:40Z</time>
      </trkpt>
      <trkpt lat="45.89829" lon="6.4772">
        <ele>1850</ele>
        <time>2017-11-18T08:42:45Z</time>
      </trkpt>
      <trkpt lat="45.89831" lon="6.47722">
        <ele>1851</ele>
        <time>2017-11-18T08:42:50Z</time>
      </trkpt>
      <trkpt lat="45.89833" lon="6.47724">
        <ele>1852</ele>
        <time>2017-11-18T08:42:55Z</time>
      </trkpt>
      <trkpt lat="45.89835" lon="6.47727">
        <ele>1852.7</ele>
        <time>2017-11-18T08:43:00Z</time>
      </trkpt>
      <trkpt lat="45.89836" lon="6.47731">
        <ele>1853.8</ele>
        <time>2017-11-18T08:43:05Z</time>
      </trkpt>
      <trkpt lat="45.89837" lon="6.47734">
        <ele>1854.6</ele>
        <time>2017-11-18T08:43:10Z</time>
      </trkpt>
      <trkpt lat="45.89838" lon="6.47738">
        <ele>1855.5</ele>
        <time>2017-11-18T08:43:15Z</time>
      </trkpt>
      <trkpt lat="45.89837" lon="6.47742">
        <ele>1856.2</ele>
        <time>2017-11-18T08:43:20Z</time>
      </trkpt>
      <trkpt lat="45.89837" lon="6.47746">
        <ele>1856.9</ele>
        <time>2017-11-18T08:43:25Z</time>
      </trkpt>
      <trkpt lat="45.89837" lon="6.47749">
        <ele>1857.8</ele>
        <time>2017-11-18T08:43:30Z</time>
      </trkpt>
      <trkpt lat="45.89837" lon="6.47753">
        <ele>1858.5</ele>
        <time>2017-11-18T08:43:35Z</time>
      </trkpt>
      <trkpt lat="45.89835" lon="6.47756">
        <ele>1859.7</ele>
        <time>2017-11-18T08:43:40Z</time>
      </trkpt>
      <trkpt lat="45.89832" lon="6.47759">
        <ele>1860.4</ele>
        <time>2017-11-18T08:43:45Z</time>
      </trkpt>
      <trkpt lat="45.89829" lon="6.47761">
        <ele>1861.7</ele>
        <time>2017-11-18T08:43:50Z</time>
      </trkpt>
      <trkpt lat="45.89827" lon="6.47762">
        <ele>1862.5</ele>
        <time>2017-11-18T08:43:55Z</time>
      </trkpt>
      <trkpt lat="45.89824" lon="6.47763">
        <ele>1863.6</ele>
        <time>2017-11-18T08:44:00Z</time>
      </trkpt>
      <trkpt lat="45.89822" lon="6.47766">
        <ele>1864.4</ele>
        <time>2017-11-18T08:44:05Z</time>
      </trkpt>
      <trkpt lat="45.8982" lon="6.47768">
        <ele>1865.1</ele>
        <time>2017-11-18T08:44:10Z</time>
      </trkpt>
      <trkpt lat="45.89818" lon="6.4777">
        <ele>1865.8</ele>
        <time>2017-11-18T08:44:15Z</time>
      </trkpt>
      <trkpt lat="45.89818" lon="6.47774">
        <ele>1866.9</ele>
        <time>2017-11-18T08:44:20Z</time>
      </trkpt>
      <trkpt lat="45.8982" lon="6.47777">
        <ele>1867.8</ele>
        <time>2017-11-18T08:44:25Z</time>
      </trkpt>
      <trkpt lat="45.89822" lon="6.4778">
        <ele>1868.7</ele>
        <time>2017-11-18T08:44:30Z</time>
      </trkpt>
      <trkpt lat="45.89822" lon="6.47784">
        <ele>1869.6</ele>
        <time>2017-11-18T08:44:35Z</time>
      </trkpt>
      <trkpt lat="45.89821" lon="6.47787">
        <ele>1870.5</ele>
        <time>2017-11-18T08:44:40Z</time>
      </trkpt>
      <trkpt lat="45.89819" lon="6.4779">
        <ele>1871.4</ele>
        <time>2017-11-18T08:44:45Z</time>
      </trkpt>
      <trkpt lat="45.89816" lon="6.47792">
        <ele>1872.8</ele>
        <time>2017-11-18T08:44:50Z</time>
      </trkpt>
      <trkpt lat="45.89814" lon="6.47793">
        <ele>1873.6</ele>
        <time>2017-11-18T08:44:55Z</time>
      </trkpt>
      <trkpt lat="45.89812" lon="6.47794">
        <ele>1874.6</ele>
        <time>2017-11-18T08:45:00Z</time>
      </trkpt>
      <trkpt lat="45.89809" lon="6.47796">
        <ele>1875.4</ele>
        <time>2017-11-18T08:45:05Z</time>
      </trkpt>
      <trkpt lat="45.89807" lon="6.47797">
        <ele>1876.6</ele>
        <time>2017-11-18T08:45:10Z</time>
      </trkpt>
      <trkpt lat="45.89805" lon="6.47798">
        <ele>1877.5</ele>
        <time>2017-11-18T08:45:15Z</time>
      </trkpt>
      <trkpt lat="45.89803" lon="6.478">
        <ele>1878.6</ele>
        <time>2017-11-18T08:45:20Z</time>
      </trkpt>
      <trkpt lat="45.89802" lon="6.47803">
        <ele>1879.7</ele>
        <time>2017-11-18T08:45:25Z</time>
      </trkpt>
      <trkpt lat="45.89804" lon="6.47806">
        <ele>1880.4</ele>
        <time>2017-11-18T08:45:30Z</time>
      </trkpt>
      <trkpt lat="45.89806" lon="6.47809">
        <ele>1881.1</ele>
        <time>2017-11-18T08:45:35Z</time>
      </trkpt>
      <trkpt lat="45.89807" lon="6.47812">
        <ele>1881.8</ele>
        <time>2017-11-18T08:45:40Z</time>
      </trkpt>
      <trkpt lat="45.89809" lon="6.47816">
        <ele>1882.8</ele>
        <time>2017-11-18T08:45:45Z</time>
      </trkpt>
      <trkpt lat="45.89811" lon="6.47819">
        <ele>1883.5</ele>
        <time>2017-11-18T08:45:50Z</time>
      </trkpt>
      <trkpt lat="45.89812" lon="6.47821">
        <ele>1884.6</ele>
        <time>2017-11-18T08:45:55Z</time>
      </trkpt>
      <trkpt lat="45.89815" lon="6.47824">
        <ele>1885.3</ele>
        <time>2017-11-18T08:46:00Z</time>
      </trkpt>
      <trkpt lat="45.89817" lon="6.47826">
        <ele>1885.8</ele>
        <time>2017-11-18T08:46:05Z</time>
      </trkpt>
      <trkpt lat="45.89819" lon="6.47827">
        <ele>1886.5</ele>
        <time>2017-11-18T08:46:10Z</time>
      </trkpt>
      <trkpt lat="45.89822" lon="6.47828">
        <ele>1887.1</ele>
        <time>2017-11-18T08:46:15Z</time>
      </trkpt>
      <trkpt lat="45.89824" lon="6.47829">
        <ele>1887.7</ele>
        <time>2017-11-18T08:46:20Z</time>
      </trkpt>
      <trkpt lat="45.89827" lon="6.47831">
        <ele>1888.7</ele>
        <time>2017-11-18T08:46:25Z</time>
      </trkpt>
      <trkpt lat="45.89828" lon="6.47835">
        <ele>1889.4</ele>
        <time>2017-11-18T08:46:30Z</time>
      </trkpt>
      <trkpt lat="45.89825" lon="6.47836">
        <ele>1890.4</ele>
        <time>2017-11-18T08:46:35Z</time>
      </trkpt>
      <trkpt lat="45.89822" lon="6.47836">
        <ele>1891.1</ele>
        <time>2017-11-18T08:46:40Z</time>
      </trkpt>
      <trkpt lat="45.89819" lon="6.47837">
        <ele>1891.5</ele>
        <time>2017-11-18T08:46:45Z</time>
      </trkpt>
      <trkpt lat="45.89816" lon="6.47838">
        <ele>1892.2</ele>
        <time>2017-11-18T08:46:50Z</time>
      </trkpt>
      <trkpt lat="45.89813" lon="6.4784">
        <ele>1892.7</ele>
        <time>2017-11-18T08:46:55Z</time>
      </trkpt>
      <trkpt lat="45.89811" lon="6.47842">
        <ele>1893.5</ele>
        <time>2017-11-18T08:47:00Z</time>
      </trkpt>
      <trkpt lat="45.89808" lon="6.47843">
        <ele>1894.1</ele>
        <time>2017-11-18T08:47:05Z</time>
      </trkpt>
      <trkpt lat="45.89812" lon="6.47844">
        <ele>1894.6</ele>
        <time>2017-11-18T08:47:10Z</time>
      </trkpt>
      <trkpt lat="45.89815" lon="6.47846">
        <ele>1895</ele>
        <time>2017-11-18T08:47:15Z</time>
      </trkpt>
      <trkpt lat="45.89817" lon="6.47849">
        <ele>1895.9</ele>
        <time>2017-11-18T08:47:20Z</time>
      </trkpt>
      <trkpt lat="45.89814" lon="6.4785">
        <ele>1897</ele>
        <time>2017-11-18T08:47:25Z</time>
      </trkpt>
      <trkpt lat="45.89811" lon="6.47851">
        <ele>1897.8</ele>
        <time>2017-11-18T08:47:30Z</time>
      </trkpt>
      <trkpt lat="45.8981" lon="6.47852">
        <ele>1898.3</ele>
        <time>2017-11-18T08:47:35Z</time>
      </trkpt>
      <trkpt lat="45.89812" lon="6.47855">
        <ele>1898.9</ele>
        <time>2017-11-18T08:47:40Z</time>
      </trkpt>
      <trkpt lat="45.89814" lon="6.47859">
        <ele>1899.4</ele>
        <time>2017-11-18T08:47:45Z</time>
      </trkpt>
      <trkpt lat="45.89814" lon="6.47863">
        <ele>1900.3</ele>
        <time>2017-11-18T08:47:50Z</time>
      </trkpt>
      <trkpt lat="45.89813" lon="6.47867">
        <ele>1901.3</ele>
        <time>2017-11-18T08:47:55Z</time>
      </trkpt>
      <trkpt lat="45.89813" lon="6.4787">
        <ele>1902.1</ele>
        <time>2017-11-18T08:48:00Z</time>
      </trkpt>
      <trkpt lat="45.89813" lon="6.47874">
        <ele>1902.5</ele>
        <time>2017-11-18T08:48:05Z</time>
      </trkpt>
      <trkpt lat="45.89812" lon="6.47877">
        <ele>1903.1</ele>
        <time>2017-11-18T08:48:10Z</time>
      </trkpt>
      <trkpt lat="45.89812" lon="6.47881">
        <ele>1904</ele>
        <time>2017-11-18T08:48:15Z</time>
      </trkpt>
      <trkpt lat="45.89812" lon="6.47883">
        <ele>1905.1</ele>
        <time>2017-11-18T08:48:20Z</time>
      </trkpt>
      <trkpt lat="45.89812" lon="6.47887">
        <ele>1905.9</ele>
        <time>2017-11-18T08:48:25Z</time>
      </trkpt>
      <trkpt lat="45.89813" lon="6.47891">
        <ele>1906.9</ele>
        <time>2017-11-18T08:48:30Z</time>
      </trkpt>
      <trkpt lat="45.89815" lon="6.47894">
        <ele>1907.8</ele>
        <time>2017-11-18T08:48:35Z</time>
      </trkpt>
      <trkpt lat="45.89816" lon="6.47898">
        <ele>1908.7</ele>
        <time>2017-11-18T08:48:40Z</time>
      </trkpt>
      <trkpt lat="45.89815" lon="6.47897">
        <ele>1909.2</ele>
        <time>2017-11-18T08:48:45Z</time>
      </trkpt>
      <trkpt lat="45.89814" lon="6.47897">
        <ele>1909.5</ele>
        <time>2017-11-18T08:48:50Z</time>
      </trkpt>
      <trkpt lat="45.89811" lon="6.47896">
        <ele>1910.4</ele>
        <time>2017-11-18T08:48:55Z</time>
      </trkpt>
      <trkpt lat="45.89809" lon="6.47895">
        <ele>1911.1</ele>
        <time>2017-11-18T08:49:00Z</time>
      </trkpt>
      <trkpt lat="45.89806" lon="6.47894">
        <ele>1911.9</ele>
        <time>2017-11-18T08:49:05Z</time>
      </trkpt>
      <trkpt lat="45.89804" lon="6.47893">
        <ele>1912.6</ele>
        <time>2017-11-18T08:49:10Z</time>
      </trkpt>
      <trkpt lat="45.89801" lon="6.47892">
        <ele>1913</ele>
        <time>2017-11-18T08:49:15Z</time>
      </trkpt>
      <trkpt lat="45.89799" lon="6.47891">
        <ele>1913.6</ele>
        <time>2017-11-18T08:49:20Z</time>
      </trkpt>
      <trkpt lat="45.898" lon="6.47892">
        <ele>1914.2</ele>
        <time>2017-11-18T08:49:25Z</time>
      </trkpt>
      <trkpt lat="45.89801" lon="6.47895">
        <ele>1914.8</ele>
        <time>2017-11-18T08:49:30Z</time>
      </trkpt>
      <trkpt lat="45.89802" lon="6.47899">
        <ele>1915.6</ele>
        <time>2017-11-18T08:49:35Z</time>
      </trkpt>
      <trkpt lat="45.89803" lon="6.47903">
        <ele>1916.2</ele>
        <time>2017-11-18T08:49:40Z</time>
      </trkpt>
      <trkpt lat="45.89804" lon="6.47907">
        <ele>1917.1</ele>
        <time>2017-11-18T08:49:45Z</time>
      </trkpt>
      <trkpt lat="45.89804" lon="6.47912">
        <ele>1917.9</ele>
        <time>2017-11-18T08:49:50Z</time>
      </trkpt>
      <trkpt lat="45.89805" lon="6.47915">
        <ele>1918.8</ele>
        <time>2017-11-18T08:49:55Z</time>
      </trkpt>
      <trkpt lat="45.89805" lon="6.47919">
        <ele>1919.6</ele>
        <time>2017-11-18T08:50:00Z</time>
      </trkpt>
      <trkpt lat="45.89804" lon="6.47922">
        <ele>1920.5</ele>
        <time>2017-11-18T08:50:05Z</time>
      </trkpt>
      <trkpt lat="45.89803" lon="6.47925">
        <ele>1921.4</ele>
        <time>2017-11-18T08:50:10Z</time>
      </trkpt>
      <trkpt lat="45.89802" lon="6.47929">
        <ele>1922.2</ele>
        <time>2017-11-18T08:50:15Z</time>
      </trkpt>
      <trkpt lat="45.89801" lon="6.47932">
        <ele>1923</ele>
        <time>2017-11-18T08:50:20Z</time>
      </trkpt>
      <trkpt lat="45.89801" lon="6.47935">
        <ele>1924</ele>
        <time>2017-11-18T08:50:25Z</time>
      </trkpt>
      <trkpt lat="45.898" lon="6.47939">
        <ele>1924.7</ele>
        <time>2017-11-18T08:50:30Z</time>
      </trkpt>
      <trkpt lat="45.898" lon="6.47943">
        <ele>1925.4</ele>
        <time>2017-11-18T08:50:35Z</time>
      </trkpt>
      <trkpt lat="45.89799" lon="6.47947">
        <ele>1926</ele>
        <time>2017-11-18T08:50:40Z</time>
      </trkpt>
      <trkpt lat="45.89799" lon="6.4795">
        <ele>1926.7</ele>
        <time>2017-11-18T08:50:45Z</time>
      </trkpt>
      <trkpt lat="45.89798" lon="6.47954">
        <ele>1927.8</ele>
        <time>2017-11-18T08:50:50Z</time>
      </trkpt>
      <trkpt lat="45.89799" lon="6.47958">
        <ele>1928.7</ele>
        <time>2017-11-18T08:50:55Z</time>
      </trkpt>
      <trkpt lat="45.898" lon="6.47962">
        <ele>1929.2</ele>
        <time>2017-11-18T08:51:00Z</time>
      </trkpt>
      <trkpt lat="45.89801" lon="6.47966">
        <ele>1929.9</ele>
        <time>2017-11-18T08:51:05Z</time>
      </trkpt>
      <trkpt lat="45.89802" lon="6.47969">
        <ele>1930.8</ele>
        <time>2017-11-18T08:51:10Z</time>
      </trkpt>
      <trkpt lat="45.89804" lon="6.47973">
        <ele>1931.9</ele>
        <time>2017-11-18T08:51:15Z</time>
      </trkpt>
      <trkpt lat="45.89806" lon="6.47976">
        <ele>1932.7</ele>
        <time>2017-11-18T08:51:20Z</time>
      </trkpt>
      <trkpt lat="45.89808" lon="6.47979">
        <ele>1933.2</ele>
        <time>2017-11-18T08:51:25Z</time>
      </trkpt>
      <trkpt lat="45.89809" lon="6.47982">
        <ele>1934</ele>
        <time>2017-11-18T08:51:30Z</time>
      </trkpt>
      <trkpt lat="45.89811" lon="6.47985">
        <ele>1934.9</ele>
        <time>2017-11-18T08:51:35Z</time>
      </trkpt>
      <trkpt lat="45.89811" lon="6.47988">
        <ele>1935.3</ele>
        <time>2017-11-18T08:51:40Z</time>
      </trkpt>
      <trkpt lat="45.89809" lon="6.47988">
        <ele>1935.8</ele>
        <time>2017-11-18T08:51:45Z</time>
      </trkpt>
      <trkpt lat="45.89806" lon="6.47989">
        <ele>1936.8</ele>
        <time>2017-11-18T08:51:50Z</time>
      </trkpt>
      <trkpt lat="45.89804" lon="6.47989">
        <ele>1938</ele>
        <time>2017-11-18T08:51:55Z</time>
      </trkpt>
      <trkpt lat="45.89801" lon="6.47991">
        <ele>1939</ele>
        <time>2017-11-18T08:52:00Z</time>
      </trkpt>
      <trkpt lat="45.89799" lon="6.47993">
        <ele>1939.6</ele>
        <time>2017-11-18T08:52:05Z</time>
      </trkpt>
      <trkpt lat="45.89797" lon="6.47995">
        <ele>1940.5</ele>
        <time>2017-11-18T08:52:10Z</time>
      </trkpt>
      <trkpt lat="45.89797" lon="6.47995">
        <ele>1940.9</ele>
        <time>2017-11-18T08:52:15Z</time>
      </trkpt>
      <trkpt lat="45.898" lon="6.47997">
        <ele>1941.5</ele>
        <time>2017-11-18T08:52:20Z</time>
      </trkpt>
      <trkpt lat="45.89802" lon="6.47999">
        <ele>1942.2</ele>
        <time>2017-11-18T08:52:25Z</time>
      </trkpt>
      <trkpt lat="45.89803" lon="6.48002">
        <ele>1943.2</ele>
        <time>2017-11-18T08:52:30Z</time>
      </trkpt>
      <trkpt lat="45.89804" lon="6.48006">
        <ele>1944.1</ele>
        <time>2017-11-18T08:52:35Z</time>
      </trkpt>
      <trkpt lat="45.89804" lon="6.48009">
        <ele>1944.9</ele>
        <time>2017-11-18T08:52:40Z</time>
      </trkpt>
      <trkpt lat="45.89805" lon="6.48012">
        <ele>1945.9</ele>
        <time>2017-11-18T08:52:45Z</time>
      </trkpt>
      <trkpt lat="45.89803" lon="6.48013">
        <ele>1946.4</ele>
        <time>2017-11-18T08:52:50Z</time>
      </trkpt>
      <trkpt lat="45.89801" lon="6.48013">
        <ele>1947.4</ele>
        <time>2017-11-18T08:52:55Z</time>
      </trkpt>
      <trkpt lat="45.89799" lon="6.48015">
        <ele>1948.6</ele>
        <time>2017-11-18T08:53:00Z</time>
      </trkpt>
      <trkpt lat="45.89797" lon="6.48017">
        <ele>1949.8</ele>
        <time>2017-11-18T08:53:05Z</time>
      </trkpt>
      <trkpt lat="45.89795" lon="6.48018">
        <ele>1950.4</ele>
        <time>2017-11-18T08:53:10Z</time>
      </trkpt>
      <trkpt lat="45.89793" lon="6.4802">
        <ele>1951.2</ele>
        <time>2017-11-18T08:53:15Z</time>
      </trkpt>
      <trkpt lat="45.89792" lon="6.48021">
        <ele>1952</ele>
        <time>2017-11-18T08:53:20Z</time>
      </trkpt>
      <trkpt lat="45.89793" lon="6.48022">
        <ele>1952.1</ele>
        <time>2017-11-18T08:53:25Z</time>
      </trkpt>
      <trkpt lat="45.89796" lon="6.48024">
        <ele>1952.8</ele>
        <time>2017-11-18T08:53:30Z</time>
      </trkpt>
      <trkpt lat="45.89797" lon="6.48027">
        <ele>1953.5</ele>
        <time>2017-11-18T08:53:35Z</time>
      </trkpt>
      <trkpt lat="45.89798" lon="6.48031">
        <ele>1954.5</ele>
        <time>2017-11-18T08:53:40Z</time>
      </trkpt>
      <trkpt lat="45.898" lon="6.48033">
        <ele>1955.4</ele>
        <time>2017-11-18T08:53:45Z</time>
      </trkpt>
      <trkpt lat="45.898" lon="6.48037">
        <ele>1956.2</ele>
        <time>2017-11-18T08:53:50Z</time>
      </trkpt>
      <trkpt lat="45.89801" lon="6.48039">
        <ele>1956.8</ele>
        <time>2017-11-18T08:53:55Z</time>
      </trkpt>
      <trkpt lat="45.898" lon="6.48038">
        <ele>1957.6</ele>
        <time>2017-11-18T08:54:00Z</time>
      </trkpt>
      <trkpt lat="45.89798" lon="6.4804">
        <ele>1958.3</ele>
        <time>2017-11-18T08:54:05Z</time>
      </trkpt>
      <trkpt lat="45.89796" lon="6.48042">
        <ele>1959.2</ele>
        <time>2017-11-18T08:54:10Z</time>
      </trkpt>
      <trkpt lat="45.89794" lon="6.48044">
        <ele>1960</ele>
        <time>2017-11-18T08:54:15Z</time>
      </trkpt>
      <trkpt lat="45.89792" lon="6.48046">
        <ele>1960.5</ele>
        <time>2017-11-18T08:54:20Z</time>
      </trkpt>
      <trkpt lat="45.89793" lon="6.48048">
        <ele>1960.9</ele>
        <time>2017-11-18T08:54:25Z</time>
      </trkpt>
      <trkpt lat="45.89795" lon="6.4805">
        <ele>1961.7</ele>
        <time>2017-11-18T08:54:30Z</time>
      </trkpt>
      <trkpt lat="45.89797" lon="6.48053">
        <ele>1962.6</ele>
        <time>2017-11-18T08:54:35Z</time>
      </trkpt>
      <trkpt lat="45.89798" lon="6.48055">
        <ele>1963.3</ele>
        <time>2017-11-18T08:54:40Z</time>
      </trkpt>
      <trkpt lat="45.898" lon="6.48058">
        <ele>1964.3</ele>
        <time>2017-11-18T08:54:45Z</time>
      </trkpt>
      <trkpt lat="45.89802" lon="6.4806">
        <ele>1965</ele>
        <time>2017-11-18T08:54:50Z</time>
      </trkpt>
      <trkpt lat="45.89801" lon="6.48061">
        <ele>1965.8</ele>
        <time>2017-11-18T08:54:55Z</time>
      </trkpt>
      <trkpt lat="45.89799" lon="6.48062">
        <ele>1966.4</ele>
        <time>2017-11-18T08:55:00Z</time>
      </trkpt>
      <trkpt lat="45.89797" lon="6.48063">
        <ele>1967.5</ele>
        <time>2017-11-18T08:55:05Z</time>
      </trkpt>
      <trkpt lat="45.89794" lon="6.48065">
        <ele>1968.3</ele>
        <time>2017-11-18T08:55:10Z</time>
      </trkpt>
      <trkpt lat="45.89795" lon="6.48065">
        <ele>1968.7</ele>
        <time>2017-11-18T08:55:15Z</time>
      </trkpt>
      <trkpt lat="45.89796" lon="6.48067">
        <ele>1969.4</ele>
        <time>2017-11-18T08:55:20Z</time>
      </trkpt>
      <trkpt lat="45.89799" lon="6.48069">
        <ele>1970.1</ele>
        <time>2017-11-18T08:55:25Z</time>
      </trkpt>
      <trkpt lat="45.898" lon="6.48072">
        <ele>1971</ele>
        <time>2017-11-18T08:55:30Z</time>
      </trkpt>
      <trkpt lat="45.89801" lon="6.48075">
        <ele>1971.5</ele>
        <time>2017-11-18T08:55:35Z</time>
      </trkpt>
      <trkpt lat="45.89799" lon="6.48074">
        <ele>1972.3</ele>
        <time>2017-11-18T08:55:40Z</time>
      </trkpt>
      <trkpt lat="45.89796" lon="6.48074">
        <ele>1973.1</ele>
        <time>2017-11-18T08:55:45Z</time>
      </trkpt>
      <trkpt lat="45.89794" lon="6.48075">
        <ele>1973.9</ele>
        <time>2017-11-18T08:55:50Z</time>
      </trkpt>
      <trkpt lat="45.89792" lon="6.48076">
        <ele>1974.8</ele>
        <time>2017-11-18T08:55:55Z</time>
      </trkpt>
      <trkpt lat="45.89789" lon="6.48077">
        <ele>1975.3</ele>
        <time>2017-11-18T08:56:00Z</time>
      </trkpt>
      <trkpt lat="45.89787" lon="6.48078">
        <ele>1975.7</ele>
        <time>2017-11-18T08:56:05Z</time>
      </trkpt>
      <trkpt lat="45.89785" lon="6.48079">
        <ele>1976.3</ele>
        <time>2017-11-18T08:56:10Z</time>
      </trkpt>
      <trkpt lat="45.89782" lon="6.48081">
        <ele>1976.6</ele>
        <time>2017-11-18T08:56:15Z</time>
      </trkpt>
      <trkpt lat="45.89781" lon="6.48083">
        <ele>1977.2</ele>
        <time>2017-11-18T08:56:20Z</time>
      </trkpt>
      <trkpt lat="45.89779" lon="6.48084">
        <ele>1978.1</ele>
        <time>2017-11-18T08:56:25Z</time>
      </trkpt>
      <trkpt lat="45.89777" lon="6.48087">
        <ele>1978.7</ele>
        <time>2017-11-18T08:56:30Z</time>
      </trkpt>
      <trkpt lat="45.89776" lon="6.4809">
        <ele>1979.4</ele>
        <time>2017-11-18T08:56:35Z</time>
      </trkpt>
      <trkpt lat="45.89773" lon="6.48093">
        <ele>1980.2</ele>
        <time>2017-11-18T08:56:40Z</time>
      </trkpt>
      <trkpt lat="45.8977" lon="6.48095">
        <ele>1981.1</ele>
        <time>2017-11-18T08:56:45Z</time>
      </trkpt>
      <trkpt lat="45.89769" lon="6.48098">
        <ele>1981.9</ele>
        <time>2017-11-18T08:56:50Z</time>
      </trkpt>
      <trkpt lat="45.89767" lon="6.48101">
        <ele>1982.4</ele>
        <time>2017-11-18T08:56:55Z</time>
      </trkpt>
      <trkpt lat="45.89765" lon="6.48104">
        <ele>1983</ele>
        <time>2017-11-18T08:57:00Z</time>
      </trkpt>
      <trkpt lat="45.89763" lon="6.48106">
        <ele>1983.3</ele>
        <time>2017-11-18T08:57:05Z</time>
      </trkpt>
      <trkpt lat="45.89761" lon="6.48109">
        <ele>1983.8</ele>
        <time>2017-11-18T08:57:10Z</time>
      </trkpt>
      <trkpt lat="45.89758" lon="6.48112">
        <ele>1984.2</ele>
        <time>2017-11-18T08:57:15Z</time>
      </trkpt>
      <trkpt lat="45.89756" lon="6.48114">
        <ele>1984.4</ele>
        <time>2017-11-18T08:57:20Z</time>
      </trkpt>
      <trkpt lat="45.89753" lon="6.48117">
        <ele>1985.1</ele>
        <time>2017-11-18T08:57:25Z</time>
      </trkpt>
      <trkpt lat="45.89751" lon="6.4812">
        <ele>1985.8</ele>
        <time>2017-11-18T08:57:30Z</time>
      </trkpt>
      <trkpt lat="45.89749" lon="6.48123">
        <ele>1986.6</ele>
        <time>2017-11-18T08:57:35Z</time>
      </trkpt>
      <trkpt lat="45.89747" lon="6.48127">
        <ele>1987.5</ele>
        <time>2017-11-18T08:57:40Z</time>
      </trkpt>
      <trkpt lat="45.89744" lon="6.48131">
        <ele>1988.5</ele>
        <time>2017-11-18T08:57:45Z</time>
      </trkpt>
      <trkpt lat="45.89742" lon="6.48135">
        <ele>1989.2</ele>
        <time>2017-11-18T08:57:50Z</time>
      </trkpt>
      <trkpt lat="45.89739" lon="6.48138">
        <ele>1989.7</ele>
        <time>2017-11-18T08:57:55Z</time>
      </trkpt>
      <trkpt lat="45.89737" lon="6.48142">
        <ele>1990.1</ele>
        <time>2017-11-18T08:58:00Z</time>
      </trkpt>
      <trkpt lat="45.89735" lon="6.48146">
        <ele>1990.3</ele>
        <time>2017-11-18T08:58:05Z</time>
      </trkpt>
      <trkpt lat="45.89732" lon="6.48149">
        <ele>1990.9</ele>
        <time>2017-11-18T08:58:10Z</time>
      </trkpt>
      <trkpt lat="45.8973" lon="6.48151">
        <ele>1991.9</ele>
        <time>2017-11-18T08:58:15Z</time>
      </trkpt>
      <trkpt lat="45.89728" lon="6.48153">
        <ele>1992.7</ele>
        <time>2017-11-18T08:58:20Z</time>
      </trkpt>
      <trkpt lat="45.89726" lon="6.48157">
        <ele>1993.7</ele>
        <time>2017-11-18T08:58:25Z</time>
      </trkpt>
      <trkpt lat="45.89726" lon="6.4816">
        <ele>1994.8</ele>
        <time>2017-11-18T08:58:30Z</time>
      </trkpt>
      <trkpt lat="45.89728" lon="6.48164">
        <ele>1995.7</ele>
        <time>2017-11-18T08:58:35Z</time>
      </trkpt>
      <trkpt lat="45.89729" lon="6.48167">
        <ele>1996.6</ele>
        <time>2017-11-18T08:58:40Z</time>
      </trkpt>
      <trkpt lat="45.89731" lon="6.4817">
        <ele>1997.4</ele>
        <time>2017-11-18T08:58:45Z</time>
      </trkpt>
      <trkpt lat="45.89732" lon="6.48173">
        <ele>1998</ele>
        <time>2017-11-18T08:58:50Z</time>
      </trkpt>
      <trkpt lat="45.89731" lon="6.48176">
        <ele>1998.8</ele>
        <time>2017-11-18T08:58:55Z</time>
      </trkpt>
      <trkpt lat="45.89729" lon="6.48178">
        <ele>1999.8</ele>
        <time>2017-11-18T08:59:00Z</time>
      </trkpt>
      <trkpt lat="45.89727" lon="6.48181">
        <ele>2000.5</ele>
        <time>2017-11-18T08:59:05Z</time>
      </trkpt>
      <trkpt lat="45.89727" lon="6.48184">
        <ele>2001.3</ele>
        <time>2017-11-18T08:59:10Z</time>
      </trkpt>
      <trkpt lat="45.89729" lon="6.48186">
        <ele>2002</ele>
        <time>2017-11-18T08:59:15Z</time>
      </trkpt>
      <trkpt lat="45.89731" lon="6.48188">
        <ele>2002.5</ele>
        <time>2017-11-18T08:59:20Z</time>
      </trkpt>
      <trkpt lat="45.89734" lon="6.4819">
        <ele>2003.6</ele>
        <time>2017-11-18T08:59:25Z</time>
      </trkpt>
      <trkpt lat="45.89736" lon="6.4819">
        <ele>2004.3</ele>
        <time>2017-11-18T08:59:30Z</time>
      </trkpt>
      <trkpt lat="45.89738" lon="6.4819">
        <ele>2005</ele>
        <time>2017-11-18T08:59:35Z</time>
      </trkpt>
      <trkpt lat="45.8974" lon="6.48191">
        <ele>2006</ele>
        <time>2017-11-18T08:59:40Z</time>
      </trkpt>
      <trkpt lat="45.89743" lon="6.48191">
        <ele>2006.9</ele>
        <time>2017-11-18T08:59:45Z</time>
      </trkpt>
      <trkpt lat="45.89745" lon="6.48191">
        <ele>2007.7</ele>
        <time>2017-11-18T08:59:50Z</time>
      </trkpt>
      <trkpt lat="45.89748" lon="6.48191">
        <ele>2008.6</ele>
        <time>2017-11-18T08:59:55Z</time>
      </trkpt>
      <trkpt lat="45.8975" lon="6.48192">
        <ele>2009.4</ele>
        <time>2017-11-18T09:00:00Z</time>
      </trkpt>
      <trkpt lat="45.89753" lon="6.48193">
        <ele>2010</ele>
        <time>2017-11-18T09:00:05Z</time>
      </trkpt>
      <trkpt lat="45.89755" lon="6.48194">
        <ele>2010.7</ele>
        <time>2017-11-18T09:00:10Z</time>
      </trkpt>
      <trkpt lat="45.89758" lon="6.48196">
        <ele>2011.4</ele>
        <time>2017-11-18T09:00:15Z</time>
      </trkpt>
      <trkpt lat="45.8976" lon="6.48199">
        <ele>2012.1</ele>
        <time>2017-11-18T09:00:20Z</time>
      </trkpt>
      <trkpt lat="45.89761" lon="6.48201">
        <ele>2012.9</ele>
        <time>2017-11-18T09:00:25Z</time>
      </trkpt>
      <trkpt lat="45.89762" lon="6.48205">
        <ele>2013.6</ele>
        <time>2017-11-18T09:00:30Z</time>
      </trkpt>
      <trkpt lat="45.89762" lon="6.48209">
        <ele>2014.5</ele>
        <time>2017-11-18T09:00:35Z</time>
      </trkpt>
      <trkpt lat="45.89762" lon="6.48212">
        <ele>2015.4</ele>
        <time>2017-11-18T09:00:40Z</time>
      </trkpt>
      <trkpt lat="45.89761" lon="6.48216">
        <ele>2016.3</ele>
        <time>2017-11-18T09:00:45Z</time>
      </trkpt>
      <trkpt lat="45.89762" lon="6.4822">
        <ele>2017.4</ele>
        <time>2017-11-18T09:00:50Z</time>
      </trkpt>
      <trkpt lat="45.89763" lon="6.48223">
        <ele>2018.5</ele>
        <time>2017-11-18T09:00:55Z</time>
      </trkpt>
      <trkpt lat="45.89763" lon="6.48227">
        <ele>2019.4</ele>
        <time>2017-11-18T09:01:00Z</time>
      </trkpt>
      <trkpt lat="45.89764" lon="6.4823">
        <ele>2020.3</ele>
        <time>2017-11-18T09:01:05Z</time>
      </trkpt>
      <trkpt lat="45.89765" lon="6.48234">
        <ele>2021.2</ele>
        <time>2017-11-18T09:01:10Z</time>
      </trkpt>
      <trkpt lat="45.89765" lon="6.48237">
        <ele>2021.8</ele>
        <time>2017-11-18T09:01:15Z</time>
      </trkpt>
      <trkpt lat="45.89766" lon="6.48241">
        <ele>2022.4</ele>
        <time>2017-11-18T09:01:20Z</time>
      </trkpt>
      <trkpt lat="45.89767" lon="6.48245">
        <ele>2023.1</ele>
        <time>2017-11-18T09:01:25Z</time>
      </trkpt>
      <trkpt lat="45.89767" lon="6.48248">
        <ele>2023.7</ele>
        <time>2017-11-18T09:01:30Z</time>
      </trkpt>
      <trkpt lat="45.89768" lon="6.48251">
        <ele>2024.4</ele>
        <time>2017-11-18T09:01:35Z</time>
      </trkpt>
      <trkpt lat="45.89769" lon="6.48255">
        <ele>2025.3</ele>
        <time>2017-11-18T09:01:40Z</time>
      </trkpt>
      <trkpt lat="45.8977" lon="6.48258">
        <ele>2026</ele>
        <time>2017-11-18T09:01:45Z</time>
      </trkpt>
      <trkpt lat="45.89771" lon="6.48261">
        <ele>2027</ele>
        <time>2017-11-18T09:01:50Z</time>
      </trkpt>
      <trkpt lat="45.89773" lon="6.48264">
        <ele>2028</ele>
        <time>2017-11-18T09:01:55Z</time>
      </trkpt>
      <trkpt lat="45.89775" lon="6.48266">
        <ele>2028.9</ele>
        <time>2017-11-18T09:02:00Z</time>
      </trkpt>
      <trkpt lat="45.89777" lon="6.48269">
        <ele>2029.6</ele>
        <time>2017-11-18T09:02:05Z</time>
      </trkpt>
      <trkpt lat="45.89777" lon="6.48272">
        <ele>2030.4</ele>
        <time>2017-11-18T09:02:10Z</time>
      </trkpt>
      <trkpt lat="45.89777" lon="6.48276">
        <ele>2031.4</ele>
        <time>2017-11-18T09:02:15Z</time>
      </trkpt>
      <trkpt lat="45.89776" lon="6.4828">
        <ele>2032.4</ele>
        <time>2017-11-18T09:02:20Z</time>
      </trkpt>
      <trkpt lat="45.89774" lon="6.48283">
        <ele>2033.2</ele>
        <time>2017-11-18T09:02:25Z</time>
      </trkpt>
      <trkpt lat="45.89773" lon="6.48286">
        <ele>2033.9</ele>
        <time>2017-11-18T09:02:30Z</time>
      </trkpt>
      <trkpt lat="45.89771" lon="6.48289">
        <ele>2034.5</ele>
        <time>2017-11-18T09:02:35Z</time>
      </trkpt>
      <trkpt lat="45.89769" lon="6.48293">
        <ele>2035.3</ele>
        <time>2017-11-18T09:02:40Z</time>
      </trkpt>
      <trkpt lat="45.89768" lon="6.48296">
        <ele>2036.3</ele>
        <time>2017-11-18T09:02:45Z</time>
      </trkpt>
      <trkpt lat="45.89766" lon="6.483">
        <ele>2036.8</ele>
        <time>2017-11-18T09:02:50Z</time>
      </trkpt>
      <trkpt lat="45.89763" lon="6.48305">
        <ele>2037.3</ele>
        <time>2017-11-18T09:02:55Z</time>
      </trkpt>
      <trkpt lat="45.89761" lon="6.4831">
        <ele>2037.7</ele>
        <time>2017-11-18T09:03:00Z</time>
      </trkpt>
      <trkpt lat="45.89758" lon="6.48315">
        <ele>2037.8</ele>
        <time>2017-11-18T09:03:05Z</time>
      </trkpt>
      <trkpt lat="45.89756" lon="6.48319">
        <ele>2038.5</ele>
        <time>2017-11-18T09:03:10Z</time>
      </trkpt>
      <trkpt lat="45.89754" lon="6.48324">
        <ele>2039.2</ele>
        <time>2017-11-18T09:03:15Z</time>
      </trkpt>
      <trkpt lat="45.89752" lon="6.48328">
        <ele>2039.4</ele>
        <time>2017-11-18T09:03:20Z</time>
      </trkpt>
      <trkpt lat="45.89749" lon="6.48332">
        <ele>2040.1</ele>
        <time>2017-11-18T09:03:25Z</time>
      </trkpt>
      <trkpt lat="45.89747" lon="6.48336">
        <ele>2040.9</ele>
        <time>2017-11-18T09:03:30Z</time>
      </trkpt>
      <trkpt lat="45.89745" lon="6.4834">
        <ele>2041.6</ele>
        <time>2017-11-18T09:03:35Z</time>
      </trkpt>
      <trkpt lat="45.89743" lon="6.48344">
        <ele>2042.7</ele>
        <time>2017-11-18T09:03:40Z</time>
      </trkpt>
      <trkpt lat="45.89741" lon="6.48348">
        <ele>2043.3</ele>
        <time>2017-11-18T09:03:45Z</time>
      </trkpt>
      <trkpt lat="45.89739" lon="6.48352">
        <ele>2044.5</ele>
        <time>2017-11-18T09:03:50Z</time>
      </trkpt>
      <trkpt lat="45.89737" lon="6.48355">
        <ele>2045.3</ele>
        <time>2017-11-18T09:03:55Z</time>
      </trkpt>
      <trkpt lat="45.89735" lon="6.48358">
        <ele>2046.1</ele>
        <time>2017-11-18T09:04:00Z</time>
      </trkpt>
      <trkpt lat="45.89733" lon="6.48362">
        <ele>2046.7</ele>
        <time>2017-11-18T09:04:05Z</time>
      </trkpt>
      <trkpt lat="45.89732" lon="6.48365">
        <ele>2047.4</ele>
        <time>2017-11-18T09:04:10Z</time>
      </trkpt>
      <trkpt lat="45.8973" lon="6.48368">
        <ele>2048.2</ele>
        <time>2017-11-18T09:04:15Z</time>
      </trkpt>
      <trkpt lat="45.89728" lon="6.48371">
        <ele>2049</ele>
        <time>2017-11-18T09:04:20Z</time>
      </trkpt>
      <trkpt lat="45.89726" lon="6.48375">
        <ele>2049.8</ele>
        <time>2017-11-18T09:04:25Z</time>
      </trkpt>
      <trkpt lat="45.89724" lon="6.48378">
        <ele>2050.7</ele>
        <time>2017-11-18T09:04:30Z</time>
      </trkpt>
      <trkpt lat="45.89722" lon="6.48381">
        <ele>2051.4</ele>
        <time>2017-11-18T09:04:35Z</time>
      </trkpt>
      <trkpt lat="45.89719" lon="6.48384">
        <ele>2052.1</ele>
        <time>2017-11-18T09:04:40Z</time>
      </trkpt>
      <trkpt lat="45.89717" lon="6.48387">
        <ele>2052.7</ele>
        <time>2017-11-18T09:04:45Z</time>
      </trkpt>
      <trkpt lat="45.89715" lon="6.48391">
        <ele>2053.5</ele>
        <time>2017-11-18T09:04:50Z</time>
      </trkpt>
      <trkpt lat="45.89714" lon="6.48394">
        <ele>2054.3</ele>
        <time>2017-11-18T09:04:55Z</time>
      </trkpt>
      <trkpt lat="45.89712" lon="6.48398">
        <ele>2055.3</ele>
        <time>2017-11-18T09:05:00Z</time>
      </trkpt>
      <trkpt lat="45.89711" lon="6.48401">
        <ele>2056.3</ele>
        <time>2017-11-18T09:05:05Z</time>
      </trkpt>
      <trkpt lat="45.89709" lon="6.48404">
        <ele>2057.3</ele>
        <time>2017-11-18T09:05:10Z</time>
      </trkpt>
      <trkpt lat="45.89707" lon="6.48408">
        <ele>2058.2</ele>
        <time>2017-11-18T09:05:15Z</time>
      </trkpt>
      <trkpt lat="45.89706" lon="6.4841">
        <ele>2059.3</ele>
        <time>2017-11-18T09:05:20Z</time>
      </trkpt>
      <trkpt lat="45.89705" lon="6.48413">
        <ele>2060.3</ele>
        <time>2017-11-18T09:05:25Z</time>
      </trkpt>
      <trkpt lat="45.89703" lon="6.48415">
        <ele>2061</ele>
        <time>2017-11-18T09:05:30Z</time>
      </trkpt>
      <trkpt lat="45.897" lon="6.48418">
        <ele>2061.8</ele>
        <time>2017-11-18T09:05:35Z</time>
      </trkpt>
      <trkpt lat="45.897" lon="6.48418">
        <ele>2062.3</ele>
        <time>2017-11-18T09:05:40Z</time>
      </trkpt>
      <trkpt lat="45.89699" lon="6.48418">
        <ele>2062.6</ele>
        <time>2017-11-18T09:05:45Z</time>
      </trkpt>
      <trkpt lat="45.89696" lon="6.48419">
        <ele>2063.1</ele>
        <time>2017-11-18T09:05:50Z</time>
      </trkpt>
      <trkpt lat="45.89694" lon="6.48421">
        <ele>2064.1</ele>
        <time>2017-11-18T09:05:55Z</time>
      </trkpt>
      <trkpt lat="45.89691" lon="6.48424">
        <ele>2065</ele>
        <time>2017-11-18T09:06:00Z</time>
      </trkpt>
      <trkpt lat="45.89689" lon="6.48427">
        <ele>2065.8</ele>
        <time>2017-11-18T09:06:05Z</time>
      </trkpt>
      <trkpt lat="45.89686" lon="6.48429">
        <ele>2066.7</ele>
        <time>2017-11-18T09:06:10Z</time>
      </trkpt>
      <trkpt lat="45.89684" lon="6.48432">
        <ele>2067.8</ele>
        <time>2017-11-18T09:06:15Z</time>
      </trkpt>
      <trkpt lat="45.89682" lon="6.48434">
        <ele>2068.6</ele>
        <time>2017-11-18T09:06:20Z</time>
      </trkpt>
      <trkpt lat="45.8968" lon="6.48437">
        <ele>2069.6</ele>
        <time>2017-11-18T09:06:25Z</time>
      </trkpt>
      <trkpt lat="45.89678" lon="6.48439">
        <ele>2070.7</ele>
        <time>2017-11-18T09:06:30Z</time>
      </trkpt>
      <trkpt lat="45.89676" lon="6.48441">
        <ele>2071.7</ele>
        <time>2017-11-18T09:06:35Z</time>
      </trkpt>
      <trkpt lat="45.89674" lon="6.48443">
        <ele>2072.6</ele>
        <time>2017-11-18T09:06:40Z</time>
      </trkpt>
      <trkpt lat="45.89671" lon="6.48446">
        <ele>2073.4</ele>
        <time>2017-11-18T09:06:45Z</time>
      </trkpt>
      <trkpt lat="45.89669" lon="6.48449">
        <ele>2074.5</ele>
        <time>2017-11-18T09:06:50Z</time>
      </trkpt>
      <trkpt lat="45.89667" lon="6.48451">
        <ele>2075.5</ele>
        <time>2017-11-18T09:06:55Z</time>
      </trkpt>
      <trkpt lat="45.89666" lon="6.48454">
        <ele>2076.3</ele>
        <time>2017-11-18T09:07:00Z</time>
      </trkpt>
      <trkpt lat="45.89665" lon="6.48457">
        <ele>2077.4</ele>
        <time>2017-11-18T09:07:05Z</time>
      </trkpt>
      <trkpt lat="45.89664" lon="6.4846">
        <ele>2078.5</ele>
        <time>2017-11-18T09:07:10Z</time>
      </trkpt>
      <trkpt lat="45.89664" lon="6.48463">
        <ele>2079.5</ele>
        <time>2017-11-18T09:07:15Z</time>
      </trkpt>
      <trkpt lat="45.89662" lon="6.48466">
        <ele>2080.3</ele>
        <time>2017-11-18T09:07:20Z</time>
      </trkpt>
      <trkpt lat="45.8966" lon="6.48468">
        <ele>2081.3</ele>
        <time>2017-11-18T09:07:25Z</time>
      </trkpt>
      <trkpt lat="45.89659" lon="6.48471">
        <ele>2082</ele>
        <time>2017-11-18T09:07:30Z</time>
      </trkpt>
      <trkpt lat="45.89659" lon="6.48475">
        <ele>2082.8</ele>
        <time>2017-11-18T09:07:35Z</time>
      </trkpt>
      <trkpt lat="45.8966" lon="6.48478">
        <ele>2083.7</ele>
        <time>2017-11-18T09:07:40Z</time>
      </trkpt>
      <trkpt lat="45.89661" lon="6.4848">
        <ele>2084.9</ele>
        <time>2017-11-18T09:07:45Z</time>
      </trkpt>
      <trkpt lat="45.89662" lon="6.48483">
        <ele>2085.8</ele>
        <time>2017-11-18T09:07:50Z</time>
      </trkpt>
      <trkpt lat="45.89663" lon="6.48487">
        <ele>2087</ele>
        <time>2017-11-18T09:07:55Z</time>
      </trkpt>
      <trkpt lat="45.89665" lon="6.4849">
        <ele>2088.2</ele>
        <time>2017-11-18T09:08:00Z</time>
      </trkpt>
      <trkpt lat="45.89668" lon="6.48492">
        <ele>2089.1</ele>
        <time>2017-11-18T09:08:05Z</time>
      </trkpt>
      <trkpt lat="45.89671" lon="6.48493">
        <ele>2089.9</ele>
        <time>2017-11-18T09:08:10Z</time>
      </trkpt>
      <trkpt lat="45.89674" lon="6.48495">
        <ele>2090.4</ele>
        <time>2017-11-18T09:08:15Z</time>
      </trkpt>
      <trkpt lat="45.89677" lon="6.48497">
        <ele>2091</ele>
        <time>2017-11-18T09:08:20Z</time>
      </trkpt>
      <trkpt lat="45.89681" lon="6.48499">
        <ele>2091.6</ele>
        <time>2017-11-18T09:08:25Z</time>
      </trkpt>
      <trkpt lat="45.89684" lon="6.48502">
        <ele>2091.9</ele>
        <time>2017-11-18T09:08:30Z</time>
      </trkpt>
      <trkpt lat="45.89688" lon="6.48504">
        <ele>2092.7</ele>
        <time>2017-11-18T09:08:35Z</time>
      </trkpt>
      <trkpt lat="45.89691" lon="6.48506">
        <ele>2093.4</ele>
        <time>2017-11-18T09:08:40Z</time>
      </trkpt>
      <trkpt lat="45.89694" lon="6.48508">
        <ele>2093.9</ele>
        <time>2017-11-18T09:08:45Z</time>
      </trkpt>
      <trkpt lat="45.89698" lon="6.4851">
        <ele>2094.2</ele>
        <time>2017-11-18T09:08:50Z</time>
      </trkpt>
      <trkpt lat="45.89701" lon="6.48513">
        <ele>2095</ele>
        <time>2017-11-18T09:08:55Z</time>
      </trkpt>
      <trkpt lat="45.89704" lon="6.48515">
        <ele>2096</ele>
        <time>2017-11-18T09:09:00Z</time>
      </trkpt>
      <trkpt lat="45.89707" lon="6.48518">
        <ele>2096.4</ele>
        <time>2017-11-18T09:09:05Z</time>
      </trkpt>
      <trkpt lat="45.89711" lon="6.48521">
        <ele>2096.9</ele>
        <time>2017-11-18T09:09:10Z</time>
      </trkpt>
      <trkpt lat="45.89714" lon="6.48524">
        <ele>2097.6</ele>
        <time>2017-11-18T09:09:15Z</time>
      </trkpt>
      <trkpt lat="45.89718" lon="6.48526">
        <ele>2098.1</ele>
        <time>2017-11-18T09:09:20Z</time>
      </trkpt>
      <trkpt lat="45.89722" lon="6.48529">
        <ele>2098.5</ele>
        <time>2017-11-18T09:09:25Z</time>
      </trkpt>
      <trkpt lat="45.89725" lon="6.48531">
        <ele>2099.1</ele>
        <time>2017-11-18T09:09:30Z</time>
      </trkpt>
      <trkpt lat="45.89728" lon="6.48534">
        <ele>2099.8</ele>
        <time>2017-11-18T09:09:35Z</time>
      </trkpt>
      <trkpt lat="45.89731" lon="6.48536">
        <ele>2100.5</ele>
        <time>2017-11-18T09:09:40Z</time>
      </trkpt>
      <trkpt lat="45.89733" lon="6.4854">
        <ele>2101.4</ele>
        <time>2017-11-18T09:09:45Z</time>
      </trkpt>
      <trkpt lat="45.89735" lon="6.48543">
        <ele>2102</ele>
        <time>2017-11-18T09:09:50Z</time>
      </trkpt>
      <trkpt lat="45.89737" lon="6.48548">
        <ele>2102.5</ele>
        <time>2017-11-18T09:09:55Z</time>
      </trkpt>
      <trkpt lat="45.89738" lon="6.48553">
        <ele>2103</ele>
        <time>2017-11-18T09:10:00Z</time>
      </trkpt>
      <trkpt lat="45.89739" lon="6.48558">
        <ele>2103.4</ele>
        <time>2017-11-18T09:10:05Z</time>
      </trkpt>
      <trkpt lat="45.8974" lon="6.48564">
        <ele>2103.7</ele>
        <time>2017-11-18T09:10:10Z</time>
      </trkpt>
      <trkpt lat="45.89741" lon="6.48568">
        <ele>2104.1</ele>
        <time>2017-11-18T09:10:15Z</time>
      </trkpt>
      <trkpt lat="45.89741" lon="6.48573">
        <ele>2104.6</ele>
        <time>2017-11-18T09:10:20Z</time>
      </trkpt>
      <trkpt lat="45.89742" lon="6.48579">
        <ele>2104.8</ele>
        <time>2017-11-18T09:10:25Z</time>
      </trkpt>
      <trkpt lat="45.89742" lon="6.48584">
        <ele>2105.2</ele>
        <time>2017-11-18T09:10:30Z</time>
      </trkpt>
      <trkpt lat="45.89743" lon="6.48589">
        <ele>2105.4</ele>
        <time>2017-11-18T09:10:35Z</time>
      </trkpt>
      <trkpt lat="45.89744" lon="6.48595">
        <ele>2105.7</ele>
        <time>2017-11-18T09:10:40Z</time>
      </trkpt>
      <trkpt lat="45.89745" lon="6.48599">
        <ele>2106.3</ele>
        <time>2017-11-18T09:10:45Z</time>
      </trkpt>
      <trkpt lat="45.89746" lon="6.48604">
        <ele>2106.9</ele>
        <time>2017-11-18T09:10:50Z</time>
      </trkpt>
      <trkpt lat="45.89747" lon="6.4861">
        <ele>2107.9</ele>
        <time>2017-11-18T09:10:55Z</time>
      </trkpt>
      <trkpt lat="45.89747" lon="6.48615">
        <ele>2108.6</ele>
        <time>2017-11-18T09:11:00Z</time>
      </trkpt>
      <trkpt lat="45.89747" lon="6.48622">
        <ele>2109</ele>
        <time>2017-11-18T09:11:05Z</time>
      </trkpt>
      <trkpt lat="45.89747" lon="6.48627">
        <ele>2109.4</ele>
        <time>2017-11-18T09:11:10Z</time>
      </trkpt>
      <trkpt lat="45.89748" lon="6.48632">
        <ele>2109.7</ele>
        <time>2017-11-18T09:11:15Z</time>
      </trkpt>
      <trkpt lat="45.89749" lon="6.48638">
        <ele>2110.1</ele>
        <time>2017-11-18T09:11:20Z</time>
      </trkpt>
      <trkpt lat="45.8975" lon="6.48643">
        <ele>2110.5</ele>
        <time>2017-11-18T09:11:25Z</time>
      </trkpt>
      <trkpt lat="45.8975" lon="6.48649">
        <ele>2111</ele>
        <time>2017-11-18T09:11:30Z</time>
      </trkpt>
      <trkpt lat="45.89751" lon="6.48654">
        <ele>2111.6</ele>
        <time>2017-11-18T09:11:35Z</time>
      </trkpt>
      <trkpt lat="45.89751" lon="6.48658">
        <ele>2112.2</ele>
        <time>2017-11-18T09:11:40Z</time>
      </trkpt>
      <trkpt lat="45.89753" lon="6.48662">
        <ele>2112.8</ele>
        <time>2017-11-18T09:11:45Z</time>
      </trkpt>
      <trkpt lat="45.89754" lon="6.48667">
        <ele>2113.3</ele>
        <time>2017-11-18T09:11:50Z</time>
      </trkpt>
      <trkpt lat="45.89755" lon="6.48672">
        <ele>2113.5</ele>
        <time>2017-11-18T09:11:55Z</time>
      </trkpt>
      <trkpt lat="45.89757" lon="6.48677">
        <ele>2114.2</ele>
        <time>2017-11-18T09:12:00Z</time>
      </trkpt>
      <trkpt lat="45.89757" lon="6.48682">
        <ele>2114.9</ele>
        <time>2017-11-18T09:12:05Z</time>
      </trkpt>
      <trkpt lat="45.89758" lon="6.48686">
        <ele>2115.2</ele>
        <time>2017-11-18T09:12:10Z</time>
      </trkpt>
      <trkpt lat="45.89759" lon="6.48691">
        <ele>2115.8</ele>
        <time>2017-11-18T09:12:15Z</time>
      </trkpt>
      <trkpt lat="45.8976" lon="6.48695">
        <ele>2116.3</ele>
        <time>2017-11-18T09:12:20Z</time>
      </trkpt>
      <trkpt lat="45.89761" lon="6.48698">
        <ele>2116.9</ele>
        <time>2017-11-18T09:12:25Z</time>
      </trkpt>
      <trkpt lat="45.89762" lon="6.48703">
        <ele>2117.5</ele>
        <time>2017-11-18T09:12:30Z</time>
      </trkpt>
      <trkpt lat="45.89763" lon="6.48708">
        <ele>2118.3</ele>
        <time>2017-11-18T09:12:35Z</time>
      </trkpt>
      <trkpt lat="45.89764" lon="6.48714">
        <ele>2119.1</ele>
        <time>2017-11-18T09:12:40Z</time>
      </trkpt>
      <trkpt lat="45.89765" lon="6.48719">
        <ele>2119.7</ele>
        <time>2017-11-18T09:12:45Z</time>
      </trkpt>
      <trkpt lat="45.89765" lon="6.48724">
        <ele>2120.3</ele>
        <time>2017-11-18T09:12:50Z</time>
      </trkpt>
      <trkpt lat="45.89766" lon="6.48729">
        <ele>2121.1</ele>
        <time>2017-11-18T09:12:55Z</time>
      </trkpt>
      <trkpt lat="45.89768" lon="6.48733">
        <ele>2121.8</ele>
        <time>2017-11-18T09:13:00Z</time>
      </trkpt>
      <trkpt lat="45.89769" lon="6.48738">
        <ele>2122.4</ele>
        <time>2017-11-18T09:13:05Z</time>
      </trkpt>
      <trkpt lat="45.89769" lon="6.48744">
        <ele>2122.8</ele>
        <time>2017-11-18T09:13:10Z</time>
      </trkpt>
      <trkpt lat="45.89769" lon="6.48749">
        <ele>2123.2</ele>
        <time>2017-11-18T09:13:15Z</time>
      </trkpt>
      <trkpt lat="45.8977" lon="6.48754">
        <ele>2123.7</ele>
        <time>2017-11-18T09:13:20Z</time>
      </trkpt>
      <trkpt lat="45.89771" lon="6.48758">
        <ele>2124.1</ele>
        <time>2017-11-18T09:13:25Z</time>
      </trkpt>
      <trkpt lat="45.89771" lon="6.48763">
        <ele>2124.3</ele>
        <time>2017-11-18T09:13:30Z</time>
      </trkpt>
      <trkpt lat="45.8977" lon="6.48771">
        <ele>2125.1</ele>
        <time>2017-11-18T09:13:35Z</time>
      </trkpt>
      <trkpt lat="45.8977" lon="6.48779">
        <ele>2125.6</ele>
        <time>2017-11-18T09:13:40Z</time>
      </trkpt>
      <trkpt lat="45.89769" lon="6.48787">
        <ele>2126.2</ele>
        <time>2017-11-18T09:13:45Z</time>
      </trkpt>
      <trkpt lat="45.8977" lon="6.48793">
        <ele>2126.8</ele>
        <time>2017-11-18T09:13:50Z</time>
      </trkpt>
      <trkpt lat="45.8977" lon="6.48799">
        <ele>2127.4</ele>
        <time>2017-11-18T09:13:55Z</time>
      </trkpt>
      <trkpt lat="45.8977" lon="6.48804">
        <ele>2127.9</ele>
        <time>2017-11-18T09:14:00Z</time>
      </trkpt>
      <trkpt lat="45.89771" lon="6.48809">
        <ele>2128.2</ele>
        <time>2017-11-18T09:14:05Z</time>
      </trkpt>
      <trkpt lat="45.89772" lon="6.48813">
        <ele>2128.5</ele>
        <time>2017-11-18T09:14:10Z</time>
      </trkpt>
      <trkpt lat="45.89773" lon="6.48818">
        <ele>2128.7</ele>
        <time>2017-11-18T09:14:15Z</time>
      </trkpt>
      <trkpt lat="45.89774" lon="6.48822">
        <ele>2129</ele>
        <time>2017-11-18T09:14:20Z</time>
      </trkpt>
      <trkpt lat="45.89774" lon="6.48828">
        <ele>2129.8</ele>
        <time>2017-11-18T09:14:25Z</time>
      </trkpt>
      <trkpt lat="45.89776" lon="6.48831">
        <ele>2130.2</ele>
        <time>2017-11-18T09:14:30Z</time>
      </trkpt>
      <trkpt lat="45.89778" lon="6.48835">
        <ele>2130.5</ele>
        <time>2017-11-18T09:14:35Z</time>
      </trkpt>
      <trkpt lat="45.8978" lon="6.48837">
        <ele>2130.8</ele>
        <time>2017-11-18T09:14:40Z</time>
      </trkpt>
      <trkpt lat="45.89782" lon="6.48843">
        <ele>2131.3</ele>
        <time>2017-11-18T09:14:45Z</time>
      </trkpt>
      <trkpt lat="45.89783" lon="6.48847">
        <ele>2131.7</ele>
        <time>2017-11-18T09:14:50Z</time>
      </trkpt>
      <trkpt lat="45.89784" lon="6.48852">
        <ele>2132.3</ele>
        <time>2017-11-18T09:14:55Z</time>
      </trkpt>
      <trkpt lat="45.89786" lon="6.48855">
        <ele>2133.2</ele>
        <time>2017-11-18T09:15:00Z</time>
      </trkpt>
      <trkpt lat="45.89788" lon="6.48857">
        <ele>2133.8</ele>
        <time>2017-11-18T09:15:05Z</time>
      </trkpt>
      <trkpt lat="45.8979" lon="6.48859">
        <ele>2134.7</ele>
        <time>2017-11-18T09:15:10Z</time>
      </trkpt>
      <trkpt lat="45.89793" lon="6.48859">
        <ele>2135.4</ele>
        <time>2017-11-18T09:15:15Z</time>
      </trkpt>
      <trkpt lat="45.89796" lon="6.48859">
        <ele>2136</ele>
        <time>2017-11-18T09:15:20Z</time>
      </trkpt>
      <trkpt lat="45.89799" lon="6.48861">
        <ele>2136.5</ele>
        <time>2017-11-18T09:15:25Z</time>
      </trkpt>
      <trkpt lat="45.89801" lon="6.48863">
        <ele>2137</ele>
        <time>2017-11-18T09:15:30Z</time>
      </trkpt>
      <trkpt lat="45.89804" lon="6.48866">
        <ele>2137.2</ele>
        <time>2017-11-18T09:15:35Z</time>
      </trkpt>
      <trkpt lat="45.89805" lon="6.4887">
        <ele>2138.1</ele>
        <time>2017-11-18T09:15:40Z</time>
      </trkpt>
      <trkpt lat="45.89803" lon="6.48877">
        <ele>2138.6</ele>
        <time>2017-11-18T09:15:45Z</time>
      </trkpt>
      <trkpt lat="45.89803" lon="6.48885">
        <ele>2138.9</ele>
        <time>2017-11-18T09:15:50Z</time>
      </trkpt>
      <trkpt lat="45.89803" lon="6.4889">
        <ele>2139.5</ele>
        <time>2017-11-18T09:15:55Z</time>
      </trkpt>
      <trkpt lat="45.89804" lon="6.48897">
        <ele>2140.1</ele>
        <time>2017-11-18T09:16:00Z</time>
      </trkpt>
      <trkpt lat="45.89805" lon="6.48904">
        <ele>2140.7</ele>
        <time>2017-11-18T09:16:05Z</time>
      </trkpt>
      <trkpt lat="45.89803" lon="6.48911">
        <ele>2141.2</ele>
        <time>2017-11-18T09:16:10Z</time>
      </trkpt>
      <trkpt lat="45.89801" lon="6.48916">
        <ele>2141.7</ele>
        <time>2017-11-18T09:16:15Z</time>
      </trkpt>
      <trkpt lat="45.89798" lon="6.48921">
        <ele>2142.4</ele>
        <time>2017-11-18T09:16:20Z</time>
      </trkpt>
      <trkpt lat="45.89796" lon="6.48925">
        <ele>2143.1</ele>
        <time>2017-11-18T09:16:25Z</time>
      </trkpt>
      <trkpt lat="45.89793" lon="6.48927">
        <ele>2143.8</ele>
        <time>2017-11-18T09:16:30Z</time>
      </trkpt>
      <trkpt lat="45.8979" lon="6.48928">
        <ele>2144.2</ele>
        <time>2017-11-18T09:16:35Z</time>
      </trkpt>
      <trkpt lat="45.89788" lon="6.48929">
        <ele>2145</ele>
        <time>2017-11-18T09:16:40Z</time>
      </trkpt>
      <trkpt lat="45.89786" lon="6.48931">
        <ele>2145.6</ele>
        <time>2017-11-18T09:16:45Z</time>
      </trkpt>
      <trkpt lat="45.89787" lon="6.48934">
        <ele>2146.4</ele>
        <time>2017-11-18T09:16:50Z</time>
      </trkpt>
      <trkpt lat="45.89788" lon="6.48936">
        <ele>2147.6</ele>
        <time>2017-11-18T09:16:55Z</time>
      </trkpt>
      <trkpt lat="45.8979" lon="6.48939">
        <ele>2148.8</ele>
        <time>2017-11-18T09:17:00Z</time>
      </trkpt>
      <trkpt lat="45.89791" lon="6.48941">
        <ele>2150</ele>
        <time>2017-11-18T09:17:05Z</time>
      </trkpt>
      <trkpt lat="45.89792" lon="6.48943">
        <ele>2150.8</ele>
        <time>2017-11-18T09:17:10Z</time>
      </trkpt>
      <trkpt lat="45.89792" lon="6.48946">
        <ele>2151.8</ele>
        <time>2017-11-18T09:17:15Z</time>
      </trkpt>
      <trkpt lat="45.89793" lon="6.48949">
        <ele>2152.4</ele>
        <time>2017-11-18T09:17:20Z</time>
      </trkpt>
      <trkpt lat="45.89794" lon="6.48954">
        <ele>2153.2</ele>
        <time>2017-11-18T09:17:25Z</time>
      </trkpt>
      <trkpt lat="45.89796" lon="6.48956">
        <ele>2153.5</ele>
        <time>2017-11-18T09:17:30Z</time>
      </trkpt>
      <trkpt lat="45.89797" lon="6.48956">
        <ele>2153.5</ele>
        <time>2017-11-18T09:17:35Z</time>
      </trkpt>
      <trkpt lat="45.89797" lon="6.48957">
        <ele>2153.8</ele>
        <time>2017-11-18T09:17:40Z</time>
      </trkpt>
      <trkpt lat="45.89797" lon="6.4896">
        <ele>2154.4</ele>
        <time>2017-11-18T09:17:45Z</time>
      </trkpt>
      <trkpt lat="45.89797" lon="6.48963">
        <ele>2155.3</ele>
        <time>2017-11-18T09:17:50Z</time>
      </trkpt>
      <trkpt lat="45.89796" lon="6.48966">
        <ele>2156.1</ele>
        <time>2017-11-18T09:17:55Z</time>
      </trkpt>
      <trkpt lat="45.89793" lon="6.48967">
        <ele>2157.1</ele>
        <time>2017-11-18T09:18:00Z</time>
      </trkpt>
      <trkpt lat="45.89791" lon="6.48969">
        <ele>2157.7</ele>
        <time>2017-11-18T09:18:05Z</time>
      </trkpt>
      <trkpt lat="45.8979" lon="6.4897">
        <ele>2158.5</ele>
        <time>2017-11-18T09:18:10Z</time>
      </trkpt>
      <trkpt lat="45.89787" lon="6.48972">
        <ele>2159.5</ele>
        <time>2017-11-18T09:18:15Z</time>
      </trkpt>
      <trkpt lat="45.89784" lon="6.48973">
        <ele>2160.4</ele>
        <time>2017-11-18T09:18:20Z</time>
      </trkpt>
      <trkpt lat="45.89781" lon="6.48975">
        <ele>2161.3</ele>
        <time>2017-11-18T09:18:26Z</time>
      </trkpt>
      <trkpt lat="45.89779" lon="6.48977">
        <ele>2162</ele>
        <time>2017-11-18T09:18:31Z</time>
      </trkpt>
      <trkpt lat="45.89777" lon="6.48978">
        <ele>2163</ele>
        <time>2017-11-18T09:18:36Z</time>
      </trkpt>
      <trkpt lat="45.89775" lon="6.48979">
        <ele>2164.2</ele>
        <time>2017-11-18T09:18:41Z</time>
      </trkpt>
      <trkpt lat="45.89773" lon="6.4898">
        <ele>2165</ele>
        <time>2017-11-18T09:18:46Z</time>
      </trkpt>
      <trkpt lat="45.8977" lon="6.48981">
        <ele>2165.8</ele>
        <time>2017-11-18T09:18:51Z</time>
      </trkpt>
      <trkpt lat="45.89769" lon="6.48984">
        <ele>2166.6</ele>
        <time>2017-11-18T09:18:56Z</time>
      </trkpt>
      <trkpt lat="45.89768" lon="6.48986">
        <ele>2167.4</ele>
        <time>2017-11-18T09:19:01Z</time>
      </trkpt>
      <trkpt lat="45.89769" lon="6.48989">
        <ele>2168.7</ele>
        <time>2017-11-18T09:19:06Z</time>
      </trkpt>
      <trkpt lat="45.89769" lon="6.48991">
        <ele>2169.7</ele>
        <time>2017-11-18T09:19:11Z</time>
      </trkpt>
      <trkpt lat="45.89769" lon="6.48993">
        <ele>2170.5</ele>
        <time>2017-11-18T09:19:16Z</time>
      </trkpt>
      <trkpt lat="45.89769" lon="6.48996">
        <ele>2171.1</ele>
        <time>2017-11-18T09:19:21Z</time>
      </trkpt>
      <trkpt lat="45.8977" lon="6.48999">
        <ele>2172.1</ele>
        <time>2017-11-18T09:19:26Z</time>
      </trkpt>
      <trkpt lat="45.89771" lon="6.49002">
        <ele>2172.6</ele>
        <time>2017-11-18T09:19:31Z</time>
      </trkpt>
      <trkpt lat="45.89772" lon="6.49005">
        <ele>2173.3</ele>
        <time>2017-11-18T09:19:36Z</time>
      </trkpt>
      <trkpt lat="45.89772" lon="6.49007">
        <ele>2173.8</ele>
        <time>2017-11-18T09:19:41Z</time>
      </trkpt>
      <trkpt lat="45.89773" lon="6.4901">
        <ele>2174.2</ele>
        <time>2017-11-18T09:19:46Z</time>
      </trkpt>
      <trkpt lat="45.89773" lon="6.49014">
        <ele>2174.7</ele>
        <time>2017-11-18T09:19:51Z</time>
      </trkpt>
      <trkpt lat="45.89773" lon="6.49018">
        <ele>2175.3</ele>
        <time>2017-11-18T09:19:56Z</time>
      </trkpt>
      <trkpt lat="45.89773" lon="6.49023">
        <ele>2175.6</ele>
        <time>2017-11-18T09:20:01Z</time>
      </trkpt>
      <trkpt lat="45.89774" lon="6.49028">
        <ele>2175.9</ele>
        <time>2017-11-18T09:20:06Z</time>
      </trkpt>
      <trkpt lat="45.89774" lon="6.49033">
        <ele>2175.9</ele>
        <time>2017-11-18T09:20:11Z</time>
      </trkpt>
      <trkpt lat="45.89775" lon="6.49041">
        <ele>2175.4</ele>
        <time>2017-11-18T09:20:16Z</time>
      </trkpt>
      <trkpt lat="45.89775" lon="6.4905">
        <ele>2174.9</ele>
        <time>2017-11-18T09:20:21Z</time>
      </trkpt>
      <trkpt lat="45.89776" lon="6.49057">
        <ele>2175</ele>
        <time>2017-11-18T09:20:26Z</time>
      </trkpt>
      <trkpt lat="45.89776" lon="6.49063">
        <ele>2174.8</ele>
        <time>2017-11-18T09:20:31Z</time>
      </trkpt>
      <trkpt lat="45.89775" lon="6.4907">
        <ele>2175.3</ele>
        <time>2017-11-18T09:20:36Z</time>
      </trkpt>
      <trkpt lat="45.89774" lon="6.49077">
        <ele>2175.8</ele>
        <time>2017-11-18T09:20:41Z</time>
      </trkpt>
      <trkpt lat="45.89774" lon="6.49084">
        <ele>2176.5</ele>
        <time>2017-11-18T09:20:46Z</time>
      </trkpt>
      <trkpt lat="45.89774" lon="6.4909">
        <ele>2177.1</ele>
        <time>2017-11-18T09:20:51Z</time>
      </trkpt>
      <trkpt lat="45.89774" lon="6.49095">
        <ele>2178</ele>
        <time>2017-11-18T09:20:56Z</time>
      </trkpt>
      <trkpt lat="45.89774" lon="6.491">
        <ele>2178.7</ele>
        <time>2017-11-18T09:21:01Z</time>
      </trkpt>
      <trkpt lat="45.89773" lon="6.49105">
        <ele>2179.8</ele>
        <time>2017-11-18T09:21:06Z</time>
      </trkpt>
      <trkpt lat="45.89773" lon="6.49109">
        <ele>2180.7</ele>
        <time>2017-11-18T09:21:11Z</time>
      </trkpt>
      <trkpt lat="45.89773" lon="6.49114">
        <ele>2181.6</ele>
        <time>2017-11-18T09:21:16Z</time>
      </trkpt>
      <trkpt lat="45.89771" lon="6.49118">
        <ele>2182.5</ele>
        <time>2017-11-18T09:21:21Z</time>
      </trkpt>
      <trkpt lat="45.89769" lon="6.49122">
        <ele>2183.4</ele>
        <time>2017-11-18T09:21:26Z</time>
      </trkpt>
      <trkpt lat="45.89767" lon="6.49124">
        <ele>2184.7</ele>
        <time>2017-11-18T09:21:31Z</time>
      </trkpt>
      <trkpt lat="45.89765" lon="6.49128">
        <ele>2185.3</ele>
        <time>2017-11-18T09:21:36Z</time>
      </trkpt>
      <trkpt lat="45.89764" lon="6.49132">
        <ele>2186.1</ele>
        <time>2017-11-18T09:21:41Z</time>
      </trkpt>
      <trkpt lat="45.89764" lon="6.49136">
        <ele>2186.7</ele>
        <time>2017-11-18T09:21:46Z</time>
      </trkpt>
      <trkpt lat="45.89764" lon="6.4914">
        <ele>2187.4</ele>
        <time>2017-11-18T09:21:51Z</time>
      </trkpt>
      <trkpt lat="45.89764" lon="6.49143">
        <ele>2188.1</ele>
        <time>2017-11-18T09:21:56Z</time>
      </trkpt>
      <trkpt lat="45.89763" lon="6.49147">
        <ele>2188.9</ele>
        <time>2017-11-18T09:22:01Z</time>
      </trkpt>
      <trkpt lat="45.89762" lon="6.4915">
        <ele>2189.9</ele>
        <time>2017-11-18T09:22:06Z</time>
      </trkpt>
      <trkpt lat="45.89761" lon="6.49155">
        <ele>2190.6</ele>
        <time>2017-11-18T09:22:11Z</time>
      </trkpt>
      <trkpt lat="45.8976" lon="6.49159">
        <ele>2191.3</ele>
        <time>2017-11-18T09:22:16Z</time>
      </trkpt>
      <trkpt lat="45.8976" lon="6.49162">
        <ele>2192</ele>
        <time>2017-11-18T09:22:21Z</time>
      </trkpt>
      <trkpt lat="45.89759" lon="6.49165">
        <ele>2193</ele>
        <time>2017-11-18T09:22:26Z</time>
      </trkpt>
      <trkpt lat="45.89758" lon="6.49168">
        <ele>2194</ele>
        <time>2017-11-18T09:22:31Z</time>
      </trkpt>
      <trkpt lat="45.89758" lon="6.4917">
        <ele>2195</ele>
        <time>2017-11-18T09:22:36Z</time>
      </trkpt>
      <trkpt lat="45.89757" lon="6.49173">
        <ele>2196</ele>
        <time>2017-11-18T09:22:41Z</time>
      </trkpt>
      <trkpt lat="45.89756" lon="6.49176">
        <ele>2196.7</ele>
        <time>2017-11-18T09:22:46Z</time>
      </trkpt>
      <trkpt lat="45.89755" lon="6.49179">
        <ele>2197.5</ele>
        <time>2017-11-18T09:22:51Z</time>
      </trkpt>
      <trkpt lat="45.89754" lon="6.49182">
        <ele>2198.2</ele>
        <time>2017-11-18T09:22:56Z</time>
      </trkpt>
      <trkpt lat="45.89752" lon="6.49185">
        <ele>2198.9</ele>
        <time>2017-11-18T09:23:01Z</time>
      </trkpt>
      <trkpt lat="45.8975" lon="6.49187">
        <ele>2199.9</ele>
        <time>2017-11-18T09:23:06Z</time>
      </trkpt>
      <trkpt lat="45.89747" lon="6.49188">
        <ele>2200.7</ele>
        <time>2017-11-18T09:23:11Z</time>
      </trkpt>
      <trkpt lat="45.89748" lon="6.49192">
        <ele>2201.4</ele>
        <time>2017-11-18T09:23:16Z</time>
      </trkpt>
      <trkpt lat="45.89747" lon="6.49196">
        <ele>2202.2</ele>
        <time>2017-11-18T09:23:21Z</time>
      </trkpt>
      <trkpt lat="45.89746" lon="6.49199">
        <ele>2203</ele>
        <time>2017-11-18T09:23:26Z</time>
      </trkpt>
      <trkpt lat="45.89746" lon="6.49202">
        <ele>2204.2</ele>
        <time>2017-11-18T09:23:31Z</time>
      </trkpt>
      <trkpt lat="45.89746" lon="6.49206">
        <ele>2204.8</ele>
        <time>2017-11-18T09:23:36Z</time>
      </trkpt>
      <trkpt lat="45.89745" lon="6.49209">
        <ele>2205.3</ele>
        <time>2017-11-18T09:23:41Z</time>
      </trkpt>
      <trkpt lat="45.89743" lon="6.4921">
        <ele>2206.3</ele>
        <time>2017-11-18T09:23:46Z</time>
      </trkpt>
      <trkpt lat="45.8974" lon="6.49212">
        <ele>2207.5</ele>
        <time>2017-11-18T09:23:51Z</time>
      </trkpt>
      <trkpt lat="45.89738" lon="6.49213">
        <ele>2208.3</ele>
        <time>2017-11-18T09:23:56Z</time>
      </trkpt>
      <trkpt lat="45.89739" lon="6.49217">
        <ele>2209.1</ele>
        <time>2017-11-18T09:24:01Z</time>
      </trkpt>
      <trkpt lat="45.89739" lon="6.4922">
        <ele>2209.8</ele>
        <time>2017-11-18T09:24:06Z</time>
      </trkpt>
      <trkpt lat="45.89739" lon="6.49224">
        <ele>2210.4</ele>
        <time>2017-11-18T09:24:11Z</time>
      </trkpt>
      <trkpt lat="45.8974" lon="6.49227">
        <ele>2211.2</ele>
        <time>2017-11-18T09:24:16Z</time>
      </trkpt>
      <trkpt lat="45.8974" lon="6.49229">
        <ele>2211.8</ele>
        <time>2017-11-18T09:24:21Z</time>
      </trkpt>
      <trkpt lat="45.89739" lon="6.49232">
        <ele>2212.8</ele>
        <time>2017-11-18T09:24:26Z</time>
      </trkpt>
      <trkpt lat="45.89737" lon="6.49233">
        <ele>2213.6</ele>
        <time>2017-11-18T09:24:31Z</time>
      </trkpt>
      <trkpt lat="45.89734" lon="6.49235">
        <ele>2214.2</ele>
        <time>2017-11-18T09:24:36Z</time>
      </trkpt>
      <trkpt lat="45.89732" lon="6.49237">
        <ele>2215</ele>
        <time>2017-11-18T09:24:41Z</time>
      </trkpt>
      <trkpt lat="45.89731" lon="6.49241">
        <ele>2216</ele>
        <time>2017-11-18T09:24:46Z</time>
      </trkpt>
      <trkpt lat="45.89732" lon="6.49244">
        <ele>2216.8</ele>
        <time>2017-11-18T09:24:51Z</time>
      </trkpt>
      <trkpt lat="45.89732" lon="6.49247">
        <ele>2217.4</ele>
        <time>2017-11-18T09:24:56Z</time>
      </trkpt>
      <trkpt lat="45.89731" lon="6.4925">
        <ele>2217.9</ele>
        <time>2017-11-18T09:25:01Z</time>
      </trkpt>
      <trkpt lat="45.8973" lon="6.49253">
        <ele>2218.8</ele>
        <time>2017-11-18T09:25:06Z</time>
      </trkpt>
      <trkpt lat="45.89728" lon="6.49253">
        <ele>2219.7</ele>
        <time>2017-11-18T09:25:11Z</time>
      </trkpt>
      <trkpt lat="45.89726" lon="6.49253">
        <ele>2220.3</ele>
        <time>2017-11-18T09:25:16Z</time>
      </trkpt>
      <trkpt lat="45.89724" lon="6.49255">
        <ele>2221.2</ele>
        <time>2017-11-18T09:25:21Z</time>
      </trkpt>
      <trkpt lat="45.89723" lon="6.49258">
        <ele>2222.3</ele>
        <time>2017-11-18T09:25:26Z</time>
      </trkpt>
      <trkpt lat="45.89723" lon="6.49262">
        <ele>2223.4</ele>
        <time>2017-11-18T09:25:31Z</time>
      </trkpt>
      <trkpt lat="45.89723" lon="6.49265">
        <ele>2224.5</ele>
        <time>2017-11-18T09:25:36Z</time>
      </trkpt>
      <trkpt lat="45.89722" lon="6.49269">
        <ele>2225.4</ele>
        <time>2017-11-18T09:25:41Z</time>
      </trkpt>
      <trkpt lat="45.89721" lon="6.49272">
        <ele>2226.4</ele>
        <time>2017-11-18T09:25:46Z</time>
      </trkpt>
      <trkpt lat="45.8972" lon="6.49275">
        <ele>2227.1</ele>
        <time>2017-11-18T09:25:51Z</time>
      </trkpt>
      <trkpt lat="45.89719" lon="6.49278">
        <ele>2228.3</ele>
        <time>2017-11-18T09:25:56Z</time>
      </trkpt>
      <trkpt lat="45.89719" lon="6.49281">
        <ele>2229</ele>
        <time>2017-11-18T09:26:01Z</time>
      </trkpt>
      <trkpt lat="45.89719" lon="6.49283">
        <ele>2229.5</ele>
        <time>2017-11-18T09:26:06Z</time>
      </trkpt>
      <trkpt lat="45.89718" lon="6.49287">
        <ele>2230.5</ele>
        <time>2017-11-18T09:26:11Z</time>
      </trkpt>
      <trkpt lat="45.89717" lon="6.4929">
        <ele>2231.3</ele>
        <time>2017-11-18T09:26:16Z</time>
      </trkpt>
      <trkpt lat="45.89718" lon="6.49293">
        <ele>2232.2</ele>
        <time>2017-11-18T09:26:21Z</time>
      </trkpt>
      <trkpt lat="45.89718" lon="6.49297">
        <ele>2233</ele>
        <time>2017-11-18T09:26:26Z</time>
      </trkpt>
      <trkpt lat="45.89718" lon="6.493">
        <ele>2233.9</ele>
        <time>2017-11-18T09:26:31Z</time>
      </trkpt>
      <trkpt lat="45.89718" lon="6.49303">
        <ele>2234.5</ele>
        <time>2017-11-18T09:26:36Z</time>
      </trkpt>
      <trkpt lat="45.89719" lon="6.49306">
        <ele>2235.2</ele>
        <time>2017-11-18T09:26:41Z</time>
      </trkpt>
      <trkpt lat="45.89718" lon="6.49309">
        <ele>2236.2</ele>
        <time>2017-11-18T09:26:46Z</time>
      </trkpt>
      <trkpt lat="45.89718" lon="6.49312">
        <ele>2237.2</ele>
        <time>2017-11-18T09:26:51Z</time>
      </trkpt>
      <trkpt lat="45.89718" lon="6.49315">
        <ele>2237.8</ele>
        <time>2017-11-18T09:26:56Z</time>
      </trkpt>
      <trkpt lat="45.89718" lon="6.49318">
        <ele>2238.6</ele>
        <time>2017-11-18T09:27:01Z</time>
      </trkpt>
      <trkpt lat="45.89719" lon="6.4932">
        <ele>2239.5</ele>
        <time>2017-11-18T09:27:06Z</time>
      </trkpt>
      <trkpt lat="45.89719" lon="6.49323">
        <ele>2240.3</ele>
        <time>2017-11-18T09:27:11Z</time>
      </trkpt>
      <trkpt lat="45.89719" lon="6.49326">
        <ele>2241.1</ele>
        <time>2017-11-18T09:27:16Z</time>
      </trkpt>
      <trkpt lat="45.89718" lon="6.4933">
        <ele>2241.9</ele>
        <time>2017-11-18T09:27:21Z</time>
      </trkpt>
      <trkpt lat="45.89717" lon="6.49333">
        <ele>2242.8</ele>
        <time>2017-11-18T09:27:26Z</time>
      </trkpt>
      <trkpt lat="45.89716" lon="6.49337">
        <ele>2243.7</ele>
        <time>2017-11-18T09:27:31Z</time>
      </trkpt>
      <trkpt lat="45.89715" lon="6.4934">
        <ele>2244.4</ele>
        <time>2017-11-18T09:27:36Z</time>
      </trkpt>
      <trkpt lat="45.89714" lon="6.49344">
        <ele>2245.3</ele>
        <time>2017-11-18T09:27:41Z</time>
      </trkpt>
      <trkpt lat="45.89714" lon="6.49347">
        <ele>2246</ele>
        <time>2017-11-18T09:27:46Z</time>
      </trkpt>
      <trkpt lat="45.89713" lon="6.4935">
        <ele>2246.9</ele>
        <time>2017-11-18T09:27:51Z</time>
      </trkpt>
      <trkpt lat="45.89712" lon="6.49354">
        <ele>2247.8</ele>
        <time>2017-11-18T09:27:56Z</time>
      </trkpt>
      <trkpt lat="45.89711" lon="6.49357">
        <ele>2248.7</ele>
        <time>2017-11-18T09:28:01Z</time>
      </trkpt>
      <trkpt lat="45.89709" lon="6.49359">
        <ele>2249.6</ele>
        <time>2017-11-18T09:28:06Z</time>
      </trkpt>
      <trkpt lat="45.89706" lon="6.49361">
        <ele>2250.7</ele>
        <time>2017-11-18T09:28:11Z</time>
      </trkpt>
      <trkpt lat="45.89704" lon="6.49362">
        <ele>2251.6</ele>
        <time>2017-11-18T09:28:16Z</time>
      </trkpt>
      <trkpt lat="45.89702" lon="6.49364">
        <ele>2252.4</ele>
        <time>2017-11-18T09:28:21Z</time>
      </trkpt>
      <trkpt lat="45.897" lon="6.49366">
        <ele>2253.1</ele>
        <time>2017-11-18T09:28:26Z</time>
      </trkpt>
      <trkpt lat="45.89698" lon="6.49368">
        <ele>2254.1</ele>
        <time>2017-11-18T09:28:31Z</time>
      </trkpt>
      <trkpt lat="45.89695" lon="6.49369">
        <ele>2255</ele>
        <time>2017-11-18T09:28:36Z</time>
      </trkpt>
      <trkpt lat="45.89693" lon="6.49371">
        <ele>2255.6</ele>
        <time>2017-11-18T09:28:41Z</time>
      </trkpt>
      <trkpt lat="45.8969" lon="6.49374">
        <ele>2256.3</ele>
        <time>2017-11-18T09:28:46Z</time>
      </trkpt>
      <trkpt lat="45.8969" lon="6.49377">
        <ele>2256.9</ele>
        <time>2017-11-18T09:28:51Z</time>
      </trkpt>
      <trkpt lat="45.89691" lon="6.49379">
        <ele>2257.5</ele>
        <time>2017-11-18T09:28:56Z</time>
      </trkpt>
      <trkpt lat="45.89693" lon="6.49382">
        <ele>2258</ele>
        <time>2017-11-18T09:29:01Z</time>
      </trkpt>
      <trkpt lat="45.89694" lon="6.49385">
        <ele>2258.9</ele>
        <time>2017-11-18T09:29:06Z</time>
      </trkpt>
      <trkpt lat="45.89695" lon="6.49387">
        <ele>2259.7</ele>
        <time>2017-11-18T09:29:11Z</time>
      </trkpt>
      <trkpt lat="45.89696" lon="6.49388">
        <ele>2260.5</ele>
        <time>2017-11-18T09:29:16Z</time>
      </trkpt>
      <trkpt lat="45.89695" lon="6.49391">
        <ele>2261.4</ele>
        <time>2017-11-18T09:29:21Z</time>
      </trkpt>
      <trkpt lat="45.89692" lon="6.49394">
        <ele>2262.1</ele>
        <time>2017-11-18T09:29:26Z</time>
      </trkpt>
      <trkpt lat="45.8969" lon="6.49397">
        <ele>2262.8</ele>
        <time>2017-11-18T09:29:31Z</time>
      </trkpt>
      <trkpt lat="45.89688" lon="6.49399">
        <ele>2263.5</ele>
        <time>2017-11-18T09:29:36Z</time>
      </trkpt>
      <trkpt lat="45.89686" lon="6.494">
        <ele>2264.6</ele>
        <time>2017-11-18T09:29:41Z</time>
      </trkpt>
      <trkpt lat="45.89683" lon="6.49401">
        <ele>2265</ele>
        <time>2017-11-18T09:29:46Z</time>
      </trkpt>
      <trkpt lat="45.89681" lon="6.49403">
        <ele>2265.9</ele>
        <time>2017-11-18T09:29:51Z</time>
      </trkpt>
      <trkpt lat="45.8968" lon="6.49405">
        <ele>2267</ele>
        <time>2017-11-18T09:29:56Z</time>
      </trkpt>
      <trkpt lat="45.89681" lon="6.49408">
        <ele>2267.7</ele>
        <time>2017-11-18T09:30:01Z</time>
      </trkpt>
      <trkpt lat="45.89683" lon="6.4941">
        <ele>2268.3</ele>
        <time>2017-11-18T09:30:06Z</time>
      </trkpt>
      <trkpt lat="45.89685" lon="6.49411">
        <ele>2268.8</ele>
        <time>2017-11-18T09:30:11Z</time>
      </trkpt>
      <trkpt lat="45.89686" lon="6.49414">
        <ele>2269.3</ele>
        <time>2017-11-18T09:30:16Z</time>
      </trkpt>
      <trkpt lat="45.89688" lon="6.49417">
        <ele>2269.9</ele>
        <time>2017-11-18T09:30:21Z</time>
      </trkpt>
      <trkpt lat="45.89689" lon="6.4942">
        <ele>2270.7</ele>
        <time>2017-11-18T09:30:26Z</time>
      </trkpt>
      <trkpt lat="45.89691" lon="6.49423">
        <ele>2271.7</ele>
        <time>2017-11-18T09:30:31Z</time>
      </trkpt>
      <trkpt lat="45.89692" lon="6.49427">
        <ele>2272.5</ele>
        <time>2017-11-18T09:30:36Z</time>
      </trkpt>
      <trkpt lat="45.89694" lon="6.49429">
        <ele>2273.5</ele>
        <time>2017-11-18T09:30:41Z</time>
      </trkpt>
      <trkpt lat="45.89696" lon="6.49431">
        <ele>2274.2</ele>
        <time>2017-11-18T09:30:46Z</time>
      </trkpt>
      <trkpt lat="45.89697" lon="6.49434">
        <ele>2275.1</ele>
        <time>2017-11-18T09:30:51Z</time>
      </trkpt>
      <trkpt lat="45.89699" lon="6.49437">
        <ele>2276.1</ele>
        <time>2017-11-18T09:30:56Z</time>
      </trkpt>
      <trkpt lat="45.897" lon="6.49439">
        <ele>2277.3</ele>
        <time>2017-11-18T09:31:01Z</time>
      </trkpt>
      <trkpt lat="45.89702" lon="6.49441">
        <ele>2278</ele>
        <time>2017-11-18T09:31:06Z</time>
      </trkpt>
      <trkpt lat="45.89703" lon="6.49443">
        <ele>2278.8</ele>
        <time>2017-11-18T09:31:11Z</time>
      </trkpt>
      <trkpt lat="45.89705" lon="6.49446">
        <ele>2279.6</ele>
        <time>2017-11-18T09:31:16Z</time>
      </trkpt>
      <trkpt lat="45.89706" lon="6.49448">
        <ele>2280.4</ele>
        <time>2017-11-18T09:31:21Z</time>
      </trkpt>
      <trkpt lat="45.89708" lon="6.49451">
        <ele>2281.1</ele>
        <time>2017-11-18T09:31:26Z</time>
      </trkpt>
      <trkpt lat="45.8971" lon="6.49453">
        <ele>2282.1</ele>
        <time>2017-11-18T09:31:31Z</time>
      </trkpt>
      <trkpt lat="45.89711" lon="6.49455">
        <ele>2283</ele>
        <time>2017-11-18T09:31:36Z</time>
      </trkpt>
      <trkpt lat="45.89712" lon="6.49458">
        <ele>2283.9</ele>
        <time>2017-11-18T09:31:41Z</time>
      </trkpt>
      <trkpt lat="45.89714" lon="6.49461">
        <ele>2284.7</ele>
        <time>2017-11-18T09:31:46Z</time>
      </trkpt>
      <trkpt lat="45.89715" lon="6.49464">
        <ele>2285.7</ele>
        <time>2017-11-18T09:31:51Z</time>
      </trkpt>
      <trkpt lat="45.89717" lon="6.49466">
        <ele>2286.3</ele>
        <time>2017-11-18T09:31:56Z</time>
      </trkpt>
      <trkpt lat="45.89718" lon="6.49468">
        <ele>2287.2</ele>
        <time>2017-11-18T09:32:01Z</time>
      </trkpt>
      <trkpt lat="45.89719" lon="6.49472">
        <ele>2288.1</ele>
        <time>2017-11-18T09:32:06Z</time>
      </trkpt>
      <trkpt lat="45.89721" lon="6.49475">
        <ele>2289.4</ele>
        <time>2017-11-18T09:32:11Z</time>
      </trkpt>
      <trkpt lat="45.89722" lon="6.49479">
        <ele>2290.5</ele>
        <time>2017-11-18T09:32:16Z</time>
      </trkpt>
      <trkpt lat="45.89723" lon="6.49482">
        <ele>2291.3</ele>
        <time>2017-11-18T09:32:21Z</time>
      </trkpt>
      <trkpt lat="45.89724" lon="6.49484">
        <ele>2292.2</ele>
        <time>2017-11-18T09:32:26Z</time>
      </trkpt>
      <trkpt lat="45.89723" lon="6.49487">
        <ele>2293.1</ele>
        <time>2017-11-18T09:32:31Z</time>
      </trkpt>
      <trkpt lat="45.89722" lon="6.49491">
        <ele>2294</ele>
        <time>2017-11-18T09:32:36Z</time>
      </trkpt>
      <trkpt lat="45.89721" lon="6.49495">
        <ele>2294.7</ele>
        <time>2017-11-18T09:32:41Z</time>
      </trkpt>
      <trkpt lat="45.89721" lon="6.49498">
        <ele>2295.5</ele>
        <time>2017-11-18T09:32:46Z</time>
      </trkpt>
      <trkpt lat="45.89721" lon="6.49502">
        <ele>2296.2</ele>
        <time>2017-11-18T09:32:51Z</time>
      </trkpt>
      <trkpt lat="45.89722" lon="6.49505">
        <ele>2297.1</ele>
        <time>2017-11-18T09:32:56Z</time>
      </trkpt>
      <trkpt lat="45.89723" lon="6.49508">
        <ele>2298.1</ele>
        <time>2017-11-18T09:33:01Z</time>
      </trkpt>
      <trkpt lat="45.89724" lon="6.49511">
        <ele>2298.8</ele>
        <time>2017-11-18T09:33:06Z</time>
      </trkpt>
      <trkpt lat="45.89725" lon="6.49514">
        <ele>2299.8</ele>
        <time>2017-11-18T09:33:11Z</time>
      </trkpt>
      <trkpt lat="45.89726" lon="6.49517">
        <ele>2300.8</ele>
        <time>2017-11-18T09:33:16Z</time>
      </trkpt>
      <trkpt lat="45.89728" lon="6.49521">
        <ele>2301.5</ele>
        <time>2017-11-18T09:33:21Z</time>
      </trkpt>
      <trkpt lat="45.89728" lon="6.49525">
        <ele>2302</ele>
        <time>2017-11-18T09:33:26Z</time>
      </trkpt>
      <trkpt lat="45.89729" lon="6.49528">
        <ele>2302.6</ele>
        <time>2017-11-18T09:33:31Z</time>
      </trkpt>
      <trkpt lat="45.8973" lon="6.49531">
        <ele>2303.3</ele>
        <time>2017-11-18T09:33:36Z</time>
      </trkpt>
      <trkpt lat="45.89731" lon="6.49535">
        <ele>2304</ele>
        <time>2017-11-18T09:33:41Z</time>
      </trkpt>
      <trkpt lat="45.89732" lon="6.49539">
        <ele>2304.9</ele>
        <time>2017-11-18T09:33:46Z</time>
      </trkpt>
      <trkpt lat="45.89733" lon="6.49543">
        <ele>2305.3</ele>
        <time>2017-11-18T09:33:51Z</time>
      </trkpt>
      <trkpt lat="45.89735" lon="6.49548">
        <ele>2305.6</ele>
        <time>2017-11-18T09:33:56Z</time>
      </trkpt>
      <trkpt lat="45.89738" lon="6.49552">
        <ele>2306.1</ele>
        <time>2017-11-18T09:34:01Z</time>
      </trkpt>
      <trkpt lat="45.8974" lon="6.49558">
        <ele>2306.4</ele>
        <time>2017-11-18T09:34:06Z</time>
      </trkpt>
      <trkpt lat="45.89741" lon="6.49564">
        <ele>2306.8</ele>
        <time>2017-11-18T09:34:11Z</time>
      </trkpt>
      <trkpt lat="45.89742" lon="6.49568">
        <ele>2307.4</ele>
        <time>2017-11-18T09:34:16Z</time>
      </trkpt>
      <trkpt lat="45.89743" lon="6.49573">
        <ele>2307.4</ele>
        <time>2017-11-18T09:34:21Z</time>
      </trkpt>
      <trkpt lat="45.89744" lon="6.49578">
        <ele>2307.6</ele>
        <time>2017-11-18T09:34:26Z</time>
      </trkpt>
      <trkpt lat="45.89743" lon="6.49584">
        <ele>2307.7</ele>
        <time>2017-11-18T09:34:31Z</time>
      </trkpt>
      <trkpt lat="45.89743" lon="6.49589">
        <ele>2307.6</ele>
        <time>2017-11-18T09:34:36Z</time>
      </trkpt>
      <trkpt lat="45.89742" lon="6.49594">
        <ele>2307.9</ele>
        <time>2017-11-18T09:34:41Z</time>
      </trkpt>
      <trkpt lat="45.8974" lon="6.49597">
        <ele>2308.3</ele>
        <time>2017-11-18T09:34:46Z</time>
      </trkpt>
      <trkpt lat="45.89739" lon="6.49601">
        <ele>2308.6</ele>
        <time>2017-11-18T09:34:51Z</time>
      </trkpt>
      <trkpt lat="45.89739" lon="6.49605">
        <ele>2309.5</ele>
        <time>2017-11-18T09:34:56Z</time>
      </trkpt>
      <trkpt lat="45.89739" lon="6.49608">
        <ele>2310.1</ele>
        <time>2017-11-18T09:35:01Z</time>
      </trkpt>
      <trkpt lat="45.89739" lon="6.49612">
        <ele>2311.2</ele>
        <time>2017-11-18T09:35:06Z</time>
      </trkpt>
      <trkpt lat="45.8974" lon="6.49616">
        <ele>2311.9</ele>
        <time>2017-11-18T09:35:11Z</time>
      </trkpt>
      <trkpt lat="45.8974" lon="6.49619">
        <ele>2312.7</ele>
        <time>2017-11-18T09:35:16Z</time>
      </trkpt>
      <trkpt lat="45.8974" lon="6.49623">
        <ele>2313.6</ele>
        <time>2017-11-18T09:35:21Z</time>
      </trkpt>
      <trkpt lat="45.8974" lon="6.49627">
        <ele>2314.4</ele>
        <time>2017-11-18T09:35:26Z</time>
      </trkpt>
      <trkpt lat="45.89739" lon="6.49631">
        <ele>2315.3</ele>
        <time>2017-11-18T09:35:31Z</time>
      </trkpt>
      <trkpt lat="45.89739" lon="6.49634">
        <ele>2316</ele>
        <time>2017-11-18T09:35:36Z</time>
      </trkpt>
      <trkpt lat="45.89738" lon="6.49638">
        <ele>2316.9</ele>
        <time>2017-11-18T09:35:41Z</time>
      </trkpt>
      <trkpt lat="45.89736" lon="6.49641">
        <ele>2317.5</ele>
        <time>2017-11-18T09:35:46Z</time>
      </trkpt>
      <trkpt lat="45.89735" lon="6.49644">
        <ele>2318.2</ele>
        <time>2017-11-18T09:35:51Z</time>
      </trkpt>
      <trkpt lat="45.89733" lon="6.49647">
        <ele>2319.4</ele>
        <time>2017-11-18T09:35:56Z</time>
      </trkpt>
      <trkpt lat="45.89732" lon="6.4965">
        <ele>2320.2</ele>
        <time>2017-11-18T09:36:01Z</time>
      </trkpt>
      <trkpt lat="45.8973" lon="6.49654">
        <ele>2321.1</ele>
        <time>2017-11-18T09:36:06Z</time>
      </trkpt>
      <trkpt lat="45.89729" lon="6.49657">
        <ele>2321.7</ele>
        <time>2017-11-18T09:36:11Z</time>
      </trkpt>
      <trkpt lat="45.89727" lon="6.4966">
        <ele>2322.2</ele>
        <time>2017-11-18T09:36:16Z</time>
      </trkpt>
      <trkpt lat="45.89725" lon="6.49663">
        <ele>2322.7</ele>
        <time>2017-11-18T09:36:21Z</time>
      </trkpt>
      <trkpt lat="45.89723" lon="6.49666">
        <ele>2323.1</ele>
        <time>2017-11-18T09:36:26Z</time>
      </trkpt>
      <trkpt lat="45.89721" lon="6.49669">
        <ele>2324</ele>
        <time>2017-11-18T09:36:31Z</time>
      </trkpt>
      <trkpt lat="45.89718" lon="6.49671">
        <ele>2324.6</ele>
        <time>2017-11-18T09:36:36Z</time>
      </trkpt>
      <trkpt lat="45.89716" lon="6.49673">
        <ele>2325.4</ele>
        <time>2017-11-18T09:36:41Z</time>
      </trkpt>
      <trkpt lat="45.89714" lon="6.49676">
        <ele>2326.4</ele>
        <time>2017-11-18T09:36:46Z</time>
      </trkpt>
      <trkpt lat="45.89713" lon="6.49678">
        <ele>2327.5</ele>
        <time>2017-11-18T09:36:51Z</time>
      </trkpt>
      <trkpt lat="45.89711" lon="6.4968">
        <ele>2328.7</ele>
        <time>2017-11-18T09:36:56Z</time>
      </trkpt>
      <trkpt lat="45.89709" lon="6.49683">
        <ele>2329.7</ele>
        <time>2017-11-18T09:37:01Z</time>
      </trkpt>
      <trkpt lat="45.89707" lon="6.49685">
        <ele>2330.5</ele>
        <time>2017-11-18T09:37:06Z</time>
      </trkpt>
      <trkpt lat="45.89706" lon="6.49688">
        <ele>2331.4</ele>
        <time>2017-11-18T09:37:11Z</time>
      </trkpt>
      <trkpt lat="45.89705" lon="6.4969">
        <ele>2332.4</ele>
        <time>2017-11-18T09:37:16Z</time>
      </trkpt>
      <trkpt lat="45.89702" lon="6.49693">
        <ele>2332.9</ele>
        <time>2017-11-18T09:37:21Z</time>
      </trkpt>
      <trkpt lat="45.897" lon="6.49696">
        <ele>2333.5</ele>
        <time>2017-11-18T09:37:26Z</time>
      </trkpt>
      <trkpt lat="45.89699" lon="6.49699">
        <ele>2334.5</ele>
        <time>2017-11-18T09:37:31Z</time>
      </trkpt>
      <trkpt lat="45.89697" lon="6.49702">
        <ele>2335.6</ele>
        <time>2017-11-18T09:37:36Z</time>
      </trkpt>
      <trkpt lat="45.89695" lon="6.49705">
        <ele>2336.4</ele>
        <time>2017-11-18T09:37:41Z</time>
      </trkpt>
      <trkpt lat="45.89693" lon="6.49709">
        <ele>2337.3</ele>
        <time>2017-11-18T09:37:46Z</time>
      </trkpt>
      <trkpt lat="45.89691" lon="6.49713">
        <ele>2338</ele>
        <time>2017-11-18T09:37:51Z</time>
      </trkpt>
      <trkpt lat="45.89689" lon="6.49716">
        <ele>2339</ele>
        <time>2017-11-18T09:37:56Z</time>
      </trkpt>
      <trkpt lat="45.89688" lon="6.49719">
        <ele>2339.3</ele>
        <time>2017-11-18T09:38:01Z</time>
      </trkpt>
      <trkpt lat="45.89687" lon="6.49722">
        <ele>2340.1</ele>
        <time>2017-11-18T09:38:06Z</time>
      </trkpt>
      <trkpt lat="45.89686" lon="6.49726">
        <ele>2341.2</ele>
        <time>2017-11-18T09:38:11Z</time>
      </trkpt>
      <trkpt lat="45.89685" lon="6.49729">
        <ele>2341.8</ele>
        <time>2017-11-18T09:38:16Z</time>
      </trkpt>
      <trkpt lat="45.89683" lon="6.49733">
        <ele>2342.9</ele>
        <time>2017-11-18T09:38:21Z</time>
      </trkpt>
      <trkpt lat="45.89682" lon="6.49736">
        <ele>2343.5</ele>
        <time>2017-11-18T09:38:26Z</time>
      </trkpt>
      <trkpt lat="45.8968" lon="6.49739">
        <ele>2344.5</ele>
        <time>2017-11-18T09:38:31Z</time>
      </trkpt>
      <trkpt lat="45.89679" lon="6.49743">
        <ele>2345.3</ele>
        <time>2017-11-18T09:38:36Z</time>
      </trkpt>
      <trkpt lat="45.89678" lon="6.49746">
        <ele>2346.1</ele>
        <time>2017-11-18T09:38:41Z</time>
      </trkpt>
      <trkpt lat="45.89677" lon="6.49749">
        <ele>2346.9</ele>
        <time>2017-11-18T09:38:46Z</time>
      </trkpt>
      <trkpt lat="45.89675" lon="6.49752">
        <ele>2347.7</ele>
        <time>2017-11-18T09:38:51Z</time>
      </trkpt>
      <trkpt lat="45.89674" lon="6.49755">
        <ele>2348.4</ele>
        <time>2017-11-18T09:38:56Z</time>
      </trkpt>
      <trkpt lat="45.89673" lon="6.49759">
        <ele>2349.3</ele>
        <time>2017-11-18T09:39:01Z</time>
      </trkpt>
      <trkpt lat="45.89672" lon="6.49762">
        <ele>2350.1</ele>
        <time>2017-11-18T09:39:06Z</time>
      </trkpt>
      <trkpt lat="45.89671" lon="6.49766">
        <ele>2350.8</ele>
        <time>2017-11-18T09:39:11Z</time>
      </trkpt>
      <trkpt lat="45.8967" lon="6.49769">
        <ele>2351.6</ele>
        <time>2017-11-18T09:39:16Z</time>
      </trkpt>
      <trkpt lat="45.89669" lon="6.49773">
        <ele>2352.3</ele>
        <time>2017-11-18T09:39:21Z</time>
      </trkpt>
      <trkpt lat="45.89668" lon="6.49777">
        <ele>2352.7</ele>
        <time>2017-11-18T09:39:26Z</time>
      </trkpt>
      <trkpt lat="45.89667" lon="6.4978">
        <ele>2353.3</ele>
        <time>2017-11-18T09:39:31Z</time>
      </trkpt>
      <trkpt lat="45.89666" lon="6.49784">
        <ele>2354.1</ele>
        <time>2017-11-18T09:39:36Z</time>
      </trkpt>
      <trkpt lat="45.89665" lon="6.49788">
        <ele>2354.8</ele>
        <time>2017-11-18T09:39:41Z</time>
      </trkpt>
      <trkpt lat="45.89664" lon="6.49792">
        <ele>2355.4</ele>
        <time>2017-11-18T09:39:46Z</time>
      </trkpt>
      <trkpt lat="45.89665" lon="6.49796">
        <ele>2356.3</ele>
        <time>2017-11-18T09:39:51Z</time>
      </trkpt>
      <trkpt lat="45.89665" lon="6.498">
        <ele>2356.9</ele>
        <time>2017-11-18T09:39:56Z</time>
      </trkpt>
      <trkpt lat="45.89665" lon="6.49805">
        <ele>2357.8</ele>
        <time>2017-11-18T09:40:01Z</time>
      </trkpt>
      <trkpt lat="45.89664" lon="6.49809">
        <ele>2358.6</ele>
        <time>2017-11-18T09:40:06Z</time>
      </trkpt>
      <trkpt lat="45.89664" lon="6.49813">
        <ele>2359.7</ele>
        <time>2017-11-18T09:40:11Z</time>
      </trkpt>
      <trkpt lat="45.89664" lon="6.49817">
        <ele>2360.6</ele>
        <time>2017-11-18T09:40:16Z</time>
      </trkpt>
      <trkpt lat="45.89665" lon="6.49821">
        <ele>2361.6</ele>
        <time>2017-11-18T09:40:21Z</time>
      </trkpt>
      <trkpt lat="45.89664" lon="6.49825">
        <ele>2362.4</ele>
        <time>2017-11-18T09:40:26Z</time>
      </trkpt>
      <trkpt lat="45.89663" lon="6.49829">
        <ele>2363.4</ele>
        <time>2017-11-18T09:40:31Z</time>
      </trkpt>
      <trkpt lat="45.89662" lon="6.49832">
        <ele>2364.2</ele>
        <time>2017-11-18T09:40:36Z</time>
      </trkpt>
      <trkpt lat="45.89661" lon="6.49836">
        <ele>2365.2</ele>
        <time>2017-11-18T09:40:41Z</time>
      </trkpt>
      <trkpt lat="45.89661" lon="6.4984">
        <ele>2366.2</ele>
        <time>2017-11-18T09:40:46Z</time>
      </trkpt>
      <trkpt lat="45.8966" lon="6.49842">
        <ele>2366.8</ele>
        <time>2017-11-18T09:40:51Z</time>
      </trkpt>
      <trkpt lat="45.89659" lon="6.49845">
        <ele>2367.8</ele>
        <time>2017-11-18T09:40:56Z</time>
      </trkpt>
      <trkpt lat="45.89659" lon="6.49848">
        <ele>2368.6</ele>
        <time>2017-11-18T09:41:01Z</time>
      </trkpt>
      <trkpt lat="45.89658" lon="6.49851">
        <ele>2369.3</ele>
        <time>2017-11-18T09:41:06Z</time>
      </trkpt>
      <trkpt lat="45.89658" lon="6.49855">
        <ele>2370</ele>
        <time>2017-11-18T09:41:11Z</time>
      </trkpt>
      <trkpt lat="45.89658" lon="6.49858">
        <ele>2370.9</ele>
        <time>2017-11-18T09:41:16Z</time>
      </trkpt>
      <trkpt lat="45.89658" lon="6.49861">
        <ele>2371.8</ele>
        <time>2017-11-18T09:41:21Z</time>
      </trkpt>
      <trkpt lat="45.89658" lon="6.49864">
        <ele>2372.6</ele>
        <time>2017-11-18T09:41:26Z</time>
      </trkpt>
      <trkpt lat="45.89659" lon="6.49868">
        <ele>2373.6</ele>
        <time>2017-11-18T09:41:31Z</time>
      </trkpt>
      <trkpt lat="45.89659" lon="6.49871">
        <ele>2374.6</ele>
        <time>2017-11-18T09:41:36Z</time>
      </trkpt>
      <trkpt lat="45.8966" lon="6.49875">
        <ele>2375.3</ele>
        <time>2017-11-18T09:41:41Z</time>
      </trkpt>
      <trkpt lat="45.8966" lon="6.49879">
        <ele>2376</ele>
        <time>2017-11-18T09:41:46Z</time>
      </trkpt>
      <trkpt lat="45.89661" lon="6.49882">
        <ele>2376.8</ele>
        <time>2017-11-18T09:41:51Z</time>
      </trkpt>
      <trkpt lat="45.89661" lon="6.49886">
        <ele>2377.7</ele>
        <time>2017-11-18T09:41:56Z</time>
      </trkpt>
      <trkpt lat="45.89661" lon="6.49888">
        <ele>2378.4</ele>
        <time>2017-11-18T09:42:01Z</time>
      </trkpt>
      <trkpt lat="45.89662" lon="6.49888">
        <ele>2378.9</ele>
        <time>2017-11-18T09:42:06Z</time>
      </trkpt>
      <trkpt lat="45.89663" lon="6.49888">
        <ele>2378.9</ele>
        <time>2017-11-18T09:42:11Z</time>
      </trkpt>
      <trkpt lat="45.89663" lon="6.49888">
        <ele>2378.8</ele>
        <time>2017-11-18T09:42:16Z</time>
      </trkpt>
      <trkpt lat="45.89663" lon="6.49888">
        <ele>2378.7</ele>
        <time>2017-11-18T09:42:21Z</time>
      </trkpt>
      <trkpt lat="45.89663" lon="6.49888">
        <ele>2378.7</ele>
        <time>2017-11-18T09:42:26Z</time>
      </trkpt>
      <trkpt lat="45.89663" lon="6.49888">
        <ele>2378.6</ele>
        <time>2017-11-18T09:42:31Z</time>
      </trkpt>
      <trkpt lat="45.89663" lon="6.49888">
        <ele>2378.7</ele>
        <time>2017-11-18T09:42:36Z</time>
      </trkpt>
      <trkpt lat="45.89663" lon="6.49888">
        <ele>2378.7</ele>
        <time>2017-11-18T09:42:41Z</time>
      </trkpt>
      <trkpt lat="45.89663" lon="6.49888">
        <ele>2378.7</ele>
        <time>2017-11-18T09:42:46Z</time>
      </trkpt>
      <trkpt lat="45.89663" lon="6.49888">
        <ele>2378.7</ele>
        <time>2017-11-18T09:42:51Z</time>
      </trkpt>
      <trkpt lat="45.89663" lon="6.49888">
        <ele>2378.9</ele>
        <time>2017-11-18T09:42:56Z</time>
      </trkpt>
      <trkpt lat="45.89663" lon="6.49889">
        <ele>2378.9</ele>
        <time>2017-11-18T09:43:01Z</time>
      </trkpt>
      <trkpt lat="45.89662" lon="6.49889">
        <ele>2379</ele>
        <time>2017-11-18T09:43:06Z</time>
      </trkpt>
      <trkpt lat="45.89663" lon="6.49888">
        <ele>2379.2</ele>
        <time>2017-11-18T09:43:11Z</time>
      </trkpt>
      <trkpt lat="45.89663" lon="6.49887">
        <ele>2379.4</ele>
        <time>2017-11-18T09:43:16Z</time>
      </trkpt>
      <trkpt lat="45.89663" lon="6.49886">
        <ele>2379.6</ele>
        <time>2017-11-18T09:43:21Z</time>
      </trkpt>
      <trkpt lat="45.89663" lon="6.49886">
        <ele>2379.5</ele>
        <time>2017-11-18T09:43:26Z</time>
      </trkpt>
      <trkpt lat="45.89663" lon="6.49886">
        <ele>2379.5</ele>
        <time>2017-11-18T09:43:31Z</time>
      </trkpt>
      <trkpt lat="45.89663" lon="6.49886">
        <ele>2379.4</ele>
        <time>2017-11-18T09:43:36Z</time>
      </trkpt>
      <trkpt lat="45.89663" lon="6.49886">
        <ele>2379.7</ele>
        <time>2017-11-18T09:43:41Z</time>
      </trkpt>
      <trkpt lat="45.89663" lon="6.49886">
        <ele>2379.8</ele>
        <time>2017-11-18T09:43:46Z</time>
      </trkpt>
      <trkpt lat="45.89663" lon="6.49886">
        <ele>2379.5</ele>
        <time>2017-11-18T09:43:51Z</time>
      </trkpt>
      <trkpt lat="45.89663" lon="6.49886">
        <ele>2379.6</ele>
        <time>2017-11-18T09:43:56Z</time>
      </trkpt>
      <trkpt lat="45.89664" lon="6.49889">
        <ele>2380.3</ele>
        <time>2017-11-18T09:44:01Z</time>
      </trkpt>
      <trkpt lat="45.89664" lon="6.49895">
        <ele>2381.3</ele>
        <time>2017-11-18T09:44:06Z</time>
      </trkpt>
      <trkpt lat="45.89664" lon="6.499">
        <ele>2382.5</ele>
        <time>2017-11-18T09:44:11Z</time>
      </trkpt>
      <trkpt lat="45.89666" lon="6.49904">
        <ele>2383.5</ele>
        <time>2017-11-18T09:44:16Z</time>
      </trkpt>
      <trkpt lat="45.89668" lon="6.49907">
        <ele>2384.4</ele>
        <time>2017-11-18T09:44:21Z</time>
      </trkpt>
      <trkpt lat="45.89667" lon="6.49911">
        <ele>2385.5</ele>
        <time>2017-11-18T09:44:26Z</time>
      </trkpt>
      <trkpt lat="45.89666" lon="6.49914">
        <ele>2386.4</ele>
        <time>2017-11-18T09:44:31Z</time>
      </trkpt>
      <trkpt lat="45.89664" lon="6.49917">
        <ele>2387.2</ele>
        <time>2017-11-18T09:44:36Z</time>
      </trkpt>
      <trkpt lat="45.89662" lon="6.49921">
        <ele>2388</ele>
        <time>2017-11-18T09:44:41Z</time>
      </trkpt>
      <trkpt lat="45.89663" lon="6.49924">
        <ele>2388.8</ele>
        <time>2017-11-18T09:44:46Z</time>
      </trkpt>
      <trkpt lat="45.89665" lon="6.49927">
        <ele>2389.8</ele>
        <time>2017-11-18T09:44:51Z</time>
      </trkpt>
      <trkpt lat="45.89664" lon="6.4993">
        <ele>2390.8</ele>
        <time>2017-11-18T09:44:56Z</time>
      </trkpt>
      <trkpt lat="45.89662" lon="6.49932">
        <ele>2391.7</ele>
        <time>2017-11-18T09:45:01Z</time>
      </trkpt>
      <trkpt lat="45.8966" lon="6.49934">
        <ele>2392.5</ele>
        <time>2017-11-18T09:45:06Z</time>
      </trkpt>
      <trkpt lat="45.89659" lon="6.49937">
        <ele>2393.3</ele>
        <time>2017-11-18T09:45:11Z</time>
      </trkpt>
      <trkpt lat="45.8966" lon="6.49939">
        <ele>2394.1</ele>
        <time>2017-11-18T09:45:16Z</time>
      </trkpt>
      <trkpt lat="45.89661" lon="6.49942">
        <ele>2394.9</ele>
        <time>2017-11-18T09:45:21Z</time>
      </trkpt>
      <trkpt lat="45.8966" lon="6.49946">
        <ele>2395.8</ele>
        <time>2017-11-18T09:45:26Z</time>
      </trkpt>
      <trkpt lat="45.89659" lon="6.49949">
        <ele>2396.5</ele>
        <time>2017-11-18T09:45:31Z</time>
      </trkpt>
      <trkpt lat="45.89659" lon="6.49952">
        <ele>2397.2</ele>
        <time>2017-11-18T09:45:36Z</time>
      </trkpt>
      <trkpt lat="45.89661" lon="6.49955">
        <ele>2397.9</ele>
        <time>2017-11-18T09:45:41Z</time>
      </trkpt>
      <trkpt lat="45.89662" lon="6.49958">
        <ele>2398.9</ele>
        <time>2017-11-18T09:45:46Z</time>
      </trkpt>
      <trkpt lat="45.89662" lon="6.49961">
        <ele>2399.9</ele>
        <time>2017-11-18T09:45:51Z</time>
      </trkpt>
      <trkpt lat="45.8966" lon="6.49964">
        <ele>2400.7</ele>
        <time>2017-11-18T09:45:56Z</time>
      </trkpt>
      <trkpt lat="45.89658" lon="6.49967">
        <ele>2401.5</ele>
        <time>2017-11-18T09:46:01Z</time>
      </trkpt>
      <trkpt lat="45.89657" lon="6.49971">
        <ele>2402.3</ele>
        <time>2017-11-18T09:46:06Z</time>
      </trkpt>
      <trkpt lat="45.89656" lon="6.49974">
        <ele>2402.8</ele>
        <time>2017-11-18T09:46:11Z</time>
      </trkpt>
      <trkpt lat="45.89655" lon="6.49976">
        <ele>2403.6</ele>
        <time>2017-11-18T09:46:16Z</time>
      </trkpt>
      <trkpt lat="45.89654" lon="6.49979">
        <ele>2404.6</ele>
        <time>2017-11-18T09:46:21Z</time>
      </trkpt>
      <trkpt lat="45.89652" lon="6.49982">
        <ele>2405.8</ele>
        <time>2017-11-18T09:46:26Z</time>
      </trkpt>
      <trkpt lat="45.8965" lon="6.49985">
        <ele>2406.7</ele>
        <time>2017-11-18T09:46:31Z</time>
      </trkpt>
      <trkpt lat="45.89651" lon="6.49989">
        <ele>2407.6</ele>
        <time>2017-11-18T09:46:36Z</time>
      </trkpt>
      <trkpt lat="45.89651" lon="6.49992">
        <ele>2408.4</ele>
        <time>2017-11-18T09:46:41Z</time>
      </trkpt>
      <trkpt lat="45.8965" lon="6.49995">
        <ele>2409.2</ele>
        <time>2017-11-18T09:46:46Z</time>
      </trkpt>
      <trkpt lat="45.89648" lon="6.49996">
        <ele>2410.1</ele>
        <time>2017-11-18T09:46:51Z</time>
      </trkpt>
      <trkpt lat="45.89646" lon="6.49998">
        <ele>2410.8</ele>
        <time>2017-11-18T09:46:56Z</time>
      </trkpt>
      <trkpt lat="45.89644" lon="6.5">
        <ele>2411.5</ele>
        <time>2017-11-18T09:47:01Z</time>
      </trkpt>
      <trkpt lat="45.89642" lon="6.50003">
        <ele>2412.3</ele>
        <time>2017-11-18T09:47:06Z</time>
      </trkpt>
      <trkpt lat="45.89642" lon="6.50007">
        <ele>2413.3</ele>
        <time>2017-11-18T09:47:11Z</time>
      </trkpt>
      <trkpt lat="45.8964" lon="6.5001">
        <ele>2414.1</ele>
        <time>2017-11-18T09:47:16Z</time>
      </trkpt>
      <trkpt lat="45.89638" lon="6.50013">
        <ele>2414.8</ele>
        <time>2017-11-18T09:47:21Z</time>
      </trkpt>
      <trkpt lat="45.89637" lon="6.50016">
        <ele>2415.6</ele>
        <time>2017-11-18T09:47:26Z</time>
      </trkpt>
      <trkpt lat="45.89635" lon="6.50018">
        <ele>2416.5</ele>
        <time>2017-11-18T09:47:31Z</time>
      </trkpt>
      <trkpt lat="45.89633" lon="6.5002">
        <ele>2417.4</ele>
        <time>2017-11-18T09:47:36Z</time>
      </trkpt>
      <trkpt lat="45.89631" lon="6.50021">
        <ele>2418</ele>
        <time>2017-11-18T09:47:41Z</time>
      </trkpt>
      <trkpt lat="45.89631" lon="6.50022">
        <ele>2418.8</ele>
        <time>2017-11-18T09:47:46Z</time>
      </trkpt>
      <trkpt lat="45.89629" lon="6.50022">
        <ele>2419.8</ele>
        <time>2017-11-18T09:47:51Z</time>
      </trkpt>
      <trkpt lat="45.89627" lon="6.50025">
        <ele>2420.9</ele>
        <time>2017-11-18T09:47:56Z</time>
      </trkpt>
      <trkpt lat="45.89626" lon="6.50028">
        <ele>2421.6</ele>
        <time>2017-11-18T09:48:01Z</time>
      </trkpt>
      <trkpt lat="45.89624" lon="6.50031">
        <ele>2422.7</ele>
        <time>2017-11-18T09:48:06Z</time>
      </trkpt>
      <trkpt lat="45.89622" lon="6.50034">
        <ele>2423.8</ele>
        <time>2017-11-18T09:48:11Z</time>
      </trkpt>
      <trkpt lat="45.89619" lon="6.50035">
        <ele>2424.6</ele>
        <time>2017-11-18T09:48:16Z</time>
      </trkpt>
      <trkpt lat="45.89617" lon="6.50037">
        <ele>2425.3</ele>
        <time>2017-11-18T09:48:21Z</time>
      </trkpt>
      <trkpt lat="45.89615" lon="6.50038">
        <ele>2426.2</ele>
        <time>2017-11-18T09:48:26Z</time>
      </trkpt>
      <trkpt lat="45.89612" lon="6.50039">
        <ele>2426.7</ele>
        <time>2017-11-18T09:48:31Z</time>
      </trkpt>
      <trkpt lat="45.8961" lon="6.50038">
        <ele>2427.3</ele>
        <time>2017-11-18T09:48:36Z</time>
      </trkpt>
      <trkpt lat="45.89607" lon="6.50037">
        <ele>2427.7</ele>
        <time>2017-11-18T09:48:41Z</time>
      </trkpt>
      <trkpt lat="45.89605" lon="6.50036">
        <ele>2428.4</ele>
        <time>2017-11-18T09:48:46Z</time>
      </trkpt>
      <trkpt lat="45.89602" lon="6.50035">
        <ele>2429.3</ele>
        <time>2017-11-18T09:48:51Z</time>
      </trkpt>
      <trkpt lat="45.89599" lon="6.50035">
        <ele>2430</ele>
        <time>2017-11-18T09:48:56Z</time>
      </trkpt>
      <trkpt lat="45.89597" lon="6.50034">
        <ele>2430.8</ele>
        <time>2017-11-18T09:49:01Z</time>
      </trkpt>
      <trkpt lat="45.89594" lon="6.50033">
        <ele>2431.9</ele>
        <time>2017-11-18T09:49:06Z</time>
      </trkpt>
      <trkpt lat="45.89592" lon="6.50031">
        <ele>2433.1</ele>
        <time>2017-11-18T09:49:11Z</time>
      </trkpt>
      <trkpt lat="45.8959" lon="6.5003">
        <ele>2433.7</ele>
        <time>2017-11-18T09:49:16Z</time>
      </trkpt>
      <trkpt lat="45.89589" lon="6.50027">
        <ele>2434.2</ele>
        <time>2017-11-18T09:49:21Z</time>
      </trkpt>
      <trkpt lat="45.89588" lon="6.50024">
        <ele>2435.1</ele>
        <time>2017-11-18T09:49:26Z</time>
      </trkpt>
      <trkpt lat="45.89587" lon="6.50021">
        <ele>2435.6</ele>
        <time>2017-11-18T09:49:31Z</time>
      </trkpt>
      <trkpt lat="45.89587" lon="6.50018">
        <ele>2436.1</ele>
        <time>2017-11-18T09:49:36Z</time>
      </trkpt>
      <trkpt lat="45.89585" lon="6.50014">
        <ele>2436.6</ele>
        <time>2017-11-18T09:49:41Z</time>
      </trkpt>
      <trkpt lat="45.89585" lon="6.50014">
        <ele>2437</ele>
        <time>2017-11-18T09:49:46Z</time>
      </trkpt>
      <trkpt lat="45.89584" lon="6.50013">
        <ele>2437</ele>
        <time>2017-11-18T09:49:51Z</time>
      </trkpt>
      <trkpt lat="45.89582" lon="6.50012">
        <ele>2436.8</ele>
        <time>2017-11-18T09:49:56Z</time>
      </trkpt>
      <trkpt lat="45.89582" lon="6.50012">
        <ele>2436.8</ele>
        <time>2017-11-18T09:50:01Z</time>
      </trkpt>
      <trkpt lat="45.89582" lon="6.50012">
        <ele>2436.6</ele>
        <time>2017-11-18T09:50:06Z</time>
      </trkpt>
      <trkpt lat="45.89579" lon="6.50009">
        <ele>2437.2</ele>
        <time>2017-11-18T09:50:11Z</time>
      </trkpt>
      <trkpt lat="45.89575" lon="6.50008">
        <ele>2437.9</ele>
        <time>2017-11-18T09:50:16Z</time>
      </trkpt>
      <trkpt lat="45.89572" lon="6.50006">
        <ele>2438.7</ele>
        <time>2017-11-18T09:50:21Z</time>
      </trkpt>
      <trkpt lat="45.89568" lon="6.50008">
        <ele>2439.8</ele>
        <time>2017-11-18T09:50:26Z</time>
      </trkpt>
      <trkpt lat="45.89568" lon="6.50012">
        <ele>2441</ele>
        <time>2017-11-18T09:50:31Z</time>
      </trkpt>
      <trkpt lat="45.89568" lon="6.50016">
        <ele>2441.8</ele>
        <time>2017-11-18T09:50:36Z</time>
      </trkpt>
      <trkpt lat="45.89566" lon="6.5002">
        <ele>2443.2</ele>
        <time>2017-11-18T09:50:41Z</time>
      </trkpt>
      <trkpt lat="45.89564" lon="6.50023">
        <ele>2444.4</ele>
        <time>2017-11-18T09:50:46Z</time>
      </trkpt>
      <trkpt lat="45.89563" lon="6.50026">
        <ele>2445.8</ele>
        <time>2017-11-18T09:50:51Z</time>
      </trkpt>
      <trkpt lat="45.89561" lon="6.5003">
        <ele>2447</ele>
        <time>2017-11-18T09:50:56Z</time>
      </trkpt>
      <trkpt lat="45.89558" lon="6.50032">
        <ele>2448</ele>
        <time>2017-11-18T09:51:01Z</time>
      </trkpt>
      <trkpt lat="45.89557" lon="6.50034">
        <ele>2448.9</ele>
        <time>2017-11-18T09:51:06Z</time>
      </trkpt>
      <trkpt lat="45.89557" lon="6.50033">
        <ele>2449.2</ele>
        <time>2017-11-18T09:51:11Z</time>
      </trkpt>
      <trkpt lat="45.89556" lon="6.50033">
        <ele>2449.4</ele>
        <time>2017-11-18T09:51:16Z</time>
      </trkpt>
      <trkpt lat="45.89556" lon="6.50033">
        <ele>2449.9</ele>
        <time>2017-11-18T09:51:21Z</time>
      </trkpt>
      <trkpt lat="45.89556" lon="6.50034">
        <ele>2450.2</ele>
        <time>2017-11-18T09:51:26Z</time>
      </trkpt>
      <trkpt lat="45.89555" lon="6.50037">
        <ele>2451</ele>
        <time>2017-11-18T09:51:31Z</time>
      </trkpt>
      <trkpt lat="45.89554" lon="6.50041">
        <ele>2451.9</ele>
        <time>2017-11-18T09:51:36Z</time>
      </trkpt>
      <trkpt lat="45.89554" lon="6.50045">
        <ele>2452.9</ele>
        <time>2017-11-18T09:51:41Z</time>
      </trkpt>
      <trkpt lat="45.89553" lon="6.50049">
        <ele>2453.9</ele>
        <time>2017-11-18T09:51:46Z</time>
      </trkpt>
      <trkpt lat="45.89553" lon="6.50053">
        <ele>2455.2</ele>
        <time>2017-11-18T09:51:51Z</time>
      </trkpt>
      <trkpt lat="45.89553" lon="6.50056">
        <ele>2456.4</ele>
        <time>2017-11-18T09:51:56Z</time>
      </trkpt>
      <trkpt lat="45.89554" lon="6.50058">
        <ele>2457.3</ele>
        <time>2017-11-18T09:52:01Z</time>
      </trkpt>
      <trkpt lat="45.89554" lon="6.50061">
        <ele>2458.4</ele>
        <time>2017-11-18T09:52:06Z</time>
      </trkpt>
      <trkpt lat="45.89556" lon="6.50064">
        <ele>2458.9</ele>
        <time>2017-11-18T09:52:11Z</time>
      </trkpt>
      <trkpt lat="45.89557" lon="6.50068">
        <ele>2459.8</ele>
        <time>2017-11-18T09:52:16Z</time>
      </trkpt>
      <trkpt lat="45.89558" lon="6.50072">
        <ele>2460.7</ele>
        <time>2017-11-18T09:52:21Z</time>
      </trkpt>
      <trkpt lat="45.8956" lon="6.50075">
        <ele>2461.6</ele>
        <time>2017-11-18T09:52:26Z</time>
      </trkpt>
      <trkpt lat="45.89562" lon="6.50077">
        <ele>2462.4</ele>
        <time>2017-11-18T09:52:31Z</time>
      </trkpt>
      <trkpt lat="45.89564" lon="6.50081">
        <ele>2463</ele>
        <time>2017-11-18T09:52:36Z</time>
      </trkpt>
      <trkpt lat="45.89566" lon="6.50083">
        <ele>2463.6</ele>
        <time>2017-11-18T09:52:41Z</time>
      </trkpt>
      <trkpt lat="45.89567" lon="6.50086">
        <ele>2464.3</ele>
        <time>2017-11-18T09:52:46Z</time>
      </trkpt>
      <trkpt lat="45.89569" lon="6.50089">
        <ele>2465.1</ele>
        <time>2017-11-18T09:52:51Z</time>
      </trkpt>
      <trkpt lat="45.89571" lon="6.50092">
        <ele>2465.5</ele>
        <time>2017-11-18T09:52:56Z</time>
      </trkpt>
      <trkpt lat="45.89572" lon="6.50097">
        <ele>2466.4</ele>
        <time>2017-11-18T09:53:01Z</time>
      </trkpt>
      <trkpt lat="45.89575" lon="6.50101">
        <ele>2467.3</ele>
        <time>2017-11-18T09:53:06Z</time>
      </trkpt>
      <trkpt lat="45.89577" lon="6.50105">
        <ele>2468.1</ele>
        <time>2017-11-18T09:53:11Z</time>
      </trkpt>
      <trkpt lat="45.89579" lon="6.50109">
        <ele>2468.9</ele>
        <time>2017-11-18T09:53:16Z</time>
      </trkpt>
      <trkpt lat="45.89581" lon="6.50113">
        <ele>2469.6</ele>
        <time>2017-11-18T09:53:21Z</time>
      </trkpt>
      <trkpt lat="45.89583" lon="6.50117">
        <ele>2470.4</ele>
        <time>2017-11-18T09:53:26Z</time>
      </trkpt>
      <trkpt lat="45.89584" lon="6.50121">
        <ele>2471.1</ele>
        <time>2017-11-18T09:53:31Z</time>
      </trkpt>
      <trkpt lat="45.89586" lon="6.50126">
        <ele>2472.1</ele>
        <time>2017-11-18T09:53:36Z</time>
      </trkpt>
      <trkpt lat="45.89589" lon="6.5013">
        <ele>2473</ele>
        <time>2017-11-18T09:53:41Z</time>
      </trkpt>
      <trkpt lat="45.89592" lon="6.50134">
        <ele>2473.7</ele>
        <time>2017-11-18T09:53:46Z</time>
      </trkpt>
      <trkpt lat="45.89594" lon="6.50138">
        <ele>2474.5</ele>
        <time>2017-11-18T09:53:51Z</time>
      </trkpt>
      <trkpt lat="45.89597" lon="6.50142">
        <ele>2475.1</ele>
        <time>2017-11-18T09:53:56Z</time>
      </trkpt>
      <trkpt lat="45.896" lon="6.50145">
        <ele>2476</ele>
        <time>2017-11-18T09:54:01Z</time>
      </trkpt>
      <trkpt lat="45.89602" lon="6.50149">
        <ele>2476.6</ele>
        <time>2017-11-18T09:54:06Z</time>
      </trkpt>
      <trkpt lat="45.89605" lon="6.50153">
        <ele>2477.5</ele>
        <time>2017-11-18T09:54:11Z</time>
      </trkpt>
      <trkpt lat="45.89608" lon="6.50156">
        <ele>2478.1</ele>
        <time>2017-11-18T09:54:16Z</time>
      </trkpt>
      <trkpt lat="45.89611" lon="6.50159">
        <ele>2478.8</ele>
        <time>2017-11-18T09:54:21Z</time>
      </trkpt>
      <trkpt lat="45.89614" lon="6.50161">
        <ele>2479.3</ele>
        <time>2017-11-18T09:54:26Z</time>
      </trkpt>
      <trkpt lat="45.89618" lon="6.50163">
        <ele>2480.1</ele>
        <time>2017-11-18T09:54:31Z</time>
      </trkpt>
      <trkpt lat="45.89621" lon="6.50165">
        <ele>2480.7</ele>
        <time>2017-11-18T09:54:36Z</time>
      </trkpt>
      <trkpt lat="45.89625" lon="6.50166">
        <ele>2481.8</ele>
        <time>2017-11-18T09:54:41Z</time>
      </trkpt>
      <trkpt lat="45.89627" lon="6.50168">
        <ele>2482.1</ele>
        <time>2017-11-18T09:54:46Z</time>
      </trkpt>
      <trkpt lat="45.89628" lon="6.50168">
        <ele>2482</ele>
        <time>2017-11-18T09:54:51Z</time>
      </trkpt>
      <trkpt lat="45.89628" lon="6.50168">
        <ele>2481.7</ele>
        <time>2017-11-18T09:54:56Z</time>
      </trkpt>
      <trkpt lat="45.89628" lon="6.50168">
        <ele>2481.5</ele>
        <time>2017-11-18T09:55:01Z</time>
      </trkpt>
      <trkpt lat="45.89628" lon="6.50168">
        <ele>2481.6</ele>
        <time>2017-11-18T09:55:06Z</time>
      </trkpt>
      <trkpt lat="45.89627" lon="6.5017">
        <ele>2481.7</ele>
        <time>2017-11-18T09:55:11Z</time>
      </trkpt>
      <trkpt lat="45.89627" lon="6.50172">
        <ele>2481.6</ele>
        <time>2017-11-18T09:55:16Z</time>
      </trkpt>
      <trkpt lat="45.89628" lon="6.50172">
        <ele>2481.8</ele>
        <time>2017-11-18T09:55:21Z</time>
      </trkpt>
      <trkpt lat="45.89628" lon="6.50172">
        <ele>2481.8</ele>
        <time>2017-11-18T09:55:26Z</time>
      </trkpt>
      <trkpt lat="45.89628" lon="6.50172">
        <ele>2481.9</ele>
        <time>2017-11-18T09:55:31Z</time>
      </trkpt>
      <trkpt lat="45.89628" lon="6.50172">
        <ele>2481.8</ele>
        <time>2017-11-18T09:55:36Z</time>
      </trkpt>
      <trkpt lat="45.89628" lon="6.50172">
        <ele>2481.9</ele>
        <time>2017-11-18T09:55:41Z</time>
      </trkpt>
      <trkpt lat="45.89628" lon="6.5017">
        <ele>2482</ele>
        <time>2017-11-18T09:55:46Z</time>
      </trkpt>
      <trkpt lat="45.89629" lon="6.50169">
        <ele>2481.5</ele>
        <time>2017-11-18T09:55:51Z</time>
      </trkpt>
      <trkpt lat="45.89629" lon="6.50169">
        <ele>2480.4</ele>
        <time>2017-11-18T09:55:56Z</time>
      </trkpt>
      <trkpt lat="45.89629" lon="6.50169">
        <ele>2480.4</ele>
        <time>2017-11-18T09:56:01Z</time>
      </trkpt>
      <trkpt lat="45.89629" lon="6.5017">
        <ele>2480.4</ele>
        <time>2017-11-18T09:56:06Z</time>
      </trkpt>
      <trkpt lat="45.89629" lon="6.50169">
        <ele>2480.9</ele>
        <time>2017-11-18T09:56:11Z</time>
      </trkpt>
      <trkpt lat="45.8963" lon="6.50169">
        <ele>2481.2</ele>
        <time>2017-11-18T09:56:16Z</time>
      </trkpt>
      <trkpt lat="45.89634" lon="6.50166">
        <ele>2481.6</ele>
        <time>2017-11-18T09:56:21Z</time>
      </trkpt>
      <trkpt lat="45.89638" lon="6.50166">
        <ele>2482.1</ele>
        <time>2017-11-18T09:56:26Z</time>
      </trkpt>
      <trkpt lat="45.89641" lon="6.50167">
        <ele>2482.4</ele>
        <time>2017-11-18T09:56:31Z</time>
      </trkpt>
      <trkpt lat="45.89641" lon="6.50167">
        <ele>2482.3</ele>
        <time>2017-11-18T09:56:36Z</time>
      </trkpt>
      <trkpt lat="45.89641" lon="6.50166">
        <ele>2481.5</ele>
        <time>2017-11-18T09:56:41Z</time>
      </trkpt>
      <trkpt lat="45.89641" lon="6.50165">
        <ele>2481.5</ele>
        <time>2017-11-18T09:56:46Z</time>
      </trkpt>
      <trkpt lat="45.89641" lon="6.50165">
        <ele>2481.5</ele>
        <time>2017-11-18T09:56:51Z</time>
      </trkpt>
      <trkpt lat="45.89641" lon="6.50165">
        <ele>2481.6</ele>
        <time>2017-11-18T09:56:56Z</time>
      </trkpt>
      <trkpt lat="45.89641" lon="6.50165">
        <ele>2481.3</ele>
        <time>2017-11-18T09:57:01Z</time>
      </trkpt>
      <trkpt lat="45.89641" lon="6.50165">
        <ele>2481</ele>
        <time>2017-11-18T09:57:06Z</time>
      </trkpt>
      <trkpt lat="45.89641" lon="6.50165">
        <ele>2481.3</ele>
        <time>2017-11-18T09:57:11Z</time>
      </trkpt>
      <trkpt lat="45.89641" lon="6.50165">
        <ele>2481.3</ele>
        <time>2017-11-18T09:57:16Z</time>
      </trkpt>
      <trkpt lat="45.89641" lon="6.50165">
        <ele>2481.3</ele>
        <time>2017-11-18T09:57:21Z</time>
      </trkpt>
      <trkpt lat="45.89641" lon="6.50165">
        <ele>2481.1</ele>
        <time>2017-11-18T09:57:26Z</time>
      </trkpt>
      <trkpt lat="45.89641" lon="6.50165">
        <ele>2482.2</ele>
        <time>2017-11-18T09:57:31Z</time>
      </trkpt>
      <trkpt lat="45.89641" lon="6.50166">
        <ele>2481.5</ele>
        <time>2017-11-18T09:57:36Z</time>
      </trkpt>
      <trkpt lat="45.89641" lon="6.50166">
        <ele>2482.1</ele>
        <time>2017-11-18T09:57:41Z</time>
      </trkpt>
      <trkpt lat="45.89642" lon="6.50166">
        <ele>2482.5</ele>
        <time>2017-11-18T09:57:46Z</time>
      </trkpt>
      <trkpt lat="45.89642" lon="6.50166">
        <ele>2482.8</ele>
        <time>2017-11-18T09:57:51Z</time>
      </trkpt>
      <trkpt lat="45.89642" lon="6.50166">
        <ele>2482.5</ele>
        <time>2017-11-18T09:57:56Z</time>
      </trkpt>
      <trkpt lat="45.89643" lon="6.50167">
        <ele>2482.4</ele>
        <time>2017-11-18T09:58:01Z</time>
      </trkpt>
      <trkpt lat="45.89642" lon="6.50166">
        <ele>2482.6</ele>
        <time>2017-11-18T09:58:06Z</time>
      </trkpt>
      <trkpt lat="45.89643" lon="6.50167">
        <ele>2482.6</ele>
        <time>2017-11-18T09:58:11Z</time>
      </trkpt>
      <trkpt lat="45.89643" lon="6.50166">
        <ele>2482.3</ele>
        <time>2017-11-18T09:58:16Z</time>
      </trkpt>
      <trkpt lat="45.89643" lon="6.50167">
        <ele>2481.7</ele>
        <time>2017-11-18T09:58:21Z</time>
      </trkpt>
      <trkpt lat="45.89643" lon="6.50167">
        <ele>2481.3</ele>
        <time>2017-11-18T09:58:26Z</time>
      </trkpt>
      <trkpt lat="45.89643" lon="6.50167">
        <ele>2481</ele>
        <time>2017-11-18T09:58:31Z</time>
      </trkpt>
      <trkpt lat="45.89643" lon="6.50167">
        <ele>2481.4</ele>
        <time>2017-11-18T09:58:36Z</time>
      </trkpt>
      <trkpt lat="45.89643" lon="6.50167">
        <ele>2481.7</ele>
        <time>2017-11-18T09:58:41Z</time>
      </trkpt>
      <trkpt lat="45.89643" lon="6.50167">
        <ele>2481.5</ele>
        <time>2017-11-18T09:58:46Z</time>
      </trkpt>
      <trkpt lat="45.89643" lon="6.50167">
        <ele>2481.4</ele>
        <time>2017-11-18T09:58:51Z</time>
      </trkpt>
      <trkpt lat="45.89643" lon="6.50167">
        <ele>2481.5</ele>
        <time>2017-11-18T09:58:56Z</time>
      </trkpt>
      <trkpt lat="45.89643" lon="6.50167">
        <ele>2481.5</ele>
        <time>2017-11-18T09:59:01Z</time>
      </trkpt>
      <trkpt lat="45.89643" lon="6.50167">
        <ele>2481.5</ele>
        <time>2017-11-18T09:59:06Z</time>
      </trkpt>
      <trkpt lat="45.89643" lon="6.50167">
        <ele>2481.4</ele>
        <time>2017-11-18T09:59:11Z</time>
      </trkpt>
      <trkpt lat="45.89643" lon="6.50167">
        <ele>2481.5</ele>
        <time>2017-11-18T09:59:16Z</time>
      </trkpt>
      <trkpt lat="45.89643" lon="6.50167">
        <ele>2481.5</ele>
        <time>2017-11-18T09:59:21Z</time>
      </trkpt>
      <trkpt lat="45.89643" lon="6.50167">
        <ele>2481.3</ele>
        <time>2017-11-18T09:59:26Z</time>
      </trkpt>
      <trkpt lat="45.89643" lon="6.50167">
        <ele>2481.2</ele>
        <time>2017-11-18T09:59:31Z</time>
      </trkpt>
      <trkpt lat="45.89643" lon="6.50167">
        <ele>2481.1</ele>
        <time>2017-11-18T09:59:36Z</time>
      </trkpt>
      <trkpt lat="45.89643" lon="6.50167">
        <ele>2481.1</ele>
        <time>2017-11-18T09:59:41Z</time>
      </trkpt>
      <trkpt lat="45.89643" lon="6.50167">
        <ele>2481.1</ele>
        <time>2017-11-18T09:59:46Z</time>
      </trkpt>
      <trkpt lat="45.89643" lon="6.50167">
        <ele>2481.3</ele>
        <time>2017-11-18T09:59:51Z</time>
      </trkpt>
      <trkpt lat="45.89643" lon="6.50167">
        <ele>2481.4</ele>
        <time>2017-11-18T09:59:56Z</time>
      </trkpt>
      <trkpt lat="45.89643" lon="6.50167">
        <ele>2481.4</ele>
        <time>2017-11-18T10:00:01Z</time>
      </trkpt>
      <trkpt lat="45.89643" lon="6.50167">
        <ele>2481.4</ele>
        <time>2017-11-18T10:00:06Z</time>
      </trkpt>
      <trkpt lat="45.89643" lon="6.50167">
        <ele>2481.2</ele>
        <time>2017-11-18T10:00:11Z</time>
      </trkpt>
      <trkpt lat="45.89643" lon="6.50167">
        <ele>2481.2</ele>
        <time>2017-11-18T10:00:16Z</time>
      </trkpt>
      <trkpt lat="45.89643" lon="6.50167">
        <ele>2481.3</ele>
        <time>2017-11-18T10:00:21Z</time>
      </trkpt>
      <trkpt lat="45.89643" lon="6.50167">
        <ele>2481.4</ele>
        <time>2017-11-18T10:00:26Z</time>
      </trkpt>
      <trkpt lat="45.89643" lon="6.50167">
        <ele>2481.3</ele>
        <time>2017-11-18T10:00:31Z</time>
      </trkpt>
      <trkpt lat="45.89643" lon="6.50167">
        <ele>2481</ele>
        <time>2017-11-18T10:00:36Z</time>
      </trkpt>
      <trkpt lat="45.89643" lon="6.50167">
        <ele>2481.3</ele>
        <time>2017-11-18T10:00:41Z</time>
      </trkpt>
      <trkpt lat="45.89643" lon="6.50167">
        <ele>2481.3</ele>
        <time>2017-11-18T10:00:46Z</time>
      </trkpt>
      <trkpt lat="45.89643" lon="6.50167">
        <ele>2481.9</ele>
        <time>2017-11-18T10:00:51Z</time>
      </trkpt>
      <trkpt lat="45.89643" lon="6.50167">
        <ele>2481.7</ele>
        <time>2017-11-18T10:00:56Z</time>
      </trkpt>
      <trkpt lat="45.89643" lon="6.50167">
        <ele>2482</ele>
        <time>2017-11-18T10:01:01Z</time>
      </trkpt>
      <trkpt lat="45.89643" lon="6.50167">
        <ele>2481.8</ele>
        <time>2017-11-18T10:01:06Z</time>
      </trkpt>
      <trkpt lat="45.89643" lon="6.50167">
        <ele>2481.6</ele>
        <time>2017-11-18T10:01:11Z</time>
      </trkpt>
      <trkpt lat="45.89643" lon="6.50167">
        <ele>2481.5</ele>
        <time>2017-11-18T10:01:16Z</time>
      </trkpt>
      <trkpt lat="45.89643" lon="6.50167">
        <ele>2481.4</ele>
        <time>2017-11-18T10:01:21Z</time>
      </trkpt>
      <trkpt lat="45.89642" lon="6.50167">
        <ele>2481.7</ele>
        <time>2017-11-18T10:01:26Z</time>
      </trkpt>
      <trkpt lat="45.89642" lon="6.50166">
        <ele>2481.7</ele>
        <time>2017-11-18T10:01:31Z</time>
      </trkpt>
      <trkpt lat="45.89643" lon="6.50166">
        <ele>2481.6</ele>
        <time>2017-11-18T10:01:36Z</time>
      </trkpt>
      <trkpt lat="45.89643" lon="6.50166">
        <ele>2481.6</ele>
        <time>2017-11-18T10:01:41Z</time>
      </trkpt>
      <trkpt lat="45.89643" lon="6.50166">
        <ele>2481.7</ele>
        <time>2017-11-18T10:01:46Z</time>
      </trkpt>
      <trkpt lat="45.89643" lon="6.50166">
        <ele>2481.7</ele>
        <time>2017-11-18T10:01:51Z</time>
      </trkpt>
      <trkpt lat="45.89643" lon="6.50166">
        <ele>2481.9</ele>
        <time>2017-11-18T10:01:56Z</time>
      </trkpt>
      <trkpt lat="45.89643" lon="6.50166">
        <ele>2481.8</ele>
        <time>2017-11-18T10:02:01Z</time>
      </trkpt>
      <trkpt lat="45.89643" lon="6.50166">
        <ele>2481.7</ele>
        <time>2017-11-18T10:02:06Z</time>
      </trkpt>
      <trkpt lat="45.89643" lon="6.50166">
        <ele>2481.8</ele>
        <time>2017-11-18T10:02:11Z</time>
      </trkpt>
      <trkpt lat="45.89643" lon="6.50166">
        <ele>2481.8</ele>
        <time>2017-11-18T10:02:16Z</time>
      </trkpt>
      <trkpt lat="45.89643" lon="6.50166">
        <ele>2481.9</ele>
        <time>2017-11-18T10:02:21Z</time>
      </trkpt>
      <trkpt lat="45.89643" lon="6.50166">
        <ele>2481.8</ele>
        <time>2017-11-18T10:02:26Z</time>
      </trkpt>
      <trkpt lat="45.89643" lon="6.50166">
        <ele>2481.8</ele>
        <time>2017-11-18T10:02:31Z</time>
      </trkpt>
      <trkpt lat="45.89643" lon="6.50166">
        <ele>2481.7</ele>
        <time>2017-11-18T10:02:36Z</time>
      </trkpt>
      <trkpt lat="45.89643" lon="6.50166">
        <ele>2481.6</ele>
        <time>2017-11-18T10:02:41Z</time>
      </trkpt>
      <trkpt lat="45.89643" lon="6.50166">
        <ele>2481.8</ele>
        <time>2017-11-18T10:02:46Z</time>
      </trkpt>
      <trkpt lat="45.89643" lon="6.50166">
        <ele>2481.4</ele>
        <time>2017-11-18T10:02:51Z</time>
      </trkpt>
      <trkpt lat="45.89643" lon="6.50166">
        <ele>2482.1</ele>
        <time>2017-11-18T10:02:56Z</time>
      </trkpt>
      <trkpt lat="45.89643" lon="6.50166">
        <ele>2482.4</ele>
        <time>2017-11-18T10:03:01Z</time>
      </trkpt>
      <trkpt lat="45.89643" lon="6.50166">
        <ele>2482</ele>
        <time>2017-11-18T10:03:06Z</time>
      </trkpt>
      <trkpt lat="45.89643" lon="6.50166">
        <ele>2481.6</ele>
        <time>2017-11-18T10:03:11Z</time>
      </trkpt>
      <trkpt lat="45.89643" lon="6.50166">
        <ele>2481.6</ele>
        <time>2017-11-18T10:03:16Z</time>
      </trkpt>
      <trkpt lat="45.89642" lon="6.50167">
        <ele>2482.3</ele>
        <time>2017-11-18T10:03:21Z</time>
      </trkpt>
      <trkpt lat="45.89642" lon="6.50167">
        <ele>2482.7</ele>
        <time>2017-11-18T10:03:26Z</time>
      </trkpt>
      <trkpt lat="45.89642" lon="6.50168">
        <ele>2483</ele>
        <time>2017-11-18T10:03:31Z</time>
      </trkpt>
      <trkpt lat="45.89641" lon="6.50168">
        <ele>2482.8</ele>
        <time>2017-11-18T10:03:36Z</time>
      </trkpt>
      <trkpt lat="45.8964" lon="6.50167">
        <ele>2482.8</ele>
        <time>2017-11-18T10:03:41Z</time>
        <extensions>
          <gpxtpx:TrackPointExtension xmlns:gpxtpx="http://www.garmin.com/xmlschemas/TrackPointExtension/v1">
            <gpxtpx:hr>125</gpxtpx:hr>
          </gpxtpx:TrackPointExtension>
        </extensions>
      </trkpt>
      <trkpt lat="45.89637" lon="6.50168">
        <ele>2482.5</ele>
        <time>2017-11-18T10:03:46Z</time>
        <extensions>
          <gpxtpx:TrackPointExtension xmlns:gpxtpx="http://www.garmin.com/xmlschemas/TrackPointExtension/v1">
            <gpxtpx:hr>124</gpxtpx:hr>
          </gpxtpx:TrackPointExtension>
        </extensions>
      </trkpt>
      <trkpt lat="45.89637" lon="6.5017">
        <ele>2482.5</ele>
        <time>2017-11-18T10:03:51Z</time>
        <extensions>
          <gpxtpx:TrackPointExtension xmlns:gpxtpx="http://www.garmin.com/xmlschemas/TrackPointExtension/v1">
            <gpxtpx:hr>124</gpxtpx:hr>
          </gpxtpx:TrackPointExtension>
        </extensions>
      </trkpt>
      <trkpt lat="45.89637" lon="6.50171">
        <ele>2482.9</ele>
        <time>2017-11-18T10:03:56Z</time>
        <extensions>
          <gpxtpx:TrackPointExtension xmlns:gpxtpx="http://www.garmin.com/xmlschemas/TrackPointExtension/v1">
            <gpxtpx:hr>124</gpxtpx:hr>
          </gpxtpx:TrackPointExtension>
        </extensions>
      </trkpt>
      <trkpt lat="45.89637" lon="6.50172">
        <ele>2483.6</ele>
        <time>2017-11-18T10:04:01Z</time>
        <extensions>
          <gpxtpx:TrackPointExtension xmlns:gpxtpx="http://www.garmin.com/xmlschemas/TrackPointExtension/v1">
            <gpxtpx:hr>124</gpxtpx:hr>
          </gpxtpx:TrackPointExtension>
        </extensions>
      </trkpt>
      <trkpt lat="45.89637" lon="6.50173">
        <ele>2484.8</ele>
        <time>2017-11-18T10:04:06Z</time>
        <extensions>
          <gpxtpx:TrackPointExtension xmlns:gpxtpx="http://www.garmin.com/xmlschemas/TrackPointExtension/v1">
            <gpxtpx:hr>124</gpxtpx:hr>
          </gpxtpx:TrackPointExtension>
        </extensions>
      </trkpt>
      <trkpt lat="45.89638" lon="6.50174">
        <ele>2485.1</ele>
        <time>2017-11-18T10:04:11Z</time>
        <extensions>
          <gpxtpx:TrackPointExtension xmlns:gpxtpx="http://www.garmin.com/xmlschemas/TrackPointExtension/v1">
            <gpxtpx:hr>104</gpxtpx:hr>
          </gpxtpx:TrackPointExtension>
        </extensions>
      </trkpt>
      <trkpt lat="45.89638" lon="6.50174">
        <ele>2485.3</ele>
        <time>2017-11-18T10:04:16Z</time>
        <extensions>
          <gpxtpx:TrackPointExtension xmlns:gpxtpx="http://www.garmin.com/xmlschemas/TrackPointExtension/v1">
            <gpxtpx:hr>99</gpxtpx:hr>
          </gpxtpx:TrackPointExtension>
        </extensions>
      </trkpt>
      <trkpt lat="45.89639" lon="6.50173">
        <ele>2485.5</ele>
        <time>2017-11-18T10:04:22Z</time>
        <extensions>
          <gpxtpx:TrackPointExtension xmlns:gpxtpx="http://www.garmin.com/xmlschemas/TrackPointExtension/v1">
            <gpxtpx:hr>103</gpxtpx:hr>
          </gpxtpx:TrackPointExtension>
        </extensions>
      </trkpt>
      <trkpt lat="45.89639" lon="6.50174">
        <ele>2486.1</ele>
        <time>2017-11-18T10:04:27Z</time>
        <extensions>
          <gpxtpx:TrackPointExtension xmlns:gpxtpx="http://www.garmin.com/xmlschemas/TrackPointExtension/v1">
            <gpxtpx:hr>103</gpxtpx:hr>
          </gpxtpx:TrackPointExtension>
        </extensions>
      </trkpt>
      <trkpt lat="45.89638" lon="6.50174">
        <ele>2485.7</ele>
        <time>2017-11-18T10:04:32Z</time>
        <extensions>
          <gpxtpx:TrackPointExtension xmlns:gpxtpx="http://www.garmin.com/xmlschemas/TrackPointExtension/v1">
            <gpxtpx:hr>105</gpxtpx:hr>
          </gpxtpx:TrackPointExtension>
        </extensions>
      </trkpt>
      <trkpt lat="45.89637" lon="6.50175">
        <ele>2485.5</ele>
        <time>2017-11-18T10:04:37Z</time>
        <extensions>
          <gpxtpx:TrackPointExtension xmlns:gpxtpx="http://www.garmin.com/xmlschemas/TrackPointExtension/v1">
            <gpxtpx:hr>105</gpxtpx:hr>
          </gpxtpx:TrackPointExtension>
        </extensions>
      </trkpt>
      <trkpt lat="45.89637" lon="6.50176">
        <ele>2485</ele>
        <time>2017-11-18T10:04:42Z</time>
        <extensions>
          <gpxtpx:TrackPointExtension xmlns:gpxtpx="http://www.garmin.com/xmlschemas/TrackPointExtension/v1">
            <gpxtpx:hr>105</gpxtpx:hr>
          </gpxtpx:TrackPointExtension>
        </extensions>
      </trkpt>
      <trkpt lat="45.89637" lon="6.50176">
        <ele>2484.8</ele>
        <time>2017-11-18T10:04:47Z</time>
        <extensions>
          <gpxtpx:TrackPointExtension xmlns:gpxtpx="http://www.garmin.com/xmlschemas/TrackPointExtension/v1">
            <gpxtpx:hr>110</gpxtpx:hr>
          </gpxtpx:TrackPointExtension>
        </extensions>
      </trkpt>
      <trkpt lat="45.89637" lon="6.50176">
        <ele>2484.7</ele>
        <time>2017-11-18T10:04:52Z</time>
        <extensions>
          <gpxtpx:TrackPointExtension xmlns:gpxtpx="http://www.garmin.com/xmlschemas/TrackPointExtension/v1">
            <gpxtpx:hr>112</gpxtpx:hr>
          </gpxtpx:TrackPointExtension>
        </extensions>
      </trkpt>
      <trkpt lat="45.89637" lon="6.50176">
        <ele>2484.7</ele>
        <time>2017-11-18T10:04:57Z</time>
        <extensions>
          <gpxtpx:TrackPointExtension xmlns:gpxtpx="http://www.garmin.com/xmlschemas/TrackPointExtension/v1">
            <gpxtpx:hr>114</gpxtpx:hr>
          </gpxtpx:TrackPointExtension>
        </extensions>
      </trkpt>
      <trkpt lat="45.89637" lon="6.50176">
        <ele>2484.8</ele>
        <time>2017-11-18T10:05:02Z</time>
        <extensions>
          <gpxtpx:TrackPointExtension xmlns:gpxtpx="http://www.garmin.com/xmlschemas/TrackPointExtension/v1">
            <gpxtpx:hr>110</gpxtpx:hr>
          </gpxtpx:TrackPointExtension>
        </extensions>
      </trkpt>
      <trkpt lat="45.89637" lon="6.50176">
        <ele>2484.5</ele>
        <time>2017-11-18T10:05:07Z</time>
        <extensions>
          <gpxtpx:TrackPointExtension xmlns:gpxtpx="http://www.garmin.com/xmlschemas/TrackPointExtension/v1">
            <gpxtpx:hr>110</gpxtpx:hr>
          </gpxtpx:TrackPointExtension>
        </extensions>
      </trkpt>
      <trkpt lat="45.89637" lon="6.50176">
        <ele>2484.6</ele>
        <time>2017-11-18T10:05:12Z</time>
        <extensions>
          <gpxtpx:TrackPointExtension xmlns:gpxtpx="http://www.garmin.com/xmlschemas/TrackPointExtension/v1">
            <gpxtpx:hr>101</gpxtpx:hr>
          </gpxtpx:TrackPointExtension>
        </extensions>
      </trkpt>
      <trkpt lat="45.89637" lon="6.50176">
        <ele>2484.9</ele>
        <time>2017-11-18T10:05:17Z</time>
        <extensions>
          <gpxtpx:TrackPointExtension xmlns:gpxtpx="http://www.garmin.com/xmlschemas/TrackPointExtension/v1">
            <gpxtpx:hr>100</gpxtpx:hr>
          </gpxtpx:TrackPointExtension>
        </extensions>
      </trkpt>
      <trkpt lat="45.89637" lon="6.50176">
        <ele>2485</ele>
        <time>2017-11-18T10:05:22Z</time>
        <extensions>
          <gpxtpx:TrackPointExtension xmlns:gpxtpx="http://www.garmin.com/xmlschemas/TrackPointExtension/v1">
            <gpxtpx:hr>91</gpxtpx:hr>
          </gpxtpx:TrackPointExtension>
        </extensions>
      </trkpt>
      <trkpt lat="45.89637" lon="6.50176">
        <ele>2484.9</ele>
        <time>2017-11-18T10:05:27Z</time>
        <extensions>
          <gpxtpx:TrackPointExtension xmlns:gpxtpx="http://www.garmin.com/xmlschemas/TrackPointExtension/v1">
            <gpxtpx:hr>88</gpxtpx:hr>
          </gpxtpx:TrackPointExtension>
        </extensions>
      </trkpt>
      <trkpt lat="45.89638" lon="6.50177">
        <ele>2485</ele>
        <time>2017-11-18T10:05:32Z</time>
        <extensions>
          <gpxtpx:TrackPointExtension xmlns:gpxtpx="http://www.garmin.com/xmlschemas/TrackPointExtension/v1">
            <gpxtpx:hr>89</gpxtpx:hr>
          </gpxtpx:TrackPointExtension>
        </extensions>
      </trkpt>
      <trkpt lat="45.89639" lon="6.50179">
        <ele>2484.8</ele>
        <time>2017-11-18T10:05:37Z</time>
        <extensions>
          <gpxtpx:TrackPointExtension xmlns:gpxtpx="http://www.garmin.com/xmlschemas/TrackPointExtension/v1">
            <gpxtpx:hr>89</gpxtpx:hr>
          </gpxtpx:TrackPointExtension>
        </extensions>
      </trkpt>
      <trkpt lat="45.89639" lon="6.5018">
        <ele>2484.8</ele>
        <time>2017-11-18T10:05:42Z</time>
        <extensions>
          <gpxtpx:TrackPointExtension xmlns:gpxtpx="http://www.garmin.com/xmlschemas/TrackPointExtension/v1">
            <gpxtpx:hr>89</gpxtpx:hr>
          </gpxtpx:TrackPointExtension>
        </extensions>
      </trkpt>
      <trkpt lat="45.89639" lon="6.5018">
        <ele>2484.8</ele>
        <time>2017-11-18T10:05:47Z</time>
        <extensions>
          <gpxtpx:TrackPointExtension xmlns:gpxtpx="http://www.garmin.com/xmlschemas/TrackPointExtension/v1">
            <gpxtpx:hr>90</gpxtpx:hr>
          </gpxtpx:TrackPointExtension>
        </extensions>
      </trkpt>
      <trkpt lat="45.89639" lon="6.5018">
        <ele>2485.1</ele>
        <time>2017-11-18T10:05:52Z</time>
        <extensions>
          <gpxtpx:TrackPointExtension xmlns:gpxtpx="http://www.garmin.com/xmlschemas/TrackPointExtension/v1">
            <gpxtpx:hr>90</gpxtpx:hr>
          </gpxtpx:TrackPointExtension>
        </extensions>
      </trkpt>
      <trkpt lat="45.89639" lon="6.5018">
        <ele>2485</ele>
        <time>2017-11-18T10:05:57Z</time>
        <extensions>
          <gpxtpx:TrackPointExtension xmlns:gpxtpx="http://www.garmin.com/xmlschemas/TrackPointExtension/v1">
            <gpxtpx:hr>89</gpxtpx:hr>
          </gpxtpx:TrackPointExtension>
        </extensions>
      </trkpt>
      <trkpt lat="45.89639" lon="6.5018">
        <ele>2484.9</ele>
        <time>2017-11-18T10:06:02Z</time>
        <extensions>
          <gpxtpx:TrackPointExtension xmlns:gpxtpx="http://www.garmin.com/xmlschemas/TrackPointExtension/v1">
            <gpxtpx:hr>84</gpxtpx:hr>
          </gpxtpx:TrackPointExtension>
        </extensions>
      </trkpt>
      <trkpt lat="45.89639" lon="6.50179">
        <ele>2484.4</ele>
        <time>2017-11-18T10:06:07Z</time>
        <extensions>
          <gpxtpx:TrackPointExtension xmlns:gpxtpx="http://www.garmin.com/xmlschemas/TrackPointExtension/v1">
            <gpxtpx:hr>82</gpxtpx:hr>
          </gpxtpx:TrackPointExtension>
        </extensions>
      </trkpt>
      <trkpt lat="45.8964" lon="6.50176">
        <ele>2484.5</ele>
        <time>2017-11-18T10:06:12Z</time>
        <extensions>
          <gpxtpx:TrackPointExtension xmlns:gpxtpx="http://www.garmin.com/xmlschemas/TrackPointExtension/v1">
            <gpxtpx:hr>80</gpxtpx:hr>
          </gpxtpx:TrackPointExtension>
        </extensions>
      </trkpt>
      <trkpt lat="45.89641" lon="6.50176">
        <ele>2484.3</ele>
        <time>2017-11-18T10:06:17Z</time>
        <extensions>
          <gpxtpx:TrackPointExtension xmlns:gpxtpx="http://www.garmin.com/xmlschemas/TrackPointExtension/v1">
            <gpxtpx:hr>80</gpxtpx:hr>
          </gpxtpx:TrackPointExtension>
        </extensions>
      </trkpt>
      <trkpt lat="45.89643" lon="6.50174">
        <ele>2483.9</ele>
        <time>2017-11-18T10:06:22Z</time>
        <extensions>
          <gpxtpx:TrackPointExtension xmlns:gpxtpx="http://www.garmin.com/xmlschemas/TrackPointExtension/v1">
            <gpxtpx:hr>80</gpxtpx:hr>
          </gpxtpx:TrackPointExtension>
        </extensions>
      </trkpt>
      <trkpt lat="45.89644" lon="6.50169">
        <ele>2482.9</ele>
        <time>2017-11-18T10:06:27Z</time>
        <extensions>
          <gpxtpx:TrackPointExtension xmlns:gpxtpx="http://www.garmin.com/xmlschemas/TrackPointExtension/v1">
            <gpxtpx:hr>80</gpxtpx:hr>
          </gpxtpx:TrackPointExtension>
        </extensions>
      </trkpt>
      <trkpt lat="45.89641" lon="6.50166">
        <ele>2482.5</ele>
        <time>2017-11-18T10:06:32Z</time>
        <extensions>
          <gpxtpx:TrackPointExtension xmlns:gpxtpx="http://www.garmin.com/xmlschemas/TrackPointExtension/v1">
            <gpxtpx:hr>76</gpxtpx:hr>
          </gpxtpx:TrackPointExtension>
        </extensions>
      </trkpt>
      <trkpt lat="45.89641" lon="6.50167">
        <ele>2482.1</ele>
        <time>2017-11-18T10:06:37Z</time>
        <extensions>
          <gpxtpx:TrackPointExtension xmlns:gpxtpx="http://www.garmin.com/xmlschemas/TrackPointExtension/v1">
            <gpxtpx:hr>75</gpxtpx:hr>
          </gpxtpx:TrackPointExtension>
        </extensions>
      </trkpt>
      <trkpt lat="45.89641" lon="6.50168">
        <ele>2482</ele>
        <time>2017-11-18T10:06:42Z</time>
        <extensions>
          <gpxtpx:TrackPointExtension xmlns:gpxtpx="http://www.garmin.com/xmlschemas/TrackPointExtension/v1">
            <gpxtpx:hr>75</gpxtpx:hr>
          </gpxtpx:TrackPointExtension>
        </extensions>
      </trkpt>
      <trkpt lat="45.89642" lon="6.50168">
        <ele>2481.7</ele>
        <time>2017-11-18T10:06:47Z</time>
        <extensions>
          <gpxtpx:TrackPointExtension xmlns:gpxtpx="http://www.garmin.com/xmlschemas/TrackPointExtension/v1">
            <gpxtpx:hr>75</gpxtpx:hr>
          </gpxtpx:TrackPointExtension>
        </extensions>
      </trkpt>
      <trkpt lat="45.89642" lon="6.50168">
        <ele>2481.4</ele>
        <time>2017-11-18T10:06:52Z</time>
        <extensions>
          <gpxtpx:TrackPointExtension xmlns:gpxtpx="http://www.garmin.com/xmlschemas/TrackPointExtension/v1">
            <gpxtpx:hr>75</gpxtpx:hr>
          </gpxtpx:TrackPointExtension>
        </extensions>
      </trkpt>
      <trkpt lat="45.89642" lon="6.50168">
        <ele>2481.4</ele>
        <time>2017-11-18T10:06:57Z</time>
        <extensions>
          <gpxtpx:TrackPointExtension xmlns:gpxtpx="http://www.garmin.com/xmlschemas/TrackPointExtension/v1">
            <gpxtpx:hr>75</gpxtpx:hr>
          </gpxtpx:TrackPointExtension>
        </extensions>
      </trkpt>
      <trkpt lat="45.89642" lon="6.50168">
        <ele>2482.5</ele>
        <time>2017-11-18T10:07:02Z</time>
        <extensions>
          <gpxtpx:TrackPointExtension xmlns:gpxtpx="http://www.garmin.com/xmlschemas/TrackPointExtension/v1">
            <gpxtpx:hr>75</gpxtpx:hr>
          </gpxtpx:TrackPointExtension>
        </extensions>
      </trkpt>
      <trkpt lat="45.89642" lon="6.50167">
        <ele>2483</ele>
        <time>2017-11-18T10:07:07Z</time>
        <extensions>
          <gpxtpx:TrackPointExtension xmlns:gpxtpx="http://www.garmin.com/xmlschemas/TrackPointExtension/v1">
            <gpxtpx:hr>75</gpxtpx:hr>
          </gpxtpx:TrackPointExtension>
        </extensions>
      </trkpt>
      <trkpt lat="45.89642" lon="6.50166">
        <ele>2482.9</ele>
        <time>2017-11-18T10:07:12Z</time>
        <extensions>
          <gpxtpx:TrackPointExtension xmlns:gpxtpx="http://www.garmin.com/xmlschemas/TrackPointExtension/v1">
            <gpxtpx:hr>75</gpxtpx:hr>
          </gpxtpx:TrackPointExtension>
        </extensions>
      </trkpt>
      <trkpt lat="45.89643" lon="6.50166">
        <ele>2482.8</ele>
        <time>2017-11-18T10:07:17Z</time>
        <extensions>
          <gpxtpx:TrackPointExtension xmlns:gpxtpx="http://www.garmin.com/xmlschemas/TrackPointExtension/v1">
            <gpxtpx:hr>75</gpxtpx:hr>
          </gpxtpx:TrackPointExtension>
        </extensions>
      </trkpt>
      <trkpt lat="45.89643" lon="6.50166">
        <ele>2483.1</ele>
        <time>2017-11-18T10:07:22Z</time>
        <extensions>
          <gpxtpx:TrackPointExtension xmlns:gpxtpx="http://www.garmin.com/xmlschemas/TrackPointExtension/v1">
            <gpxtpx:hr>83</gpxtpx:hr>
          </gpxtpx:TrackPointExtension>
        </extensions>
      </trkpt>
      <trkpt lat="45.89643" lon="6.50166">
        <ele>2482.6</ele>
        <time>2017-11-18T10:07:27Z</time>
        <extensions>
          <gpxtpx:TrackPointExtension xmlns:gpxtpx="http://www.garmin.com/xmlschemas/TrackPointExtension/v1">
            <gpxtpx:hr>85</gpxtpx:hr>
          </gpxtpx:TrackPointExtension>
        </extensions>
      </trkpt>
      <trkpt lat="45.89643" lon="6.50166">
        <ele>2482.2</ele>
        <time>2017-11-18T10:07:32Z</time>
        <extensions>
          <gpxtpx:TrackPointExtension xmlns:gpxtpx="http://www.garmin.com/xmlschemas/TrackPointExtension/v1">
            <gpxtpx:hr>85</gpxtpx:hr>
          </gpxtpx:TrackPointExtension>
        </extensions>
      </trkpt>
      <trkpt lat="45.89643" lon="6.50166">
        <ele>2482.3</ele>
        <time>2017-11-18T10:07:37Z</time>
        <extensions>
          <gpxtpx:TrackPointExtension xmlns:gpxtpx="http://www.garmin.com/xmlschemas/TrackPointExtension/v1">
            <gpxtpx:hr>85</gpxtpx:hr>
          </gpxtpx:TrackPointExtension>
        </extensions>
      </trkpt>
      <trkpt lat="45.89643" lon="6.50166">
        <ele>2482.3</ele>
        <time>2017-11-18T10:07:42Z</time>
        <extensions>
          <gpxtpx:TrackPointExtension xmlns:gpxtpx="http://www.garmin.com/xmlschemas/TrackPointExtension/v1">
            <gpxtpx:hr>79</gpxtpx:hr>
          </gpxtpx:TrackPointExtension>
        </extensions>
      </trkpt>
      <trkpt lat="45.89643" lon="6.50166">
        <ele>2482.4</ele>
        <time>2017-11-18T10:07:47Z</time>
        <extensions>
          <gpxtpx:TrackPointExtension xmlns:gpxtpx="http://www.garmin.com/xmlschemas/TrackPointExtension/v1">
            <gpxtpx:hr>79</gpxtpx:hr>
          </gpxtpx:TrackPointExtension>
        </extensions>
      </trkpt>
      <trkpt lat="45.89643" lon="6.50166">
        <ele>2482.1</ele>
        <time>2017-11-18T10:07:52Z</time>
        <extensions>
          <gpxtpx:TrackPointExtension xmlns:gpxtpx="http://www.garmin.com/xmlschemas/TrackPointExtension/v1">
            <gpxtpx:hr>79</gpxtpx:hr>
          </gpxtpx:TrackPointExtension>
        </extensions>
      </trkpt>
      <trkpt lat="45.89643" lon="6.50166">
        <ele>2481.7</ele>
        <time>2017-11-18T10:07:57Z</time>
        <extensions>
          <gpxtpx:TrackPointExtension xmlns:gpxtpx="http://www.garmin.com/xmlschemas/TrackPointExtension/v1">
            <gpxtpx:hr>80</gpxtpx:hr>
          </gpxtpx:TrackPointExtension>
        </extensions>
      </trkpt>
      <trkpt lat="45.89643" lon="6.50166">
        <ele>2481.6</ele>
        <time>2017-11-18T10:08:02Z</time>
        <extensions>
          <gpxtpx:TrackPointExtension xmlns:gpxtpx="http://www.garmin.com/xmlschemas/TrackPointExtension/v1">
            <gpxtpx:hr>82</gpxtpx:hr>
          </gpxtpx:TrackPointExtension>
        </extensions>
      </trkpt>
      <trkpt lat="45.89643" lon="6.50166">
        <ele>2481.5</ele>
        <time>2017-11-18T10:08:07Z</time>
        <extensions>
          <gpxtpx:TrackPointExtension xmlns:gpxtpx="http://www.garmin.com/xmlschemas/TrackPointExtension/v1">
            <gpxtpx:hr>80</gpxtpx:hr>
          </gpxtpx:TrackPointExtension>
        </extensions>
      </trkpt>
      <trkpt lat="45.89643" lon="6.50166">
        <ele>2481.5</ele>
        <time>2017-11-18T10:08:12Z</time>
        <extensions>
          <gpxtpx:TrackPointExtension xmlns:gpxtpx="http://www.garmin.com/xmlschemas/TrackPointExtension/v1">
            <gpxtpx:hr>79</gpxtpx:hr>
          </gpxtpx:TrackPointExtension>
        </extensions>
      </trkpt>
      <trkpt lat="45.89643" lon="6.50166">
        <ele>2481.7</ele>
        <time>2017-11-18T10:08:17Z</time>
        <extensions>
          <gpxtpx:TrackPointExtension xmlns:gpxtpx="http://www.garmin.com/xmlschemas/TrackPointExtension/v1">
            <gpxtpx:hr>79</gpxtpx:hr>
          </gpxtpx:TrackPointExtension>
        </extensions>
      </trkpt>
      <trkpt lat="45.89643" lon="6.50166">
        <ele>2481.8</ele>
        <time>2017-11-18T10:08:22Z</time>
        <extensions>
          <gpxtpx:TrackPointExtension xmlns:gpxtpx="http://www.garmin.com/xmlschemas/TrackPointExtension/v1">
            <gpxtpx:hr>77</gpxtpx:hr>
          </gpxtpx:TrackPointExtension>
        </extensions>
      </trkpt>
      <trkpt lat="45.89643" lon="6.50166">
        <ele>2481.7</ele>
        <time>2017-11-18T10:08:27Z</time>
        <extensions>
          <gpxtpx:TrackPointExtension xmlns:gpxtpx="http://www.garmin.com/xmlschemas/TrackPointExtension/v1">
            <gpxtpx:hr>74</gpxtpx:hr>
          </gpxtpx:TrackPointExtension>
        </extensions>
      </trkpt>
      <trkpt lat="45.89643" lon="6.50166">
        <ele>2481.9</ele>
        <time>2017-11-18T10:08:32Z</time>
        <extensions>
          <gpxtpx:TrackPointExtension xmlns:gpxtpx="http://www.garmin.com/xmlschemas/TrackPointExtension/v1">
            <gpxtpx:hr>78</gpxtpx:hr>
          </gpxtpx:TrackPointExtension>
        </extensions>
      </trkpt>
      <trkpt lat="45.89643" lon="6.50166">
        <ele>2481.8</ele>
        <time>2017-11-18T10:08:37Z</time>
        <extensions>
          <gpxtpx:TrackPointExtension xmlns:gpxtpx="http://www.garmin.com/xmlschemas/TrackPointExtension/v1">
            <gpxtpx:hr>78</gpxtpx:hr>
          </gpxtpx:TrackPointExtension>
        </extensions>
      </trkpt>
      <trkpt lat="45.89642" lon="6.50167">
        <ele>2481.7</ele>
        <time>2017-11-18T10:08:42Z</time>
        <extensions>
          <gpxtpx:TrackPointExtension xmlns:gpxtpx="http://www.garmin.com/xmlschemas/TrackPointExtension/v1">
            <gpxtpx:hr>75</gpxtpx:hr>
          </gpxtpx:TrackPointExtension>
        </extensions>
      </trkpt>
      <trkpt lat="45.89642" lon="6.50166">
        <ele>2481.5</ele>
        <time>2017-11-18T10:08:47Z</time>
        <extensions>
          <gpxtpx:TrackPointExtension xmlns:gpxtpx="http://www.garmin.com/xmlschemas/TrackPointExtension/v1">
            <gpxtpx:hr>72</gpxtpx:hr>
          </gpxtpx:TrackPointExtension>
        </extensions>
      </trkpt>
      <trkpt lat="45.89642" lon="6.50166">
        <ele>2481.9</ele>
        <time>2017-11-18T10:08:52Z</time>
        <extensions>
          <gpxtpx:TrackPointExtension xmlns:gpxtpx="http://www.garmin.com/xmlschemas/TrackPointExtension/v1">
            <gpxtpx:hr>73</gpxtpx:hr>
          </gpxtpx:TrackPointExtension>
        </extensions>
      </trkpt>
      <trkpt lat="45.89642" lon="6.50167">
        <ele>2482</ele>
        <time>2017-11-18T10:08:57Z</time>
        <extensions>
          <gpxtpx:TrackPointExtension xmlns:gpxtpx="http://www.garmin.com/xmlschemas/TrackPointExtension/v1">
            <gpxtpx:hr>79</gpxtpx:hr>
          </gpxtpx:TrackPointExtension>
        </extensions>
      </trkpt>
      <trkpt lat="45.89642" lon="6.50167">
        <ele>2482.3</ele>
        <time>2017-11-18T10:09:02Z</time>
        <extensions>
          <gpxtpx:TrackPointExtension xmlns:gpxtpx="http://www.garmin.com/xmlschemas/TrackPointExtension/v1">
            <gpxtpx:hr>90</gpxtpx:hr>
          </gpxtpx:TrackPointExtension>
        </extensions>
      </trkpt>
      <trkpt lat="45.89642" lon="6.50166">
        <ele>2482.5</ele>
        <time>2017-11-18T10:09:07Z</time>
        <extensions>
          <gpxtpx:TrackPointExtension xmlns:gpxtpx="http://www.garmin.com/xmlschemas/TrackPointExtension/v1">
            <gpxtpx:hr>96</gpxtpx:hr>
          </gpxtpx:TrackPointExtension>
        </extensions>
      </trkpt>
      <trkpt lat="45.89642" lon="6.50166">
        <ele>2482.5</ele>
        <time>2017-11-18T10:09:12Z</time>
        <extensions>
          <gpxtpx:TrackPointExtension xmlns:gpxtpx="http://www.garmin.com/xmlschemas/TrackPointExtension/v1">
            <gpxtpx:hr>101</gpxtpx:hr>
          </gpxtpx:TrackPointExtension>
        </extensions>
      </trkpt>
      <trkpt lat="45.89639" lon="6.50165">
        <ele>2482.1</ele>
        <time>2017-11-18T10:09:17Z</time>
        <extensions>
          <gpxtpx:TrackPointExtension xmlns:gpxtpx="http://www.garmin.com/xmlschemas/TrackPointExtension/v1">
            <gpxtpx:hr>103</gpxtpx:hr>
          </gpxtpx:TrackPointExtension>
        </extensions>
      </trkpt>
      <trkpt lat="45.89626" lon="6.50161">
        <ele>2482</ele>
        <time>2017-11-18T10:09:22Z</time>
        <extensions>
          <gpxtpx:TrackPointExtension xmlns:gpxtpx="http://www.garmin.com/xmlschemas/TrackPointExtension/v1">
            <gpxtpx:hr>107</gpxtpx:hr>
          </gpxtpx:TrackPointExtension>
        </extensions>
      </trkpt>
      <trkpt lat="45.89621" lon="6.50169">
        <ele>2481.1</ele>
        <time>2017-11-18T10:09:27Z</time>
        <extensions>
          <gpxtpx:TrackPointExtension xmlns:gpxtpx="http://www.garmin.com/xmlschemas/TrackPointExtension/v1">
            <gpxtpx:hr>107</gpxtpx:hr>
          </gpxtpx:TrackPointExtension>
        </extensions>
      </trkpt>
      <trkpt lat="45.89615" lon="6.50167">
        <ele>2480.8</ele>
        <time>2017-11-18T10:09:32Z</time>
        <extensions>
          <gpxtpx:TrackPointExtension xmlns:gpxtpx="http://www.garmin.com/xmlschemas/TrackPointExtension/v1">
            <gpxtpx:hr>107</gpxtpx:hr>
          </gpxtpx:TrackPointExtension>
        </extensions>
      </trkpt>
      <trkpt lat="45.89605" lon="6.50144">
        <ele>2480.2</ele>
        <time>2017-11-18T10:09:37Z</time>
        <extensions>
          <gpxtpx:TrackPointExtension xmlns:gpxtpx="http://www.garmin.com/xmlschemas/TrackPointExtension/v1">
            <gpxtpx:hr>107</gpxtpx:hr>
          </gpxtpx:TrackPointExtension>
        </extensions>
      </trkpt>
      <trkpt lat="45.89586" lon="6.50125">
        <ele>2476</ele>
        <time>2017-11-18T10:09:42Z</time>
        <extensions>
          <gpxtpx:TrackPointExtension xmlns:gpxtpx="http://www.garmin.com/xmlschemas/TrackPointExtension/v1">
            <gpxtpx:hr>117</gpxtpx:hr>
          </gpxtpx:TrackPointExtension>
        </extensions>
      </trkpt>
      <trkpt lat="45.8957" lon="6.5011">
        <ele>2470.7</ele>
        <time>2017-11-18T10:09:47Z</time>
        <extensions>
          <gpxtpx:TrackPointExtension xmlns:gpxtpx="http://www.garmin.com/xmlschemas/TrackPointExtension/v1">
            <gpxtpx:hr>116</gpxtpx:hr>
          </gpxtpx:TrackPointExtension>
        </extensions>
      </trkpt>
      <trkpt lat="45.89559" lon="6.50088">
        <ele>2465.6</ele>
        <time>2017-11-18T10:09:52Z</time>
        <extensions>
          <gpxtpx:TrackPointExtension xmlns:gpxtpx="http://www.garmin.com/xmlschemas/TrackPointExtension/v1">
            <gpxtpx:hr>112</gpxtpx:hr>
          </gpxtpx:TrackPointExtension>
        </extensions>
      </trkpt>
      <trkpt lat="45.8955" lon="6.50066">
        <ele>2460.8</ele>
        <time>2017-11-18T10:09:57Z</time>
        <extensions>
          <gpxtpx:TrackPointExtension xmlns:gpxtpx="http://www.garmin.com/xmlschemas/TrackPointExtension/v1">
            <gpxtpx:hr>112</gpxtpx:hr>
          </gpxtpx:TrackPointExtension>
        </extensions>
      </trkpt>
      <trkpt lat="45.89551" lon="6.50044">
        <ele>2455.5</ele>
        <time>2017-11-18T10:10:02Z</time>
        <extensions>
          <gpxtpx:TrackPointExtension xmlns:gpxtpx="http://www.garmin.com/xmlschemas/TrackPointExtension/v1">
            <gpxtpx:hr>112</gpxtpx:hr>
          </gpxtpx:TrackPointExtension>
        </extensions>
      </trkpt>
      <trkpt lat="45.89553" lon="6.50038">
        <ele>2451.7</ele>
        <time>2017-11-18T10:10:07Z</time>
        <extensions>
          <gpxtpx:TrackPointExtension xmlns:gpxtpx="http://www.garmin.com/xmlschemas/TrackPointExtension/v1">
            <gpxtpx:hr>112</gpxtpx:hr>
          </gpxtpx:TrackPointExtension>
        </extensions>
      </trkpt>
      <trkpt lat="45.8956" lon="6.5002">
        <ele>2448</ele>
        <time>2017-11-18T10:10:12Z</time>
        <extensions>
          <gpxtpx:TrackPointExtension xmlns:gpxtpx="http://www.garmin.com/xmlschemas/TrackPointExtension/v1">
            <gpxtpx:hr>112</gpxtpx:hr>
          </gpxtpx:TrackPointExtension>
        </extensions>
      </trkpt>
      <trkpt lat="45.89571" lon="6.50009">
        <ele>2441.8</ele>
        <time>2017-11-18T10:10:17Z</time>
        <extensions>
          <gpxtpx:TrackPointExtension xmlns:gpxtpx="http://www.garmin.com/xmlschemas/TrackPointExtension/v1">
            <gpxtpx:hr>112</gpxtpx:hr>
          </gpxtpx:TrackPointExtension>
        </extensions>
      </trkpt>
      <trkpt lat="45.89579" lon="6.50019">
        <ele>2437.1</ele>
        <time>2017-11-18T10:10:22Z</time>
        <extensions>
          <gpxtpx:TrackPointExtension xmlns:gpxtpx="http://www.garmin.com/xmlschemas/TrackPointExtension/v1">
            <gpxtpx:hr>112</gpxtpx:hr>
          </gpxtpx:TrackPointExtension>
        </extensions>
      </trkpt>
      <trkpt lat="45.8958" lon="6.50019">
        <ele>2435.3</ele>
        <time>2017-11-18T10:10:27Z</time>
        <extensions>
          <gpxtpx:TrackPointExtension xmlns:gpxtpx="http://www.garmin.com/xmlschemas/TrackPointExtension/v1">
            <gpxtpx:hr>112</gpxtpx:hr>
          </gpxtpx:TrackPointExtension>
        </extensions>
      </trkpt>
      <trkpt lat="45.89584" lon="6.50025">
        <ele>2433.7</ele>
        <time>2017-11-18T10:10:32Z</time>
        <extensions>
          <gpxtpx:TrackPointExtension xmlns:gpxtpx="http://www.garmin.com/xmlschemas/TrackPointExtension/v1">
            <gpxtpx:hr>112</gpxtpx:hr>
          </gpxtpx:TrackPointExtension>
        </extensions>
      </trkpt>
      <trkpt lat="45.89588" lon="6.5003">
        <ele>2432.4</ele>
        <time>2017-11-18T10:10:37Z</time>
        <extensions>
          <gpxtpx:TrackPointExtension xmlns:gpxtpx="http://www.garmin.com/xmlschemas/TrackPointExtension/v1">
            <gpxtpx:hr>112</gpxtpx:hr>
          </gpxtpx:TrackPointExtension>
        </extensions>
      </trkpt>
      <trkpt lat="45.89596" lon="6.5004">
        <ele>2431</ele>
        <time>2017-11-18T10:10:42Z</time>
        <extensions>
          <gpxtpx:TrackPointExtension xmlns:gpxtpx="http://www.garmin.com/xmlschemas/TrackPointExtension/v1">
            <gpxtpx:hr>112</gpxtpx:hr>
          </gpxtpx:TrackPointExtension>
        </extensions>
      </trkpt>
      <trkpt lat="45.896" lon="6.50039">
        <ele>2429.8</ele>
        <time>2017-11-18T10:10:47Z</time>
        <extensions>
          <gpxtpx:TrackPointExtension xmlns:gpxtpx="http://www.garmin.com/xmlschemas/TrackPointExtension/v1">
            <gpxtpx:hr>112</gpxtpx:hr>
          </gpxtpx:TrackPointExtension>
        </extensions>
      </trkpt>
      <trkpt lat="45.89612" lon="6.50035">
        <ele>2427.1</ele>
        <time>2017-11-18T10:10:52Z</time>
        <extensions>
          <gpxtpx:TrackPointExtension xmlns:gpxtpx="http://www.garmin.com/xmlschemas/TrackPointExtension/v1">
            <gpxtpx:hr>112</gpxtpx:hr>
          </gpxtpx:TrackPointExtension>
        </extensions>
      </trkpt>
      <trkpt lat="45.89627" lon="6.50019">
        <ele>2422.1</ele>
        <time>2017-11-18T10:10:57Z</time>
        <extensions>
          <gpxtpx:TrackPointExtension xmlns:gpxtpx="http://www.garmin.com/xmlschemas/TrackPointExtension/v1">
            <gpxtpx:hr>112</gpxtpx:hr>
          </gpxtpx:TrackPointExtension>
        </extensions>
      </trkpt>
      <trkpt lat="45.89645" lon="6.49999">
        <ele>2415.7</ele>
        <time>2017-11-18T10:11:02Z</time>
        <extensions>
          <gpxtpx:TrackPointExtension xmlns:gpxtpx="http://www.garmin.com/xmlschemas/TrackPointExtension/v1">
            <gpxtpx:hr>112</gpxtpx:hr>
          </gpxtpx:TrackPointExtension>
        </extensions>
      </trkpt>
      <trkpt lat="45.89658" lon="6.4998">
        <ele>2409.3</ele>
        <time>2017-11-18T10:11:07Z</time>
        <extensions>
          <gpxtpx:TrackPointExtension xmlns:gpxtpx="http://www.garmin.com/xmlschemas/TrackPointExtension/v1">
            <gpxtpx:hr>112</gpxtpx:hr>
          </gpxtpx:TrackPointExtension>
        </extensions>
      </trkpt>
      <trkpt lat="45.89661" lon="6.49954">
        <ele>2402.7</ele>
        <time>2017-11-18T10:11:12Z</time>
        <extensions>
          <gpxtpx:TrackPointExtension xmlns:gpxtpx="http://www.garmin.com/xmlschemas/TrackPointExtension/v1">
            <gpxtpx:hr>112</gpxtpx:hr>
          </gpxtpx:TrackPointExtension>
        </extensions>
      </trkpt>
      <trkpt lat="45.89664" lon="6.49949">
        <ele>2397.9</ele>
        <time>2017-11-18T10:11:17Z</time>
        <extensions>
          <gpxtpx:TrackPointExtension xmlns:gpxtpx="http://www.garmin.com/xmlschemas/TrackPointExtension/v1">
            <gpxtpx:hr>112</gpxtpx:hr>
          </gpxtpx:TrackPointExtension>
        </extensions>
      </trkpt>
      <trkpt lat="45.89663" lon="6.49948">
        <ele>2396.2</ele>
        <time>2017-11-18T10:11:22Z</time>
        <extensions>
          <gpxtpx:TrackPointExtension xmlns:gpxtpx="http://www.garmin.com/xmlschemas/TrackPointExtension/v1">
            <gpxtpx:hr>112</gpxtpx:hr>
          </gpxtpx:TrackPointExtension>
        </extensions>
      </trkpt>
      <trkpt lat="45.89663" lon="6.49943">
        <ele>2395.4</ele>
        <time>2017-11-18T10:11:27Z</time>
        <extensions>
          <gpxtpx:TrackPointExtension xmlns:gpxtpx="http://www.garmin.com/xmlschemas/TrackPointExtension/v1">
            <gpxtpx:hr>112</gpxtpx:hr>
          </gpxtpx:TrackPointExtension>
        </extensions>
      </trkpt>
      <trkpt lat="45.89662" lon="6.49923">
        <ele>2392.4</ele>
        <time>2017-11-18T10:11:32Z</time>
        <extensions>
          <gpxtpx:TrackPointExtension xmlns:gpxtpx="http://www.garmin.com/xmlschemas/TrackPointExtension/v1">
            <gpxtpx:hr>112</gpxtpx:hr>
          </gpxtpx:TrackPointExtension>
        </extensions>
      </trkpt>
      <trkpt lat="45.89665" lon="6.49899">
        <ele>2386.8</ele>
        <time>2017-11-18T10:11:37Z</time>
        <extensions>
          <gpxtpx:TrackPointExtension xmlns:gpxtpx="http://www.garmin.com/xmlschemas/TrackPointExtension/v1">
            <gpxtpx:hr>112</gpxtpx:hr>
          </gpxtpx:TrackPointExtension>
        </extensions>
      </trkpt>
      <trkpt lat="45.89662" lon="6.49872">
        <ele>2379.9</ele>
        <time>2017-11-18T10:11:42Z</time>
        <extensions>
          <gpxtpx:TrackPointExtension xmlns:gpxtpx="http://www.garmin.com/xmlschemas/TrackPointExtension/v1">
            <gpxtpx:hr>112</gpxtpx:hr>
          </gpxtpx:TrackPointExtension>
        </extensions>
      </trkpt>
      <trkpt lat="45.8966" lon="6.4984">
        <ele>2372.7</ele>
        <time>2017-11-18T10:11:47Z</time>
        <extensions>
          <gpxtpx:TrackPointExtension xmlns:gpxtpx="http://www.garmin.com/xmlschemas/TrackPointExtension/v1">
            <gpxtpx:hr>112</gpxtpx:hr>
          </gpxtpx:TrackPointExtension>
        </extensions>
      </trkpt>
      <trkpt lat="45.89664" lon="6.49839">
        <ele>2367.4</ele>
        <time>2017-11-18T10:11:52Z</time>
        <extensions>
          <gpxtpx:TrackPointExtension xmlns:gpxtpx="http://www.garmin.com/xmlschemas/TrackPointExtension/v1">
            <gpxtpx:hr>112</gpxtpx:hr>
          </gpxtpx:TrackPointExtension>
        </extensions>
      </trkpt>
      <trkpt lat="45.89665" lon="6.49835">
        <ele>2365.3</ele>
        <time>2017-11-18T10:11:57Z</time>
        <extensions>
          <gpxtpx:TrackPointExtension xmlns:gpxtpx="http://www.garmin.com/xmlschemas/TrackPointExtension/v1">
            <gpxtpx:hr>112</gpxtpx:hr>
          </gpxtpx:TrackPointExtension>
        </extensions>
      </trkpt>
      <trkpt lat="45.89673" lon="6.49825">
        <ele>2362.8</ele>
        <time>2017-11-18T10:12:02Z</time>
        <extensions>
          <gpxtpx:TrackPointExtension xmlns:gpxtpx="http://www.garmin.com/xmlschemas/TrackPointExtension/v1">
            <gpxtpx:hr>112</gpxtpx:hr>
          </gpxtpx:TrackPointExtension>
        </extensions>
      </trkpt>
      <trkpt lat="45.89677" lon="6.49821">
        <ele>2361.3</ele>
        <time>2017-11-18T10:12:07Z</time>
        <extensions>
          <gpxtpx:TrackPointExtension xmlns:gpxtpx="http://www.garmin.com/xmlschemas/TrackPointExtension/v1">
            <gpxtpx:hr>112</gpxtpx:hr>
          </gpxtpx:TrackPointExtension>
        </extensions>
      </trkpt>
      <trkpt lat="45.89689" lon="6.4981">
        <ele>2359.3</ele>
        <time>2017-11-18T10:12:12Z</time>
        <extensions>
          <gpxtpx:TrackPointExtension xmlns:gpxtpx="http://www.garmin.com/xmlschemas/TrackPointExtension/v1">
            <gpxtpx:hr>112</gpxtpx:hr>
          </gpxtpx:TrackPointExtension>
        </extensions>
      </trkpt>
      <trkpt lat="45.89687" lon="6.49788">
        <ele>2355.8</ele>
        <time>2017-11-18T10:12:17Z</time>
        <extensions>
          <gpxtpx:TrackPointExtension xmlns:gpxtpx="http://www.garmin.com/xmlschemas/TrackPointExtension/v1">
            <gpxtpx:hr>112</gpxtpx:hr>
          </gpxtpx:TrackPointExtension>
        </extensions>
      </trkpt>
      <trkpt lat="45.89687" lon="6.49782">
        <ele>2352.4</ele>
        <time>2017-11-18T10:12:22Z</time>
        <extensions>
          <gpxtpx:TrackPointExtension xmlns:gpxtpx="http://www.garmin.com/xmlschemas/TrackPointExtension/v1">
            <gpxtpx:hr>112</gpxtpx:hr>
          </gpxtpx:TrackPointExtension>
        </extensions>
      </trkpt>
      <trkpt lat="45.89687" lon="6.49781">
        <ele>2350.7</ele>
        <time>2017-11-18T10:12:27Z</time>
        <extensions>
          <gpxtpx:TrackPointExtension xmlns:gpxtpx="http://www.garmin.com/xmlschemas/TrackPointExtension/v1">
            <gpxtpx:hr>112</gpxtpx:hr>
          </gpxtpx:TrackPointExtension>
        </extensions>
      </trkpt>
      <trkpt lat="45.89696" lon="6.49754">
        <ele>2347.5</ele>
        <time>2017-11-18T10:12:32Z</time>
        <extensions>
          <gpxtpx:TrackPointExtension xmlns:gpxtpx="http://www.garmin.com/xmlschemas/TrackPointExtension/v1">
            <gpxtpx:hr>112</gpxtpx:hr>
          </gpxtpx:TrackPointExtension>
        </extensions>
      </trkpt>
      <trkpt lat="45.89706" lon="6.49716">
        <ele>2342.5</ele>
        <time>2017-11-18T10:12:37Z</time>
        <extensions>
          <gpxtpx:TrackPointExtension xmlns:gpxtpx="http://www.garmin.com/xmlschemas/TrackPointExtension/v1">
            <gpxtpx:hr>112</gpxtpx:hr>
          </gpxtpx:TrackPointExtension>
        </extensions>
      </trkpt>
      <trkpt lat="45.89725" lon="6.49698">
        <ele>2336.7</ele>
        <time>2017-11-18T10:12:42Z</time>
        <extensions>
          <gpxtpx:TrackPointExtension xmlns:gpxtpx="http://www.garmin.com/xmlschemas/TrackPointExtension/v1">
            <gpxtpx:hr>112</gpxtpx:hr>
          </gpxtpx:TrackPointExtension>
        </extensions>
      </trkpt>
      <trkpt lat="45.89739" lon="6.49685">
        <ele>2331.1</ele>
        <time>2017-11-18T10:12:47Z</time>
        <extensions>
          <gpxtpx:TrackPointExtension xmlns:gpxtpx="http://www.garmin.com/xmlschemas/TrackPointExtension/v1">
            <gpxtpx:hr>112</gpxtpx:hr>
          </gpxtpx:TrackPointExtension>
        </extensions>
      </trkpt>
      <trkpt lat="45.89752" lon="6.49661">
        <ele>2324.3</ele>
        <time>2017-11-18T10:12:52Z</time>
        <extensions>
          <gpxtpx:TrackPointExtension xmlns:gpxtpx="http://www.garmin.com/xmlschemas/TrackPointExtension/v1">
            <gpxtpx:hr>112</gpxtpx:hr>
          </gpxtpx:TrackPointExtension>
        </extensions>
      </trkpt>
      <trkpt lat="45.89765" lon="6.49626">
        <ele>2317.5</ele>
        <time>2017-11-18T10:12:57Z</time>
        <extensions>
          <gpxtpx:TrackPointExtension xmlns:gpxtpx="http://www.garmin.com/xmlschemas/TrackPointExtension/v1">
            <gpxtpx:hr>112</gpxtpx:hr>
          </gpxtpx:TrackPointExtension>
        </extensions>
      </trkpt>
      <trkpt lat="45.89766" lon="6.49588">
        <ele>2311.7</ele>
        <time>2017-11-18T10:13:02Z</time>
        <extensions>
          <gpxtpx:TrackPointExtension xmlns:gpxtpx="http://www.garmin.com/xmlschemas/TrackPointExtension/v1">
            <gpxtpx:hr>112</gpxtpx:hr>
          </gpxtpx:TrackPointExtension>
        </extensions>
      </trkpt>
      <trkpt lat="45.8976" lon="6.49553">
        <ele>2307.2</ele>
        <time>2017-11-18T10:13:07Z</time>
        <extensions>
          <gpxtpx:TrackPointExtension xmlns:gpxtpx="http://www.garmin.com/xmlschemas/TrackPointExtension/v1">
            <gpxtpx:hr>112</gpxtpx:hr>
          </gpxtpx:TrackPointExtension>
        </extensions>
      </trkpt>
      <trkpt lat="45.89757" lon="6.49541">
        <ele>2304.8</ele>
        <time>2017-11-18T10:13:12Z</time>
        <extensions>
          <gpxtpx:TrackPointExtension xmlns:gpxtpx="http://www.garmin.com/xmlschemas/TrackPointExtension/v1">
            <gpxtpx:hr>112</gpxtpx:hr>
          </gpxtpx:TrackPointExtension>
        </extensions>
      </trkpt>
      <trkpt lat="45.89757" lon="6.49539">
        <ele>2303.5</ele>
        <time>2017-11-18T10:13:17Z</time>
        <extensions>
          <gpxtpx:TrackPointExtension xmlns:gpxtpx="http://www.garmin.com/xmlschemas/TrackPointExtension/v1">
            <gpxtpx:hr>112</gpxtpx:hr>
          </gpxtpx:TrackPointExtension>
        </extensions>
      </trkpt>
      <trkpt lat="45.89762" lon="6.49532">
        <ele>2302.7</ele>
        <time>2017-11-18T10:13:22Z</time>
        <extensions>
          <gpxtpx:TrackPointExtension xmlns:gpxtpx="http://www.garmin.com/xmlschemas/TrackPointExtension/v1">
            <gpxtpx:hr>112</gpxtpx:hr>
          </gpxtpx:TrackPointExtension>
        </extensions>
      </trkpt>
      <trkpt lat="45.89766" lon="6.49532">
        <ele>2301.9</ele>
        <time>2017-11-18T10:13:27Z</time>
        <extensions>
          <gpxtpx:TrackPointExtension xmlns:gpxtpx="http://www.garmin.com/xmlschemas/TrackPointExtension/v1">
            <gpxtpx:hr>112</gpxtpx:hr>
          </gpxtpx:TrackPointExtension>
        </extensions>
      </trkpt>
      <trkpt lat="45.89767" lon="6.49526">
        <ele>2301.4</ele>
        <time>2017-11-18T10:13:32Z</time>
        <extensions>
          <gpxtpx:TrackPointExtension xmlns:gpxtpx="http://www.garmin.com/xmlschemas/TrackPointExtension/v1">
            <gpxtpx:hr>112</gpxtpx:hr>
          </gpxtpx:TrackPointExtension>
        </extensions>
      </trkpt>
      <trkpt lat="45.89771" lon="6.49505">
        <ele>2300.2</ele>
        <time>2017-11-18T10:13:37Z</time>
        <extensions>
          <gpxtpx:TrackPointExtension xmlns:gpxtpx="http://www.garmin.com/xmlschemas/TrackPointExtension/v1">
            <gpxtpx:hr>112</gpxtpx:hr>
          </gpxtpx:TrackPointExtension>
        </extensions>
      </trkpt>
      <trkpt lat="45.89773" lon="6.49506">
        <ele>2300.1</ele>
        <time>2017-11-18T10:13:42Z</time>
        <extensions>
          <gpxtpx:TrackPointExtension xmlns:gpxtpx="http://www.garmin.com/xmlschemas/TrackPointExtension/v1">
            <gpxtpx:hr>112</gpxtpx:hr>
          </gpxtpx:TrackPointExtension>
        </extensions>
      </trkpt>
      <trkpt lat="45.89773" lon="6.49506">
        <ele>2300.4</ele>
        <time>2017-11-18T10:13:47Z</time>
        <extensions>
          <gpxtpx:TrackPointExtension xmlns:gpxtpx="http://www.garmin.com/xmlschemas/TrackPointExtension/v1">
            <gpxtpx:hr>112</gpxtpx:hr>
          </gpxtpx:TrackPointExtension>
        </extensions>
      </trkpt>
      <trkpt lat="45.89775" lon="6.49506">
        <ele>2299.7</ele>
        <time>2017-11-18T10:13:52Z</time>
        <extensions>
          <gpxtpx:TrackPointExtension xmlns:gpxtpx="http://www.garmin.com/xmlschemas/TrackPointExtension/v1">
            <gpxtpx:hr>112</gpxtpx:hr>
          </gpxtpx:TrackPointExtension>
        </extensions>
      </trkpt>
      <trkpt lat="45.89775" lon="6.49506">
        <ele>2299.4</ele>
        <time>2017-11-18T10:13:57Z</time>
        <extensions>
          <gpxtpx:TrackPointExtension xmlns:gpxtpx="http://www.garmin.com/xmlschemas/TrackPointExtension/v1">
            <gpxtpx:hr>112</gpxtpx:hr>
          </gpxtpx:TrackPointExtension>
        </extensions>
      </trkpt>
      <trkpt lat="45.89776" lon="6.49505">
        <ele>2299.2</ele>
        <time>2017-11-18T10:14:02Z</time>
        <extensions>
          <gpxtpx:TrackPointExtension xmlns:gpxtpx="http://www.garmin.com/xmlschemas/TrackPointExtension/v1">
            <gpxtpx:hr>112</gpxtpx:hr>
          </gpxtpx:TrackPointExtension>
        </extensions>
      </trkpt>
      <trkpt lat="45.89776" lon="6.49505">
        <ele>2299.4</ele>
        <time>2017-11-18T10:14:07Z</time>
        <extensions>
          <gpxtpx:TrackPointExtension xmlns:gpxtpx="http://www.garmin.com/xmlschemas/TrackPointExtension/v1">
            <gpxtpx:hr>112</gpxtpx:hr>
          </gpxtpx:TrackPointExtension>
        </extensions>
      </trkpt>
      <trkpt lat="45.89774" lon="6.49505">
        <ele>2299.6</ele>
        <time>2017-11-18T10:14:12Z</time>
        <extensions>
          <gpxtpx:TrackPointExtension xmlns:gpxtpx="http://www.garmin.com/xmlschemas/TrackPointExtension/v1">
            <gpxtpx:hr>112</gpxtpx:hr>
          </gpxtpx:TrackPointExtension>
        </extensions>
      </trkpt>
      <trkpt lat="45.89772" lon="6.49506">
        <ele>2300</ele>
        <time>2017-11-18T10:14:17Z</time>
        <extensions>
          <gpxtpx:TrackPointExtension xmlns:gpxtpx="http://www.garmin.com/xmlschemas/TrackPointExtension/v1">
            <gpxtpx:hr>112</gpxtpx:hr>
          </gpxtpx:TrackPointExtension>
        </extensions>
      </trkpt>
      <trkpt lat="45.89768" lon="6.49508">
        <ele>2299.9</ele>
        <time>2017-11-18T10:14:22Z</time>
        <extensions>
          <gpxtpx:TrackPointExtension xmlns:gpxtpx="http://www.garmin.com/xmlschemas/TrackPointExtension/v1">
            <gpxtpx:hr>112</gpxtpx:hr>
          </gpxtpx:TrackPointExtension>
        </extensions>
      </trkpt>
      <trkpt lat="45.8976" lon="6.4951">
        <ele>2298.9</ele>
        <time>2017-11-18T10:14:27Z</time>
        <extensions>
          <gpxtpx:TrackPointExtension xmlns:gpxtpx="http://www.garmin.com/xmlschemas/TrackPointExtension/v1">
            <gpxtpx:hr>112</gpxtpx:hr>
          </gpxtpx:TrackPointExtension>
        </extensions>
      </trkpt>
      <trkpt lat="45.89753" lon="6.49508">
        <ele>2298.5</ele>
        <time>2017-11-18T10:14:32Z</time>
        <extensions>
          <gpxtpx:TrackPointExtension xmlns:gpxtpx="http://www.garmin.com/xmlschemas/TrackPointExtension/v1">
            <gpxtpx:hr>112</gpxtpx:hr>
          </gpxtpx:TrackPointExtension>
        </extensions>
      </trkpt>
      <trkpt lat="45.89745" lon="6.49507">
        <ele>2298.4</ele>
        <time>2017-11-18T10:14:37Z</time>
        <extensions>
          <gpxtpx:TrackPointExtension xmlns:gpxtpx="http://www.garmin.com/xmlschemas/TrackPointExtension/v1">
            <gpxtpx:hr>112</gpxtpx:hr>
          </gpxtpx:TrackPointExtension>
        </extensions>
      </trkpt>
      <trkpt lat="45.89734" lon="6.49504">
        <ele>2298</ele>
        <time>2017-11-18T10:14:42Z</time>
        <extensions>
          <gpxtpx:TrackPointExtension xmlns:gpxtpx="http://www.garmin.com/xmlschemas/TrackPointExtension/v1">
            <gpxtpx:hr>112</gpxtpx:hr>
          </gpxtpx:TrackPointExtension>
        </extensions>
      </trkpt>
      <trkpt lat="45.89722" lon="6.49504">
        <ele>2297.1</ele>
        <time>2017-11-18T10:14:47Z</time>
        <extensions>
          <gpxtpx:TrackPointExtension xmlns:gpxtpx="http://www.garmin.com/xmlschemas/TrackPointExtension/v1">
            <gpxtpx:hr>112</gpxtpx:hr>
          </gpxtpx:TrackPointExtension>
        </extensions>
      </trkpt>
      <trkpt lat="45.89721" lon="6.49503">
        <ele>2296.1</ele>
        <time>2017-11-18T10:14:52Z</time>
        <extensions>
          <gpxtpx:TrackPointExtension xmlns:gpxtpx="http://www.garmin.com/xmlschemas/TrackPointExtension/v1">
            <gpxtpx:hr>112</gpxtpx:hr>
          </gpxtpx:TrackPointExtension>
        </extensions>
      </trkpt>
      <trkpt lat="45.8972" lon="6.49502">
        <ele>2296</ele>
        <time>2017-11-18T10:14:57Z</time>
        <extensions>
          <gpxtpx:TrackPointExtension xmlns:gpxtpx="http://www.garmin.com/xmlschemas/TrackPointExtension/v1">
            <gpxtpx:hr>112</gpxtpx:hr>
          </gpxtpx:TrackPointExtension>
        </extensions>
      </trkpt>
      <trkpt lat="45.89709" lon="6.49491">
        <ele>2294.8</ele>
        <time>2017-11-18T10:15:02Z</time>
        <extensions>
          <gpxtpx:TrackPointExtension xmlns:gpxtpx="http://www.garmin.com/xmlschemas/TrackPointExtension/v1">
            <gpxtpx:hr>112</gpxtpx:hr>
          </gpxtpx:TrackPointExtension>
        </extensions>
      </trkpt>
      <trkpt lat="45.89706" lon="6.49488">
        <ele>2293.8</ele>
        <time>2017-11-18T10:15:07Z</time>
        <extensions>
          <gpxtpx:TrackPointExtension xmlns:gpxtpx="http://www.garmin.com/xmlschemas/TrackPointExtension/v1">
            <gpxtpx:hr>112</gpxtpx:hr>
          </gpxtpx:TrackPointExtension>
        </extensions>
      </trkpt>
      <trkpt lat="45.89705" lon="6.49484">
        <ele>2293.4</ele>
        <time>2017-11-18T10:15:12Z</time>
        <extensions>
          <gpxtpx:TrackPointExtension xmlns:gpxtpx="http://www.garmin.com/xmlschemas/TrackPointExtension/v1">
            <gpxtpx:hr>112</gpxtpx:hr>
          </gpxtpx:TrackPointExtension>
        </extensions>
      </trkpt>
      <trkpt lat="45.89702" lon="6.49479">
        <ele>2292.3</ele>
        <time>2017-11-18T10:15:17Z</time>
        <extensions>
          <gpxtpx:TrackPointExtension xmlns:gpxtpx="http://www.garmin.com/xmlschemas/TrackPointExtension/v1">
            <gpxtpx:hr>112</gpxtpx:hr>
          </gpxtpx:TrackPointExtension>
        </extensions>
      </trkpt>
      <trkpt lat="45.89703" lon="6.4948">
        <ele>2291.1</ele>
        <time>2017-11-18T10:15:22Z</time>
        <extensions>
          <gpxtpx:TrackPointExtension xmlns:gpxtpx="http://www.garmin.com/xmlschemas/TrackPointExtension/v1">
            <gpxtpx:hr>112</gpxtpx:hr>
          </gpxtpx:TrackPointExtension>
        </extensions>
      </trkpt>
      <trkpt lat="45.89704" lon="6.49473">
        <ele>2290.1</ele>
        <time>2017-11-18T10:15:27Z</time>
        <extensions>
          <gpxtpx:TrackPointExtension xmlns:gpxtpx="http://www.garmin.com/xmlschemas/TrackPointExtension/v1">
            <gpxtpx:hr>112</gpxtpx:hr>
          </gpxtpx:TrackPointExtension>
        </extensions>
      </trkpt>
      <trkpt lat="45.897" lon="6.49472">
        <ele>2288.6</ele>
        <time>2017-11-18T10:15:32Z</time>
        <extensions>
          <gpxtpx:TrackPointExtension xmlns:gpxtpx="http://www.garmin.com/xmlschemas/TrackPointExtension/v1">
            <gpxtpx:hr>112</gpxtpx:hr>
          </gpxtpx:TrackPointExtension>
        </extensions>
      </trkpt>
      <trkpt lat="45.89697" lon="6.4947">
        <ele>2287.6</ele>
        <time>2017-11-18T10:15:37Z</time>
        <extensions>
          <gpxtpx:TrackPointExtension xmlns:gpxtpx="http://www.garmin.com/xmlschemas/TrackPointExtension/v1">
            <gpxtpx:hr>112</gpxtpx:hr>
          </gpxtpx:TrackPointExtension>
        </extensions>
      </trkpt>
      <trkpt lat="45.89684" lon="6.49459">
        <ele>2286.5</ele>
        <time>2017-11-18T10:15:42Z</time>
        <extensions>
          <gpxtpx:TrackPointExtension xmlns:gpxtpx="http://www.garmin.com/xmlschemas/TrackPointExtension/v1">
            <gpxtpx:hr>112</gpxtpx:hr>
          </gpxtpx:TrackPointExtension>
        </extensions>
      </trkpt>
      <trkpt lat="45.89683" lon="6.49457">
        <ele>2285.1</ele>
        <time>2017-11-18T10:15:47Z</time>
        <extensions>
          <gpxtpx:TrackPointExtension xmlns:gpxtpx="http://www.garmin.com/xmlschemas/TrackPointExtension/v1">
            <gpxtpx:hr>112</gpxtpx:hr>
          </gpxtpx:TrackPointExtension>
        </extensions>
      </trkpt>
      <trkpt lat="45.89679" lon="6.49453">
        <ele>2283.8</ele>
        <time>2017-11-18T10:15:52Z</time>
        <extensions>
          <gpxtpx:TrackPointExtension xmlns:gpxtpx="http://www.garmin.com/xmlschemas/TrackPointExtension/v1">
            <gpxtpx:hr>112</gpxtpx:hr>
          </gpxtpx:TrackPointExtension>
        </extensions>
      </trkpt>
      <trkpt lat="45.89677" lon="6.4945">
        <ele>2283.1</ele>
        <time>2017-11-18T10:15:57Z</time>
        <extensions>
          <gpxtpx:TrackPointExtension xmlns:gpxtpx="http://www.garmin.com/xmlschemas/TrackPointExtension/v1">
            <gpxtpx:hr>112</gpxtpx:hr>
          </gpxtpx:TrackPointExtension>
        </extensions>
      </trkpt>
      <trkpt lat="45.89675" lon="6.49448">
        <ele>2282.3</ele>
        <time>2017-11-18T10:16:02Z</time>
        <extensions>
          <gpxtpx:TrackPointExtension xmlns:gpxtpx="http://www.garmin.com/xmlschemas/TrackPointExtension/v1">
            <gpxtpx:hr>112</gpxtpx:hr>
          </gpxtpx:TrackPointExtension>
        </extensions>
      </trkpt>
      <trkpt lat="45.89675" lon="6.49447">
        <ele>2281.9</ele>
        <time>2017-11-18T10:16:07Z</time>
        <extensions>
          <gpxtpx:TrackPointExtension xmlns:gpxtpx="http://www.garmin.com/xmlschemas/TrackPointExtension/v1">
            <gpxtpx:hr>112</gpxtpx:hr>
          </gpxtpx:TrackPointExtension>
        </extensions>
      </trkpt>
      <trkpt lat="45.89668" lon="6.49437">
        <ele>2281</ele>
        <time>2017-11-18T10:16:12Z</time>
        <extensions>
          <gpxtpx:TrackPointExtension xmlns:gpxtpx="http://www.garmin.com/xmlschemas/TrackPointExtension/v1">
            <gpxtpx:hr>112</gpxtpx:hr>
          </gpxtpx:TrackPointExtension>
        </extensions>
      </trkpt>
      <trkpt lat="45.89662" lon="6.49428">
        <ele>2279.3</ele>
        <time>2017-11-18T10:16:17Z</time>
        <extensions>
          <gpxtpx:TrackPointExtension xmlns:gpxtpx="http://www.garmin.com/xmlschemas/TrackPointExtension/v1">
            <gpxtpx:hr>112</gpxtpx:hr>
          </gpxtpx:TrackPointExtension>
        </extensions>
      </trkpt>
      <trkpt lat="45.89657" lon="6.49415">
        <ele>2277.6</ele>
        <time>2017-11-18T10:16:22Z</time>
        <extensions>
          <gpxtpx:TrackPointExtension xmlns:gpxtpx="http://www.garmin.com/xmlschemas/TrackPointExtension/v1">
            <gpxtpx:hr>112</gpxtpx:hr>
          </gpxtpx:TrackPointExtension>
        </extensions>
      </trkpt>
      <trkpt lat="45.89654" lon="6.49403">
        <ele>2275.3</ele>
        <time>2017-11-18T10:16:27Z</time>
        <extensions>
          <gpxtpx:TrackPointExtension xmlns:gpxtpx="http://www.garmin.com/xmlschemas/TrackPointExtension/v1">
            <gpxtpx:hr>112</gpxtpx:hr>
          </gpxtpx:TrackPointExtension>
        </extensions>
      </trkpt>
      <trkpt lat="45.89659" lon="6.49392">
        <ele>2271.8</ele>
        <time>2017-11-18T10:16:32Z</time>
        <extensions>
          <gpxtpx:TrackPointExtension xmlns:gpxtpx="http://www.garmin.com/xmlschemas/TrackPointExtension/v1">
            <gpxtpx:hr>112</gpxtpx:hr>
          </gpxtpx:TrackPointExtension>
        </extensions>
      </trkpt>
      <trkpt lat="45.89669" lon="6.49387">
        <ele>2267.9</ele>
        <time>2017-11-18T10:16:37Z</time>
        <extensions>
          <gpxtpx:TrackPointExtension xmlns:gpxtpx="http://www.garmin.com/xmlschemas/TrackPointExtension/v1">
            <gpxtpx:hr>112</gpxtpx:hr>
          </gpxtpx:TrackPointExtension>
        </extensions>
      </trkpt>
      <trkpt lat="45.89677" lon="6.49387">
        <ele>2264</ele>
        <time>2017-11-18T10:16:42Z</time>
        <extensions>
          <gpxtpx:TrackPointExtension xmlns:gpxtpx="http://www.garmin.com/xmlschemas/TrackPointExtension/v1">
            <gpxtpx:hr>112</gpxtpx:hr>
          </gpxtpx:TrackPointExtension>
        </extensions>
      </trkpt>
      <trkpt lat="45.89676" lon="6.49387">
        <ele>2262.3</ele>
        <time>2017-11-18T10:16:47Z</time>
        <extensions>
          <gpxtpx:TrackPointExtension xmlns:gpxtpx="http://www.garmin.com/xmlschemas/TrackPointExtension/v1">
            <gpxtpx:hr>112</gpxtpx:hr>
          </gpxtpx:TrackPointExtension>
        </extensions>
      </trkpt>
      <trkpt lat="45.89686" lon="6.49389">
        <ele>2260.2</ele>
        <time>2017-11-18T10:16:52Z</time>
        <extensions>
          <gpxtpx:TrackPointExtension xmlns:gpxtpx="http://www.garmin.com/xmlschemas/TrackPointExtension/v1">
            <gpxtpx:hr>112</gpxtpx:hr>
          </gpxtpx:TrackPointExtension>
        </extensions>
      </trkpt>
      <trkpt lat="45.89697" lon="6.49369">
        <ele>2256.5</ele>
        <time>2017-11-18T10:16:57Z</time>
        <extensions>
          <gpxtpx:TrackPointExtension xmlns:gpxtpx="http://www.garmin.com/xmlschemas/TrackPointExtension/v1">
            <gpxtpx:hr>112</gpxtpx:hr>
          </gpxtpx:TrackPointExtension>
        </extensions>
      </trkpt>
      <trkpt lat="45.89692" lon="6.4935">
        <ele>2253.2</ele>
        <time>2017-11-18T10:17:02Z</time>
        <extensions>
          <gpxtpx:TrackPointExtension xmlns:gpxtpx="http://www.garmin.com/xmlschemas/TrackPointExtension/v1">
            <gpxtpx:hr>112</gpxtpx:hr>
          </gpxtpx:TrackPointExtension>
        </extensions>
      </trkpt>
      <trkpt lat="45.89692" lon="6.49351">
        <ele>2251.9</ele>
        <time>2017-11-18T10:17:07Z</time>
        <extensions>
          <gpxtpx:TrackPointExtension xmlns:gpxtpx="http://www.garmin.com/xmlschemas/TrackPointExtension/v1">
            <gpxtpx:hr>112</gpxtpx:hr>
          </gpxtpx:TrackPointExtension>
        </extensions>
      </trkpt>
      <trkpt lat="45.89698" lon="6.49342">
        <ele>2249.9</ele>
        <time>2017-11-18T10:17:12Z</time>
        <extensions>
          <gpxtpx:TrackPointExtension xmlns:gpxtpx="http://www.garmin.com/xmlschemas/TrackPointExtension/v1">
            <gpxtpx:hr>112</gpxtpx:hr>
          </gpxtpx:TrackPointExtension>
        </extensions>
      </trkpt>
      <trkpt lat="45.897" lon="6.49325">
        <ele>2247.2</ele>
        <time>2017-11-18T10:17:17Z</time>
        <extensions>
          <gpxtpx:TrackPointExtension xmlns:gpxtpx="http://www.garmin.com/xmlschemas/TrackPointExtension/v1">
            <gpxtpx:hr>112</gpxtpx:hr>
          </gpxtpx:TrackPointExtension>
        </extensions>
      </trkpt>
      <trkpt lat="45.897" lon="6.49326">
        <ele>2245.9</ele>
        <time>2017-11-18T10:17:22Z</time>
        <extensions>
          <gpxtpx:TrackPointExtension xmlns:gpxtpx="http://www.garmin.com/xmlschemas/TrackPointExtension/v1">
            <gpxtpx:hr>112</gpxtpx:hr>
          </gpxtpx:TrackPointExtension>
        </extensions>
      </trkpt>
      <trkpt lat="45.89697" lon="6.49314">
        <ele>2244.4</ele>
        <time>2017-11-18T10:17:27Z</time>
        <extensions>
          <gpxtpx:TrackPointExtension xmlns:gpxtpx="http://www.garmin.com/xmlschemas/TrackPointExtension/v1">
            <gpxtpx:hr>112</gpxtpx:hr>
          </gpxtpx:TrackPointExtension>
        </extensions>
      </trkpt>
      <trkpt lat="45.89701" lon="6.49312">
        <ele>2242.8</ele>
        <time>2017-11-18T10:17:32Z</time>
        <extensions>
          <gpxtpx:TrackPointExtension xmlns:gpxtpx="http://www.garmin.com/xmlschemas/TrackPointExtension/v1">
            <gpxtpx:hr>112</gpxtpx:hr>
          </gpxtpx:TrackPointExtension>
        </extensions>
      </trkpt>
      <trkpt lat="45.89708" lon="6.49298">
        <ele>2239.7</ele>
        <time>2017-11-18T10:17:37Z</time>
        <extensions>
          <gpxtpx:TrackPointExtension xmlns:gpxtpx="http://www.garmin.com/xmlschemas/TrackPointExtension/v1">
            <gpxtpx:hr>112</gpxtpx:hr>
          </gpxtpx:TrackPointExtension>
        </extensions>
      </trkpt>
      <trkpt lat="45.89707" lon="6.493">
        <ele>2237.9</ele>
        <time>2017-11-18T10:17:42Z</time>
        <extensions>
          <gpxtpx:TrackPointExtension xmlns:gpxtpx="http://www.garmin.com/xmlschemas/TrackPointExtension/v1">
            <gpxtpx:hr>112</gpxtpx:hr>
          </gpxtpx:TrackPointExtension>
        </extensions>
      </trkpt>
      <trkpt lat="45.89707" lon="6.493">
        <ele>2237.6</ele>
        <time>2017-11-18T10:17:47Z</time>
        <extensions>
          <gpxtpx:TrackPointExtension xmlns:gpxtpx="http://www.garmin.com/xmlschemas/TrackPointExtension/v1">
            <gpxtpx:hr>112</gpxtpx:hr>
          </gpxtpx:TrackPointExtension>
        </extensions>
      </trkpt>
      <trkpt lat="45.89718" lon="6.49308">
        <ele>2235.2</ele>
        <time>2017-11-18T10:17:52Z</time>
        <extensions>
          <gpxtpx:TrackPointExtension xmlns:gpxtpx="http://www.garmin.com/xmlschemas/TrackPointExtension/v1">
            <gpxtpx:hr>112</gpxtpx:hr>
          </gpxtpx:TrackPointExtension>
        </extensions>
      </trkpt>
      <trkpt lat="45.89728" lon="6.49317">
        <ele>2233.7</ele>
        <time>2017-11-18T10:17:57Z</time>
        <extensions>
          <gpxtpx:TrackPointExtension xmlns:gpxtpx="http://www.garmin.com/xmlschemas/TrackPointExtension/v1">
            <gpxtpx:hr>112</gpxtpx:hr>
          </gpxtpx:TrackPointExtension>
        </extensions>
      </trkpt>
      <trkpt lat="45.89729" lon="6.49316">
        <ele>2232.8</ele>
        <time>2017-11-18T10:18:02Z</time>
        <extensions>
          <gpxtpx:TrackPointExtension xmlns:gpxtpx="http://www.garmin.com/xmlschemas/TrackPointExtension/v1">
            <gpxtpx:hr>112</gpxtpx:hr>
          </gpxtpx:TrackPointExtension>
        </extensions>
      </trkpt>
      <trkpt lat="45.89729" lon="6.49316">
        <ele>2232.5</ele>
        <time>2017-11-18T10:18:07Z</time>
        <extensions>
          <gpxtpx:TrackPointExtension xmlns:gpxtpx="http://www.garmin.com/xmlschemas/TrackPointExtension/v1">
            <gpxtpx:hr>112</gpxtpx:hr>
          </gpxtpx:TrackPointExtension>
        </extensions>
      </trkpt>
      <trkpt lat="45.89734" lon="6.49312">
        <ele>2231.7</ele>
        <time>2017-11-18T10:18:12Z</time>
        <extensions>
          <gpxtpx:TrackPointExtension xmlns:gpxtpx="http://www.garmin.com/xmlschemas/TrackPointExtension/v1">
            <gpxtpx:hr>112</gpxtpx:hr>
          </gpxtpx:TrackPointExtension>
        </extensions>
      </trkpt>
      <trkpt lat="45.89738" lon="6.49291">
        <ele>2227.7</ele>
        <time>2017-11-18T10:18:17Z</time>
        <extensions>
          <gpxtpx:TrackPointExtension xmlns:gpxtpx="http://www.garmin.com/xmlschemas/TrackPointExtension/v1">
            <gpxtpx:hr>112</gpxtpx:hr>
          </gpxtpx:TrackPointExtension>
        </extensions>
      </trkpt>
      <trkpt lat="45.89743" lon="6.49271">
        <ele>2222.5</ele>
        <time>2017-11-18T10:18:22Z</time>
        <extensions>
          <gpxtpx:TrackPointExtension xmlns:gpxtpx="http://www.garmin.com/xmlschemas/TrackPointExtension/v1">
            <gpxtpx:hr>112</gpxtpx:hr>
          </gpxtpx:TrackPointExtension>
        </extensions>
      </trkpt>
      <trkpt lat="45.8975" lon="6.49252">
        <ele>2216.9</ele>
        <time>2017-11-18T10:18:27Z</time>
        <extensions>
          <gpxtpx:TrackPointExtension xmlns:gpxtpx="http://www.garmin.com/xmlschemas/TrackPointExtension/v1">
            <gpxtpx:hr>112</gpxtpx:hr>
          </gpxtpx:TrackPointExtension>
        </extensions>
      </trkpt>
      <trkpt lat="45.89753" lon="6.49229">
        <ele>2211.2</ele>
        <time>2017-11-18T10:18:32Z</time>
        <extensions>
          <gpxtpx:TrackPointExtension xmlns:gpxtpx="http://www.garmin.com/xmlschemas/TrackPointExtension/v1">
            <gpxtpx:hr>112</gpxtpx:hr>
          </gpxtpx:TrackPointExtension>
        </extensions>
      </trkpt>
      <trkpt lat="45.89751" lon="6.49231">
        <ele>2208.6</ele>
        <time>2017-11-18T10:18:37Z</time>
        <extensions>
          <gpxtpx:TrackPointExtension xmlns:gpxtpx="http://www.garmin.com/xmlschemas/TrackPointExtension/v1">
            <gpxtpx:hr>112</gpxtpx:hr>
          </gpxtpx:TrackPointExtension>
        </extensions>
      </trkpt>
      <trkpt lat="45.89751" lon="6.49231">
        <ele>2207.9</ele>
        <time>2017-11-18T10:18:42Z</time>
        <extensions>
          <gpxtpx:TrackPointExtension xmlns:gpxtpx="http://www.garmin.com/xmlschemas/TrackPointExtension/v1">
            <gpxtpx:hr>112</gpxtpx:hr>
          </gpxtpx:TrackPointExtension>
        </extensions>
      </trkpt>
      <trkpt lat="45.89751" lon="6.49232">
        <ele>2207.6</ele>
        <time>2017-11-18T10:18:47Z</time>
        <extensions>
          <gpxtpx:TrackPointExtension xmlns:gpxtpx="http://www.garmin.com/xmlschemas/TrackPointExtension/v1">
            <gpxtpx:hr>112</gpxtpx:hr>
          </gpxtpx:TrackPointExtension>
        </extensions>
      </trkpt>
      <trkpt lat="45.89751" lon="6.49233">
        <ele>2207.4</ele>
        <time>2017-11-18T10:18:52Z</time>
        <extensions>
          <gpxtpx:TrackPointExtension xmlns:gpxtpx="http://www.garmin.com/xmlschemas/TrackPointExtension/v1">
            <gpxtpx:hr>112</gpxtpx:hr>
          </gpxtpx:TrackPointExtension>
        </extensions>
      </trkpt>
      <trkpt lat="45.89751" lon="6.4923">
        <ele>2207.2</ele>
        <time>2017-11-18T10:18:57Z</time>
        <extensions>
          <gpxtpx:TrackPointExtension xmlns:gpxtpx="http://www.garmin.com/xmlschemas/TrackPointExtension/v1">
            <gpxtpx:hr>112</gpxtpx:hr>
          </gpxtpx:TrackPointExtension>
        </extensions>
      </trkpt>
      <trkpt lat="45.89759" lon="6.49209">
        <ele>2204.7</ele>
        <time>2017-11-18T10:19:02Z</time>
        <extensions>
          <gpxtpx:TrackPointExtension xmlns:gpxtpx="http://www.garmin.com/xmlschemas/TrackPointExtension/v1">
            <gpxtpx:hr>112</gpxtpx:hr>
          </gpxtpx:TrackPointExtension>
        </extensions>
      </trkpt>
      <trkpt lat="45.89764" lon="6.49179">
        <ele>2199.4</ele>
        <time>2017-11-18T10:19:07Z</time>
        <extensions>
          <gpxtpx:TrackPointExtension xmlns:gpxtpx="http://www.garmin.com/xmlschemas/TrackPointExtension/v1">
            <gpxtpx:hr>112</gpxtpx:hr>
          </gpxtpx:TrackPointExtension>
        </extensions>
      </trkpt>
      <trkpt lat="45.89773" lon="6.49149">
        <ele>2193.5</ele>
        <time>2017-11-18T10:19:12Z</time>
        <extensions>
          <gpxtpx:TrackPointExtension xmlns:gpxtpx="http://www.garmin.com/xmlschemas/TrackPointExtension/v1">
            <gpxtpx:hr>112</gpxtpx:hr>
          </gpxtpx:TrackPointExtension>
        </extensions>
      </trkpt>
      <trkpt lat="45.89778" lon="6.49116">
        <ele>2187.2</ele>
        <time>2017-11-18T10:19:17Z</time>
        <extensions>
          <gpxtpx:TrackPointExtension xmlns:gpxtpx="http://www.garmin.com/xmlschemas/TrackPointExtension/v1">
            <gpxtpx:hr>112</gpxtpx:hr>
          </gpxtpx:TrackPointExtension>
        </extensions>
      </trkpt>
      <trkpt lat="45.89774" lon="6.49062">
        <ele>2180.4</ele>
        <time>2017-11-18T10:19:22Z</time>
        <extensions>
          <gpxtpx:TrackPointExtension xmlns:gpxtpx="http://www.garmin.com/xmlschemas/TrackPointExtension/v1">
            <gpxtpx:hr>112</gpxtpx:hr>
          </gpxtpx:TrackPointExtension>
        </extensions>
      </trkpt>
      <trkpt lat="45.89773" lon="6.49039">
        <ele>2176.5</ele>
        <time>2017-11-18T10:19:27Z</time>
        <extensions>
          <gpxtpx:TrackPointExtension xmlns:gpxtpx="http://www.garmin.com/xmlschemas/TrackPointExtension/v1">
            <gpxtpx:hr>112</gpxtpx:hr>
          </gpxtpx:TrackPointExtension>
        </extensions>
      </trkpt>
      <trkpt lat="45.89772" lon="6.49028">
        <ele>2175.2</ele>
        <time>2017-11-18T10:19:32Z</time>
        <extensions>
          <gpxtpx:TrackPointExtension xmlns:gpxtpx="http://www.garmin.com/xmlschemas/TrackPointExtension/v1">
            <gpxtpx:hr>112</gpxtpx:hr>
          </gpxtpx:TrackPointExtension>
        </extensions>
      </trkpt>
      <trkpt lat="45.89769" lon="6.49014">
        <ele>2173.7</ele>
        <time>2017-11-18T10:19:37Z</time>
        <extensions>
          <gpxtpx:TrackPointExtension xmlns:gpxtpx="http://www.garmin.com/xmlschemas/TrackPointExtension/v1">
            <gpxtpx:hr>112</gpxtpx:hr>
          </gpxtpx:TrackPointExtension>
        </extensions>
      </trkpt>
      <trkpt lat="45.89767" lon="6.4901">
        <ele>2172.6</ele>
        <time>2017-11-18T10:19:42Z</time>
        <extensions>
          <gpxtpx:TrackPointExtension xmlns:gpxtpx="http://www.garmin.com/xmlschemas/TrackPointExtension/v1">
            <gpxtpx:hr>112</gpxtpx:hr>
          </gpxtpx:TrackPointExtension>
        </extensions>
      </trkpt>
      <trkpt lat="45.89768" lon="6.49002">
        <ele>2171.7</ele>
        <time>2017-11-18T10:19:47Z</time>
        <extensions>
          <gpxtpx:TrackPointExtension xmlns:gpxtpx="http://www.garmin.com/xmlschemas/TrackPointExtension/v1">
            <gpxtpx:hr>112</gpxtpx:hr>
          </gpxtpx:TrackPointExtension>
        </extensions>
      </trkpt>
      <trkpt lat="45.89774" lon="6.49002">
        <ele>2170.2</ele>
        <time>2017-11-18T10:19:52Z</time>
        <extensions>
          <gpxtpx:TrackPointExtension xmlns:gpxtpx="http://www.garmin.com/xmlschemas/TrackPointExtension/v1">
            <gpxtpx:hr>112</gpxtpx:hr>
          </gpxtpx:TrackPointExtension>
        </extensions>
      </trkpt>
      <trkpt lat="45.89777" lon="6.49002">
        <ele>2169.4</ele>
        <time>2017-11-18T10:19:57Z</time>
        <extensions>
          <gpxtpx:TrackPointExtension xmlns:gpxtpx="http://www.garmin.com/xmlschemas/TrackPointExtension/v1">
            <gpxtpx:hr>112</gpxtpx:hr>
          </gpxtpx:TrackPointExtension>
        </extensions>
      </trkpt>
      <trkpt lat="45.89783" lon="6.48979">
        <ele>2166.2</ele>
        <time>2017-11-18T10:20:02Z</time>
        <extensions>
          <gpxtpx:TrackPointExtension xmlns:gpxtpx="http://www.garmin.com/xmlschemas/TrackPointExtension/v1">
            <gpxtpx:hr>112</gpxtpx:hr>
          </gpxtpx:TrackPointExtension>
        </extensions>
      </trkpt>
      <trkpt lat="45.89793" lon="6.48969">
        <ele>2161.1</ele>
        <time>2017-11-18T10:20:07Z</time>
        <extensions>
          <gpxtpx:TrackPointExtension xmlns:gpxtpx="http://www.garmin.com/xmlschemas/TrackPointExtension/v1">
            <gpxtpx:hr>112</gpxtpx:hr>
          </gpxtpx:TrackPointExtension>
        </extensions>
      </trkpt>
      <trkpt lat="45.89796" lon="6.48975">
        <ele>2158.7</ele>
        <time>2017-11-18T10:20:12Z</time>
        <extensions>
          <gpxtpx:TrackPointExtension xmlns:gpxtpx="http://www.garmin.com/xmlschemas/TrackPointExtension/v1">
            <gpxtpx:hr>112</gpxtpx:hr>
          </gpxtpx:TrackPointExtension>
        </extensions>
      </trkpt>
      <trkpt lat="45.89795" lon="6.48976">
        <ele>2157.9</ele>
        <time>2017-11-18T10:20:17Z</time>
        <extensions>
          <gpxtpx:TrackPointExtension xmlns:gpxtpx="http://www.garmin.com/xmlschemas/TrackPointExtension/v1">
            <gpxtpx:hr>112</gpxtpx:hr>
          </gpxtpx:TrackPointExtension>
        </extensions>
      </trkpt>
      <trkpt lat="45.89795" lon="6.48976">
        <ele>2157.8</ele>
        <time>2017-11-18T10:20:22Z</time>
        <extensions>
          <gpxtpx:TrackPointExtension xmlns:gpxtpx="http://www.garmin.com/xmlschemas/TrackPointExtension/v1">
            <gpxtpx:hr>112</gpxtpx:hr>
          </gpxtpx:TrackPointExtension>
        </extensions>
      </trkpt>
      <trkpt lat="45.89796" lon="6.48976">
        <ele>2157.4</ele>
        <time>2017-11-18T10:20:27Z</time>
        <extensions>
          <gpxtpx:TrackPointExtension xmlns:gpxtpx="http://www.garmin.com/xmlschemas/TrackPointExtension/v1">
            <gpxtpx:hr>112</gpxtpx:hr>
          </gpxtpx:TrackPointExtension>
        </extensions>
      </trkpt>
      <trkpt lat="45.898" lon="6.48967">
        <ele>2155.9</ele>
        <time>2017-11-18T10:20:32Z</time>
        <extensions>
          <gpxtpx:TrackPointExtension xmlns:gpxtpx="http://www.garmin.com/xmlschemas/TrackPointExtension/v1">
            <gpxtpx:hr>112</gpxtpx:hr>
          </gpxtpx:TrackPointExtension>
        </extensions>
      </trkpt>
      <trkpt lat="45.89799" lon="6.48968">
        <ele>2154.8</ele>
        <time>2017-11-18T10:20:37Z</time>
        <extensions>
          <gpxtpx:TrackPointExtension xmlns:gpxtpx="http://www.garmin.com/xmlschemas/TrackPointExtension/v1">
            <gpxtpx:hr>112</gpxtpx:hr>
          </gpxtpx:TrackPointExtension>
        </extensions>
      </trkpt>
      <trkpt lat="45.89799" lon="6.48968">
        <ele>2154.2</ele>
        <time>2017-11-18T10:20:42Z</time>
        <extensions>
          <gpxtpx:TrackPointExtension xmlns:gpxtpx="http://www.garmin.com/xmlschemas/TrackPointExtension/v1">
            <gpxtpx:hr>112</gpxtpx:hr>
          </gpxtpx:TrackPointExtension>
        </extensions>
      </trkpt>
      <trkpt lat="45.898" lon="6.48969">
        <ele>2153.9</ele>
        <time>2017-11-18T10:20:47Z</time>
        <extensions>
          <gpxtpx:TrackPointExtension xmlns:gpxtpx="http://www.garmin.com/xmlschemas/TrackPointExtension/v1">
            <gpxtpx:hr>112</gpxtpx:hr>
          </gpxtpx:TrackPointExtension>
        </extensions>
      </trkpt>
      <trkpt lat="45.89799" lon="6.48968">
        <ele>2153.6</ele>
        <time>2017-11-18T10:20:52Z</time>
        <extensions>
          <gpxtpx:TrackPointExtension xmlns:gpxtpx="http://www.garmin.com/xmlschemas/TrackPointExtension/v1">
            <gpxtpx:hr>112</gpxtpx:hr>
          </gpxtpx:TrackPointExtension>
        </extensions>
      </trkpt>
      <trkpt lat="45.89791" lon="6.48954">
        <ele>2152.5</ele>
        <time>2017-11-18T10:20:57Z</time>
        <extensions>
          <gpxtpx:TrackPointExtension xmlns:gpxtpx="http://www.garmin.com/xmlschemas/TrackPointExtension/v1">
            <gpxtpx:hr>112</gpxtpx:hr>
          </gpxtpx:TrackPointExtension>
        </extensions>
      </trkpt>
      <trkpt lat="45.8979" lon="6.48933">
        <ele>2148.4</ele>
        <time>2017-11-18T10:21:02Z</time>
        <extensions>
          <gpxtpx:TrackPointExtension xmlns:gpxtpx="http://www.garmin.com/xmlschemas/TrackPointExtension/v1">
            <gpxtpx:hr>112</gpxtpx:hr>
          </gpxtpx:TrackPointExtension>
        </extensions>
      </trkpt>
      <trkpt lat="45.898" lon="6.48911">
        <ele>2141.7</ele>
        <time>2017-11-18T10:21:07Z</time>
        <extensions>
          <gpxtpx:TrackPointExtension xmlns:gpxtpx="http://www.garmin.com/xmlschemas/TrackPointExtension/v1">
            <gpxtpx:hr>112</gpxtpx:hr>
          </gpxtpx:TrackPointExtension>
        </extensions>
      </trkpt>
      <trkpt lat="45.89812" lon="6.48883">
        <ele>2133.3</ele>
        <time>2017-11-18T10:21:12Z</time>
        <extensions>
          <gpxtpx:TrackPointExtension xmlns:gpxtpx="http://www.garmin.com/xmlschemas/TrackPointExtension/v1">
            <gpxtpx:hr>112</gpxtpx:hr>
          </gpxtpx:TrackPointExtension>
        </extensions>
      </trkpt>
      <trkpt lat="45.89808" lon="6.48874">
        <ele>2128.9</ele>
        <time>2017-11-18T10:21:17Z</time>
        <extensions>
          <gpxtpx:TrackPointExtension xmlns:gpxtpx="http://www.garmin.com/xmlschemas/TrackPointExtension/v1">
            <gpxtpx:hr>112</gpxtpx:hr>
          </gpxtpx:TrackPointExtension>
        </extensions>
      </trkpt>
      <trkpt lat="45.89809" lon="6.48852">
        <ele>2124.5</ele>
        <time>2017-11-18T10:21:22Z</time>
        <extensions>
          <gpxtpx:TrackPointExtension xmlns:gpxtpx="http://www.garmin.com/xmlschemas/TrackPointExtension/v1">
            <gpxtpx:hr>112</gpxtpx:hr>
          </gpxtpx:TrackPointExtension>
        </extensions>
      </trkpt>
      <trkpt lat="45.89803" lon="6.48814">
        <ele>2118.3</ele>
        <time>2017-11-18T10:21:27Z</time>
        <extensions>
          <gpxtpx:TrackPointExtension xmlns:gpxtpx="http://www.garmin.com/xmlschemas/TrackPointExtension/v1">
            <gpxtpx:hr>112</gpxtpx:hr>
          </gpxtpx:TrackPointExtension>
        </extensions>
      </trkpt>
      <trkpt lat="45.89804" lon="6.48777">
        <ele>2111.9</ele>
        <time>2017-11-18T10:21:32Z</time>
        <extensions>
          <gpxtpx:TrackPointExtension xmlns:gpxtpx="http://www.garmin.com/xmlschemas/TrackPointExtension/v1">
            <gpxtpx:hr>112</gpxtpx:hr>
          </gpxtpx:TrackPointExtension>
        </extensions>
      </trkpt>
      <trkpt lat="45.89798" lon="6.4875">
        <ele>2107.5</ele>
        <time>2017-11-18T10:21:37Z</time>
        <extensions>
          <gpxtpx:TrackPointExtension xmlns:gpxtpx="http://www.garmin.com/xmlschemas/TrackPointExtension/v1">
            <gpxtpx:hr>112</gpxtpx:hr>
          </gpxtpx:TrackPointExtension>
        </extensions>
      </trkpt>
      <trkpt lat="45.898" lon="6.48723">
        <ele>2101.6</ele>
        <time>2017-11-18T10:21:42Z</time>
        <extensions>
          <gpxtpx:TrackPointExtension xmlns:gpxtpx="http://www.garmin.com/xmlschemas/TrackPointExtension/v1">
            <gpxtpx:hr>112</gpxtpx:hr>
          </gpxtpx:TrackPointExtension>
        </extensions>
      </trkpt>
      <trkpt lat="45.89807" lon="6.48699">
        <ele>2095.5</ele>
        <time>2017-11-18T10:21:47Z</time>
        <extensions>
          <gpxtpx:TrackPointExtension xmlns:gpxtpx="http://www.garmin.com/xmlschemas/TrackPointExtension/v1">
            <gpxtpx:hr>112</gpxtpx:hr>
          </gpxtpx:TrackPointExtension>
        </extensions>
      </trkpt>
      <trkpt lat="45.89827" lon="6.48702">
        <ele>2091.4</ele>
        <time>2017-11-18T10:21:52Z</time>
        <extensions>
          <gpxtpx:TrackPointExtension xmlns:gpxtpx="http://www.garmin.com/xmlschemas/TrackPointExtension/v1">
            <gpxtpx:hr>112</gpxtpx:hr>
          </gpxtpx:TrackPointExtension>
        </extensions>
      </trkpt>
      <trkpt lat="45.89843" lon="6.48718">
        <ele>2088.7</ele>
        <time>2017-11-18T10:21:57Z</time>
        <extensions>
          <gpxtpx:TrackPointExtension xmlns:gpxtpx="http://www.garmin.com/xmlschemas/TrackPointExtension/v1">
            <gpxtpx:hr>112</gpxtpx:hr>
          </gpxtpx:TrackPointExtension>
        </extensions>
      </trkpt>
      <trkpt lat="45.89852" lon="6.48731">
        <ele>2086.5</ele>
        <time>2017-11-18T10:22:02Z</time>
        <extensions>
          <gpxtpx:TrackPointExtension xmlns:gpxtpx="http://www.garmin.com/xmlschemas/TrackPointExtension/v1">
            <gpxtpx:hr>112</gpxtpx:hr>
          </gpxtpx:TrackPointExtension>
        </extensions>
      </trkpt>
      <trkpt lat="45.89861" lon="6.48735">
        <ele>2084.7</ele>
        <time>2017-11-18T10:22:07Z</time>
        <extensions>
          <gpxtpx:TrackPointExtension xmlns:gpxtpx="http://www.garmin.com/xmlschemas/TrackPointExtension/v1">
            <gpxtpx:hr>112</gpxtpx:hr>
          </gpxtpx:TrackPointExtension>
        </extensions>
      </trkpt>
      <trkpt lat="45.89892" lon="6.48753">
        <ele>2081</ele>
        <time>2017-11-18T10:22:12Z</time>
        <extensions>
          <gpxtpx:TrackPointExtension xmlns:gpxtpx="http://www.garmin.com/xmlschemas/TrackPointExtension/v1">
            <gpxtpx:hr>112</gpxtpx:hr>
          </gpxtpx:TrackPointExtension>
        </extensions>
      </trkpt>
      <trkpt lat="45.89925" lon="6.48762">
        <ele>2076.7</ele>
        <time>2017-11-18T10:22:17Z</time>
        <extensions>
          <gpxtpx:TrackPointExtension xmlns:gpxtpx="http://www.garmin.com/xmlschemas/TrackPointExtension/v1">
            <gpxtpx:hr>112</gpxtpx:hr>
          </gpxtpx:TrackPointExtension>
        </extensions>
      </trkpt>
      <trkpt lat="45.89955" lon="6.48779">
        <ele>2071.3</ele>
        <time>2017-11-18T10:22:22Z</time>
        <extensions>
          <gpxtpx:TrackPointExtension xmlns:gpxtpx="http://www.garmin.com/xmlschemas/TrackPointExtension/v1">
            <gpxtpx:hr>112</gpxtpx:hr>
          </gpxtpx:TrackPointExtension>
        </extensions>
      </trkpt>
      <trkpt lat="45.89983" lon="6.48798">
        <ele>2066</ele>
        <time>2017-11-18T10:22:27Z</time>
        <extensions>
          <gpxtpx:TrackPointExtension xmlns:gpxtpx="http://www.garmin.com/xmlschemas/TrackPointExtension/v1">
            <gpxtpx:hr>112</gpxtpx:hr>
          </gpxtpx:TrackPointExtension>
        </extensions>
      </trkpt>
      <trkpt lat="45.90021" lon="6.48817">
        <ele>2060.5</ele>
        <time>2017-11-18T10:22:32Z</time>
        <extensions>
          <gpxtpx:TrackPointExtension xmlns:gpxtpx="http://www.garmin.com/xmlschemas/TrackPointExtension/v1">
            <gpxtpx:hr>112</gpxtpx:hr>
          </gpxtpx:TrackPointExtension>
        </extensions>
      </trkpt>
      <trkpt lat="45.90063" lon="6.48813">
        <ele>2055.4</ele>
        <time>2017-11-18T10:22:37Z</time>
        <extensions>
          <gpxtpx:TrackPointExtension xmlns:gpxtpx="http://www.garmin.com/xmlschemas/TrackPointExtension/v1">
            <gpxtpx:hr>112</gpxtpx:hr>
          </gpxtpx:TrackPointExtension>
        </extensions>
      </trkpt>
      <trkpt lat="45.90094" lon="6.48802">
        <ele>2052</ele>
        <time>2017-11-18T10:22:42Z</time>
        <extensions>
          <gpxtpx:TrackPointExtension xmlns:gpxtpx="http://www.garmin.com/xmlschemas/TrackPointExtension/v1">
            <gpxtpx:hr>112</gpxtpx:hr>
          </gpxtpx:TrackPointExtension>
        </extensions>
      </trkpt>
      <trkpt lat="45.90125" lon="6.48807">
        <ele>2048.4</ele>
        <time>2017-11-18T10:22:47Z</time>
        <extensions>
          <gpxtpx:TrackPointExtension xmlns:gpxtpx="http://www.garmin.com/xmlschemas/TrackPointExtension/v1">
            <gpxtpx:hr>112</gpxtpx:hr>
          </gpxtpx:TrackPointExtension>
        </extensions>
      </trkpt>
      <trkpt lat="45.90149" lon="6.48829">
        <ele>2045</ele>
        <time>2017-11-18T10:22:52Z</time>
        <extensions>
          <gpxtpx:TrackPointExtension xmlns:gpxtpx="http://www.garmin.com/xmlschemas/TrackPointExtension/v1">
            <gpxtpx:hr>112</gpxtpx:hr>
          </gpxtpx:TrackPointExtension>
        </extensions>
      </trkpt>
      <trkpt lat="45.90172" lon="6.48853">
        <ele>2041.8</ele>
        <time>2017-11-18T10:22:57Z</time>
        <extensions>
          <gpxtpx:TrackPointExtension xmlns:gpxtpx="http://www.garmin.com/xmlschemas/TrackPointExtension/v1">
            <gpxtpx:hr>112</gpxtpx:hr>
          </gpxtpx:TrackPointExtension>
        </extensions>
      </trkpt>
      <trkpt lat="45.90202" lon="6.48879">
        <ele>2038.4</ele>
        <time>2017-11-18T10:23:02Z</time>
        <extensions>
          <gpxtpx:TrackPointExtension xmlns:gpxtpx="http://www.garmin.com/xmlschemas/TrackPointExtension/v1">
            <gpxtpx:hr>112</gpxtpx:hr>
          </gpxtpx:TrackPointExtension>
        </extensions>
      </trkpt>
      <trkpt lat="45.90232" lon="6.4889">
        <ele>2035.7</ele>
        <time>2017-11-18T10:23:07Z</time>
        <extensions>
          <gpxtpx:TrackPointExtension xmlns:gpxtpx="http://www.garmin.com/xmlschemas/TrackPointExtension/v1">
            <gpxtpx:hr>112</gpxtpx:hr>
          </gpxtpx:TrackPointExtension>
        </extensions>
      </trkpt>
      <trkpt lat="45.90261" lon="6.48883">
        <ele>2032.8</ele>
        <time>2017-11-18T10:23:12Z</time>
        <extensions>
          <gpxtpx:TrackPointExtension xmlns:gpxtpx="http://www.garmin.com/xmlschemas/TrackPointExtension/v1">
            <gpxtpx:hr>112</gpxtpx:hr>
          </gpxtpx:TrackPointExtension>
        </extensions>
      </trkpt>
      <trkpt lat="45.90273" lon="6.48888">
        <ele>2028.9</ele>
        <time>2017-11-18T10:23:17Z</time>
        <extensions>
          <gpxtpx:TrackPointExtension xmlns:gpxtpx="http://www.garmin.com/xmlschemas/TrackPointExtension/v1">
            <gpxtpx:hr>112</gpxtpx:hr>
          </gpxtpx:TrackPointExtension>
        </extensions>
      </trkpt>
      <trkpt lat="45.90289" lon="6.48894">
        <ele>2026.2</ele>
        <time>2017-11-18T10:23:22Z</time>
        <extensions>
          <gpxtpx:TrackPointExtension xmlns:gpxtpx="http://www.garmin.com/xmlschemas/TrackPointExtension/v1">
            <gpxtpx:hr>112</gpxtpx:hr>
          </gpxtpx:TrackPointExtension>
        </extensions>
      </trkpt>
      <trkpt lat="45.90309" lon="6.48905">
        <ele>2022.8</ele>
        <time>2017-11-18T10:23:27Z</time>
        <extensions>
          <gpxtpx:TrackPointExtension xmlns:gpxtpx="http://www.garmin.com/xmlschemas/TrackPointExtension/v1">
            <gpxtpx:hr>112</gpxtpx:hr>
          </gpxtpx:TrackPointExtension>
        </extensions>
      </trkpt>
      <trkpt lat="45.90331" lon="6.48918">
        <ele>2019.1</ele>
        <time>2017-11-18T10:23:32Z</time>
        <extensions>
          <gpxtpx:TrackPointExtension xmlns:gpxtpx="http://www.garmin.com/xmlschemas/TrackPointExtension/v1">
            <gpxtpx:hr>112</gpxtpx:hr>
          </gpxtpx:TrackPointExtension>
        </extensions>
      </trkpt>
      <trkpt lat="45.90358" lon="6.48919">
        <ele>2015</ele>
        <time>2017-11-18T10:23:37Z</time>
        <extensions>
          <gpxtpx:TrackPointExtension xmlns:gpxtpx="http://www.garmin.com/xmlschemas/TrackPointExtension/v1">
            <gpxtpx:hr>112</gpxtpx:hr>
          </gpxtpx:TrackPointExtension>
        </extensions>
      </trkpt>
      <trkpt lat="45.90373" lon="6.48895">
        <ele>2010</ele>
        <time>2017-11-18T10:23:42Z</time>
        <extensions>
          <gpxtpx:TrackPointExtension xmlns:gpxtpx="http://www.garmin.com/xmlschemas/TrackPointExtension/v1">
            <gpxtpx:hr>112</gpxtpx:hr>
          </gpxtpx:TrackPointExtension>
        </extensions>
      </trkpt>
      <trkpt lat="45.90372" lon="6.48892">
        <ele>2006.1</ele>
        <time>2017-11-18T10:23:47Z</time>
        <extensions>
          <gpxtpx:TrackPointExtension xmlns:gpxtpx="http://www.garmin.com/xmlschemas/TrackPointExtension/v1">
            <gpxtpx:hr>112</gpxtpx:hr>
          </gpxtpx:TrackPointExtension>
        </extensions>
      </trkpt>
      <trkpt lat="45.90373" lon="6.48883">
        <ele>2004</ele>
        <time>2017-11-18T10:23:52Z</time>
        <extensions>
          <gpxtpx:TrackPointExtension xmlns:gpxtpx="http://www.garmin.com/xmlschemas/TrackPointExtension/v1">
            <gpxtpx:hr>112</gpxtpx:hr>
          </gpxtpx:TrackPointExtension>
        </extensions>
      </trkpt>
      <trkpt lat="45.90361" lon="6.48861">
        <ele>2001.3</ele>
        <time>2017-11-18T10:23:57Z</time>
        <extensions>
          <gpxtpx:TrackPointExtension xmlns:gpxtpx="http://www.garmin.com/xmlschemas/TrackPointExtension/v1">
            <gpxtpx:hr>112</gpxtpx:hr>
          </gpxtpx:TrackPointExtension>
        </extensions>
      </trkpt>
      <trkpt lat="45.90339" lon="6.48839">
        <ele>1997.4</ele>
        <time>2017-11-18T10:24:02Z</time>
        <extensions>
          <gpxtpx:TrackPointExtension xmlns:gpxtpx="http://www.garmin.com/xmlschemas/TrackPointExtension/v1">
            <gpxtpx:hr>112</gpxtpx:hr>
          </gpxtpx:TrackPointExtension>
        </extensions>
      </trkpt>
      <trkpt lat="45.90319" lon="6.48811">
        <ele>1992.3</ele>
        <time>2017-11-18T10:24:07Z</time>
        <extensions>
          <gpxtpx:TrackPointExtension xmlns:gpxtpx="http://www.garmin.com/xmlschemas/TrackPointExtension/v1">
            <gpxtpx:hr>112</gpxtpx:hr>
          </gpxtpx:TrackPointExtension>
        </extensions>
      </trkpt>
      <trkpt lat="45.90298" lon="6.48786">
        <ele>1986.9</ele>
        <time>2017-11-18T10:24:12Z</time>
        <extensions>
          <gpxtpx:TrackPointExtension xmlns:gpxtpx="http://www.garmin.com/xmlschemas/TrackPointExtension/v1">
            <gpxtpx:hr>112</gpxtpx:hr>
          </gpxtpx:TrackPointExtension>
        </extensions>
      </trkpt>
      <trkpt lat="45.90279" lon="6.48755">
        <ele>1981.2</ele>
        <time>2017-11-18T10:24:17Z</time>
        <extensions>
          <gpxtpx:TrackPointExtension xmlns:gpxtpx="http://www.garmin.com/xmlschemas/TrackPointExtension/v1">
            <gpxtpx:hr>112</gpxtpx:hr>
          </gpxtpx:TrackPointExtension>
        </extensions>
      </trkpt>
      <trkpt lat="45.90264" lon="6.48727">
        <ele>1975.5</ele>
        <time>2017-11-18T10:24:22Z</time>
        <extensions>
          <gpxtpx:TrackPointExtension xmlns:gpxtpx="http://www.garmin.com/xmlschemas/TrackPointExtension/v1">
            <gpxtpx:hr>112</gpxtpx:hr>
          </gpxtpx:TrackPointExtension>
        </extensions>
      </trkpt>
      <trkpt lat="45.90246" lon="6.48689">
        <ele>1969.2</ele>
        <time>2017-11-18T10:24:27Z</time>
        <extensions>
          <gpxtpx:TrackPointExtension xmlns:gpxtpx="http://www.garmin.com/xmlschemas/TrackPointExtension/v1">
            <gpxtpx:hr>112</gpxtpx:hr>
          </gpxtpx:TrackPointExtension>
        </extensions>
      </trkpt>
      <trkpt lat="45.90233" lon="6.48652">
        <ele>1962.3</ele>
        <time>2017-11-18T10:24:32Z</time>
        <extensions>
          <gpxtpx:TrackPointExtension xmlns:gpxtpx="http://www.garmin.com/xmlschemas/TrackPointExtension/v1">
            <gpxtpx:hr>112</gpxtpx:hr>
          </gpxtpx:TrackPointExtension>
        </extensions>
      </trkpt>
      <trkpt lat="45.90208" lon="6.48618">
        <ele>1956.4</ele>
        <time>2017-11-18T10:24:37Z</time>
        <extensions>
          <gpxtpx:TrackPointExtension xmlns:gpxtpx="http://www.garmin.com/xmlschemas/TrackPointExtension/v1">
            <gpxtpx:hr>112</gpxtpx:hr>
          </gpxtpx:TrackPointExtension>
        </extensions>
      </trkpt>
      <trkpt lat="45.9019" lon="6.48589">
        <ele>1952.1</ele>
        <time>2017-11-18T10:24:42Z</time>
        <extensions>
          <gpxtpx:TrackPointExtension xmlns:gpxtpx="http://www.garmin.com/xmlschemas/TrackPointExtension/v1">
            <gpxtpx:hr>112</gpxtpx:hr>
          </gpxtpx:TrackPointExtension>
        </extensions>
      </trkpt>
      <trkpt lat="45.9017" lon="6.48562">
        <ele>1948</ele>
        <time>2017-11-18T10:24:47Z</time>
        <extensions>
          <gpxtpx:TrackPointExtension xmlns:gpxtpx="http://www.garmin.com/xmlschemas/TrackPointExtension/v1">
            <gpxtpx:hr>112</gpxtpx:hr>
          </gpxtpx:TrackPointExtension>
        </extensions>
      </trkpt>
      <trkpt lat="45.90154" lon="6.48526">
        <ele>1942.8</ele>
        <time>2017-11-18T10:24:52Z</time>
        <extensions>
          <gpxtpx:TrackPointExtension xmlns:gpxtpx="http://www.garmin.com/xmlschemas/TrackPointExtension/v1">
            <gpxtpx:hr>112</gpxtpx:hr>
          </gpxtpx:TrackPointExtension>
        </extensions>
      </trkpt>
      <trkpt lat="45.90144" lon="6.48487">
        <ele>1936.5</ele>
        <time>2017-11-18T10:24:57Z</time>
        <extensions>
          <gpxtpx:TrackPointExtension xmlns:gpxtpx="http://www.garmin.com/xmlschemas/TrackPointExtension/v1">
            <gpxtpx:hr>112</gpxtpx:hr>
          </gpxtpx:TrackPointExtension>
        </extensions>
      </trkpt>
      <trkpt lat="45.90135" lon="6.48453">
        <ele>1929.7</ele>
        <time>2017-11-18T10:25:02Z</time>
        <extensions>
          <gpxtpx:TrackPointExtension xmlns:gpxtpx="http://www.garmin.com/xmlschemas/TrackPointExtension/v1">
            <gpxtpx:hr>112</gpxtpx:hr>
          </gpxtpx:TrackPointExtension>
        </extensions>
      </trkpt>
      <trkpt lat="45.90132" lon="6.48451">
        <ele>1926</ele>
        <time>2017-11-18T10:25:07Z</time>
        <extensions>
          <gpxtpx:TrackPointExtension xmlns:gpxtpx="http://www.garmin.com/xmlschemas/TrackPointExtension/v1">
            <gpxtpx:hr>112</gpxtpx:hr>
          </gpxtpx:TrackPointExtension>
        </extensions>
      </trkpt>
      <trkpt lat="45.90132" lon="6.48452">
        <ele>1924.6</ele>
        <time>2017-11-18T10:25:12Z</time>
        <extensions>
          <gpxtpx:TrackPointExtension xmlns:gpxtpx="http://www.garmin.com/xmlschemas/TrackPointExtension/v1">
            <gpxtpx:hr>112</gpxtpx:hr>
          </gpxtpx:TrackPointExtension>
        </extensions>
      </trkpt>
      <trkpt lat="45.90126" lon="6.48444">
        <ele>1923.7</ele>
        <time>2017-11-18T10:25:17Z</time>
        <extensions>
          <gpxtpx:TrackPointExtension xmlns:gpxtpx="http://www.garmin.com/xmlschemas/TrackPointExtension/v1">
            <gpxtpx:hr>112</gpxtpx:hr>
          </gpxtpx:TrackPointExtension>
        </extensions>
      </trkpt>
      <trkpt lat="45.90116" lon="6.48426">
        <ele>1922</ele>
        <time>2017-11-18T10:25:22Z</time>
        <extensions>
          <gpxtpx:TrackPointExtension xmlns:gpxtpx="http://www.garmin.com/xmlschemas/TrackPointExtension/v1">
            <gpxtpx:hr>112</gpxtpx:hr>
          </gpxtpx:TrackPointExtension>
        </extensions>
      </trkpt>
      <trkpt lat="45.9011" lon="6.48397">
        <ele>1917.9</ele>
        <time>2017-11-18T10:25:27Z</time>
        <extensions>
          <gpxtpx:TrackPointExtension xmlns:gpxtpx="http://www.garmin.com/xmlschemas/TrackPointExtension/v1">
            <gpxtpx:hr>112</gpxtpx:hr>
          </gpxtpx:TrackPointExtension>
        </extensions>
      </trkpt>
      <trkpt lat="45.90096" lon="6.48377">
        <ele>1912.9</ele>
        <time>2017-11-18T10:25:32Z</time>
        <extensions>
          <gpxtpx:TrackPointExtension xmlns:gpxtpx="http://www.garmin.com/xmlschemas/TrackPointExtension/v1">
            <gpxtpx:hr>112</gpxtpx:hr>
          </gpxtpx:TrackPointExtension>
        </extensions>
      </trkpt>
      <trkpt lat="45.9008" lon="6.48356">
        <ele>1908.9</ele>
        <time>2017-11-18T10:25:37Z</time>
        <extensions>
          <gpxtpx:TrackPointExtension xmlns:gpxtpx="http://www.garmin.com/xmlschemas/TrackPointExtension/v1">
            <gpxtpx:hr>112</gpxtpx:hr>
          </gpxtpx:TrackPointExtension>
        </extensions>
      </trkpt>
      <trkpt lat="45.90078" lon="6.48327">
        <ele>1903.7</ele>
        <time>2017-11-18T10:25:42Z</time>
        <extensions>
          <gpxtpx:TrackPointExtension xmlns:gpxtpx="http://www.garmin.com/xmlschemas/TrackPointExtension/v1">
            <gpxtpx:hr>112</gpxtpx:hr>
          </gpxtpx:TrackPointExtension>
        </extensions>
      </trkpt>
      <trkpt lat="45.90074" lon="6.48297">
        <ele>1897.4</ele>
        <time>2017-11-18T10:25:47Z</time>
        <extensions>
          <gpxtpx:TrackPointExtension xmlns:gpxtpx="http://www.garmin.com/xmlschemas/TrackPointExtension/v1">
            <gpxtpx:hr>112</gpxtpx:hr>
          </gpxtpx:TrackPointExtension>
        </extensions>
      </trkpt>
      <trkpt lat="45.90069" lon="6.48271">
        <ele>1890.7</ele>
        <time>2017-11-18T10:25:52Z</time>
        <extensions>
          <gpxtpx:TrackPointExtension xmlns:gpxtpx="http://www.garmin.com/xmlschemas/TrackPointExtension/v1">
            <gpxtpx:hr>112</gpxtpx:hr>
          </gpxtpx:TrackPointExtension>
        </extensions>
      </trkpt>
      <trkpt lat="45.90062" lon="6.48262">
        <ele>1886.8</ele>
        <time>2017-11-18T10:25:57Z</time>
        <extensions>
          <gpxtpx:TrackPointExtension xmlns:gpxtpx="http://www.garmin.com/xmlschemas/TrackPointExtension/v1">
            <gpxtpx:hr>112</gpxtpx:hr>
          </gpxtpx:TrackPointExtension>
        </extensions>
      </trkpt>
      <trkpt lat="45.90063" lon="6.48263">
        <ele>1885.4</ele>
        <time>2017-11-18T10:26:02Z</time>
        <extensions>
          <gpxtpx:TrackPointExtension xmlns:gpxtpx="http://www.garmin.com/xmlschemas/TrackPointExtension/v1">
            <gpxtpx:hr>112</gpxtpx:hr>
          </gpxtpx:TrackPointExtension>
        </extensions>
      </trkpt>
      <trkpt lat="45.90061" lon="6.48256">
        <ele>1884.4</ele>
        <time>2017-11-18T10:26:07Z</time>
        <extensions>
          <gpxtpx:TrackPointExtension xmlns:gpxtpx="http://www.garmin.com/xmlschemas/TrackPointExtension/v1">
            <gpxtpx:hr>112</gpxtpx:hr>
          </gpxtpx:TrackPointExtension>
        </extensions>
      </trkpt>
      <trkpt lat="45.90063" lon="6.48235">
        <ele>1880.5</ele>
        <time>2017-11-18T10:26:12Z</time>
        <extensions>
          <gpxtpx:TrackPointExtension xmlns:gpxtpx="http://www.garmin.com/xmlschemas/TrackPointExtension/v1">
            <gpxtpx:hr>112</gpxtpx:hr>
          </gpxtpx:TrackPointExtension>
        </extensions>
      </trkpt>
      <trkpt lat="45.9006" lon="6.4822">
        <ele>1875.8</ele>
        <time>2017-11-18T10:26:17Z</time>
        <extensions>
          <gpxtpx:TrackPointExtension xmlns:gpxtpx="http://www.garmin.com/xmlschemas/TrackPointExtension/v1">
            <gpxtpx:hr>112</gpxtpx:hr>
          </gpxtpx:TrackPointExtension>
        </extensions>
      </trkpt>
      <trkpt lat="45.90068" lon="6.48216">
        <ele>1872.6</ele>
        <time>2017-11-18T10:26:22Z</time>
        <extensions>
          <gpxtpx:TrackPointExtension xmlns:gpxtpx="http://www.garmin.com/xmlschemas/TrackPointExtension/v1">
            <gpxtpx:hr>112</gpxtpx:hr>
          </gpxtpx:TrackPointExtension>
        </extensions>
      </trkpt>
      <trkpt lat="45.9007" lon="6.48188">
        <ele>1868.3</ele>
        <time>2017-11-18T10:26:27Z</time>
        <extensions>
          <gpxtpx:TrackPointExtension xmlns:gpxtpx="http://www.garmin.com/xmlschemas/TrackPointExtension/v1">
            <gpxtpx:hr>112</gpxtpx:hr>
          </gpxtpx:TrackPointExtension>
        </extensions>
      </trkpt>
      <trkpt lat="45.9008" lon="6.48172">
        <ele>1864.8</ele>
        <time>2017-11-18T10:26:32Z</time>
        <extensions>
          <gpxtpx:TrackPointExtension xmlns:gpxtpx="http://www.garmin.com/xmlschemas/TrackPointExtension/v1">
            <gpxtpx:hr>112</gpxtpx:hr>
          </gpxtpx:TrackPointExtension>
        </extensions>
      </trkpt>
      <trkpt lat="45.9008" lon="6.48173">
        <ele>1863.2</ele>
        <time>2017-11-18T10:26:37Z</time>
        <extensions>
          <gpxtpx:TrackPointExtension xmlns:gpxtpx="http://www.garmin.com/xmlschemas/TrackPointExtension/v1">
            <gpxtpx:hr>112</gpxtpx:hr>
          </gpxtpx:TrackPointExtension>
        </extensions>
      </trkpt>
      <trkpt lat="45.90083" lon="6.48176">
        <ele>1862.5</ele>
        <time>2017-11-18T10:26:42Z</time>
        <extensions>
          <gpxtpx:TrackPointExtension xmlns:gpxtpx="http://www.garmin.com/xmlschemas/TrackPointExtension/v1">
            <gpxtpx:hr>112</gpxtpx:hr>
          </gpxtpx:TrackPointExtension>
        </extensions>
      </trkpt>
      <trkpt lat="45.90096" lon="6.48184">
        <ele>1860.8</ele>
        <time>2017-11-18T10:26:47Z</time>
        <extensions>
          <gpxtpx:TrackPointExtension xmlns:gpxtpx="http://www.garmin.com/xmlschemas/TrackPointExtension/v1">
            <gpxtpx:hr>112</gpxtpx:hr>
          </gpxtpx:TrackPointExtension>
        </extensions>
      </trkpt>
      <trkpt lat="45.90111" lon="6.48188">
        <ele>1857.8</ele>
        <time>2017-11-18T10:26:52Z</time>
        <extensions>
          <gpxtpx:TrackPointExtension xmlns:gpxtpx="http://www.garmin.com/xmlschemas/TrackPointExtension/v1">
            <gpxtpx:hr>112</gpxtpx:hr>
          </gpxtpx:TrackPointExtension>
        </extensions>
      </trkpt>
      <trkpt lat="45.90126" lon="6.48206">
        <ele>1853.1</ele>
        <time>2017-11-18T10:26:57Z</time>
        <extensions>
          <gpxtpx:TrackPointExtension xmlns:gpxtpx="http://www.garmin.com/xmlschemas/TrackPointExtension/v1">
            <gpxtpx:hr>112</gpxtpx:hr>
          </gpxtpx:TrackPointExtension>
        </extensions>
      </trkpt>
      <trkpt lat="45.90147" lon="6.48207">
        <ele>1847.4</ele>
        <time>2017-11-18T10:27:02Z</time>
        <extensions>
          <gpxtpx:TrackPointExtension xmlns:gpxtpx="http://www.garmin.com/xmlschemas/TrackPointExtension/v1">
            <gpxtpx:hr>112</gpxtpx:hr>
          </gpxtpx:TrackPointExtension>
        </extensions>
      </trkpt>
      <trkpt lat="45.90148" lon="6.48204">
        <ele>1843.7</ele>
        <time>2017-11-18T10:27:07Z</time>
        <extensions>
          <gpxtpx:TrackPointExtension xmlns:gpxtpx="http://www.garmin.com/xmlschemas/TrackPointExtension/v1">
            <gpxtpx:hr>112</gpxtpx:hr>
          </gpxtpx:TrackPointExtension>
        </extensions>
      </trkpt>
      <trkpt lat="45.9015" lon="6.48204">
        <ele>1842.3</ele>
        <time>2017-11-18T10:27:12Z</time>
        <extensions>
          <gpxtpx:TrackPointExtension xmlns:gpxtpx="http://www.garmin.com/xmlschemas/TrackPointExtension/v1">
            <gpxtpx:hr>112</gpxtpx:hr>
          </gpxtpx:TrackPointExtension>
        </extensions>
      </trkpt>
      <trkpt lat="45.9017" lon="6.48219">
        <ele>1840.1</ele>
        <time>2017-11-18T10:27:17Z</time>
        <extensions>
          <gpxtpx:TrackPointExtension xmlns:gpxtpx="http://www.garmin.com/xmlschemas/TrackPointExtension/v1">
            <gpxtpx:hr>112</gpxtpx:hr>
          </gpxtpx:TrackPointExtension>
        </extensions>
      </trkpt>
      <trkpt lat="45.90191" lon="6.48221">
        <ele>1835.9</ele>
        <time>2017-11-18T10:27:22Z</time>
        <extensions>
          <gpxtpx:TrackPointExtension xmlns:gpxtpx="http://www.garmin.com/xmlschemas/TrackPointExtension/v1">
            <gpxtpx:hr>112</gpxtpx:hr>
          </gpxtpx:TrackPointExtension>
        </extensions>
      </trkpt>
      <trkpt lat="45.90214" lon="6.48232">
        <ele>1832.6</ele>
        <time>2017-11-18T10:27:27Z</time>
        <extensions>
          <gpxtpx:TrackPointExtension xmlns:gpxtpx="http://www.garmin.com/xmlschemas/TrackPointExtension/v1">
            <gpxtpx:hr>112</gpxtpx:hr>
          </gpxtpx:TrackPointExtension>
        </extensions>
      </trkpt>
      <trkpt lat="45.90241" lon="6.48244">
        <ele>1828.4</ele>
        <time>2017-11-18T10:27:32Z</time>
        <extensions>
          <gpxtpx:TrackPointExtension xmlns:gpxtpx="http://www.garmin.com/xmlschemas/TrackPointExtension/v1">
            <gpxtpx:hr>112</gpxtpx:hr>
          </gpxtpx:TrackPointExtension>
        </extensions>
      </trkpt>
      <trkpt lat="45.90259" lon="6.48249">
        <ele>1824</ele>
        <time>2017-11-18T10:27:37Z</time>
        <extensions>
          <gpxtpx:TrackPointExtension xmlns:gpxtpx="http://www.garmin.com/xmlschemas/TrackPointExtension/v1">
            <gpxtpx:hr>112</gpxtpx:hr>
          </gpxtpx:TrackPointExtension>
        </extensions>
      </trkpt>
      <trkpt lat="45.90271" lon="6.48266">
        <ele>1819.8</ele>
        <time>2017-11-18T10:27:42Z</time>
        <extensions>
          <gpxtpx:TrackPointExtension xmlns:gpxtpx="http://www.garmin.com/xmlschemas/TrackPointExtension/v1">
            <gpxtpx:hr>112</gpxtpx:hr>
          </gpxtpx:TrackPointExtension>
        </extensions>
      </trkpt>
      <trkpt lat="45.90273" lon="6.48269">
        <ele>1817.1</ele>
        <time>2017-11-18T10:27:47Z</time>
        <extensions>
          <gpxtpx:TrackPointExtension xmlns:gpxtpx="http://www.garmin.com/xmlschemas/TrackPointExtension/v1">
            <gpxtpx:hr>112</gpxtpx:hr>
          </gpxtpx:TrackPointExtension>
        </extensions>
      </trkpt>
      <trkpt lat="45.90299" lon="6.48278">
        <ele>1812.7</ele>
        <time>2017-11-18T10:27:52Z</time>
        <extensions>
          <gpxtpx:TrackPointExtension xmlns:gpxtpx="http://www.garmin.com/xmlschemas/TrackPointExtension/v1">
            <gpxtpx:hr>112</gpxtpx:hr>
          </gpxtpx:TrackPointExtension>
        </extensions>
      </trkpt>
      <trkpt lat="45.90309" lon="6.48266">
        <ele>1807.8</ele>
        <time>2017-11-18T10:27:57Z</time>
        <extensions>
          <gpxtpx:TrackPointExtension xmlns:gpxtpx="http://www.garmin.com/xmlschemas/TrackPointExtension/v1">
            <gpxtpx:hr>112</gpxtpx:hr>
          </gpxtpx:TrackPointExtension>
        </extensions>
      </trkpt>
      <trkpt lat="45.9031" lon="6.48266">
        <ele>1805.8</ele>
        <time>2017-11-18T10:28:02Z</time>
        <extensions>
          <gpxtpx:TrackPointExtension xmlns:gpxtpx="http://www.garmin.com/xmlschemas/TrackPointExtension/v1">
            <gpxtpx:hr>112</gpxtpx:hr>
          </gpxtpx:TrackPointExtension>
        </extensions>
      </trkpt>
      <trkpt lat="45.90316" lon="6.48265">
        <ele>1804.6</ele>
        <time>2017-11-18T10:28:07Z</time>
        <extensions>
          <gpxtpx:TrackPointExtension xmlns:gpxtpx="http://www.garmin.com/xmlschemas/TrackPointExtension/v1">
            <gpxtpx:hr>112</gpxtpx:hr>
          </gpxtpx:TrackPointExtension>
        </extensions>
      </trkpt>
      <trkpt lat="45.90329" lon="6.48269">
        <ele>1802.2</ele>
        <time>2017-11-18T10:28:12Z</time>
        <extensions>
          <gpxtpx:TrackPointExtension xmlns:gpxtpx="http://www.garmin.com/xmlschemas/TrackPointExtension/v1">
            <gpxtpx:hr>112</gpxtpx:hr>
          </gpxtpx:TrackPointExtension>
        </extensions>
      </trkpt>
      <trkpt lat="45.90329" lon="6.48261">
        <ele>1799.9</ele>
        <time>2017-11-18T10:28:17Z</time>
        <extensions>
          <gpxtpx:TrackPointExtension xmlns:gpxtpx="http://www.garmin.com/xmlschemas/TrackPointExtension/v1">
            <gpxtpx:hr>112</gpxtpx:hr>
          </gpxtpx:TrackPointExtension>
        </extensions>
      </trkpt>
      <trkpt lat="45.90345" lon="6.48262">
        <ele>1797.1</ele>
        <time>2017-11-18T10:28:22Z</time>
        <extensions>
          <gpxtpx:TrackPointExtension xmlns:gpxtpx="http://www.garmin.com/xmlschemas/TrackPointExtension/v1">
            <gpxtpx:hr>112</gpxtpx:hr>
          </gpxtpx:TrackPointExtension>
        </extensions>
      </trkpt>
      <trkpt lat="45.90345" lon="6.48257">
        <ele>1795.3</ele>
        <time>2017-11-18T10:28:27Z</time>
        <extensions>
          <gpxtpx:TrackPointExtension xmlns:gpxtpx="http://www.garmin.com/xmlschemas/TrackPointExtension/v1">
            <gpxtpx:hr>112</gpxtpx:hr>
          </gpxtpx:TrackPointExtension>
        </extensions>
      </trkpt>
      <trkpt lat="45.90344" lon="6.48258">
        <ele>1794.7</ele>
        <time>2017-11-18T10:28:32Z</time>
        <extensions>
          <gpxtpx:TrackPointExtension xmlns:gpxtpx="http://www.garmin.com/xmlschemas/TrackPointExtension/v1">
            <gpxtpx:hr>112</gpxtpx:hr>
          </gpxtpx:TrackPointExtension>
        </extensions>
      </trkpt>
      <trkpt lat="45.90344" lon="6.48256">
        <ele>1794.8</ele>
        <time>2017-11-18T10:28:37Z</time>
        <extensions>
          <gpxtpx:TrackPointExtension xmlns:gpxtpx="http://www.garmin.com/xmlschemas/TrackPointExtension/v1">
            <gpxtpx:hr>112</gpxtpx:hr>
          </gpxtpx:TrackPointExtension>
        </extensions>
      </trkpt>
      <trkpt lat="45.90334" lon="6.4824">
        <ele>1793.9</ele>
        <time>2017-11-18T10:28:42Z</time>
        <extensions>
          <gpxtpx:TrackPointExtension xmlns:gpxtpx="http://www.garmin.com/xmlschemas/TrackPointExtension/v1">
            <gpxtpx:hr>112</gpxtpx:hr>
          </gpxtpx:TrackPointExtension>
        </extensions>
      </trkpt>
      <trkpt lat="45.90324" lon="6.48225">
        <ele>1792.5</ele>
        <time>2017-11-18T10:28:47Z</time>
        <extensions>
          <gpxtpx:TrackPointExtension xmlns:gpxtpx="http://www.garmin.com/xmlschemas/TrackPointExtension/v1">
            <gpxtpx:hr>112</gpxtpx:hr>
          </gpxtpx:TrackPointExtension>
        </extensions>
      </trkpt>
      <trkpt lat="45.90311" lon="6.48206">
        <ele>1789.2</ele>
        <time>2017-11-18T10:28:52Z</time>
        <extensions>
          <gpxtpx:TrackPointExtension xmlns:gpxtpx="http://www.garmin.com/xmlschemas/TrackPointExtension/v1">
            <gpxtpx:hr>112</gpxtpx:hr>
          </gpxtpx:TrackPointExtension>
        </extensions>
      </trkpt>
      <trkpt lat="45.90304" lon="6.48182">
        <ele>1784.2</ele>
        <time>2017-11-18T10:28:57Z</time>
        <extensions>
          <gpxtpx:TrackPointExtension xmlns:gpxtpx="http://www.garmin.com/xmlschemas/TrackPointExtension/v1">
            <gpxtpx:hr>112</gpxtpx:hr>
          </gpxtpx:TrackPointExtension>
        </extensions>
      </trkpt>
      <trkpt lat="45.90298" lon="6.48167">
        <ele>1779.3</ele>
        <time>2017-11-18T10:29:02Z</time>
        <extensions>
          <gpxtpx:TrackPointExtension xmlns:gpxtpx="http://www.garmin.com/xmlschemas/TrackPointExtension/v1">
            <gpxtpx:hr>112</gpxtpx:hr>
          </gpxtpx:TrackPointExtension>
        </extensions>
      </trkpt>
      <trkpt lat="45.90297" lon="6.48161">
        <ele>1776.6</ele>
        <time>2017-11-18T10:29:07Z</time>
        <extensions>
          <gpxtpx:TrackPointExtension xmlns:gpxtpx="http://www.garmin.com/xmlschemas/TrackPointExtension/v1">
            <gpxtpx:hr>112</gpxtpx:hr>
          </gpxtpx:TrackPointExtension>
        </extensions>
      </trkpt>
      <trkpt lat="45.90288" lon="6.48138">
        <ele>1773</ele>
        <time>2017-11-18T10:29:12Z</time>
        <extensions>
          <gpxtpx:TrackPointExtension xmlns:gpxtpx="http://www.garmin.com/xmlschemas/TrackPointExtension/v1">
            <gpxtpx:hr>112</gpxtpx:hr>
          </gpxtpx:TrackPointExtension>
        </extensions>
      </trkpt>
      <trkpt lat="45.90278" lon="6.48108">
        <ele>1768</ele>
        <time>2017-11-18T10:29:17Z</time>
        <extensions>
          <gpxtpx:TrackPointExtension xmlns:gpxtpx="http://www.garmin.com/xmlschemas/TrackPointExtension/v1">
            <gpxtpx:hr>112</gpxtpx:hr>
          </gpxtpx:TrackPointExtension>
        </extensions>
      </trkpt>
      <trkpt lat="45.9027" lon="6.48079">
        <ele>1762.3</ele>
        <time>2017-11-18T10:29:22Z</time>
        <extensions>
          <gpxtpx:TrackPointExtension xmlns:gpxtpx="http://www.garmin.com/xmlschemas/TrackPointExtension/v1">
            <gpxtpx:hr>112</gpxtpx:hr>
          </gpxtpx:TrackPointExtension>
        </extensions>
      </trkpt>
      <trkpt lat="45.90275" lon="6.48054">
        <ele>1757</ele>
        <time>2017-11-18T10:29:27Z</time>
        <extensions>
          <gpxtpx:TrackPointExtension xmlns:gpxtpx="http://www.garmin.com/xmlschemas/TrackPointExtension/v1">
            <gpxtpx:hr>112</gpxtpx:hr>
          </gpxtpx:TrackPointExtension>
        </extensions>
      </trkpt>
      <trkpt lat="45.90276" lon="6.48049">
        <ele>1754.2</ele>
        <time>2017-11-18T10:29:32Z</time>
        <extensions>
          <gpxtpx:TrackPointExtension xmlns:gpxtpx="http://www.garmin.com/xmlschemas/TrackPointExtension/v1">
            <gpxtpx:hr>112</gpxtpx:hr>
          </gpxtpx:TrackPointExtension>
        </extensions>
      </trkpt>
      <trkpt lat="45.90284" lon="6.48052">
        <ele>1752.8</ele>
        <time>2017-11-18T10:29:37Z</time>
        <extensions>
          <gpxtpx:TrackPointExtension xmlns:gpxtpx="http://www.garmin.com/xmlschemas/TrackPointExtension/v1">
            <gpxtpx:hr>112</gpxtpx:hr>
          </gpxtpx:TrackPointExtension>
        </extensions>
      </trkpt>
      <trkpt lat="45.90298" lon="6.48067">
        <ele>1750.7</ele>
        <time>2017-11-18T10:29:42Z</time>
        <extensions>
          <gpxtpx:TrackPointExtension xmlns:gpxtpx="http://www.garmin.com/xmlschemas/TrackPointExtension/v1">
            <gpxtpx:hr>112</gpxtpx:hr>
          </gpxtpx:TrackPointExtension>
        </extensions>
      </trkpt>
      <trkpt lat="45.90302" lon="6.48084">
        <ele>1748.2</ele>
        <time>2017-11-18T10:29:47Z</time>
        <extensions>
          <gpxtpx:TrackPointExtension xmlns:gpxtpx="http://www.garmin.com/xmlschemas/TrackPointExtension/v1">
            <gpxtpx:hr>112</gpxtpx:hr>
          </gpxtpx:TrackPointExtension>
        </extensions>
      </trkpt>
      <trkpt lat="45.90306" lon="6.48086">
        <ele>1746.5</ele>
        <time>2017-11-18T10:29:52Z</time>
        <extensions>
          <gpxtpx:TrackPointExtension xmlns:gpxtpx="http://www.garmin.com/xmlschemas/TrackPointExtension/v1">
            <gpxtpx:hr>112</gpxtpx:hr>
          </gpxtpx:TrackPointExtension>
        </extensions>
      </trkpt>
      <trkpt lat="45.90317" lon="6.48089">
        <ele>1743.7</ele>
        <time>2017-11-18T10:29:57Z</time>
        <extensions>
          <gpxtpx:TrackPointExtension xmlns:gpxtpx="http://www.garmin.com/xmlschemas/TrackPointExtension/v1">
            <gpxtpx:hr>112</gpxtpx:hr>
          </gpxtpx:TrackPointExtension>
        </extensions>
      </trkpt>
      <trkpt lat="45.90316" lon="6.48085">
        <ele>1742.2</ele>
        <time>2017-11-18T10:30:02Z</time>
        <extensions>
          <gpxtpx:TrackPointExtension xmlns:gpxtpx="http://www.garmin.com/xmlschemas/TrackPointExtension/v1">
            <gpxtpx:hr>112</gpxtpx:hr>
          </gpxtpx:TrackPointExtension>
        </extensions>
      </trkpt>
      <trkpt lat="45.90326" lon="6.48073">
        <ele>1738.2</ele>
        <time>2017-11-18T10:30:07Z</time>
        <extensions>
          <gpxtpx:TrackPointExtension xmlns:gpxtpx="http://www.garmin.com/xmlschemas/TrackPointExtension/v1">
            <gpxtpx:hr>112</gpxtpx:hr>
          </gpxtpx:TrackPointExtension>
        </extensions>
      </trkpt>
      <trkpt lat="45.90337" lon="6.4807">
        <ele>1733.2</ele>
        <time>2017-11-18T10:30:12Z</time>
        <extensions>
          <gpxtpx:TrackPointExtension xmlns:gpxtpx="http://www.garmin.com/xmlschemas/TrackPointExtension/v1">
            <gpxtpx:hr>112</gpxtpx:hr>
          </gpxtpx:TrackPointExtension>
        </extensions>
      </trkpt>
      <trkpt lat="45.90338" lon="6.48072">
        <ele>1731</ele>
        <time>2017-11-18T10:30:17Z</time>
        <extensions>
          <gpxtpx:TrackPointExtension xmlns:gpxtpx="http://www.garmin.com/xmlschemas/TrackPointExtension/v1">
            <gpxtpx:hr>112</gpxtpx:hr>
          </gpxtpx:TrackPointExtension>
        </extensions>
      </trkpt>
      <trkpt lat="45.90338" lon="6.48072">
        <ele>1730</ele>
        <time>2017-11-18T10:30:22Z</time>
        <extensions>
          <gpxtpx:TrackPointExtension xmlns:gpxtpx="http://www.garmin.com/xmlschemas/TrackPointExtension/v1">
            <gpxtpx:hr>112</gpxtpx:hr>
          </gpxtpx:TrackPointExtension>
        </extensions>
      </trkpt>
      <trkpt lat="45.90338" lon="6.48072">
        <ele>1729.6</ele>
        <time>2017-11-18T10:30:27Z</time>
        <extensions>
          <gpxtpx:TrackPointExtension xmlns:gpxtpx="http://www.garmin.com/xmlschemas/TrackPointExtension/v1">
            <gpxtpx:hr>112</gpxtpx:hr>
          </gpxtpx:TrackPointExtension>
        </extensions>
      </trkpt>
      <trkpt lat="45.90337" lon="6.4807">
        <ele>1729.5</ele>
        <time>2017-11-18T10:30:32Z</time>
        <extensions>
          <gpxtpx:TrackPointExtension xmlns:gpxtpx="http://www.garmin.com/xmlschemas/TrackPointExtension/v1">
            <gpxtpx:hr>112</gpxtpx:hr>
          </gpxtpx:TrackPointExtension>
        </extensions>
      </trkpt>
      <trkpt lat="45.90326" lon="6.48056">
        <ele>1728.2</ele>
        <time>2017-11-18T10:30:37Z</time>
        <extensions>
          <gpxtpx:TrackPointExtension xmlns:gpxtpx="http://www.garmin.com/xmlschemas/TrackPointExtension/v1">
            <gpxtpx:hr>112</gpxtpx:hr>
          </gpxtpx:TrackPointExtension>
        </extensions>
      </trkpt>
      <trkpt lat="45.90325" lon="6.48043">
        <ele>1726</ele>
        <time>2017-11-18T10:30:42Z</time>
        <extensions>
          <gpxtpx:TrackPointExtension xmlns:gpxtpx="http://www.garmin.com/xmlschemas/TrackPointExtension/v1">
            <gpxtpx:hr>112</gpxtpx:hr>
          </gpxtpx:TrackPointExtension>
        </extensions>
      </trkpt>
      <trkpt lat="45.90333" lon="6.48046">
        <ele>1723.9</ele>
        <time>2017-11-18T10:30:47Z</time>
        <extensions>
          <gpxtpx:TrackPointExtension xmlns:gpxtpx="http://www.garmin.com/xmlschemas/TrackPointExtension/v1">
            <gpxtpx:hr>112</gpxtpx:hr>
          </gpxtpx:TrackPointExtension>
        </extensions>
      </trkpt>
      <trkpt lat="45.90333" lon="6.48046">
        <ele>1723.2</ele>
        <time>2017-11-18T10:30:52Z</time>
        <extensions>
          <gpxtpx:TrackPointExtension xmlns:gpxtpx="http://www.garmin.com/xmlschemas/TrackPointExtension/v1">
            <gpxtpx:hr>112</gpxtpx:hr>
          </gpxtpx:TrackPointExtension>
        </extensions>
      </trkpt>
      <trkpt lat="45.90336" lon="6.48035">
        <ele>1720.9</ele>
        <time>2017-11-18T10:30:57Z</time>
        <extensions>
          <gpxtpx:TrackPointExtension xmlns:gpxtpx="http://www.garmin.com/xmlschemas/TrackPointExtension/v1">
            <gpxtpx:hr>112</gpxtpx:hr>
          </gpxtpx:TrackPointExtension>
        </extensions>
      </trkpt>
      <trkpt lat="45.90342" lon="6.48025">
        <ele>1717.2</ele>
        <time>2017-11-18T10:31:02Z</time>
        <extensions>
          <gpxtpx:TrackPointExtension xmlns:gpxtpx="http://www.garmin.com/xmlschemas/TrackPointExtension/v1">
            <gpxtpx:hr>112</gpxtpx:hr>
          </gpxtpx:TrackPointExtension>
        </extensions>
      </trkpt>
      <trkpt lat="45.90344" lon="6.48016">
        <ele>1713.6</ele>
        <time>2017-11-18T10:31:07Z</time>
        <extensions>
          <gpxtpx:TrackPointExtension xmlns:gpxtpx="http://www.garmin.com/xmlschemas/TrackPointExtension/v1">
            <gpxtpx:hr>112</gpxtpx:hr>
          </gpxtpx:TrackPointExtension>
        </extensions>
      </trkpt>
      <trkpt lat="45.9034" lon="6.48013">
        <ele>1711.9</ele>
        <time>2017-11-18T10:31:12Z</time>
        <extensions>
          <gpxtpx:TrackPointExtension xmlns:gpxtpx="http://www.garmin.com/xmlschemas/TrackPointExtension/v1">
            <gpxtpx:hr>112</gpxtpx:hr>
          </gpxtpx:TrackPointExtension>
        </extensions>
      </trkpt>
      <trkpt lat="45.90354" lon="6.48007">
        <ele>1709.1</ele>
        <time>2017-11-18T10:31:17Z</time>
        <extensions>
          <gpxtpx:TrackPointExtension xmlns:gpxtpx="http://www.garmin.com/xmlschemas/TrackPointExtension/v1">
            <gpxtpx:hr>112</gpxtpx:hr>
          </gpxtpx:TrackPointExtension>
        </extensions>
      </trkpt>
      <trkpt lat="45.90368" lon="6.47998">
        <ele>1706.2</ele>
        <time>2017-11-18T10:31:22Z</time>
        <extensions>
          <gpxtpx:TrackPointExtension xmlns:gpxtpx="http://www.garmin.com/xmlschemas/TrackPointExtension/v1">
            <gpxtpx:hr>112</gpxtpx:hr>
          </gpxtpx:TrackPointExtension>
        </extensions>
      </trkpt>
      <trkpt lat="45.90359" lon="6.47985">
        <ele>1703.5</ele>
        <time>2017-11-18T10:31:27Z</time>
        <extensions>
          <gpxtpx:TrackPointExtension xmlns:gpxtpx="http://www.garmin.com/xmlschemas/TrackPointExtension/v1">
            <gpxtpx:hr>112</gpxtpx:hr>
          </gpxtpx:TrackPointExtension>
        </extensions>
      </trkpt>
      <trkpt lat="45.90358" lon="6.47982">
        <ele>1702.3</ele>
        <time>2017-11-18T10:31:32Z</time>
        <extensions>
          <gpxtpx:TrackPointExtension xmlns:gpxtpx="http://www.garmin.com/xmlschemas/TrackPointExtension/v1">
            <gpxtpx:hr>112</gpxtpx:hr>
          </gpxtpx:TrackPointExtension>
        </extensions>
      </trkpt>
      <trkpt lat="45.90361" lon="6.47966">
        <ele>1700.4</ele>
        <time>2017-11-18T10:31:37Z</time>
        <extensions>
          <gpxtpx:TrackPointExtension xmlns:gpxtpx="http://www.garmin.com/xmlschemas/TrackPointExtension/v1">
            <gpxtpx:hr>112</gpxtpx:hr>
          </gpxtpx:TrackPointExtension>
        </extensions>
      </trkpt>
      <trkpt lat="45.9036" lon="6.47961">
        <ele>1698.7</ele>
        <time>2017-11-18T10:31:42Z</time>
        <extensions>
          <gpxtpx:TrackPointExtension xmlns:gpxtpx="http://www.garmin.com/xmlschemas/TrackPointExtension/v1">
            <gpxtpx:hr>112</gpxtpx:hr>
          </gpxtpx:TrackPointExtension>
        </extensions>
      </trkpt>
      <trkpt lat="45.90358" lon="6.4796">
        <ele>1697.9</ele>
        <time>2017-11-18T10:31:47Z</time>
        <extensions>
          <gpxtpx:TrackPointExtension xmlns:gpxtpx="http://www.garmin.com/xmlschemas/TrackPointExtension/v1">
            <gpxtpx:hr>112</gpxtpx:hr>
          </gpxtpx:TrackPointExtension>
        </extensions>
      </trkpt>
      <trkpt lat="45.90358" lon="6.47962">
        <ele>1697.2</ele>
        <time>2017-11-18T10:31:52Z</time>
        <extensions>
          <gpxtpx:TrackPointExtension xmlns:gpxtpx="http://www.garmin.com/xmlschemas/TrackPointExtension/v1">
            <gpxtpx:hr>112</gpxtpx:hr>
          </gpxtpx:TrackPointExtension>
        </extensions>
      </trkpt>
      <trkpt lat="45.90357" lon="6.47959">
        <ele>1696.7</ele>
        <time>2017-11-18T10:31:57Z</time>
        <extensions>
          <gpxtpx:TrackPointExtension xmlns:gpxtpx="http://www.garmin.com/xmlschemas/TrackPointExtension/v1">
            <gpxtpx:hr>112</gpxtpx:hr>
          </gpxtpx:TrackPointExtension>
        </extensions>
      </trkpt>
      <trkpt lat="45.90342" lon="6.47943">
        <ele>1694.9</ele>
        <time>2017-11-18T10:32:02Z</time>
        <extensions>
          <gpxtpx:TrackPointExtension xmlns:gpxtpx="http://www.garmin.com/xmlschemas/TrackPointExtension/v1">
            <gpxtpx:hr>112</gpxtpx:hr>
          </gpxtpx:TrackPointExtension>
        </extensions>
      </trkpt>
      <trkpt lat="45.90336" lon="6.47934">
        <ele>1691.6</ele>
        <time>2017-11-18T10:32:07Z</time>
        <extensions>
          <gpxtpx:TrackPointExtension xmlns:gpxtpx="http://www.garmin.com/xmlschemas/TrackPointExtension/v1">
            <gpxtpx:hr>112</gpxtpx:hr>
          </gpxtpx:TrackPointExtension>
        </extensions>
      </trkpt>
      <trkpt lat="45.90332" lon="6.47928">
        <ele>1689.9</ele>
        <time>2017-11-18T10:32:12Z</time>
        <extensions>
          <gpxtpx:TrackPointExtension xmlns:gpxtpx="http://www.garmin.com/xmlschemas/TrackPointExtension/v1">
            <gpxtpx:hr>112</gpxtpx:hr>
          </gpxtpx:TrackPointExtension>
        </extensions>
      </trkpt>
      <trkpt lat="45.90323" lon="6.47927">
        <ele>1688</ele>
        <time>2017-11-18T10:32:17Z</time>
        <extensions>
          <gpxtpx:TrackPointExtension xmlns:gpxtpx="http://www.garmin.com/xmlschemas/TrackPointExtension/v1">
            <gpxtpx:hr>112</gpxtpx:hr>
          </gpxtpx:TrackPointExtension>
        </extensions>
      </trkpt>
      <trkpt lat="45.90317" lon="6.47925">
        <ele>1686.8</ele>
        <time>2017-11-18T10:32:22Z</time>
        <extensions>
          <gpxtpx:TrackPointExtension xmlns:gpxtpx="http://www.garmin.com/xmlschemas/TrackPointExtension/v1">
            <gpxtpx:hr>112</gpxtpx:hr>
          </gpxtpx:TrackPointExtension>
        </extensions>
      </trkpt>
      <trkpt lat="45.90312" lon="6.47918">
        <ele>1684.3</ele>
        <time>2017-11-18T10:32:27Z</time>
        <extensions>
          <gpxtpx:TrackPointExtension xmlns:gpxtpx="http://www.garmin.com/xmlschemas/TrackPointExtension/v1">
            <gpxtpx:hr>112</gpxtpx:hr>
          </gpxtpx:TrackPointExtension>
        </extensions>
      </trkpt>
      <trkpt lat="45.90311" lon="6.47916">
        <ele>1683.3</ele>
        <time>2017-11-18T10:32:32Z</time>
        <extensions>
          <gpxtpx:TrackPointExtension xmlns:gpxtpx="http://www.garmin.com/xmlschemas/TrackPointExtension/v1">
            <gpxtpx:hr>112</gpxtpx:hr>
          </gpxtpx:TrackPointExtension>
        </extensions>
      </trkpt>
      <trkpt lat="45.90306" lon="6.47911">
        <ele>1680.7</ele>
        <time>2017-11-18T10:32:37Z</time>
        <extensions>
          <gpxtpx:TrackPointExtension xmlns:gpxtpx="http://www.garmin.com/xmlschemas/TrackPointExtension/v1">
            <gpxtpx:hr>112</gpxtpx:hr>
          </gpxtpx:TrackPointExtension>
        </extensions>
      </trkpt>
      <trkpt lat="45.90304" lon="6.47901">
        <ele>1679</ele>
        <time>2017-11-18T10:32:42Z</time>
        <extensions>
          <gpxtpx:TrackPointExtension xmlns:gpxtpx="http://www.garmin.com/xmlschemas/TrackPointExtension/v1">
            <gpxtpx:hr>112</gpxtpx:hr>
          </gpxtpx:TrackPointExtension>
        </extensions>
      </trkpt>
      <trkpt lat="45.90303" lon="6.47893">
        <ele>1677</ele>
        <time>2017-11-18T10:32:47Z</time>
        <extensions>
          <gpxtpx:TrackPointExtension xmlns:gpxtpx="http://www.garmin.com/xmlschemas/TrackPointExtension/v1">
            <gpxtpx:hr>112</gpxtpx:hr>
          </gpxtpx:TrackPointExtension>
        </extensions>
      </trkpt>
      <trkpt lat="45.90303" lon="6.47893">
        <ele>1676.3</ele>
        <time>2017-11-18T10:32:52Z</time>
        <extensions>
          <gpxtpx:TrackPointExtension xmlns:gpxtpx="http://www.garmin.com/xmlschemas/TrackPointExtension/v1">
            <gpxtpx:hr>112</gpxtpx:hr>
          </gpxtpx:TrackPointExtension>
        </extensions>
      </trkpt>
      <trkpt lat="45.90303" lon="6.47891">
        <ele>1676.2</ele>
        <time>2017-11-18T10:32:57Z</time>
        <extensions>
          <gpxtpx:TrackPointExtension xmlns:gpxtpx="http://www.garmin.com/xmlschemas/TrackPointExtension/v1">
            <gpxtpx:hr>112</gpxtpx:hr>
          </gpxtpx:TrackPointExtension>
        </extensions>
      </trkpt>
      <trkpt lat="45.90303" lon="6.47891">
        <ele>1676.1</ele>
        <time>2017-11-18T10:33:02Z</time>
        <extensions>
          <gpxtpx:TrackPointExtension xmlns:gpxtpx="http://www.garmin.com/xmlschemas/TrackPointExtension/v1">
            <gpxtpx:hr>112</gpxtpx:hr>
          </gpxtpx:TrackPointExtension>
        </extensions>
      </trkpt>
      <trkpt lat="45.90302" lon="6.47891">
        <ele>1676.3</ele>
        <time>2017-11-18T10:33:07Z</time>
        <extensions>
          <gpxtpx:TrackPointExtension xmlns:gpxtpx="http://www.garmin.com/xmlschemas/TrackPointExtension/v1">
            <gpxtpx:hr>112</gpxtpx:hr>
          </gpxtpx:TrackPointExtension>
        </extensions>
      </trkpt>
      <trkpt lat="45.90303" lon="6.47891">
        <ele>1676.6</ele>
        <time>2017-11-18T10:33:12Z</time>
        <extensions>
          <gpxtpx:TrackPointExtension xmlns:gpxtpx="http://www.garmin.com/xmlschemas/TrackPointExtension/v1">
            <gpxtpx:hr>112</gpxtpx:hr>
          </gpxtpx:TrackPointExtension>
        </extensions>
      </trkpt>
      <trkpt lat="45.90303" lon="6.47891">
        <ele>1676.4</ele>
        <time>2017-11-18T10:33:17Z</time>
        <extensions>
          <gpxtpx:TrackPointExtension xmlns:gpxtpx="http://www.garmin.com/xmlschemas/TrackPointExtension/v1">
            <gpxtpx:hr>112</gpxtpx:hr>
          </gpxtpx:TrackPointExtension>
        </extensions>
      </trkpt>
      <trkpt lat="45.90303" lon="6.47891">
        <ele>1676.5</ele>
        <time>2017-11-18T10:33:22Z</time>
        <extensions>
          <gpxtpx:TrackPointExtension xmlns:gpxtpx="http://www.garmin.com/xmlschemas/TrackPointExtension/v1">
            <gpxtpx:hr>112</gpxtpx:hr>
          </gpxtpx:TrackPointExtension>
        </extensions>
      </trkpt>
      <trkpt lat="45.90302" lon="6.47892">
        <ele>1676.6</ele>
        <time>2017-11-18T10:33:27Z</time>
        <extensions>
          <gpxtpx:TrackPointExtension xmlns:gpxtpx="http://www.garmin.com/xmlschemas/TrackPointExtension/v1">
            <gpxtpx:hr>112</gpxtpx:hr>
          </gpxtpx:TrackPointExtension>
        </extensions>
      </trkpt>
      <trkpt lat="45.90302" lon="6.47892">
        <ele>1676.4</ele>
        <time>2017-11-18T10:33:32Z</time>
        <extensions>
          <gpxtpx:TrackPointExtension xmlns:gpxtpx="http://www.garmin.com/xmlschemas/TrackPointExtension/v1">
            <gpxtpx:hr>94</gpxtpx:hr>
          </gpxtpx:TrackPointExtension>
        </extensions>
      </trkpt>
      <trkpt lat="45.90302" lon="6.47892">
        <ele>1676.1</ele>
        <time>2017-11-18T10:33:37Z</time>
        <extensions>
          <gpxtpx:TrackPointExtension xmlns:gpxtpx="http://www.garmin.com/xmlschemas/TrackPointExtension/v1">
            <gpxtpx:hr>95</gpxtpx:hr>
          </gpxtpx:TrackPointExtension>
        </extensions>
      </trkpt>
      <trkpt lat="45.90302" lon="6.47892">
        <ele>1676.3</ele>
        <time>2017-11-18T10:33:42Z</time>
        <extensions>
          <gpxtpx:TrackPointExtension xmlns:gpxtpx="http://www.garmin.com/xmlschemas/TrackPointExtension/v1">
            <gpxtpx:hr>94</gpxtpx:hr>
          </gpxtpx:TrackPointExtension>
        </extensions>
      </trkpt>
      <trkpt lat="45.90301" lon="6.47889">
        <ele>1675.9</ele>
        <time>2017-11-18T10:33:47Z</time>
        <extensions>
          <gpxtpx:TrackPointExtension xmlns:gpxtpx="http://www.garmin.com/xmlschemas/TrackPointExtension/v1">
            <gpxtpx:hr>96</gpxtpx:hr>
          </gpxtpx:TrackPointExtension>
        </extensions>
      </trkpt>
      <trkpt lat="45.90296" lon="6.47878">
        <ele>1675</ele>
        <time>2017-11-18T10:33:52Z</time>
        <extensions>
          <gpxtpx:TrackPointExtension xmlns:gpxtpx="http://www.garmin.com/xmlschemas/TrackPointExtension/v1">
            <gpxtpx:hr>96</gpxtpx:hr>
          </gpxtpx:TrackPointExtension>
        </extensions>
      </trkpt>
      <trkpt lat="45.90307" lon="6.4785">
        <ele>1671.6</ele>
        <time>2017-11-18T10:33:57Z</time>
        <extensions>
          <gpxtpx:TrackPointExtension xmlns:gpxtpx="http://www.garmin.com/xmlschemas/TrackPointExtension/v1">
            <gpxtpx:hr>96</gpxtpx:hr>
          </gpxtpx:TrackPointExtension>
        </extensions>
      </trkpt>
      <trkpt lat="45.90286" lon="6.47821">
        <ele>1666.6</ele>
        <time>2017-11-18T10:34:02Z</time>
        <extensions>
          <gpxtpx:TrackPointExtension xmlns:gpxtpx="http://www.garmin.com/xmlschemas/TrackPointExtension/v1">
            <gpxtpx:hr>96</gpxtpx:hr>
          </gpxtpx:TrackPointExtension>
        </extensions>
      </trkpt>
      <trkpt lat="45.9028" lon="6.47817">
        <ele>1663.1</ele>
        <time>2017-11-18T10:34:07Z</time>
        <extensions>
          <gpxtpx:TrackPointExtension xmlns:gpxtpx="http://www.garmin.com/xmlschemas/TrackPointExtension/v1">
            <gpxtpx:hr>96</gpxtpx:hr>
          </gpxtpx:TrackPointExtension>
        </extensions>
      </trkpt>
      <trkpt lat="45.90279" lon="6.47807">
        <ele>1661.2</ele>
        <time>2017-11-18T10:34:12Z</time>
        <extensions>
          <gpxtpx:TrackPointExtension xmlns:gpxtpx="http://www.garmin.com/xmlschemas/TrackPointExtension/v1">
            <gpxtpx:hr>96</gpxtpx:hr>
          </gpxtpx:TrackPointExtension>
        </extensions>
      </trkpt>
      <trkpt lat="45.90277" lon="6.47784">
        <ele>1657.2</ele>
        <time>2017-11-18T10:34:17Z</time>
        <extensions>
          <gpxtpx:TrackPointExtension xmlns:gpxtpx="http://www.garmin.com/xmlschemas/TrackPointExtension/v1">
            <gpxtpx:hr>96</gpxtpx:hr>
          </gpxtpx:TrackPointExtension>
        </extensions>
      </trkpt>
      <trkpt lat="45.9029" lon="6.47751">
        <ele>1652.2</ele>
        <time>2017-11-18T10:34:22Z</time>
        <extensions>
          <gpxtpx:TrackPointExtension xmlns:gpxtpx="http://www.garmin.com/xmlschemas/TrackPointExtension/v1">
            <gpxtpx:hr>96</gpxtpx:hr>
          </gpxtpx:TrackPointExtension>
        </extensions>
      </trkpt>
      <trkpt lat="45.90288" lon="6.47736">
        <ele>1647</ele>
        <time>2017-11-18T10:34:27Z</time>
        <extensions>
          <gpxtpx:TrackPointExtension xmlns:gpxtpx="http://www.garmin.com/xmlschemas/TrackPointExtension/v1">
            <gpxtpx:hr>96</gpxtpx:hr>
          </gpxtpx:TrackPointExtension>
        </extensions>
      </trkpt>
      <trkpt lat="45.90287" lon="6.47731">
        <ele>1644.6</ele>
        <time>2017-11-18T10:34:32Z</time>
        <extensions>
          <gpxtpx:TrackPointExtension xmlns:gpxtpx="http://www.garmin.com/xmlschemas/TrackPointExtension/v1">
            <gpxtpx:hr>96</gpxtpx:hr>
          </gpxtpx:TrackPointExtension>
        </extensions>
      </trkpt>
      <trkpt lat="45.90283" lon="6.4772">
        <ele>1642.8</ele>
        <time>2017-11-18T10:34:37Z</time>
        <extensions>
          <gpxtpx:TrackPointExtension xmlns:gpxtpx="http://www.garmin.com/xmlschemas/TrackPointExtension/v1">
            <gpxtpx:hr>96</gpxtpx:hr>
          </gpxtpx:TrackPointExtension>
        </extensions>
      </trkpt>
      <trkpt lat="45.9028" lon="6.47689">
        <ele>1640.2</ele>
        <time>2017-11-18T10:34:42Z</time>
        <extensions>
          <gpxtpx:TrackPointExtension xmlns:gpxtpx="http://www.garmin.com/xmlschemas/TrackPointExtension/v1">
            <gpxtpx:hr>96</gpxtpx:hr>
          </gpxtpx:TrackPointExtension>
        </extensions>
      </trkpt>
      <trkpt lat="45.90268" lon="6.47666">
        <ele>1635.6</ele>
        <time>2017-11-18T10:34:47Z</time>
        <extensions>
          <gpxtpx:TrackPointExtension xmlns:gpxtpx="http://www.garmin.com/xmlschemas/TrackPointExtension/v1">
            <gpxtpx:hr>96</gpxtpx:hr>
          </gpxtpx:TrackPointExtension>
        </extensions>
      </trkpt>
      <trkpt lat="45.90252" lon="6.47636">
        <ele>1630.9</ele>
        <time>2017-11-18T10:34:52Z</time>
        <extensions>
          <gpxtpx:TrackPointExtension xmlns:gpxtpx="http://www.garmin.com/xmlschemas/TrackPointExtension/v1">
            <gpxtpx:hr>96</gpxtpx:hr>
          </gpxtpx:TrackPointExtension>
        </extensions>
      </trkpt>
      <trkpt lat="45.90241" lon="6.47616">
        <ele>1625.8</ele>
        <time>2017-11-18T10:34:57Z</time>
        <extensions>
          <gpxtpx:TrackPointExtension xmlns:gpxtpx="http://www.garmin.com/xmlschemas/TrackPointExtension/v1">
            <gpxtpx:hr>96</gpxtpx:hr>
          </gpxtpx:TrackPointExtension>
        </extensions>
      </trkpt>
      <trkpt lat="45.90242" lon="6.47614">
        <ele>1623.4</ele>
        <time>2017-11-18T10:35:02Z</time>
        <extensions>
          <gpxtpx:TrackPointExtension xmlns:gpxtpx="http://www.garmin.com/xmlschemas/TrackPointExtension/v1">
            <gpxtpx:hr>96</gpxtpx:hr>
          </gpxtpx:TrackPointExtension>
        </extensions>
      </trkpt>
      <trkpt lat="45.90242" lon="6.47612">
        <ele>1622.2</ele>
        <time>2017-11-18T10:35:07Z</time>
        <extensions>
          <gpxtpx:TrackPointExtension xmlns:gpxtpx="http://www.garmin.com/xmlschemas/TrackPointExtension/v1">
            <gpxtpx:hr>96</gpxtpx:hr>
          </gpxtpx:TrackPointExtension>
        </extensions>
      </trkpt>
      <trkpt lat="45.90227" lon="6.47597">
        <ele>1620.8</ele>
        <time>2017-11-18T10:35:12Z</time>
        <extensions>
          <gpxtpx:TrackPointExtension xmlns:gpxtpx="http://www.garmin.com/xmlschemas/TrackPointExtension/v1">
            <gpxtpx:hr>96</gpxtpx:hr>
          </gpxtpx:TrackPointExtension>
        </extensions>
      </trkpt>
      <trkpt lat="45.90211" lon="6.47568">
        <ele>1618.4</ele>
        <time>2017-11-18T10:35:17Z</time>
        <extensions>
          <gpxtpx:TrackPointExtension xmlns:gpxtpx="http://www.garmin.com/xmlschemas/TrackPointExtension/v1">
            <gpxtpx:hr>96</gpxtpx:hr>
          </gpxtpx:TrackPointExtension>
        </extensions>
      </trkpt>
      <trkpt lat="45.90194" lon="6.47525">
        <ele>1614.4</ele>
        <time>2017-11-18T10:35:22Z</time>
        <extensions>
          <gpxtpx:TrackPointExtension xmlns:gpxtpx="http://www.garmin.com/xmlschemas/TrackPointExtension/v1">
            <gpxtpx:hr>96</gpxtpx:hr>
          </gpxtpx:TrackPointExtension>
        </extensions>
      </trkpt>
      <trkpt lat="45.90181" lon="6.47494">
        <ele>1610.7</ele>
        <time>2017-11-18T10:35:27Z</time>
        <extensions>
          <gpxtpx:TrackPointExtension xmlns:gpxtpx="http://www.garmin.com/xmlschemas/TrackPointExtension/v1">
            <gpxtpx:hr>96</gpxtpx:hr>
          </gpxtpx:TrackPointExtension>
        </extensions>
      </trkpt>
      <trkpt lat="45.90175" lon="6.47478">
        <ele>1607.4</ele>
        <time>2017-11-18T10:35:32Z</time>
        <extensions>
          <gpxtpx:TrackPointExtension xmlns:gpxtpx="http://www.garmin.com/xmlschemas/TrackPointExtension/v1">
            <gpxtpx:hr>96</gpxtpx:hr>
          </gpxtpx:TrackPointExtension>
        </extensions>
      </trkpt>
      <trkpt lat="45.90171" lon="6.4747">
        <ele>1605.7</ele>
        <time>2017-11-18T10:35:37Z</time>
        <extensions>
          <gpxtpx:TrackPointExtension xmlns:gpxtpx="http://www.garmin.com/xmlschemas/TrackPointExtension/v1">
            <gpxtpx:hr>96</gpxtpx:hr>
          </gpxtpx:TrackPointExtension>
        </extensions>
      </trkpt>
      <trkpt lat="45.90159" lon="6.47453">
        <ele>1603.4</ele>
        <time>2017-11-18T10:35:42Z</time>
        <extensions>
          <gpxtpx:TrackPointExtension xmlns:gpxtpx="http://www.garmin.com/xmlschemas/TrackPointExtension/v1">
            <gpxtpx:hr>96</gpxtpx:hr>
          </gpxtpx:TrackPointExtension>
        </extensions>
      </trkpt>
      <trkpt lat="45.90151" lon="6.47429">
        <ele>1599.7</ele>
        <time>2017-11-18T10:35:47Z</time>
        <extensions>
          <gpxtpx:TrackPointExtension xmlns:gpxtpx="http://www.garmin.com/xmlschemas/TrackPointExtension/v1">
            <gpxtpx:hr>96</gpxtpx:hr>
          </gpxtpx:TrackPointExtension>
        </extensions>
      </trkpt>
      <trkpt lat="45.90146" lon="6.47392">
        <ele>1596.2</ele>
        <time>2017-11-18T10:35:52Z</time>
        <extensions>
          <gpxtpx:TrackPointExtension xmlns:gpxtpx="http://www.garmin.com/xmlschemas/TrackPointExtension/v1">
            <gpxtpx:hr>96</gpxtpx:hr>
          </gpxtpx:TrackPointExtension>
        </extensions>
      </trkpt>
      <trkpt lat="45.90143" lon="6.47354">
        <ele>1592.6</ele>
        <time>2017-11-18T10:35:57Z</time>
        <extensions>
          <gpxtpx:TrackPointExtension xmlns:gpxtpx="http://www.garmin.com/xmlschemas/TrackPointExtension/v1">
            <gpxtpx:hr>96</gpxtpx:hr>
          </gpxtpx:TrackPointExtension>
        </extensions>
      </trkpt>
      <trkpt lat="45.90136" lon="6.47309">
        <ele>1588.1</ele>
        <time>2017-11-18T10:36:02Z</time>
        <extensions>
          <gpxtpx:TrackPointExtension xmlns:gpxtpx="http://www.garmin.com/xmlschemas/TrackPointExtension/v1">
            <gpxtpx:hr>96</gpxtpx:hr>
          </gpxtpx:TrackPointExtension>
        </extensions>
      </trkpt>
      <trkpt lat="45.90137" lon="6.47285">
        <ele>1583.3</ele>
        <time>2017-11-18T10:36:07Z</time>
        <extensions>
          <gpxtpx:TrackPointExtension xmlns:gpxtpx="http://www.garmin.com/xmlschemas/TrackPointExtension/v1">
            <gpxtpx:hr>96</gpxtpx:hr>
          </gpxtpx:TrackPointExtension>
        </extensions>
      </trkpt>
      <trkpt lat="45.90135" lon="6.47282">
        <ele>1580.6</ele>
        <time>2017-11-18T10:36:12Z</time>
        <extensions>
          <gpxtpx:TrackPointExtension xmlns:gpxtpx="http://www.garmin.com/xmlschemas/TrackPointExtension/v1">
            <gpxtpx:hr>96</gpxtpx:hr>
          </gpxtpx:TrackPointExtension>
        </extensions>
      </trkpt>
      <trkpt lat="45.90137" lon="6.47282">
        <ele>1579.4</ele>
        <time>2017-11-18T10:36:17Z</time>
        <extensions>
          <gpxtpx:TrackPointExtension xmlns:gpxtpx="http://www.garmin.com/xmlschemas/TrackPointExtension/v1">
            <gpxtpx:hr>96</gpxtpx:hr>
          </gpxtpx:TrackPointExtension>
        </extensions>
      </trkpt>
      <trkpt lat="45.90138" lon="6.47283">
        <ele>1579.1</ele>
        <time>2017-11-18T10:36:22Z</time>
        <extensions>
          <gpxtpx:TrackPointExtension xmlns:gpxtpx="http://www.garmin.com/xmlschemas/TrackPointExtension/v1">
            <gpxtpx:hr>96</gpxtpx:hr>
          </gpxtpx:TrackPointExtension>
        </extensions>
      </trkpt>
      <trkpt lat="45.90142" lon="6.47277">
        <ele>1577.8</ele>
        <time>2017-11-18T10:36:27Z</time>
        <extensions>
          <gpxtpx:TrackPointExtension xmlns:gpxtpx="http://www.garmin.com/xmlschemas/TrackPointExtension/v1">
            <gpxtpx:hr>96</gpxtpx:hr>
          </gpxtpx:TrackPointExtension>
        </extensions>
      </trkpt>
      <trkpt lat="45.90142" lon="6.47278">
        <ele>1576.1</ele>
        <time>2017-11-18T10:36:32Z</time>
        <extensions>
          <gpxtpx:TrackPointExtension xmlns:gpxtpx="http://www.garmin.com/xmlschemas/TrackPointExtension/v1">
            <gpxtpx:hr>96</gpxtpx:hr>
          </gpxtpx:TrackPointExtension>
        </extensions>
      </trkpt>
      <trkpt lat="45.90147" lon="6.47279">
        <ele>1574.4</ele>
        <time>2017-11-18T10:36:37Z</time>
        <extensions>
          <gpxtpx:TrackPointExtension xmlns:gpxtpx="http://www.garmin.com/xmlschemas/TrackPointExtension/v1">
            <gpxtpx:hr>96</gpxtpx:hr>
          </gpxtpx:TrackPointExtension>
        </extensions>
      </trkpt>
      <trkpt lat="45.90151" lon="6.4726">
        <ele>1571.3</ele>
        <time>2017-11-18T10:36:42Z</time>
        <extensions>
          <gpxtpx:TrackPointExtension xmlns:gpxtpx="http://www.garmin.com/xmlschemas/TrackPointExtension/v1">
            <gpxtpx:hr>96</gpxtpx:hr>
          </gpxtpx:TrackPointExtension>
        </extensions>
      </trkpt>
      <trkpt lat="45.90151" lon="6.47261">
        <ele>1570</ele>
        <time>2017-11-18T10:36:47Z</time>
        <extensions>
          <gpxtpx:TrackPointExtension xmlns:gpxtpx="http://www.garmin.com/xmlschemas/TrackPointExtension/v1">
            <gpxtpx:hr>96</gpxtpx:hr>
          </gpxtpx:TrackPointExtension>
        </extensions>
      </trkpt>
      <trkpt lat="45.90155" lon="6.47263">
        <ele>1568.7</ele>
        <time>2017-11-18T10:36:52Z</time>
        <extensions>
          <gpxtpx:TrackPointExtension xmlns:gpxtpx="http://www.garmin.com/xmlschemas/TrackPointExtension/v1">
            <gpxtpx:hr>96</gpxtpx:hr>
          </gpxtpx:TrackPointExtension>
        </extensions>
      </trkpt>
      <trkpt lat="45.90161" lon="6.47256">
        <ele>1566.3</ele>
        <time>2017-11-18T10:36:57Z</time>
        <extensions>
          <gpxtpx:TrackPointExtension xmlns:gpxtpx="http://www.garmin.com/xmlschemas/TrackPointExtension/v1">
            <gpxtpx:hr>96</gpxtpx:hr>
          </gpxtpx:TrackPointExtension>
        </extensions>
      </trkpt>
      <trkpt lat="45.90165" lon="6.47247">
        <ele>1563.2</ele>
        <time>2017-11-18T10:37:02Z</time>
        <extensions>
          <gpxtpx:TrackPointExtension xmlns:gpxtpx="http://www.garmin.com/xmlschemas/TrackPointExtension/v1">
            <gpxtpx:hr>96</gpxtpx:hr>
          </gpxtpx:TrackPointExtension>
        </extensions>
      </trkpt>
      <trkpt lat="45.90166" lon="6.47228">
        <ele>1559.6</ele>
        <time>2017-11-18T10:37:07Z</time>
        <extensions>
          <gpxtpx:TrackPointExtension xmlns:gpxtpx="http://www.garmin.com/xmlschemas/TrackPointExtension/v1">
            <gpxtpx:hr>96</gpxtpx:hr>
          </gpxtpx:TrackPointExtension>
        </extensions>
      </trkpt>
      <trkpt lat="45.90172" lon="6.47217">
        <ele>1555.2</ele>
        <time>2017-11-18T10:37:12Z</time>
        <extensions>
          <gpxtpx:TrackPointExtension xmlns:gpxtpx="http://www.garmin.com/xmlschemas/TrackPointExtension/v1">
            <gpxtpx:hr>96</gpxtpx:hr>
          </gpxtpx:TrackPointExtension>
        </extensions>
      </trkpt>
      <trkpt lat="45.9018" lon="6.47201">
        <ele>1550.2</ele>
        <time>2017-11-18T10:37:17Z</time>
        <extensions>
          <gpxtpx:TrackPointExtension xmlns:gpxtpx="http://www.garmin.com/xmlschemas/TrackPointExtension/v1">
            <gpxtpx:hr>96</gpxtpx:hr>
          </gpxtpx:TrackPointExtension>
        </extensions>
      </trkpt>
      <trkpt lat="45.90181" lon="6.4721">
        <ele>1547</ele>
        <time>2017-11-18T10:37:22Z</time>
        <extensions>
          <gpxtpx:TrackPointExtension xmlns:gpxtpx="http://www.garmin.com/xmlschemas/TrackPointExtension/v1">
            <gpxtpx:hr>96</gpxtpx:hr>
          </gpxtpx:TrackPointExtension>
        </extensions>
      </trkpt>
      <trkpt lat="45.90182" lon="6.47211">
        <ele>1545.7</ele>
        <time>2017-11-18T10:37:27Z</time>
        <extensions>
          <gpxtpx:TrackPointExtension xmlns:gpxtpx="http://www.garmin.com/xmlschemas/TrackPointExtension/v1">
            <gpxtpx:hr>96</gpxtpx:hr>
          </gpxtpx:TrackPointExtension>
        </extensions>
      </trkpt>
      <trkpt lat="45.9019" lon="6.47225">
        <ele>1543.9</ele>
        <time>2017-11-18T10:37:32Z</time>
        <extensions>
          <gpxtpx:TrackPointExtension xmlns:gpxtpx="http://www.garmin.com/xmlschemas/TrackPointExtension/v1">
            <gpxtpx:hr>96</gpxtpx:hr>
          </gpxtpx:TrackPointExtension>
        </extensions>
      </trkpt>
      <trkpt lat="45.90194" lon="6.47235">
        <ele>1542.2</ele>
        <time>2017-11-18T10:37:37Z</time>
        <extensions>
          <gpxtpx:TrackPointExtension xmlns:gpxtpx="http://www.garmin.com/xmlschemas/TrackPointExtension/v1">
            <gpxtpx:hr>96</gpxtpx:hr>
          </gpxtpx:TrackPointExtension>
        </extensions>
      </trkpt>
      <trkpt lat="45.90193" lon="6.47232">
        <ele>1541.5</ele>
        <time>2017-11-18T10:37:42Z</time>
        <extensions>
          <gpxtpx:TrackPointExtension xmlns:gpxtpx="http://www.garmin.com/xmlschemas/TrackPointExtension/v1">
            <gpxtpx:hr>96</gpxtpx:hr>
          </gpxtpx:TrackPointExtension>
        </extensions>
      </trkpt>
      <trkpt lat="45.90193" lon="6.47233">
        <ele>1541.4</ele>
        <time>2017-11-18T10:37:47Z</time>
        <extensions>
          <gpxtpx:TrackPointExtension xmlns:gpxtpx="http://www.garmin.com/xmlschemas/TrackPointExtension/v1">
            <gpxtpx:hr>96</gpxtpx:hr>
          </gpxtpx:TrackPointExtension>
        </extensions>
      </trkpt>
      <trkpt lat="45.90201" lon="6.47241">
        <ele>1540.1</ele>
        <time>2017-11-18T10:37:52Z</time>
        <extensions>
          <gpxtpx:TrackPointExtension xmlns:gpxtpx="http://www.garmin.com/xmlschemas/TrackPointExtension/v1">
            <gpxtpx:hr>96</gpxtpx:hr>
          </gpxtpx:TrackPointExtension>
        </extensions>
      </trkpt>
      <trkpt lat="45.90212" lon="6.4723">
        <ele>1536.5</ele>
        <time>2017-11-18T10:37:57Z</time>
        <extensions>
          <gpxtpx:TrackPointExtension xmlns:gpxtpx="http://www.garmin.com/xmlschemas/TrackPointExtension/v1">
            <gpxtpx:hr>96</gpxtpx:hr>
          </gpxtpx:TrackPointExtension>
        </extensions>
      </trkpt>
      <trkpt lat="45.90224" lon="6.47234">
        <ele>1531.8</ele>
        <time>2017-11-18T10:38:02Z</time>
        <extensions>
          <gpxtpx:TrackPointExtension xmlns:gpxtpx="http://www.garmin.com/xmlschemas/TrackPointExtension/v1">
            <gpxtpx:hr>96</gpxtpx:hr>
          </gpxtpx:TrackPointExtension>
        </extensions>
      </trkpt>
      <trkpt lat="45.90239" lon="6.47224">
        <ele>1525.4</ele>
        <time>2017-11-18T10:38:07Z</time>
        <extensions>
          <gpxtpx:TrackPointExtension xmlns:gpxtpx="http://www.garmin.com/xmlschemas/TrackPointExtension/v1">
            <gpxtpx:hr>96</gpxtpx:hr>
          </gpxtpx:TrackPointExtension>
        </extensions>
      </trkpt>
      <trkpt lat="45.90255" lon="6.47223">
        <ele>1519</ele>
        <time>2017-11-18T10:38:12Z</time>
        <extensions>
          <gpxtpx:TrackPointExtension xmlns:gpxtpx="http://www.garmin.com/xmlschemas/TrackPointExtension/v1">
            <gpxtpx:hr>96</gpxtpx:hr>
          </gpxtpx:TrackPointExtension>
        </extensions>
      </trkpt>
      <trkpt lat="45.90269" lon="6.4722">
        <ele>1512.1</ele>
        <time>2017-11-18T10:38:17Z</time>
        <extensions>
          <gpxtpx:TrackPointExtension xmlns:gpxtpx="http://www.garmin.com/xmlschemas/TrackPointExtension/v1">
            <gpxtpx:hr>96</gpxtpx:hr>
          </gpxtpx:TrackPointExtension>
        </extensions>
      </trkpt>
      <trkpt lat="45.90279" lon="6.47204">
        <ele>1506.1</ele>
        <time>2017-11-18T10:38:22Z</time>
        <extensions>
          <gpxtpx:TrackPointExtension xmlns:gpxtpx="http://www.garmin.com/xmlschemas/TrackPointExtension/v1">
            <gpxtpx:hr>96</gpxtpx:hr>
          </gpxtpx:TrackPointExtension>
        </extensions>
      </trkpt>
      <trkpt lat="45.90295" lon="6.47206">
        <ele>1500.3</ele>
        <time>2017-11-18T10:38:27Z</time>
        <extensions>
          <gpxtpx:TrackPointExtension xmlns:gpxtpx="http://www.garmin.com/xmlschemas/TrackPointExtension/v1">
            <gpxtpx:hr>96</gpxtpx:hr>
          </gpxtpx:TrackPointExtension>
        </extensions>
      </trkpt>
      <trkpt lat="45.9031" lon="6.47196">
        <ele>1494</ele>
        <time>2017-11-18T10:38:32Z</time>
        <extensions>
          <gpxtpx:TrackPointExtension xmlns:gpxtpx="http://www.garmin.com/xmlschemas/TrackPointExtension/v1">
            <gpxtpx:hr>96</gpxtpx:hr>
          </gpxtpx:TrackPointExtension>
        </extensions>
      </trkpt>
      <trkpt lat="45.90325" lon="6.47186">
        <ele>1487.3</ele>
        <time>2017-11-18T10:38:37Z</time>
        <extensions>
          <gpxtpx:TrackPointExtension xmlns:gpxtpx="http://www.garmin.com/xmlschemas/TrackPointExtension/v1">
            <gpxtpx:hr>96</gpxtpx:hr>
          </gpxtpx:TrackPointExtension>
        </extensions>
      </trkpt>
      <trkpt lat="45.90344" lon="6.47191">
        <ele>1480.6</ele>
        <time>2017-11-18T10:38:42Z</time>
        <extensions>
          <gpxtpx:TrackPointExtension xmlns:gpxtpx="http://www.garmin.com/xmlschemas/TrackPointExtension/v1">
            <gpxtpx:hr>96</gpxtpx:hr>
          </gpxtpx:TrackPointExtension>
        </extensions>
      </trkpt>
      <trkpt lat="45.90361" lon="6.47183">
        <ele>1473.8</ele>
        <time>2017-11-18T10:38:47Z</time>
        <extensions>
          <gpxtpx:TrackPointExtension xmlns:gpxtpx="http://www.garmin.com/xmlschemas/TrackPointExtension/v1">
            <gpxtpx:hr>96</gpxtpx:hr>
          </gpxtpx:TrackPointExtension>
        </extensions>
      </trkpt>
      <trkpt lat="45.90376" lon="6.47174">
        <ele>1467.6</ele>
        <time>2017-11-18T10:38:52Z</time>
        <extensions>
          <gpxtpx:TrackPointExtension xmlns:gpxtpx="http://www.garmin.com/xmlschemas/TrackPointExtension/v1">
            <gpxtpx:hr>96</gpxtpx:hr>
          </gpxtpx:TrackPointExtension>
        </extensions>
      </trkpt>
      <trkpt lat="45.90375" lon="6.47172">
        <ele>1464.1</ele>
        <time>2017-11-18T10:38:57Z</time>
        <extensions>
          <gpxtpx:TrackPointExtension xmlns:gpxtpx="http://www.garmin.com/xmlschemas/TrackPointExtension/v1">
            <gpxtpx:hr>96</gpxtpx:hr>
          </gpxtpx:TrackPointExtension>
        </extensions>
      </trkpt>
      <trkpt lat="45.90384" lon="6.47171">
        <ele>1461.3</ele>
        <time>2017-11-18T10:39:02Z</time>
        <extensions>
          <gpxtpx:TrackPointExtension xmlns:gpxtpx="http://www.garmin.com/xmlschemas/TrackPointExtension/v1">
            <gpxtpx:hr>96</gpxtpx:hr>
          </gpxtpx:TrackPointExtension>
        </extensions>
      </trkpt>
      <trkpt lat="45.90388" lon="6.47178">
        <ele>1459.7</ele>
        <time>2017-11-18T10:39:07Z</time>
        <extensions>
          <gpxtpx:TrackPointExtension xmlns:gpxtpx="http://www.garmin.com/xmlschemas/TrackPointExtension/v1">
            <gpxtpx:hr>96</gpxtpx:hr>
          </gpxtpx:TrackPointExtension>
        </extensions>
      </trkpt>
      <trkpt lat="45.90394" lon="6.47188">
        <ele>1458.4</ele>
        <time>2017-11-18T10:39:12Z</time>
        <extensions>
          <gpxtpx:TrackPointExtension xmlns:gpxtpx="http://www.garmin.com/xmlschemas/TrackPointExtension/v1">
            <gpxtpx:hr>96</gpxtpx:hr>
          </gpxtpx:TrackPointExtension>
        </extensions>
      </trkpt>
      <trkpt lat="45.90401" lon="6.47193">
        <ele>1457.2</ele>
        <time>2017-11-18T10:39:17Z</time>
        <extensions>
          <gpxtpx:TrackPointExtension xmlns:gpxtpx="http://www.garmin.com/xmlschemas/TrackPointExtension/v1">
            <gpxtpx:hr>96</gpxtpx:hr>
          </gpxtpx:TrackPointExtension>
        </extensions>
      </trkpt>
      <trkpt lat="45.90422" lon="6.4717">
        <ele>1452.3</ele>
        <time>2017-11-18T10:39:22Z</time>
        <extensions>
          <gpxtpx:TrackPointExtension xmlns:gpxtpx="http://www.garmin.com/xmlschemas/TrackPointExtension/v1">
            <gpxtpx:hr>96</gpxtpx:hr>
          </gpxtpx:TrackPointExtension>
        </extensions>
      </trkpt>
      <trkpt lat="45.90442" lon="6.47152">
        <ele>1445.8</ele>
        <time>2017-11-18T10:39:27Z</time>
        <extensions>
          <gpxtpx:TrackPointExtension xmlns:gpxtpx="http://www.garmin.com/xmlschemas/TrackPointExtension/v1">
            <gpxtpx:hr>96</gpxtpx:hr>
          </gpxtpx:TrackPointExtension>
        </extensions>
      </trkpt>
      <trkpt lat="45.90462" lon="6.47138">
        <ele>1439.4</ele>
        <time>2017-11-18T10:39:32Z</time>
        <extensions>
          <gpxtpx:TrackPointExtension xmlns:gpxtpx="http://www.garmin.com/xmlschemas/TrackPointExtension/v1">
            <gpxtpx:hr>96</gpxtpx:hr>
          </gpxtpx:TrackPointExtension>
        </extensions>
      </trkpt>
      <trkpt lat="45.90475" lon="6.47137">
        <ele>1433.8</ele>
        <time>2017-11-18T10:39:37Z</time>
        <extensions>
          <gpxtpx:TrackPointExtension xmlns:gpxtpx="http://www.garmin.com/xmlschemas/TrackPointExtension/v1">
            <gpxtpx:hr>96</gpxtpx:hr>
          </gpxtpx:TrackPointExtension>
        </extensions>
      </trkpt>
      <trkpt lat="45.90486" lon="6.47142">
        <ele>1430.4</ele>
        <time>2017-11-18T10:39:42Z</time>
        <extensions>
          <gpxtpx:TrackPointExtension xmlns:gpxtpx="http://www.garmin.com/xmlschemas/TrackPointExtension/v1">
            <gpxtpx:hr>96</gpxtpx:hr>
          </gpxtpx:TrackPointExtension>
        </extensions>
      </trkpt>
      <trkpt lat="45.90498" lon="6.47114">
        <ele>1426.6</ele>
        <time>2017-11-18T10:39:47Z</time>
        <extensions>
          <gpxtpx:TrackPointExtension xmlns:gpxtpx="http://www.garmin.com/xmlschemas/TrackPointExtension/v1">
            <gpxtpx:hr>96</gpxtpx:hr>
          </gpxtpx:TrackPointExtension>
        </extensions>
      </trkpt>
      <trkpt lat="45.90518" lon="6.47108">
        <ele>1422.4</ele>
        <time>2017-11-18T10:39:52Z</time>
        <extensions>
          <gpxtpx:TrackPointExtension xmlns:gpxtpx="http://www.garmin.com/xmlschemas/TrackPointExtension/v1">
            <gpxtpx:hr>96</gpxtpx:hr>
          </gpxtpx:TrackPointExtension>
        </extensions>
      </trkpt>
      <trkpt lat="45.9054" lon="6.471">
        <ele>1417.5</ele>
        <time>2017-11-18T10:39:57Z</time>
        <extensions>
          <gpxtpx:TrackPointExtension xmlns:gpxtpx="http://www.garmin.com/xmlschemas/TrackPointExtension/v1">
            <gpxtpx:hr>96</gpxtpx:hr>
          </gpxtpx:TrackPointExtension>
        </extensions>
      </trkpt>
      <trkpt lat="45.90564" lon="6.47092">
        <ele>1412.5</ele>
        <time>2017-11-18T10:40:02Z</time>
        <extensions>
          <gpxtpx:TrackPointExtension xmlns:gpxtpx="http://www.garmin.com/xmlschemas/TrackPointExtension/v1">
            <gpxtpx:hr>96</gpxtpx:hr>
          </gpxtpx:TrackPointExtension>
        </extensions>
      </trkpt>
      <trkpt lat="45.90594" lon="6.47075">
        <ele>1408</ele>
        <time>2017-11-18T10:40:07Z</time>
        <extensions>
          <gpxtpx:TrackPointExtension xmlns:gpxtpx="http://www.garmin.com/xmlschemas/TrackPointExtension/v1">
            <gpxtpx:hr>96</gpxtpx:hr>
          </gpxtpx:TrackPointExtension>
        </extensions>
      </trkpt>
      <trkpt lat="45.9062" lon="6.47066">
        <ele>1403.8</ele>
        <time>2017-11-18T10:40:12Z</time>
        <extensions>
          <gpxtpx:TrackPointExtension xmlns:gpxtpx="http://www.garmin.com/xmlschemas/TrackPointExtension/v1">
            <gpxtpx:hr>96</gpxtpx:hr>
          </gpxtpx:TrackPointExtension>
        </extensions>
      </trkpt>
      <trkpt lat="45.90639" lon="6.47074">
        <ele>1400.4</ele>
        <time>2017-11-18T10:40:17Z</time>
        <extensions>
          <gpxtpx:TrackPointExtension xmlns:gpxtpx="http://www.garmin.com/xmlschemas/TrackPointExtension/v1">
            <gpxtpx:hr>96</gpxtpx:hr>
          </gpxtpx:TrackPointExtension>
        </extensions>
      </trkpt>
      <trkpt lat="45.90664" lon="6.47079">
        <ele>1397.2</ele>
        <time>2017-11-18T10:40:22Z</time>
        <extensions>
          <gpxtpx:TrackPointExtension xmlns:gpxtpx="http://www.garmin.com/xmlschemas/TrackPointExtension/v1">
            <gpxtpx:hr>96</gpxtpx:hr>
          </gpxtpx:TrackPointExtension>
        </extensions>
      </trkpt>
      <trkpt lat="45.90684" lon="6.47086">
        <ele>1394.8</ele>
        <time>2017-11-18T10:40:27Z</time>
        <extensions>
          <gpxtpx:TrackPointExtension xmlns:gpxtpx="http://www.garmin.com/xmlschemas/TrackPointExtension/v1">
            <gpxtpx:hr>96</gpxtpx:hr>
          </gpxtpx:TrackPointExtension>
        </extensions>
      </trkpt>
      <trkpt lat="45.90687" lon="6.47087">
        <ele>1393.2</ele>
        <time>2017-11-18T10:40:32Z</time>
        <extensions>
          <gpxtpx:TrackPointExtension xmlns:gpxtpx="http://www.garmin.com/xmlschemas/TrackPointExtension/v1">
            <gpxtpx:hr>96</gpxtpx:hr>
          </gpxtpx:TrackPointExtension>
        </extensions>
      </trkpt>
      <trkpt lat="45.90686" lon="6.47087">
        <ele>1392.8</ele>
        <time>2017-11-18T10:40:37Z</time>
        <extensions>
          <gpxtpx:TrackPointExtension xmlns:gpxtpx="http://www.garmin.com/xmlschemas/TrackPointExtension/v1">
            <gpxtpx:hr>96</gpxtpx:hr>
          </gpxtpx:TrackPointExtension>
        </extensions>
      </trkpt>
      <trkpt lat="45.90688" lon="6.47091">
        <ele>1392.5</ele>
        <time>2017-11-18T10:40:42Z</time>
        <extensions>
          <gpxtpx:TrackPointExtension xmlns:gpxtpx="http://www.garmin.com/xmlschemas/TrackPointExtension/v1">
            <gpxtpx:hr>96</gpxtpx:hr>
          </gpxtpx:TrackPointExtension>
        </extensions>
      </trkpt>
      <trkpt lat="45.90694" lon="6.47105">
        <ele>1391.5</ele>
        <time>2017-11-18T10:40:47Z</time>
        <extensions>
          <gpxtpx:TrackPointExtension xmlns:gpxtpx="http://www.garmin.com/xmlschemas/TrackPointExtension/v1">
            <gpxtpx:hr>96</gpxtpx:hr>
          </gpxtpx:TrackPointExtension>
        </extensions>
      </trkpt>
      <trkpt lat="45.90708" lon="6.47129">
        <ele>1389.2</ele>
        <time>2017-11-18T10:40:52Z</time>
        <extensions>
          <gpxtpx:TrackPointExtension xmlns:gpxtpx="http://www.garmin.com/xmlschemas/TrackPointExtension/v1">
            <gpxtpx:hr>96</gpxtpx:hr>
          </gpxtpx:TrackPointExtension>
        </extensions>
      </trkpt>
      <trkpt lat="45.90719" lon="6.47156">
        <ele>1386.4</ele>
        <time>2017-11-18T10:40:57Z</time>
        <extensions>
          <gpxtpx:TrackPointExtension xmlns:gpxtpx="http://www.garmin.com/xmlschemas/TrackPointExtension/v1">
            <gpxtpx:hr>96</gpxtpx:hr>
          </gpxtpx:TrackPointExtension>
        </extensions>
      </trkpt>
      <trkpt lat="45.90722" lon="6.47179">
        <ele>1382.6</ele>
        <time>2017-11-18T10:41:02Z</time>
        <extensions>
          <gpxtpx:TrackPointExtension xmlns:gpxtpx="http://www.garmin.com/xmlschemas/TrackPointExtension/v1">
            <gpxtpx:hr>96</gpxtpx:hr>
          </gpxtpx:TrackPointExtension>
        </extensions>
      </trkpt>
      <trkpt lat="45.90724" lon="6.47212">
        <ele>1378.9</ele>
        <time>2017-11-18T10:41:07Z</time>
        <extensions>
          <gpxtpx:TrackPointExtension xmlns:gpxtpx="http://www.garmin.com/xmlschemas/TrackPointExtension/v1">
            <gpxtpx:hr>96</gpxtpx:hr>
          </gpxtpx:TrackPointExtension>
        </extensions>
      </trkpt>
      <trkpt lat="45.9073" lon="6.47244">
        <ele>1375.5</ele>
        <time>2017-11-18T10:41:12Z</time>
        <extensions>
          <gpxtpx:TrackPointExtension xmlns:gpxtpx="http://www.garmin.com/xmlschemas/TrackPointExtension/v1">
            <gpxtpx:hr>96</gpxtpx:hr>
          </gpxtpx:TrackPointExtension>
        </extensions>
      </trkpt>
      <trkpt lat="45.90744" lon="6.47253">
        <ele>1371</ele>
        <time>2017-11-18T10:41:17Z</time>
        <extensions>
          <gpxtpx:TrackPointExtension xmlns:gpxtpx="http://www.garmin.com/xmlschemas/TrackPointExtension/v1">
            <gpxtpx:hr>96</gpxtpx:hr>
          </gpxtpx:TrackPointExtension>
        </extensions>
      </trkpt>
      <trkpt lat="45.9076" lon="6.47263">
        <ele>1365.6</ele>
        <time>2017-11-18T10:41:22Z</time>
        <extensions>
          <gpxtpx:TrackPointExtension xmlns:gpxtpx="http://www.garmin.com/xmlschemas/TrackPointExtension/v1">
            <gpxtpx:hr>96</gpxtpx:hr>
          </gpxtpx:TrackPointExtension>
        </extensions>
      </trkpt>
      <trkpt lat="45.90769" lon="6.47257">
        <ele>1359.7</ele>
        <time>2017-11-18T10:41:27Z</time>
        <extensions>
          <gpxtpx:TrackPointExtension xmlns:gpxtpx="http://www.garmin.com/xmlschemas/TrackPointExtension/v1">
            <gpxtpx:hr>96</gpxtpx:hr>
          </gpxtpx:TrackPointExtension>
        </extensions>
      </trkpt>
      <trkpt lat="45.9077" lon="6.47256">
        <ele>1357.2</ele>
        <time>2017-11-18T10:41:32Z</time>
        <extensions>
          <gpxtpx:TrackPointExtension xmlns:gpxtpx="http://www.garmin.com/xmlschemas/TrackPointExtension/v1">
            <gpxtpx:hr>96</gpxtpx:hr>
          </gpxtpx:TrackPointExtension>
        </extensions>
      </trkpt>
      <trkpt lat="45.90777" lon="6.47247">
        <ele>1354.8</ele>
        <time>2017-11-18T10:41:37Z</time>
        <extensions>
          <gpxtpx:TrackPointExtension xmlns:gpxtpx="http://www.garmin.com/xmlschemas/TrackPointExtension/v1">
            <gpxtpx:hr>96</gpxtpx:hr>
          </gpxtpx:TrackPointExtension>
        </extensions>
      </trkpt>
      <trkpt lat="45.90797" lon="6.47231">
        <ele>1349.3</ele>
        <time>2017-11-18T10:41:42Z</time>
        <extensions>
          <gpxtpx:TrackPointExtension xmlns:gpxtpx="http://www.garmin.com/xmlschemas/TrackPointExtension/v1">
            <gpxtpx:hr>96</gpxtpx:hr>
          </gpxtpx:TrackPointExtension>
        </extensions>
      </trkpt>
      <trkpt lat="45.90814" lon="6.47211">
        <ele>1342.4</ele>
        <time>2017-11-18T10:41:47Z</time>
        <extensions>
          <gpxtpx:TrackPointExtension xmlns:gpxtpx="http://www.garmin.com/xmlschemas/TrackPointExtension/v1">
            <gpxtpx:hr>96</gpxtpx:hr>
          </gpxtpx:TrackPointExtension>
        </extensions>
      </trkpt>
      <trkpt lat="45.90841" lon="6.47195">
        <ele>1336.8</ele>
        <time>2017-11-18T10:41:52Z</time>
        <extensions>
          <gpxtpx:TrackPointExtension xmlns:gpxtpx="http://www.garmin.com/xmlschemas/TrackPointExtension/v1">
            <gpxtpx:hr>96</gpxtpx:hr>
          </gpxtpx:TrackPointExtension>
        </extensions>
      </trkpt>
      <trkpt lat="45.90865" lon="6.47167">
        <ele>1331.7</ele>
        <time>2017-11-18T10:41:57Z</time>
        <extensions>
          <gpxtpx:TrackPointExtension xmlns:gpxtpx="http://www.garmin.com/xmlschemas/TrackPointExtension/v1">
            <gpxtpx:hr>96</gpxtpx:hr>
          </gpxtpx:TrackPointExtension>
        </extensions>
      </trkpt>
      <trkpt lat="45.90887" lon="6.47134">
        <ele>1326.5</ele>
        <time>2017-11-18T10:42:02Z</time>
        <extensions>
          <gpxtpx:TrackPointExtension xmlns:gpxtpx="http://www.garmin.com/xmlschemas/TrackPointExtension/v1">
            <gpxtpx:hr>96</gpxtpx:hr>
          </gpxtpx:TrackPointExtension>
        </extensions>
      </trkpt>
      <trkpt lat="45.90911" lon="6.471">
        <ele>1321.1</ele>
        <time>2017-11-18T10:42:07Z</time>
        <extensions>
          <gpxtpx:TrackPointExtension xmlns:gpxtpx="http://www.garmin.com/xmlschemas/TrackPointExtension/v1">
            <gpxtpx:hr>96</gpxtpx:hr>
          </gpxtpx:TrackPointExtension>
        </extensions>
      </trkpt>
      <trkpt lat="45.90933" lon="6.47071">
        <ele>1316.5</ele>
        <time>2017-11-18T10:42:12Z</time>
        <extensions>
          <gpxtpx:TrackPointExtension xmlns:gpxtpx="http://www.garmin.com/xmlschemas/TrackPointExtension/v1">
            <gpxtpx:hr>96</gpxtpx:hr>
          </gpxtpx:TrackPointExtension>
        </extensions>
      </trkpt>
      <trkpt lat="45.90951" lon="6.4705">
        <ele>1313</ele>
        <time>2017-11-18T10:42:17Z</time>
        <extensions>
          <gpxtpx:TrackPointExtension xmlns:gpxtpx="http://www.garmin.com/xmlschemas/TrackPointExtension/v1">
            <gpxtpx:hr>96</gpxtpx:hr>
          </gpxtpx:TrackPointExtension>
        </extensions>
      </trkpt>
      <trkpt lat="45.90966" lon="6.47031">
        <ele>1310.8</ele>
        <time>2017-11-18T10:42:22Z</time>
        <extensions>
          <gpxtpx:TrackPointExtension xmlns:gpxtpx="http://www.garmin.com/xmlschemas/TrackPointExtension/v1">
            <gpxtpx:hr>96</gpxtpx:hr>
          </gpxtpx:TrackPointExtension>
        </extensions>
      </trkpt>
      <trkpt lat="45.90979" lon="6.47017">
        <ele>1309.4</ele>
        <time>2017-11-18T10:42:27Z</time>
        <extensions>
          <gpxtpx:TrackPointExtension xmlns:gpxtpx="http://www.garmin.com/xmlschemas/TrackPointExtension/v1">
            <gpxtpx:hr>96</gpxtpx:hr>
          </gpxtpx:TrackPointExtension>
        </extensions>
      </trkpt>
      <trkpt lat="45.90988" lon="6.47003">
        <ele>1308</ele>
        <time>2017-11-18T10:42:32Z</time>
        <extensions>
          <gpxtpx:TrackPointExtension xmlns:gpxtpx="http://www.garmin.com/xmlschemas/TrackPointExtension/v1">
            <gpxtpx:hr>96</gpxtpx:hr>
          </gpxtpx:TrackPointExtension>
        </extensions>
      </trkpt>
      <trkpt lat="45.90995" lon="6.46971">
        <ele>1305.2</ele>
        <time>2017-11-18T10:42:37Z</time>
        <extensions>
          <gpxtpx:TrackPointExtension xmlns:gpxtpx="http://www.garmin.com/xmlschemas/TrackPointExtension/v1">
            <gpxtpx:hr>96</gpxtpx:hr>
          </gpxtpx:TrackPointExtension>
        </extensions>
      </trkpt>
      <trkpt lat="45.91007" lon="6.46935">
        <ele>1301.6</ele>
        <time>2017-11-18T10:42:42Z</time>
        <extensions>
          <gpxtpx:TrackPointExtension xmlns:gpxtpx="http://www.garmin.com/xmlschemas/TrackPointExtension/v1">
            <gpxtpx:hr>96</gpxtpx:hr>
          </gpxtpx:TrackPointExtension>
        </extensions>
      </trkpt>
      <trkpt lat="45.91017" lon="6.46901">
        <ele>1296.6</ele>
        <time>2017-11-18T10:42:47Z</time>
        <extensions>
          <gpxtpx:TrackPointExtension xmlns:gpxtpx="http://www.garmin.com/xmlschemas/TrackPointExtension/v1">
            <gpxtpx:hr>96</gpxtpx:hr>
          </gpxtpx:TrackPointExtension>
        </extensions>
      </trkpt>
      <trkpt lat="45.91031" lon="6.46863">
        <ele>1291.1</ele>
        <time>2017-11-18T10:42:52Z</time>
        <extensions>
          <gpxtpx:TrackPointExtension xmlns:gpxtpx="http://www.garmin.com/xmlschemas/TrackPointExtension/v1">
            <gpxtpx:hr>96</gpxtpx:hr>
          </gpxtpx:TrackPointExtension>
        </extensions>
      </trkpt>
      <trkpt lat="45.91037" lon="6.46829">
        <ele>1286.9</ele>
        <time>2017-11-18T10:42:57Z</time>
        <extensions>
          <gpxtpx:TrackPointExtension xmlns:gpxtpx="http://www.garmin.com/xmlschemas/TrackPointExtension/v1">
            <gpxtpx:hr>96</gpxtpx:hr>
          </gpxtpx:TrackPointExtension>
        </extensions>
      </trkpt>
      <trkpt lat="45.91042" lon="6.46809">
        <ele>1285.1</ele>
        <time>2017-11-18T10:43:02Z</time>
        <extensions>
          <gpxtpx:TrackPointExtension xmlns:gpxtpx="http://www.garmin.com/xmlschemas/TrackPointExtension/v1">
            <gpxtpx:hr>96</gpxtpx:hr>
          </gpxtpx:TrackPointExtension>
        </extensions>
      </trkpt>
      <trkpt lat="45.91045" lon="6.46792">
        <ele>1284.2</ele>
        <time>2017-11-18T10:43:07Z</time>
        <extensions>
          <gpxtpx:TrackPointExtension xmlns:gpxtpx="http://www.garmin.com/xmlschemas/TrackPointExtension/v1">
            <gpxtpx:hr>96</gpxtpx:hr>
          </gpxtpx:TrackPointExtension>
        </extensions>
      </trkpt>
      <trkpt lat="45.91047" lon="6.46774">
        <ele>1283.6</ele>
        <time>2017-11-18T10:43:12Z</time>
        <extensions>
          <gpxtpx:TrackPointExtension xmlns:gpxtpx="http://www.garmin.com/xmlschemas/TrackPointExtension/v1">
            <gpxtpx:hr>96</gpxtpx:hr>
          </gpxtpx:TrackPointExtension>
        </extensions>
      </trkpt>
      <trkpt lat="45.91052" lon="6.46747">
        <ele>1282</ele>
        <time>2017-11-18T10:43:17Z</time>
        <extensions>
          <gpxtpx:TrackPointExtension xmlns:gpxtpx="http://www.garmin.com/xmlschemas/TrackPointExtension/v1">
            <gpxtpx:hr>96</gpxtpx:hr>
          </gpxtpx:TrackPointExtension>
        </extensions>
      </trkpt>
      <trkpt lat="45.91058" lon="6.46725">
        <ele>1280.9</ele>
        <time>2017-11-18T10:43:22Z</time>
        <extensions>
          <gpxtpx:TrackPointExtension xmlns:gpxtpx="http://www.garmin.com/xmlschemas/TrackPointExtension/v1">
            <gpxtpx:hr>96</gpxtpx:hr>
          </gpxtpx:TrackPointExtension>
        </extensions>
      </trkpt>
      <trkpt lat="45.91059" lon="6.46724">
        <ele>1280.4</ele>
        <time>2017-11-18T10:43:27Z</time>
        <extensions>
          <gpxtpx:TrackPointExtension xmlns:gpxtpx="http://www.garmin.com/xmlschemas/TrackPointExtension/v1">
            <gpxtpx:hr>96</gpxtpx:hr>
          </gpxtpx:TrackPointExtension>
        </extensions>
      </trkpt>
      <trkpt lat="45.91059" lon="6.46724">
        <ele>1280.3</ele>
        <time>2017-11-18T10:43:32Z</time>
        <extensions>
          <gpxtpx:TrackPointExtension xmlns:gpxtpx="http://www.garmin.com/xmlschemas/TrackPointExtension/v1">
            <gpxtpx:hr>96</gpxtpx:hr>
          </gpxtpx:TrackPointExtension>
        </extensions>
      </trkpt>
      <trkpt lat="45.91059" lon="6.46724">
        <ele>1280.4</ele>
        <time>2017-11-18T10:43:37Z</time>
        <extensions>
          <gpxtpx:TrackPointExtension xmlns:gpxtpx="http://www.garmin.com/xmlschemas/TrackPointExtension/v1">
            <gpxtpx:hr>96</gpxtpx:hr>
          </gpxtpx:TrackPointExtension>
        </extensions>
      </trkpt>
      <trkpt lat="45.91059" lon="6.46724">
        <ele>1280.1</ele>
        <time>2017-11-18T10:43:42Z</time>
        <extensions>
          <gpxtpx:TrackPointExtension xmlns:gpxtpx="http://www.garmin.com/xmlschemas/TrackPointExtension/v1">
            <gpxtpx:hr>96</gpxtpx:hr>
          </gpxtpx:TrackPointExtension>
        </extensions>
      </trkpt>
      <trkpt lat="45.91059" lon="6.46724">
        <ele>1280.1</ele>
        <time>2017-11-18T10:43:47Z</time>
        <extensions>
          <gpxtpx:TrackPointExtension xmlns:gpxtpx="http://www.garmin.com/xmlschemas/TrackPointExtension/v1">
            <gpxtpx:hr>96</gpxtpx:hr>
          </gpxtpx:TrackPointExtension>
        </extensions>
      </trkpt>
      <trkpt lat="45.91059" lon="6.46725">
        <ele>1280.1</ele>
        <time>2017-11-18T10:43:52Z</time>
        <extensions>
          <gpxtpx:TrackPointExtension xmlns:gpxtpx="http://www.garmin.com/xmlschemas/TrackPointExtension/v1">
            <gpxtpx:hr>96</gpxtpx:hr>
          </gpxtpx:TrackPointExtension>
        </extensions>
      </trkpt>
      <trkpt lat="45.91059" lon="6.46725">
        <ele>1280.1</ele>
        <time>2017-11-18T10:43:57Z</time>
        <extensions>
          <gpxtpx:TrackPointExtension xmlns:gpxtpx="http://www.garmin.com/xmlschemas/TrackPointExtension/v1">
            <gpxtpx:hr>96</gpxtpx:hr>
          </gpxtpx:TrackPointExtension>
        </extensions>
      </trkpt>
      <trkpt lat="45.9106" lon="6.46721">
        <ele>1280.3</ele>
        <time>2017-11-18T10:44:02Z</time>
        <extensions>
          <gpxtpx:TrackPointExtension xmlns:gpxtpx="http://www.garmin.com/xmlschemas/TrackPointExtension/v1">
            <gpxtpx:hr>96</gpxtpx:hr>
          </gpxtpx:TrackPointExtension>
        </extensions>
      </trkpt>
      <trkpt lat="45.91061" lon="6.46714">
        <ele>1280.2</ele>
        <time>2017-11-18T10:44:07Z</time>
        <extensions>
          <gpxtpx:TrackPointExtension xmlns:gpxtpx="http://www.garmin.com/xmlschemas/TrackPointExtension/v1">
            <gpxtpx:hr>96</gpxtpx:hr>
          </gpxtpx:TrackPointExtension>
        </extensions>
      </trkpt>
      <trkpt lat="45.91062" lon="6.46706">
        <ele>1280.8</ele>
        <time>2017-11-18T10:44:12Z</time>
        <extensions>
          <gpxtpx:TrackPointExtension xmlns:gpxtpx="http://www.garmin.com/xmlschemas/TrackPointExtension/v1">
            <gpxtpx:hr>96</gpxtpx:hr>
          </gpxtpx:TrackPointExtension>
        </extensions>
      </trkpt>
      <trkpt lat="45.91064" lon="6.467">
        <ele>1280.9</ele>
        <time>2017-11-18T10:44:17Z</time>
        <extensions>
          <gpxtpx:TrackPointExtension xmlns:gpxtpx="http://www.garmin.com/xmlschemas/TrackPointExtension/v1">
            <gpxtpx:hr>96</gpxtpx:hr>
          </gpxtpx:TrackPointExtension>
        </extensions>
      </trkpt>
      <trkpt lat="45.91065" lon="6.46693">
        <ele>1280.5</ele>
        <time>2017-11-18T10:44:22Z</time>
        <extensions>
          <gpxtpx:TrackPointExtension xmlns:gpxtpx="http://www.garmin.com/xmlschemas/TrackPointExtension/v1">
            <gpxtpx:hr>96</gpxtpx:hr>
          </gpxtpx:TrackPointExtension>
        </extensions>
      </trkpt>
      <trkpt lat="45.91067" lon="6.46685">
        <ele>1280.4</ele>
        <time>2017-11-18T10:44:27Z</time>
        <extensions>
          <gpxtpx:TrackPointExtension xmlns:gpxtpx="http://www.garmin.com/xmlschemas/TrackPointExtension/v1">
            <gpxtpx:hr>96</gpxtpx:hr>
          </gpxtpx:TrackPointExtension>
        </extensions>
      </trkpt>
      <trkpt lat="45.91069" lon="6.46678">
        <ele>1280.7</ele>
        <time>2017-11-18T10:44:32Z</time>
        <extensions>
          <gpxtpx:TrackPointExtension xmlns:gpxtpx="http://www.garmin.com/xmlschemas/TrackPointExtension/v1">
            <gpxtpx:hr>96</gpxtpx:hr>
          </gpxtpx:TrackPointExtension>
        </extensions>
      </trkpt>
      <trkpt lat="45.91072" lon="6.4667">
        <ele>1280.3</ele>
        <time>2017-11-18T10:44:37Z</time>
        <extensions>
          <gpxtpx:TrackPointExtension xmlns:gpxtpx="http://www.garmin.com/xmlschemas/TrackPointExtension/v1">
            <gpxtpx:hr>96</gpxtpx:hr>
          </gpxtpx:TrackPointExtension>
        </extensions>
      </trkpt>
      <trkpt lat="45.91074" lon="6.46661">
        <ele>1280.4</ele>
        <time>2017-11-18T10:44:42Z</time>
        <extensions>
          <gpxtpx:TrackPointExtension xmlns:gpxtpx="http://www.garmin.com/xmlschemas/TrackPointExtension/v1">
            <gpxtpx:hr>96</gpxtpx:hr>
          </gpxtpx:TrackPointExtension>
        </extensions>
      </trkpt>
      <trkpt lat="45.91075" lon="6.46651">
        <ele>1280.3</ele>
        <time>2017-11-18T10:44:47Z</time>
        <extensions>
          <gpxtpx:TrackPointExtension xmlns:gpxtpx="http://www.garmin.com/xmlschemas/TrackPointExtension/v1">
            <gpxtpx:hr>96</gpxtpx:hr>
          </gpxtpx:TrackPointExtension>
        </extensions>
      </trkpt>
      <trkpt lat="45.91077" lon="6.46641">
        <ele>1279.9</ele>
        <time>2017-11-18T10:44:52Z</time>
        <extensions>
          <gpxtpx:TrackPointExtension xmlns:gpxtpx="http://www.garmin.com/xmlschemas/TrackPointExtension/v1">
            <gpxtpx:hr>96</gpxtpx:hr>
          </gpxtpx:TrackPointExtension>
        </extensions>
      </trkpt>
      <trkpt lat="45.91079" lon="6.46633">
        <ele>1279.7</ele>
        <time>2017-11-18T10:44:57Z</time>
        <extensions>
          <gpxtpx:TrackPointExtension xmlns:gpxtpx="http://www.garmin.com/xmlschemas/TrackPointExtension/v1">
            <gpxtpx:hr>96</gpxtpx:hr>
          </gpxtpx:TrackPointExtension>
        </extensions>
      </trkpt>
      <trkpt lat="45.91081" lon="6.46623">
        <ele>1279.8</ele>
        <time>2017-11-18T10:45:02Z</time>
        <extensions>
          <gpxtpx:TrackPointExtension xmlns:gpxtpx="http://www.garmin.com/xmlschemas/TrackPointExtension/v1">
            <gpxtpx:hr>96</gpxtpx:hr>
          </gpxtpx:TrackPointExtension>
        </extensions>
      </trkpt>
      <trkpt lat="45.91083" lon="6.46614">
        <ele>1279.4</ele>
        <time>2017-11-18T10:45:07Z</time>
        <extensions>
          <gpxtpx:TrackPointExtension xmlns:gpxtpx="http://www.garmin.com/xmlschemas/TrackPointExtension/v1">
            <gpxtpx:hr>96</gpxtpx:hr>
          </gpxtpx:TrackPointExtension>
        </extensions>
      </trkpt>
      <trkpt lat="45.91084" lon="6.46604">
        <ele>1279</ele>
        <time>2017-11-18T10:45:12Z</time>
        <extensions>
          <gpxtpx:TrackPointExtension xmlns:gpxtpx="http://www.garmin.com/xmlschemas/TrackPointExtension/v1">
            <gpxtpx:hr>96</gpxtpx:hr>
          </gpxtpx:TrackPointExtension>
        </extensions>
      </trkpt>
      <trkpt lat="45.91086" lon="6.46595">
        <ele>1278.7</ele>
        <time>2017-11-18T10:45:17Z</time>
        <extensions>
          <gpxtpx:TrackPointExtension xmlns:gpxtpx="http://www.garmin.com/xmlschemas/TrackPointExtension/v1">
            <gpxtpx:hr>96</gpxtpx:hr>
          </gpxtpx:TrackPointExtension>
        </extensions>
      </trkpt>
      <trkpt lat="45.91087" lon="6.46595">
        <ele>1279</ele>
        <time>2017-11-18T10:45:22Z</time>
        <extensions>
          <gpxtpx:TrackPointExtension xmlns:gpxtpx="http://www.garmin.com/xmlschemas/TrackPointExtension/v1">
            <gpxtpx:hr>96</gpxtpx:hr>
          </gpxtpx:TrackPointExtension>
        </extensions>
      </trkpt>
      <trkpt lat="45.91087" lon="6.46594">
        <ele>1278.8</ele>
        <time>2017-11-18T10:45:27Z</time>
        <extensions>
          <gpxtpx:TrackPointExtension xmlns:gpxtpx="http://www.garmin.com/xmlschemas/TrackPointExtension/v1">
            <gpxtpx:hr>96</gpxtpx:hr>
          </gpxtpx:TrackPointExtension>
        </extensions>
      </trkpt>
      <trkpt lat="45.91087" lon="6.46594">
        <ele>1278.8</ele>
        <time>2017-11-18T10:45:32Z</time>
        <extensions>
          <gpxtpx:TrackPointExtension xmlns:gpxtpx="http://www.garmin.com/xmlschemas/TrackPointExtension/v1">
            <gpxtpx:hr>96</gpxtpx:hr>
          </gpxtpx:TrackPointExtension>
        </extensions>
      </trkpt>
      <trkpt lat="45.91087" lon="6.46594">
        <ele>1278.4</ele>
        <time>2017-11-18T10:45:37Z</time>
        <extensions>
          <gpxtpx:TrackPointExtension xmlns:gpxtpx="http://www.garmin.com/xmlschemas/TrackPointExtension/v1">
            <gpxtpx:hr>83</gpxtpx:hr>
          </gpxtpx:TrackPointExtension>
        </extensions>
      </trkpt>
      <trkpt lat="45.91087" lon="6.46594">
        <ele>1278.2</ele>
        <time>2017-11-18T10:45:42Z</time>
        <extensions>
          <gpxtpx:TrackPointExtension xmlns:gpxtpx="http://www.garmin.com/xmlschemas/TrackPointExtension/v1">
            <gpxtpx:hr>86</gpxtpx:hr>
          </gpxtpx:TrackPointExtension>
        </extensions>
      </trkpt>
      <trkpt lat="45.91087" lon="6.46594">
        <ele>1278.1</ele>
        <time>2017-11-18T10:45:47Z</time>
        <extensions>
          <gpxtpx:TrackPointExtension xmlns:gpxtpx="http://www.garmin.com/xmlschemas/TrackPointExtension/v1">
            <gpxtpx:hr>86</gpxtpx:hr>
          </gpxtpx:TrackPointExtension>
        </extensions>
      </trkpt>
      <trkpt lat="45.91087" lon="6.46593">
        <ele>1278.3</ele>
        <time>2017-11-18T10:45:52Z</time>
        <extensions>
          <gpxtpx:TrackPointExtension xmlns:gpxtpx="http://www.garmin.com/xmlschemas/TrackPointExtension/v1">
            <gpxtpx:hr>86</gpxtpx:hr>
          </gpxtpx:TrackPointExtension>
        </extensions>
      </trkpt>
      <trkpt lat="45.91087" lon="6.46592">
        <ele>1278.5</ele>
        <time>2017-11-18T10:45:57Z</time>
        <extensions>
          <gpxtpx:TrackPointExtension xmlns:gpxtpx="http://www.garmin.com/xmlschemas/TrackPointExtension/v1">
            <gpxtpx:hr>86</gpxtpx:hr>
          </gpxtpx:TrackPointExtension>
        </extensions>
      </trkpt>
      <trkpt lat="45.91087" lon="6.46592">
        <ele>1278.6</ele>
        <time>2017-11-18T10:46:02Z</time>
        <extensions>
          <gpxtpx:TrackPointExtension xmlns:gpxtpx="http://www.garmin.com/xmlschemas/TrackPointExtension/v1">
            <gpxtpx:hr>86</gpxtpx:hr>
          </gpxtpx:TrackPointExtension>
        </extensions>
      </trkpt>
      <trkpt lat="45.91087" lon="6.46592">
        <ele>1278.4</ele>
        <time>2017-11-18T10:46:07Z</time>
        <extensions>
          <gpxtpx:TrackPointExtension xmlns:gpxtpx="http://www.garmin.com/xmlschemas/TrackPointExtension/v1">
            <gpxtpx:hr>86</gpxtpx:hr>
          </gpxtpx:TrackPointExtension>
        </extensions>
      </trkpt>
      <trkpt lat="45.91087" lon="6.46592">
        <ele>1278.4</ele>
        <time>2017-11-18T10:46:07Z</time>
        <extensions>
          <gpxtpx:TrackPointExtension xmlns:gpxtpx="http://www.garmin.com/xmlschemas/TrackPointExtension/v1">
            <gpxtpx:hr>86</gpxtpx:hr>
          </gpxtpx:TrackPointExtension>
        </extensions>
      </trkpt>
      <trkpt lat="45.91087" lon="6.46592">
        <ele>1278.4</ele>
        <time>2017-11-18T10:46:07Z</time>
        <extensions>
          <gpxtpx:TrackPointExtension xmlns:gpxtpx="http://www.garmin.com/xmlschemas/TrackPointExtension/v1">
            <gpxtpx:hr>86</gpxtpx:hr>
          </gpxtpx:TrackPointExtension>
        </extensions>
      </trkpt>
    </trkseg>
  </trk>
</gpx>